<?xml version="1.0" encoding="utf-8"?>
<gpx xmlns:xsi="http://www.w3.org/2001/XMLSchema-instance" xmlns:xsd="http://www.w3.org/2001/XMLSchema" version="1.1" creator="www.trackr.nl 1.0.0" xmlns="http://www.topografix.com/GPX/1/1">
 <metadata>
 <link href="http://www.trackr.nl">
 <text>trackr!</text>
 </link>
 <time>2011-05-22T09:28:40.4928Z</time>
 </metadata>
 <trk>
 <name />
 <desc />
 <trkseg>
 <trkpt lat="45.554702" lon="4.122242">
 <time>2011-05-19T08:17:41.9Z</time>
 </trkpt>
 <trkpt lat="45.55483" lon="4.122351">
 <time>2011-05-19T08:20:51.9Z</time>
 </trkpt>
 <trkpt lat="45.555271" lon="4.122637">
 <time>2011-05-19T08:20:56.9Z</time>
 </trkpt>
 <trkpt lat="45.555481" lon="4.122729">
 <time>2011-05-19T08:21:01.9Z</time>
 </trkpt>
 <trkpt lat="45.555557" lon="4.12256">
 <time>2011-05-19T08:21:16.9Z</time>
 </trkpt>
 <trkpt lat="45.555738" lon="4.122444">
 <time>2011-05-19T08:21:30.9Z</time>
 </trkpt>
 <trkpt lat="45.556175" lon="4.122015">
 <time>2011-05-19T08:21:36.9Z</time>
 </trkpt>
 <trkpt lat="45.556319" lon="4.121817">
 <time>2011-05-19T08:21:41.9Z</time>
 </trkpt>
 <trkpt lat="45.556244" lon="4.121513">
 <time>2011-05-19T08:21:45.9Z</time>
 </trkpt>
 <trkpt lat="45.555998" lon="4.121196">
 <time>2011-05-19T08:21:50.2Z</time>
 </trkpt>
 <trkpt lat="45.555275" lon="4.120904">
 <time>2011-05-19T08:21:56.2Z</time>
 </trkpt>
 <trkpt lat="45.554905" lon="4.120886">
 <time>2011-05-19T08:22:00.2Z</time>
 </trkpt>
 <trkpt lat="45.554646" lon="4.121213">
 <time>2011-05-19T08:22:05.2Z</time>
 </trkpt>
 <trkpt lat="45.554365" lon="4.121586">
 <time>2011-05-19T08:22:10.2Z</time>
 </trkpt>
 <trkpt lat="45.55408" lon="4.121451">
 <time>2011-05-19T08:22:15.2Z</time>
 </trkpt>
 <trkpt lat="45.553804" lon="4.121115">
 <time>2011-05-19T08:22:19.2Z</time>
 </trkpt>
 <trkpt lat="45.553585" lon="4.12108">
 <time>2011-05-19T08:22:23.9Z</time>
 </trkpt>
 <trkpt lat="45.553392" lon="4.121802">
 <time>2011-05-19T08:22:28.9Z</time>
 </trkpt>
 <trkpt lat="45.553126" lon="4.122701">
 <time>2011-05-19T08:22:32.9Z</time>
 </trkpt>
 <trkpt lat="45.55197" lon="4.124994">
 <time>2011-05-19T08:22:41.9Z</time>
 </trkpt>
 <trkpt lat="45.55151" lon="4.125902">
 <time>2011-05-19T08:22:47.1Z</time>
 </trkpt>
 <trkpt lat="45.551369" lon="4.12624">
 <time>2011-05-19T08:22:51.3Z</time>
 </trkpt>
 <trkpt lat="45.551139" lon="4.126824">
 <time>2011-05-19T08:22:56Z</time>
 </trkpt>
 <trkpt lat="45.550875" lon="4.12784">
 <time>2011-05-19T08:23:00.9Z</time>
 </trkpt>
 <trkpt lat="45.550284" lon="4.129129">
 <time>2011-05-19T08:23:06.9Z</time>
 </trkpt>
 <trkpt lat="45.549959" lon="4.129588">
 <time>2011-05-19T08:23:11.2Z</time>
 </trkpt>
 <trkpt lat="45.549279" lon="4.130222">
 <time>2011-05-19T08:23:15.2Z</time>
 </trkpt>
 <trkpt lat="45.546362" lon="4.132759">
 <time>2011-05-19T08:23:37.9Z</time>
 </trkpt>
 <trkpt lat="45.545785" lon="4.133432">
 <time>2011-05-19T08:23:43.2Z</time>
 </trkpt>
 <trkpt lat="45.545445" lon="4.133837">
 <time>2011-05-19T08:23:48.3Z</time>
 </trkpt>
 <trkpt lat="45.543831" lon="4.13568">
 <time>2011-05-19T08:24:05.3Z</time>
 </trkpt>
 <trkpt lat="45.541582" lon="4.138804">
 <time>2011-05-19T08:24:20.9Z</time>
 </trkpt>
 <trkpt lat="45.541241" lon="4.139592">
 <time>2011-05-19T08:24:25.3Z</time>
 </trkpt>
 <trkpt lat="45.541109" lon="4.141129">
 <time>2011-05-19T08:24:30.2Z</time>
 </trkpt>
 <trkpt lat="45.540971" lon="4.143359">
 <time>2011-05-19T08:24:35.9Z</time>
 </trkpt>
 <trkpt lat="45.540731" lon="4.144597">
 <time>2011-05-19T08:24:40.9Z</time>
 </trkpt>
 <trkpt lat="45.540145" lon="4.145892">
 <time>2011-05-19T08:24:44.9Z</time>
 </trkpt>
 <trkpt lat="45.537267" lon="4.149013">
 <time>2011-05-19T08:25:00.9Z</time>
 </trkpt>
 <trkpt lat="45.536041" lon="4.149974">
 <time>2011-05-19T08:25:06.9Z</time>
 </trkpt>
 <trkpt lat="45.535286" lon="4.150395">
 <time>2011-05-19T08:25:11.9Z</time>
 </trkpt>
 <trkpt lat="45.53443" lon="4.150853">
 <time>2011-05-19T08:25:16.2Z</time>
 </trkpt>
 <trkpt lat="45.533355" lon="4.152267">
 <time>2011-05-19T08:25:21.9Z</time>
 </trkpt>
 <trkpt lat="45.532135" lon="4.154296">
 <time>2011-05-19T08:25:28.9Z</time>
 </trkpt>
 <trkpt lat="45.528654" lon="4.15852">
 <time>2011-05-19T08:25:49.2Z</time>
 </trkpt>
 <trkpt lat="45.527756" lon="4.159174">
 <time>2011-05-19T08:25:54.2Z</time>
 </trkpt>
 <trkpt lat="45.525108" lon="4.15982">
 <time>2011-05-19T08:26:03.9Z</time>
 </trkpt>
 <trkpt lat="45.524297" lon="4.159902">
 <time>2011-05-19T08:26:08.3Z</time>
 </trkpt>
 <trkpt lat="45.52313" lon="4.160126">
 <time>2011-05-19T08:26:13.3Z</time>
 </trkpt>
 <trkpt lat="45.522246" lon="4.159948">
 <time>2011-05-19T08:26:17.3Z</time>
 </trkpt>
 <trkpt lat="45.521174" lon="4.159879">
 <time>2011-05-19T08:26:22.2Z</time>
 </trkpt>
 <trkpt lat="45.519976" lon="4.159561">
 <time>2011-05-19T08:26:27.2Z</time>
 </trkpt>
 <trkpt lat="45.519031" lon="4.159479">
 <time>2011-05-19T08:26:31.2Z</time>
 </trkpt>
 <trkpt lat="45.513542" lon="4.159875">
 <time>2011-05-19T08:26:53.9Z</time>
 </trkpt>
 <trkpt lat="45.512802" lon="4.16002">
 <time>2011-05-19T08:26:58.3Z</time>
 </trkpt>
 <trkpt lat="45.511303" lon="4.160159">
 <time>2011-05-19T08:27:03.3Z</time>
 </trkpt>
 <trkpt lat="45.510159" lon="4.160439">
 <time>2011-05-19T08:27:08.3Z</time>
 </trkpt>
 <trkpt lat="45.507979" lon="4.160122">
 <time>2011-05-19T08:27:17.9Z</time>
 </trkpt>
 <trkpt lat="45.507211" lon="4.160267">
 <time>2011-05-19T08:27:22.9Z</time>
 </trkpt>
 <trkpt lat="45.506266" lon="4.160686">
 <time>2011-05-19T08:27:27.9Z</time>
 </trkpt>
 <trkpt lat="45.505569" lon="4.161129">
 <time>2011-05-19T08:27:32.3Z</time>
 </trkpt>
 <trkpt lat="45.50474" lon="4.161671">
 <time>2011-05-19T08:27:36.3Z</time>
 </trkpt>
 <trkpt lat="45.504093" lon="4.162132">
 <time>2011-05-19T08:27:40.9Z</time>
 </trkpt>
 <trkpt lat="45.503394" lon="4.162907">
 <time>2011-05-19T08:27:45.9Z</time>
 </trkpt>
 <trkpt lat="45.502754" lon="4.163254">
 <time>2011-05-19T08:27:50.3Z</time>
 </trkpt>
 <trkpt lat="45.502242" lon="4.163518">
 <time>2011-05-19T08:27:55.9Z</time>
 </trkpt>
 <trkpt lat="45.501834" lon="4.163217">
 <time>2011-05-19T08:28:00.9Z</time>
 </trkpt>
 <trkpt lat="45.50134" lon="4.162551">
 <time>2011-05-19T08:28:08.9Z</time>
 </trkpt>
 <trkpt lat="45.501223" lon="4.162377">
 <time>2011-05-19T08:28:23.3Z</time>
 </trkpt>
 <trkpt lat="45.501086" lon="4.162299">
 <time>2011-05-19T08:28:28.3Z</time>
 </trkpt>
 <trkpt lat="45.500797" lon="4.162373">
 <time>2011-05-19T08:28:33.3Z</time>
 </trkpt>
 <trkpt lat="45.500495" lon="4.16231">
 <time>2011-05-19T08:28:38.3Z</time>
 </trkpt>
 <trkpt lat="45.500027" lon="4.162656">
 <time>2011-05-19T08:28:43.2Z</time>
 </trkpt>
 <trkpt lat="45.499545" lon="4.16284">
 <time>2011-05-19T08:28:48.3Z</time>
 </trkpt>
 <trkpt lat="45.499068" lon="4.16318">
 <time>2011-05-19T08:28:53.3Z</time>
 </trkpt>
 <trkpt lat="45.498314" lon="4.163628">
 <time>2011-05-19T08:28:59.3Z</time>
 </trkpt>
 <trkpt lat="45.498026" lon="4.164004">
 <time>2011-05-19T08:29:04.3Z</time>
 </trkpt>
 <trkpt lat="45.497826" lon="4.164878">
 <time>2011-05-19T08:29:09.9Z</time>
 </trkpt>
 <trkpt lat="45.49774" lon="4.165364">
 <time>2011-05-19T08:29:15.3Z</time>
 </trkpt>
 <trkpt lat="45.497695" lon="4.165552">
 <time>2011-05-19T08:30:06.9Z</time>
 </trkpt>
 <trkpt lat="45.497537" lon="4.165954">
 <time>2011-05-19T08:30:11.9Z</time>
 </trkpt>
 <trkpt lat="45.497311" lon="4.166904">
 <time>2011-05-19T08:30:19.9Z</time>
 </trkpt>
 <trkpt lat="45.497151" lon="4.167312">
 <time>2011-05-19T08:30:24.9Z</time>
 </trkpt>
 <trkpt lat="45.497074" lon="4.167841">
 <time>2011-05-19T08:30:28.9Z</time>
 </trkpt>
 <trkpt lat="45.496986" lon="4.168215">
 <time>2011-05-19T08:30:33.9Z</time>
 </trkpt>
 <trkpt lat="45.496896" lon="4.168558">
 <time>2011-05-19T08:30:37.9Z</time>
 </trkpt>
 <trkpt lat="45.496681" lon="4.16917">
 <time>2011-05-19T08:30:41.2Z</time>
 </trkpt>
 <trkpt lat="45.496303" lon="4.169861">
 <time>2011-05-19T08:30:46.9Z</time>
 </trkpt>
 <trkpt lat="45.495983" lon="4.170412">
 <time>2011-05-19T08:30:50.9Z</time>
 </trkpt>
 <trkpt lat="45.495638" lon="4.171318">
 <time>2011-05-19T08:30:55.9Z</time>
 </trkpt>
 <trkpt lat="45.495486" lon="4.171979">
 <time>2011-05-19T08:31:00.9Z</time>
 </trkpt>
 <trkpt lat="45.495425" lon="4.17261">
 <time>2011-05-19T08:31:05.3Z</time>
 </trkpt>
 <trkpt lat="45.495565" lon="4.173314">
 <time>2011-05-19T08:31:10.3Z</time>
 </trkpt>
 <trkpt lat="45.495779" lon="4.174837">
 <time>2011-05-19T08:31:16.3Z</time>
 </trkpt>
 <trkpt lat="45.495844" lon="4.176495">
 <time>2011-05-19T08:31:22.9Z</time>
 </trkpt>
 <trkpt lat="45.495783" lon="4.177311">
 <time>2011-05-19T08:31:27.9Z</time>
 </trkpt>
 <trkpt lat="45.495484" lon="4.178256">
 <time>2011-05-19T08:31:32.9Z</time>
 </trkpt>
 <trkpt lat="45.495143" lon="4.17923">
 <time>2011-05-19T08:31:37.9Z</time>
 </trkpt>
 <trkpt lat="45.494995" lon="4.180048">
 <time>2011-05-19T08:31:41.9Z</time>
 </trkpt>
 <trkpt lat="45.495194" lon="4.18101">
 <time>2011-05-19T08:31:46.9Z</time>
 </trkpt>
 <trkpt lat="45.495713" lon="4.181897">
 <time>2011-05-19T08:31:51.9Z</time>
 </trkpt>
 <trkpt lat="45.49696" lon="4.184834">
 <time>2011-05-19T08:32:05.9Z</time>
 </trkpt>
 <trkpt lat="45.497346" lon="4.185267">
 <time>2011-05-19T08:32:10.9Z</time>
 </trkpt>
 <trkpt lat="45.497911" lon="4.185748">
 <time>2011-05-19T08:32:15.9Z</time>
 </trkpt>
 <trkpt lat="45.498027" lon="4.185902">
 <time>2011-05-19T08:32:20.9Z</time>
 </trkpt>
 <trkpt lat="45.498339" lon="4.186495">
 <time>2011-05-19T08:32:25.9Z</time>
 </trkpt>
 <trkpt lat="45.502344" lon="4.194292">
 <time>2011-05-19T08:33:06.9Z</time>
 </trkpt>
 <trkpt lat="45.502534" lon="4.195222">
 <time>2011-05-19T08:33:11.9Z</time>
 </trkpt>
 <trkpt lat="45.501982" lon="4.196327">
 <time>2011-05-19T08:33:16.9Z</time>
 </trkpt>
 <trkpt lat="45.500797" lon="4.19731">
 <time>2011-05-19T08:33:21.9Z</time>
 </trkpt>
 <trkpt lat="45.500438" lon="4.197713">
 <time>2011-05-19T08:33:25.9Z</time>
 </trkpt>
 <trkpt lat="45.50022" lon="4.198875">
 <time>2011-05-19T08:33:30.9Z</time>
 </trkpt>
 <trkpt lat="45.499964" lon="4.202877">
 <time>2011-05-19T08:33:41.9Z</time>
 </trkpt>
 <trkpt lat="45.499975" lon="4.206356">
 <time>2011-05-19T08:33:52.9Z</time>
 </trkpt>
 <trkpt lat="45.500154" lon="4.208517">
 <time>2011-05-19T08:33:59.9Z</time>
 </trkpt>
 <trkpt lat="45.500098" lon="4.209834">
 <time>2011-05-19T08:34:04.9Z</time>
 </trkpt>
 <trkpt lat="45.498528" lon="4.222783">
 <time>2011-05-19T08:34:44.3Z</time>
 </trkpt>
 <trkpt lat="45.498177" lon="4.225455">
 <time>2011-05-19T08:34:54.9Z</time>
 </trkpt>
 <trkpt lat="45.498208" lon="4.226208">
 <time>2011-05-19T08:34:59.3Z</time>
 </trkpt>
 <trkpt lat="45.498377" lon="4.228315">
 <time>2011-05-19T08:35:10.9Z</time>
 </trkpt>
 <trkpt lat="45.498444" lon="4.229564">
 <time>2011-05-19T08:35:17.9Z</time>
 </trkpt>
 <trkpt lat="45.49845" lon="4.230237">
 <time>2011-05-19T08:35:22.9Z</time>
 </trkpt>
 <trkpt lat="45.498364" lon="4.231518">
 <time>2011-05-19T08:35:28.9Z</time>
 </trkpt>
 <trkpt lat="45.49842" lon="4.232464">
 <time>2011-05-19T08:35:33.9Z</time>
 </trkpt>
 <trkpt lat="45.498605" lon="4.233807">
 <time>2011-05-19T08:35:40.9Z</time>
 </trkpt>
 <trkpt lat="45.498985" lon="4.236132">
 <time>2011-05-19T08:35:53.9Z</time>
 </trkpt>
 <trkpt lat="45.499176" lon="4.236828">
 <time>2011-05-19T08:35:58.9Z</time>
 </trkpt>
 <trkpt lat="45.499521" lon="4.237665">
 <time>2011-05-19T08:36:04.9Z</time>
 </trkpt>
 <trkpt lat="45.499693" lon="4.238376">
 <time>2011-05-19T08:36:09.9Z</time>
 </trkpt>
 <trkpt lat="45.499937" lon="4.23996">
 <time>2011-05-19T08:36:18.9Z</time>
 </trkpt>
 <trkpt lat="45.499809" lon="4.240308">
 <time>2011-05-19T08:36:22.9Z</time>
 </trkpt>
 <trkpt lat="45.499145" lon="4.240788">
 <time>2011-05-19T08:36:30.3Z</time>
 </trkpt>
 <trkpt lat="45.498889" lon="4.241158">
 <time>2011-05-19T08:36:34.9Z</time>
 </trkpt>
 <trkpt lat="45.498756" lon="4.242029">
 <time>2011-05-19T08:36:38.9Z</time>
 </trkpt>
 <trkpt lat="45.498768" lon="4.242546">
 <time>2011-05-19T08:36:43.9Z</time>
 </trkpt>
 <trkpt lat="45.498508" lon="4.24287">
 <time>2011-05-19T08:36:49.3Z</time>
 </trkpt>
 <trkpt lat="45.497147" lon="4.243917">
 <time>2011-05-19T08:37:00.9Z</time>
 </trkpt>
 <trkpt lat="45.496642" lon="4.244152">
 <time>2011-05-19T08:37:05.9Z</time>
 </trkpt>
 <trkpt lat="45.495695" lon="4.244436">
 <time>2011-05-19T08:37:11.9Z</time>
 </trkpt>
 <trkpt lat="45.495104" lon="4.244416">
 <time>2011-05-19T08:37:16.9Z</time>
 </trkpt>
 <trkpt lat="45.493667" lon="4.243685">
 <time>2011-05-19T08:37:27.9Z</time>
 </trkpt>
 <trkpt lat="45.493413" lon="4.24369">
 <time>2011-05-19T08:37:32.9Z</time>
 </trkpt>
 <trkpt lat="45.493282" lon="4.243637">
 <time>2011-05-19T08:39:33.9Z</time>
 </trkpt>
 <trkpt lat="45.492834" lon="4.243532">
 <time>2011-05-19T08:39:38.9Z</time>
 </trkpt>
 <trkpt lat="45.492179" lon="4.243466">
 <time>2011-05-19T08:39:42.9Z</time>
 </trkpt>
 <trkpt lat="45.490367" lon="4.243436">
 <time>2011-05-19T08:39:57.9Z</time>
 </trkpt>
 <trkpt lat="45.489024" lon="4.243471">
 <time>2011-05-19T08:40:08.9Z</time>
 </trkpt>
 <trkpt lat="45.487904" lon="4.24331">
 <time>2011-05-19T08:40:15.9Z</time>
 </trkpt>
 <trkpt lat="45.487214" lon="4.243054">
 <time>2011-05-19T08:40:20.9Z</time>
 </trkpt>
 <trkpt lat="45.486513" lon="4.242743">
 <time>2011-05-19T08:40:25.9Z</time>
 </trkpt>
 <trkpt lat="45.486032" lon="4.242374">
 <time>2011-05-19T08:40:30.9Z</time>
 </trkpt>
 <trkpt lat="45.485202" lon="4.242207">
 <time>2011-05-19T08:40:35.9Z</time>
 </trkpt>
 <trkpt lat="45.484374" lon="4.242075">
 <time>2011-05-19T08:40:40.9Z</time>
 </trkpt>
 <trkpt lat="45.482126" lon="4.24149">
 <time>2011-05-19T08:40:50.9Z</time>
 </trkpt>
 <trkpt lat="45.480921" lon="4.240662">
 <time>2011-05-19T08:40:57.9Z</time>
 </trkpt>
 <trkpt lat="45.480167" lon="4.240615">
 <time>2011-05-19T08:41:02.9Z</time>
 </trkpt>
 <trkpt lat="45.479144" lon="4.241057">
 <time>2011-05-19T08:41:07.9Z</time>
 </trkpt>
 <trkpt lat="45.478085" lon="4.241927">
 <time>2011-05-19T08:41:12.9Z</time>
 </trkpt>
 <trkpt lat="45.477225" lon="4.242058">
 <time>2011-05-19T08:41:17.9Z</time>
 </trkpt>
 <trkpt lat="45.475714" lon="4.24212">
 <time>2011-05-19T08:41:23.9Z</time>
 </trkpt>
 <trkpt lat="45.474585" lon="4.242355">
 <time>2011-05-19T08:41:29.9Z</time>
 </trkpt>
 <trkpt lat="45.473886" lon="4.242172">
 <time>2011-05-19T08:41:34.9Z</time>
 </trkpt>
 <trkpt lat="45.472928" lon="4.241928">
 <time>2011-05-19T08:41:39.9Z</time>
 </trkpt>
 <trkpt lat="45.471888" lon="4.241681">
 <time>2011-05-19T08:41:43.9Z</time>
 </trkpt>
 <trkpt lat="45.471078" lon="4.24113">
 <time>2011-05-19T08:41:48.9Z</time>
 </trkpt>
 <trkpt lat="45.469736" lon="4.239411">
 <time>2011-05-19T08:41:55.9Z</time>
 </trkpt>
 <trkpt lat="45.46914" lon="4.238858">
 <time>2011-05-19T08:42:00.9Z</time>
 </trkpt>
 <trkpt lat="45.469067" lon="4.238108">
 <time>2011-05-19T08:42:05.9Z</time>
 </trkpt>
 <trkpt lat="45.470082" lon="4.237347">
 <time>2011-05-19T08:42:10.9Z</time>
 </trkpt>
 <trkpt lat="45.470772" lon="4.236443">
 <time>2011-05-19T08:42:14.9Z</time>
 </trkpt>
 <trkpt lat="45.470949" lon="4.235786">
 <time>2011-05-19T08:42:18.9Z</time>
 </trkpt>
 <trkpt lat="45.470445" lon="4.235071">
 <time>2011-05-19T08:42:23.9Z</time>
 </trkpt>
 <trkpt lat="45.469697" lon="4.234266">
 <time>2011-05-19T08:42:28.9Z</time>
 </trkpt>
 <trkpt lat="45.468334" lon="4.232898">
 <time>2011-05-19T08:42:37.9Z</time>
 </trkpt>
 <trkpt lat="45.467648" lon="4.232484">
 <time>2011-05-19T08:42:41.9Z</time>
 </trkpt>
 <trkpt lat="45.467012" lon="4.232169">
 <time>2011-05-19T08:42:46.9Z</time>
 </trkpt>
 <trkpt lat="45.466686" lon="4.231197">
 <time>2011-05-19T08:42:51.9Z</time>
 </trkpt>
 <trkpt lat="45.466769" lon="4.230128">
 <time>2011-05-19T08:42:56.9Z</time>
 </trkpt>
 <trkpt lat="45.466285" lon="4.229803">
 <time>2011-05-19T08:43:00.9Z</time>
 </trkpt>
 <trkpt lat="45.465605" lon="4.230542">
 <time>2011-05-19T08:43:04.9Z</time>
 </trkpt>
 <trkpt lat="45.464971" lon="4.231319">
 <time>2011-05-19T08:43:09.9Z</time>
 </trkpt>
 <trkpt lat="45.464056" lon="4.231167">
 <time>2011-05-19T08:43:14.9Z</time>
 </trkpt>
 <trkpt lat="45.463128" lon="4.230504">
 <time>2011-05-19T08:43:18.9Z</time>
 </trkpt>
 <trkpt lat="45.462417" lon="4.229629">
 <time>2011-05-19T08:43:23.9Z</time>
 </trkpt>
 <trkpt lat="45.46104" lon="4.227646">
 <time>2011-05-19T08:43:30.9Z</time>
 </trkpt>
 <trkpt lat="45.460434" lon="4.227074">
 <time>2011-05-19T08:43:35.2Z</time>
 </trkpt>
 <trkpt lat="45.459895" lon="4.226058">
 <time>2011-05-19T08:43:39.2Z</time>
 </trkpt>
 <trkpt lat="45.459778" lon="4.224553">
 <time>2011-05-19T08:43:43.9Z</time>
 </trkpt>
 <trkpt lat="45.459321" lon="4.223304">
 <time>2011-05-19T08:43:48.9Z</time>
 </trkpt>
 <trkpt lat="45.458305" lon="4.222667">
 <time>2011-05-19T08:43:53.9Z</time>
 </trkpt>
 <trkpt lat="45.457282" lon="4.222793">
 <time>2011-05-19T08:43:58.9Z</time>
 </trkpt>
 <trkpt lat="45.456462" lon="4.223453">
 <time>2011-05-19T08:44:02.9Z</time>
 </trkpt>
 <trkpt lat="45.454043" lon="4.225982">
 <time>2011-05-19T08:44:14.3Z</time>
 </trkpt>
 <trkpt lat="45.453617" lon="4.226803">
 <time>2011-05-19T08:44:18.2Z</time>
 </trkpt>
 <trkpt lat="45.453295" lon="4.228407">
 <time>2011-05-19T08:44:23.2Z</time>
 </trkpt>
 <trkpt lat="45.452921" lon="4.229817">
 <time>2011-05-19T08:44:27.2Z</time>
 </trkpt>
 <trkpt lat="45.452365" lon="4.230387">
 <time>2011-05-19T08:44:32.2Z</time>
 </trkpt>
 <trkpt lat="45.451734" lon="4.230648">
 <time>2011-05-19T08:44:36.2Z</time>
 </trkpt>
 <trkpt lat="45.450898" lon="4.230818">
 <time>2011-05-19T08:44:41.3Z</time>
 </trkpt>
 <trkpt lat="45.450357" lon="4.231143">
 <time>2011-05-19T08:44:46.3Z</time>
 </trkpt>
 <trkpt lat="45.449937" lon="4.23168">
 <time>2011-05-19T08:44:50.9Z</time>
 </trkpt>
 <trkpt lat="45.448221" lon="4.234088">
 <time>2011-05-19T08:45:07.3Z</time>
 </trkpt>
 <trkpt lat="45.447516" lon="4.234785">
 <time>2011-05-19T08:45:12.9Z</time>
 </trkpt>
 <trkpt lat="45.444746" lon="4.23633">
 <time>2011-05-19T08:45:30.9Z</time>
 </trkpt>
 <trkpt lat="45.44397" lon="4.23719">
 <time>2011-05-19T08:45:37.9Z</time>
 </trkpt>
 <trkpt lat="45.443596" lon="4.237402">
 <time>2011-05-19T08:45:41.9Z</time>
 </trkpt>
 <trkpt lat="45.44281" lon="4.237576">
 <time>2011-05-19T08:45:46.9Z</time>
 </trkpt>
 <trkpt lat="45.441631" lon="4.237551">
 <time>2011-05-19T08:45:54.9Z</time>
 </trkpt>
 <trkpt lat="45.441024" lon="4.237374">
 <time>2011-05-19T08:45:59.9Z</time>
 </trkpt>
 <trkpt lat="45.43957" lon="4.236629">
 <time>2011-05-19T08:46:07.9Z</time>
 </trkpt>
 <trkpt lat="45.438754" lon="4.236553">
 <time>2011-05-19T08:46:12.9Z</time>
 </trkpt>
 <trkpt lat="45.437966" lon="4.236333">
 <time>2011-05-19T08:46:17.9Z</time>
 </trkpt>
 <trkpt lat="45.437234" lon="4.235751">
 <time>2011-05-19T08:46:22.9Z</time>
 </trkpt>
 <trkpt lat="45.436683" lon="4.235256">
 <time>2011-05-19T08:46:26.9Z</time>
 </trkpt>
 <trkpt lat="45.436147" lon="4.235231">
 <time>2011-05-19T08:46:31.9Z</time>
 </trkpt>
 <trkpt lat="45.435765" lon="4.235694">
 <time>2011-05-19T08:46:36.9Z</time>
 </trkpt>
 <trkpt lat="45.435185" lon="4.235403">
 <time>2011-05-19T08:46:41.9Z</time>
 </trkpt>
 <trkpt lat="45.434719" lon="4.23518">
 <time>2011-05-19T08:46:49.9Z</time>
 </trkpt>
 <trkpt lat="45.434565" lon="4.235087">
 <time>2011-05-19T08:46:54.9Z</time>
 </trkpt>
 <trkpt lat="45.434444" lon="4.234882">
 <time>2011-05-19T08:46:58.9Z</time>
 </trkpt>
 <trkpt lat="45.434355" lon="4.234319">
 <time>2011-05-19T08:47:03.3Z</time>
 </trkpt>
 <trkpt lat="45.434115" lon="4.233634">
 <time>2011-05-19T08:47:07.3Z</time>
 </trkpt>
 <trkpt lat="45.433542" lon="4.233039">
 <time>2011-05-19T08:47:12.3Z</time>
 </trkpt>
 <trkpt lat="45.433108" lon="4.232898">
 <time>2011-05-19T08:47:16.3Z</time>
 </trkpt>
 <trkpt lat="45.432229" lon="4.233306">
 <time>2011-05-19T08:47:21.9Z</time>
 </trkpt>
 <trkpt lat="45.431256" lon="4.232871">
 <time>2011-05-19T08:47:26.9Z</time>
 </trkpt>
 <trkpt lat="45.430677" lon="4.23247">
 <time>2011-05-19T08:47:30.9Z</time>
 </trkpt>
 <trkpt lat="45.430219" lon="4.231686">
 <time>2011-05-19T08:47:35.9Z</time>
 </trkpt>
 <trkpt lat="45.429495" lon="4.23116">
 <time>2011-05-19T08:47:40.9Z</time>
 </trkpt>
 <trkpt lat="45.428848" lon="4.230919">
 <time>2011-05-19T08:47:45.2Z</time>
 </trkpt>
 <trkpt lat="45.428366" lon="4.231267">
 <time>2011-05-19T08:47:49.9Z</time>
 </trkpt>
 <trkpt lat="45.428389" lon="4.231834">
 <time>2011-05-19T08:47:53.3Z</time>
 </trkpt>
 <trkpt lat="45.428612" lon="4.233158">
 <time>2011-05-19T08:47:58.9Z</time>
 </trkpt>
 <trkpt lat="45.428805" lon="4.234374">
 <time>2011-05-19T08:48:03.9Z</time>
 </trkpt>
 <trkpt lat="45.429178" lon="4.235391">
 <time>2011-05-19T08:48:08.9Z</time>
 </trkpt>
 <trkpt lat="45.429302" lon="4.236359">
 <time>2011-05-19T08:48:12.9Z</time>
 </trkpt>
 <trkpt lat="45.429236" lon="4.237096">
 <time>2011-05-19T08:48:17.9Z</time>
 </trkpt>
 <trkpt lat="45.429642" lon="4.238092">
 <time>2011-05-19T08:48:21.9Z</time>
 </trkpt>
 <trkpt lat="45.429939" lon="4.238836">
 <time>2011-05-19T08:48:26.2Z</time>
 </trkpt>
 <trkpt lat="45.430385" lon="4.240218">
 <time>2011-05-19T08:48:31.9Z</time>
 </trkpt>
 <trkpt lat="45.43101" lon="4.241221">
 <time>2011-05-19T08:48:36.9Z</time>
 </trkpt>
 <trkpt lat="45.431103" lon="4.2417">
 <time>2011-05-19T08:48:41.2Z</time>
 </trkpt>
 <trkpt lat="45.430703" lon="4.242071">
 <time>2011-05-19T08:48:45.9Z</time>
 </trkpt>
 <trkpt lat="45.429884" lon="4.242419">
 <time>2011-05-19T08:48:50.9Z</time>
 </trkpt>
 <trkpt lat="45.429138" lon="4.242231">
 <time>2011-05-19T08:48:55.9Z</time>
 </trkpt>
 <trkpt lat="45.428609" lon="4.241755">
 <time>2011-05-19T08:49:00.3Z</time>
 </trkpt>
 <trkpt lat="45.427721" lon="4.241633">
 <time>2011-05-19T08:49:04.9Z</time>
 </trkpt>
 <trkpt lat="45.426715" lon="4.241624">
 <time>2011-05-19T08:49:10.9Z</time>
 </trkpt>
 <trkpt lat="45.426362" lon="4.241389">
 <time>2011-05-19T08:49:14.9Z</time>
 </trkpt>
 <trkpt lat="45.425878" lon="4.240401">
 <time>2011-05-19T08:49:19.9Z</time>
 </trkpt>
 <trkpt lat="45.42545" lon="4.2403">
 <time>2011-05-19T08:49:24.9Z</time>
 </trkpt>
 <trkpt lat="45.424886" lon="4.240558">
 <time>2011-05-19T08:49:28.9Z</time>
 </trkpt>
 <trkpt lat="45.424301" lon="4.240201">
 <time>2011-05-19T08:49:33.9Z</time>
 </trkpt>
 <trkpt lat="45.423862" lon="4.239908">
 <time>2011-05-19T08:49:37.9Z</time>
 </trkpt>
 <trkpt lat="45.423043" lon="4.240176">
 <time>2011-05-19T08:49:42.9Z</time>
 </trkpt>
 <trkpt lat="45.422343" lon="4.239794">
 <time>2011-05-19T08:49:47.9Z</time>
 </trkpt>
 <trkpt lat="45.421743" lon="4.239186">
 <time>2011-05-19T08:49:52.9Z</time>
 </trkpt>
 <trkpt lat="45.421338" lon="4.238515">
 <time>2011-05-19T08:49:57Z</time>
 </trkpt>
 <trkpt lat="45.420855" lon="4.238302">
 <time>2011-05-19T08:50:01.9Z</time>
 </trkpt>
 <trkpt lat="45.420684" lon="4.239386">
 <time>2011-05-19T08:50:06.9Z</time>
 </trkpt>
 <trkpt lat="45.420307" lon="4.240025">
 <time>2011-05-19T08:50:11.9Z</time>
 </trkpt>
 <trkpt lat="45.419814" lon="4.240012">
 <time>2011-05-19T08:50:16.2Z</time>
 </trkpt>
 <trkpt lat="45.419634" lon="4.240813">
 <time>2011-05-19T08:50:20.9Z</time>
 </trkpt>
 <trkpt lat="45.419407" lon="4.241854">
 <time>2011-05-19T08:50:25.9Z</time>
 </trkpt>
 <trkpt lat="45.419411" lon="4.242748">
 <time>2011-05-19T08:50:30.9Z</time>
 </trkpt>
 <trkpt lat="45.419647" lon="4.243674">
 <time>2011-05-19T08:50:34.9Z</time>
 </trkpt>
 <trkpt lat="45.419502" lon="4.244308">
 <time>2011-05-19T08:50:39.9Z</time>
 </trkpt>
 <trkpt lat="45.41889" lon="4.243996">
 <time>2011-05-19T08:50:44.9Z</time>
 </trkpt>
 <trkpt lat="45.418127" lon="4.243638">
 <time>2011-05-19T08:50:49.9Z</time>
 </trkpt>
 <trkpt lat="45.417374" lon="4.243318">
 <time>2011-05-19T08:50:54.9Z</time>
 </trkpt>
 <trkpt lat="45.416747" lon="4.242896">
 <time>2011-05-19T08:50:59.9Z</time>
 </trkpt>
 <trkpt lat="45.416255" lon="4.242253">
 <time>2011-05-19T08:51:04.9Z</time>
 </trkpt>
 <trkpt lat="45.415613" lon="4.240947">
 <time>2011-05-19T08:51:10.9Z</time>
 </trkpt>
 <trkpt lat="45.415289" lon="4.240119">
 <time>2011-05-19T08:51:15.9Z</time>
 </trkpt>
 <trkpt lat="45.414828" lon="4.23901">
 <time>2011-05-19T08:51:20.9Z</time>
 </trkpt>
 <trkpt lat="45.414571" lon="4.237743">
 <time>2011-05-19T08:51:25.9Z</time>
 </trkpt>
 <trkpt lat="45.414556" lon="4.236749">
 <time>2011-05-19T08:51:29.9Z</time>
 </trkpt>
 <trkpt lat="45.414545" lon="4.235963">
 <time>2011-05-19T08:51:35.2Z</time>
 </trkpt>
 <trkpt lat="45.414012" lon="4.236318">
 <time>2011-05-19T08:51:40.3Z</time>
 </trkpt>
 <trkpt lat="45.413419" lon="4.237376">
 <time>2011-05-19T08:51:45.3Z</time>
 </trkpt>
 <trkpt lat="45.412702" lon="4.237561">
 <time>2011-05-19T08:51:50.9Z</time>
 </trkpt>
 <trkpt lat="45.412047" lon="4.237118">
 <time>2011-05-19T08:51:55.9Z</time>
 </trkpt>
 <trkpt lat="45.411278" lon="4.236597">
 <time>2011-05-19T08:52:00.9Z</time>
 </trkpt>
 <trkpt lat="45.410106" lon="4.236538">
 <time>2011-05-19T08:52:06.3Z</time>
 </trkpt>
 <trkpt lat="45.409012" lon="4.23707">
 <time>2011-05-19T08:52:10.9Z</time>
 </trkpt>
 <trkpt lat="45.408056" lon="4.238263">
 <time>2011-05-19T08:52:15.9Z</time>
 </trkpt>
 <trkpt lat="45.407546" lon="4.239406">
 <time>2011-05-19T08:52:19.9Z</time>
 </trkpt>
 <trkpt lat="45.407563" lon="4.240941">
 <time>2011-05-19T08:52:23.9Z</time>
 </trkpt>
 <trkpt lat="45.407761" lon="4.242103">
 <time>2011-05-19T08:52:28.9Z</time>
 </trkpt>
 <trkpt lat="45.408092" lon="4.243629">
 <time>2011-05-19T08:52:33.9Z</time>
 </trkpt>
 <trkpt lat="45.408423" lon="4.245164">
 <time>2011-05-19T08:52:41.9Z</time>
 </trkpt>
 <trkpt lat="45.40837" lon="4.245547">
 <time>2011-05-19T08:52:46.9Z</time>
 </trkpt>
 <trkpt lat="45.408298" lon="4.245809">
 <time>2011-05-19T08:52:51.9Z</time>
 </trkpt>
 <trkpt lat="45.408511" lon="4.246974">
 <time>2011-05-19T08:52:56.9Z</time>
 </trkpt>
 <trkpt lat="45.408637" lon="4.248898">
 <time>2011-05-19T08:53:06.9Z</time>
 </trkpt>
 <trkpt lat="45.408478" lon="4.249235">
 <time>2011-05-19T08:53:11.9Z</time>
 </trkpt>
 <trkpt lat="45.40799" lon="4.24908">
 <time>2011-05-19T08:53:16.9Z</time>
 </trkpt>
 <trkpt lat="45.407447" lon="4.248572">
 <time>2011-05-19T08:53:21.9Z</time>
 </trkpt>
 <trkpt lat="45.406958" lon="4.24806">
 <time>2011-05-19T08:53:26.3Z</time>
 </trkpt>
 <trkpt lat="45.406277" lon="4.247399">
 <time>2011-05-19T08:53:31.9Z</time>
 </trkpt>
 <trkpt lat="45.405908" lon="4.246566">
 <time>2011-05-19T08:53:35.9Z</time>
 </trkpt>
 <trkpt lat="45.405659" lon="4.245854">
 <time>2011-05-19T08:53:40.9Z</time>
 </trkpt>
 <trkpt lat="45.405239" lon="4.245334">
 <time>2011-05-19T08:53:45.9Z</time>
 </trkpt>
 <trkpt lat="45.404821" lon="4.245075">
 <time>2011-05-19T08:53:51.2Z</time>
 </trkpt>
 <trkpt lat="45.404504" lon="4.244714">
 <time>2011-05-19T08:53:55.9Z</time>
 </trkpt>
 <trkpt lat="45.404107" lon="4.243855">
 <time>2011-05-19T08:54:01.9Z</time>
 </trkpt>
 <trkpt lat="45.403263" lon="4.242245">
 <time>2011-05-19T08:54:14.9Z</time>
 </trkpt>
 <trkpt lat="45.402919" lon="4.241713">
 <time>2011-05-19T08:54:18.9Z</time>
 </trkpt>
 <trkpt lat="45.402207" lon="4.240729">
 <time>2011-05-19T08:54:24.9Z</time>
 </trkpt>
 <trkpt lat="45.401637" lon="4.240159">
 <time>2011-05-19T08:54:29.9Z</time>
 </trkpt>
 <trkpt lat="45.400517" lon="4.239146">
 <time>2011-05-19T08:54:36.9Z</time>
 </trkpt>
 <trkpt lat="45.400139" lon="4.238733">
 <time>2011-05-19T08:54:40.9Z</time>
 </trkpt>
 <trkpt lat="45.399024" lon="4.237196">
 <time>2011-05-19T08:54:48.9Z</time>
 </trkpt>
 <trkpt lat="45.398101" lon="4.236314">
 <time>2011-05-19T08:54:55Z</time>
 </trkpt>
 <trkpt lat="45.39765" lon="4.23599">
 <time>2011-05-19T08:54:59Z</time>
 </trkpt>
 <trkpt lat="45.39692" lon="4.235575">
 <time>2011-05-19T08:55:03.9Z</time>
 </trkpt>
 <trkpt lat="45.396323" lon="4.234898">
 <time>2011-05-19T08:55:08.9Z</time>
 </trkpt>
 <trkpt lat="45.396056" lon="4.233883">
 <time>2011-05-19T08:55:13.9Z</time>
 </trkpt>
 <trkpt lat="45.395975" lon="4.232757">
 <time>2011-05-19T08:55:17.9Z</time>
 </trkpt>
 <trkpt lat="45.396029" lon="4.231703">
 <time>2011-05-19T08:55:21.9Z</time>
 </trkpt>
 <trkpt lat="45.396225" lon="4.230519">
 <time>2011-05-19T08:55:26.9Z</time>
 </trkpt>
 <trkpt lat="45.396659" lon="4.229366">
 <time>2011-05-19T08:55:31.9Z</time>
 </trkpt>
 <trkpt lat="45.397637" lon="4.227753">
 <time>2011-05-19T08:55:40.9Z</time>
 </trkpt>
 <trkpt lat="45.397792" lon="4.227436">
 <time>2011-05-19T08:55:45.9Z</time>
 </trkpt>
 <trkpt lat="45.397963" lon="4.226984">
 <time>2011-05-19T08:55:50.9Z</time>
 </trkpt>
 <trkpt lat="45.397982" lon="4.226616">
 <time>2011-05-19T08:55:54.9Z</time>
 </trkpt>
 <trkpt lat="45.397824" lon="4.226203">
 <time>2011-05-19T08:55:59.9Z</time>
 </trkpt>
 <trkpt lat="45.397555" lon="4.226069">
 <time>2011-05-19T08:56:04.2Z</time>
 </trkpt>
 <trkpt lat="45.397145" lon="4.226229">
 <time>2011-05-19T08:56:09.2Z</time>
 </trkpt>
 <trkpt lat="45.39673" lon="4.226352">
 <time>2011-05-19T08:56:13.9Z</time>
 </trkpt>
 <trkpt lat="45.396431" lon="4.226444">
 <time>2011-05-19T08:56:18.9Z</time>
 </trkpt>
 <trkpt lat="45.39606" lon="4.226376">
 <time>2011-05-19T08:56:22.9Z</time>
 </trkpt>
 <trkpt lat="45.395711" lon="4.22625">
 <time>2011-05-19T08:56:27.9Z</time>
 </trkpt>
 <trkpt lat="45.395427" lon="4.226125">
 <time>2011-05-19T08:56:32.9Z</time>
 </trkpt>
 <trkpt lat="45.395033" lon="4.226021">
 <time>2011-05-19T08:56:37.9Z</time>
 </trkpt>
 <trkpt lat="45.394589" lon="4.226092">
 <time>2011-05-19T08:56:41.9Z</time>
 </trkpt>
 <trkpt lat="45.394129" lon="4.226275">
 <time>2011-05-19T08:56:47.3Z</time>
 </trkpt>
 </trkseg>
 <trkseg>
 <trkpt lat="45.393838" lon="4.226507">
 <time>2011-05-19T08:56:50.3Z</time>
 </trkpt>
 <trkpt lat="45.392678" lon="4.22759">
 <time>2011-05-19T08:56:56.9Z</time>
 </trkpt>
 <trkpt lat="45.39163" lon="4.22811">
 <time>2011-05-19T08:57:03.9Z</time>
 </trkpt>
 <trkpt lat="45.39131" lon="4.228215">
 <time>2011-05-19T08:57:05.9Z</time>
 </trkpt>
 </trkseg>
 <trkseg>
 <trkpt lat="45.391005" lon="4.228273">
 <time>2011-05-19T08:57:11.3Z</time>
 </trkpt>
 <trkpt lat="45.389772" lon="4.228488">
 <time>2011-05-19T08:57:16.9Z</time>
 </trkpt>
 <trkpt lat="45.388749" lon="4.228801">
 <time>2011-05-19T08:57:22.9Z</time>
 </trkpt>
 <trkpt lat="45.388319" lon="4.22883">
 <time>2011-05-19T08:57:27.9Z</time>
 </trkpt>
 <trkpt lat="45.383904" lon="4.227422">
 <time>2011-05-19T08:57:52.9Z</time>
 </trkpt>
 <trkpt lat="45.383281" lon="4.226912">
 <time>2011-05-19T08:57:57.9Z</time>
 </trkpt>
 <trkpt lat="45.382779" lon="4.225826">
 <time>2011-05-19T08:58:02.9Z</time>
 </trkpt>
 <trkpt lat="45.38223" lon="4.224416">
 <time>2011-05-19T08:58:07.9Z</time>
 </trkpt>
 <trkpt lat="45.381657" lon="4.223602">
 <time>2011-05-19T08:58:12.9Z</time>
 </trkpt>
 <trkpt lat="45.379123" lon="4.220576">
 <time>2011-05-19T08:58:25.9Z</time>
 </trkpt>
 <trkpt lat="45.373681" lon="4.212101">
 <time>2011-05-19T08:59:01.9Z</time>
 </trkpt>
 <trkpt lat="45.371651" lon="4.208468">
 <time>2011-05-19T08:59:19.9Z</time>
 </trkpt>
 <trkpt lat="45.371526" lon="4.207938">
 <time>2011-05-19T08:59:23.9Z</time>
 </trkpt>
 <trkpt lat="45.371318" lon="4.207143">
 <time>2011-05-19T08:59:28.9Z</time>
 </trkpt>
 <trkpt lat="45.370986" lon="4.2067">
 <time>2011-05-19T08:59:33.3Z</time>
 </trkpt>
 <trkpt lat="45.370622" lon="4.206135">
 <time>2011-05-19T08:59:38.3Z</time>
 </trkpt>
 <trkpt lat="45.369925" lon="4.204615">
 <time>2011-05-19T08:59:47.9Z</time>
 </trkpt>
 <trkpt lat="45.369625" lon="4.20377">
 <time>2011-05-19T08:59:53.9Z</time>
 </trkpt>
 <trkpt lat="45.369538" lon="4.203124">
 <time>2011-05-19T08:59:58.9Z</time>
 </trkpt>
 <trkpt lat="45.369538" lon="4.20242">
 <time>2011-05-19T09:00:03.9Z</time>
 </trkpt>
 <trkpt lat="45.369501" lon="4.2022">
 <time>2011-05-19T09:00:08.9Z</time>
 </trkpt>
 <trkpt lat="45.369521" lon="4.201921">
 <time>2011-05-19T09:00:13.9Z</time>
 </trkpt>
 <trkpt lat="45.369528" lon="4.201506">
 <time>2011-05-19T09:00:18.9Z</time>
 </trkpt>
 <trkpt lat="45.369554" lon="4.201163">
 <time>2011-05-19T09:00:23.9Z</time>
 </trkpt>
 <trkpt lat="45.369626" lon="4.200836">
 <time>2011-05-19T09:00:28.9Z</time>
 </trkpt>
 <trkpt lat="45.369597" lon="4.200424">
 <time>2011-05-19T09:00:33.9Z</time>
 </trkpt>
 <trkpt lat="45.369653" lon="4.19982">
 <time>2011-05-19T09:00:38.9Z</time>
 </trkpt>
 <trkpt lat="45.369672" lon="4.199319">
 <time>2011-05-19T09:00:42.9Z</time>
 </trkpt>
 <trkpt lat="45.369908" lon="4.195517">
 <time>2011-05-19T09:00:59.9Z</time>
 </trkpt>
 <trkpt lat="45.370017" lon="4.194751">
 <time>2011-05-19T09:01:04.9Z</time>
 </trkpt>
 <trkpt lat="45.369941" lon="4.194066">
 <time>2011-05-19T09:01:09.9Z</time>
 </trkpt>
 <trkpt lat="45.36941" lon="4.193292">
 <time>2011-05-19T09:01:14.9Z</time>
 </trkpt>
 <trkpt lat="45.368558" lon="4.192766">
 <time>2011-05-19T09:01:19.9Z</time>
 </trkpt>
 <trkpt lat="45.366671" lon="4.192116">
 <time>2011-05-19T09:01:28.9Z</time>
 </trkpt>
 <trkpt lat="45.365904" lon="4.191999">
 <time>2011-05-19T09:01:33.9Z</time>
 </trkpt>
 <trkpt lat="45.365189" lon="4.192026">
 <time>2011-05-19T09:01:37.9Z</time>
 </trkpt>
 <trkpt lat="45.364389" lon="4.192255">
 <time>2011-05-19T09:01:42.9Z</time>
 </trkpt>
 <trkpt lat="45.359953" lon="4.193894">
 <time>2011-05-19T09:02:07.9Z</time>
 </trkpt>
 <trkpt lat="45.358368" lon="4.194189">
 <time>2011-05-19T09:02:14.9Z</time>
 </trkpt>
 <trkpt lat="45.357212" lon="4.194628">
 <time>2011-05-19T09:02:19.9Z</time>
 </trkpt>
 <trkpt lat="45.356407" lon="4.194586">
 <time>2011-05-19T09:02:24.9Z</time>
 </trkpt>
 <trkpt lat="45.355678" lon="4.193609">
 <time>2011-05-19T09:02:29.9Z</time>
 </trkpt>
 <trkpt lat="45.355204" lon="4.192482">
 <time>2011-05-19T09:02:33.9Z</time>
 </trkpt>
 <trkpt lat="45.354407" lon="4.191345">
 <time>2011-05-19T09:02:38.9Z</time>
 </trkpt>
 <trkpt lat="45.353658" lon="4.190389">
 <time>2011-05-19T09:02:42.9Z</time>
 </trkpt>
 <trkpt lat="45.353431" lon="4.18921">
 <time>2011-05-19T09:02:47.9Z</time>
 </trkpt>
 <trkpt lat="45.353264" lon="4.187948">
 <time>2011-05-19T09:02:51.9Z</time>
 </trkpt>
 <trkpt lat="45.352736" lon="4.186626">
 <time>2011-05-19T09:02:56.9Z</time>
 </trkpt>
 <trkpt lat="45.351714" lon="4.186152">
 <time>2011-05-19T09:03:01.9Z</time>
 </trkpt>
 <trkpt lat="45.350703" lon="4.187029">
 <time>2011-05-19T09:03:06.9Z</time>
 </trkpt>
 <trkpt lat="45.349164" lon="4.189373">
 <time>2011-05-19T09:03:14.9Z</time>
 </trkpt>
 <trkpt lat="45.348423" lon="4.18986">
 <time>2011-05-19T09:03:19.9Z</time>
 </trkpt>
 <trkpt lat="45.347302" lon="4.189207">
 <time>2011-05-19T09:03:24.9Z</time>
 </trkpt>
 <trkpt lat="45.346054" lon="4.188165">
 <time>2011-05-19T09:03:29.9Z</time>
 </trkpt>
 <trkpt lat="45.345401" lon="4.18718">
 <time>2011-05-19T09:03:34.9Z</time>
 </trkpt>
 <trkpt lat="45.344551" lon="4.185098">
 <time>2011-05-19T09:03:40.9Z</time>
 </trkpt>
 <trkpt lat="45.343888" lon="4.18425">
 <time>2011-05-19T09:03:45.9Z</time>
 </trkpt>
 <trkpt lat="45.342848" lon="4.184332">
 <time>2011-05-19T09:03:50.9Z</time>
 </trkpt>
 <trkpt lat="45.341884" lon="4.185589">
 <time>2011-05-19T09:03:55.9Z</time>
 </trkpt>
 <trkpt lat="45.340935" lon="4.186423">
 <time>2011-05-19T09:04:00.9Z</time>
 </trkpt>
 <trkpt lat="45.340055" lon="4.18628">
 <time>2011-05-19T09:04:04.9Z</time>
 </trkpt>
 <trkpt lat="45.338996" lon="4.18557">
 <time>2011-05-19T09:04:09.9Z</time>
 </trkpt>
 <trkpt lat="45.337951" lon="4.184809">
 <time>2011-05-19T09:04:14.9Z</time>
 </trkpt>
 <trkpt lat="45.337177" lon="4.183975">
 <time>2011-05-19T09:04:18.9Z</time>
 </trkpt>
 <trkpt lat="45.336548" lon="4.183086">
 <time>2011-05-19T09:04:22.9Z</time>
 </trkpt>
 <trkpt lat="45.336082" lon="4.181733">
 <time>2011-05-19T09:04:27.9Z</time>
 </trkpt>
 <trkpt lat="45.335419" lon="4.180504">
 <time>2011-05-19T09:04:32.9Z</time>
 </trkpt>
 <trkpt lat="45.334274" lon="4.179754">
 <time>2011-05-19T09:04:37.9Z</time>
 </trkpt>
 <trkpt lat="45.333462" lon="4.179262">
 <time>2011-05-19T09:04:41.9Z</time>
 </trkpt>
 <trkpt lat="45.332903" lon="4.178118">
 <time>2011-05-19T09:04:46.9Z</time>
 </trkpt>
 <trkpt lat="45.333053" lon="4.176638">
 <time>2011-05-19T09:04:51.9Z</time>
 </trkpt>
 <trkpt lat="45.333707" lon="4.174134">
 <time>2011-05-19T09:04:58.9Z</time>
 </trkpt>
 <trkpt lat="45.33378" lon="4.172814">
 <time>2011-05-19T09:05:03.9Z</time>
 </trkpt>
 <trkpt lat="45.333729" lon="4.167007">
 <time>2011-05-19T09:05:19.9Z</time>
 </trkpt>
 <trkpt lat="45.333995" lon="4.1656">
 <time>2011-05-19T09:05:24.9Z</time>
 </trkpt>
 <trkpt lat="45.334716" lon="4.163008">
 <time>2011-05-19T09:05:31.9Z</time>
 </trkpt>
 <trkpt lat="45.335217" lon="4.161883">
 <time>2011-05-19T09:05:36.9Z</time>
 </trkpt>
 <trkpt lat="45.336171" lon="4.160862">
 <time>2011-05-19T09:05:40.9Z</time>
 </trkpt>
 <trkpt lat="45.337525" lon="4.159949">
 <time>2011-05-19T09:05:46.9Z</time>
 </trkpt>
 <trkpt lat="45.338142" lon="4.159025">
 <time>2011-05-19T09:05:51.9Z</time>
 </trkpt>
 <trkpt lat="45.338358" lon="4.157356">
 <time>2011-05-19T09:05:56.9Z</time>
 </trkpt>
 <trkpt lat="45.337848" lon="4.155731">
 <time>2011-05-19T09:06:00.9Z</time>
 </trkpt>
 <trkpt lat="45.335001" lon="4.151519">
 <time>2011-05-19T09:06:22.9Z</time>
 </trkpt>
 <trkpt lat="45.334709" lon="4.150636">
 <time>2011-05-19T09:06:27.9Z</time>
 </trkpt>
 <trkpt lat="45.334669" lon="4.149461">
 <time>2011-05-19T09:06:32.9Z</time>
 </trkpt>
 <trkpt lat="45.335036" lon="4.147972">
 <time>2011-05-19T09:06:37.9Z</time>
 </trkpt>
 <trkpt lat="45.33573" lon="4.144947">
 <time>2011-05-19T09:06:45.9Z</time>
 </trkpt>
 <trkpt lat="45.335817" lon="4.143774">
 <time>2011-05-19T09:06:50.9Z</time>
 </trkpt>
 <trkpt lat="45.335288" lon="4.142396">
 <time>2011-05-19T09:06:55.9Z</time>
 </trkpt>
 <trkpt lat="45.334314" lon="4.141561">
 <time>2011-05-19T09:07:00.9Z</time>
 </trkpt>
 <trkpt lat="45.333024" lon="4.141276">
 <time>2011-05-19T09:07:04.9Z</time>
 </trkpt>
 <trkpt lat="45.332043" lon="4.140975">
 <time>2011-05-19T09:07:09.9Z</time>
 </trkpt>
 <trkpt lat="45.331064" lon="4.140069">
 <time>2011-05-19T09:07:14.9Z</time>
 </trkpt>
 <trkpt lat="45.330255" lon="4.138915">
 <time>2011-05-19T09:07:18.9Z</time>
 </trkpt>
 <trkpt lat="45.32942" lon="4.138215">
 <time>2011-05-19T09:07:23.9Z</time>
 </trkpt>
 <trkpt lat="45.328302" lon="4.137545">
 <time>2011-05-19T09:07:28.9Z</time>
 </trkpt>
 <trkpt lat="45.327565" lon="4.136589">
 <time>2011-05-19T09:07:32.9Z</time>
 </trkpt>
 <trkpt lat="45.327174" lon="4.134911">
 <time>2011-05-19T09:07:37.9Z</time>
 </trkpt>
 <trkpt lat="45.326886" lon="4.132891">
 <time>2011-05-19T09:07:42.9Z</time>
 </trkpt>
 <trkpt lat="45.326568" lon="4.131639">
 <time>2011-05-19T09:07:47.9Z</time>
 </trkpt>
 <trkpt lat="45.325656" lon="4.128864">
 <time>2011-05-19T09:07:55.9Z</time>
 </trkpt>
 <trkpt lat="45.324748" lon="4.126819">
 <time>2011-05-19T09:08:02.9Z</time>
 </trkpt>
 <trkpt lat="45.323697" lon="4.124933">
 <time>2011-05-19T09:08:09.9Z</time>
 </trkpt>
 <trkpt lat="45.323022" lon="4.123965">
 <time>2011-05-19T09:08:14.9Z</time>
 </trkpt>
 <trkpt lat="45.316893" lon="4.117254">
 <time>2011-05-19T09:08:45.9Z</time>
 </trkpt>
 <trkpt lat="45.31626" lon="4.116764">
 <time>2011-05-19T09:08:49.9Z</time>
 </trkpt>
 <trkpt lat="45.311961" lon="4.11385">
 <time>2011-05-19T09:09:12.9Z</time>
 </trkpt>
 <trkpt lat="45.309946" lon="4.113076">
 <time>2011-05-19T09:09:25.9Z</time>
 </trkpt>
 <trkpt lat="45.309452" lon="4.11298">
 <time>2011-05-19T09:09:30.9Z</time>
 </trkpt>
 <trkpt lat="45.308761" lon="4.112956">
 <time>2011-05-19T09:09:35.9Z</time>
 </trkpt>
 <trkpt lat="45.308111" lon="4.112995">
 <time>2011-05-19T09:09:39.9Z</time>
 </trkpt>
 <trkpt lat="45.307697" lon="4.113109">
 <time>2011-05-19T09:09:44.9Z</time>
 </trkpt>
 <trkpt lat="45.306814" lon="4.113549">
 <time>2011-05-19T09:09:49.9Z</time>
 </trkpt>
 <trkpt lat="45.306319" lon="4.113908">
 <time>2011-05-19T09:09:53.9Z</time>
 </trkpt>
 <trkpt lat="45.305763" lon="4.114454">
 <time>2011-05-19T09:10:00.9Z</time>
 </trkpt>
 <trkpt lat="45.305536" lon="4.114551">
 <time>2011-05-19T09:10:04.9Z</time>
 </trkpt>
 <trkpt lat="45.305347" lon="4.114572">
 <time>2011-05-19T09:10:09.9Z</time>
 </trkpt>
 <trkpt lat="45.305128" lon="4.114759">
 <time>2011-05-19T09:10:13.9Z</time>
 </trkpt>
 <trkpt lat="45.304361" lon="4.115124">
 <time>2011-05-19T09:10:20.9Z</time>
 </trkpt>
 <trkpt lat="45.304017" lon="4.115257">
 <time>2011-05-19T09:10:27.9Z</time>
 </trkpt>
 <trkpt lat="45.299758" lon="4.115478">
 <time>2011-05-19T09:10:56.9Z</time>
 </trkpt>
 <trkpt lat="45.297405" lon="4.116154">
 <time>2011-05-19T09:11:11.9Z</time>
 </trkpt>
 <trkpt lat="45.29696" lon="4.116393">
 <time>2011-05-19T09:11:15.9Z</time>
 </trkpt>
 <trkpt lat="45.295931" lon="4.117038">
 <time>2011-05-19T09:11:22.9Z</time>
 </trkpt>
 <trkpt lat="45.295515" lon="4.11717">
 <time>2011-05-19T09:11:27.9Z</time>
 </trkpt>
 <trkpt lat="45.294702" lon="4.117346">
 <time>2011-05-19T09:11:32.9Z</time>
 </trkpt>
 <trkpt lat="45.293909" lon="4.11733">
 <time>2011-05-19T09:11:36.9Z</time>
 </trkpt>
 <trkpt lat="45.292019" lon="4.117601">
 <time>2011-05-19T09:11:44.9Z</time>
 </trkpt>
 <trkpt lat="45.291339" lon="4.117288">
 <time>2011-05-19T09:11:49.9Z</time>
 </trkpt>
 <trkpt lat="45.290879" lon="4.116286">
 <time>2011-05-19T09:11:54.9Z</time>
 </trkpt>
 <trkpt lat="45.290852" lon="4.115525">
 <time>2011-05-19T09:11:59.9Z</time>
 </trkpt>
 <trkpt lat="45.290615" lon="4.115271">
 <time>2011-05-19T09:12:04.2Z</time>
 </trkpt>
 <trkpt lat="45.289975" lon="4.114972">
 <time>2011-05-19T09:12:09.2Z</time>
 </trkpt>
 <trkpt lat="45.286643" lon="4.113734">
 <time>2011-05-19T09:12:30.2Z</time>
 </trkpt>
 <trkpt lat="45.286022" lon="4.113768">
 <time>2011-05-19T09:12:35.2Z</time>
 </trkpt>
 <trkpt lat="45.285379" lon="4.114138">
 <time>2011-05-19T09:12:40.2Z</time>
 </trkpt>
 <trkpt lat="45.284773" lon="4.113978">
 <time>2011-05-19T09:12:45.2Z</time>
 </trkpt>
 <trkpt lat="45.284376" lon="4.112979">
 <time>2011-05-19T09:12:49.2Z</time>
 </trkpt>
 <trkpt lat="45.283953" lon="4.111998">
 <time>2011-05-19T09:12:54.2Z</time>
 </trkpt>
 <trkpt lat="45.282996" lon="4.110453">
 <time>2011-05-19T09:13:00.2Z</time>
 </trkpt>
 <trkpt lat="45.282305" lon="4.109863">
 <time>2011-05-19T09:13:05.2Z</time>
 </trkpt>
 <trkpt lat="45.281328" lon="4.110045">
 <time>2011-05-19T09:13:10.2Z</time>
 </trkpt>
 <trkpt lat="45.280308" lon="4.110985">
 <time>2011-05-19T09:13:15.2Z</time>
 </trkpt>
 <trkpt lat="45.279083" lon="4.111572">
 <time>2011-05-19T09:13:20.2Z</time>
 </trkpt>
 <trkpt lat="45.277937" lon="4.111723">
 <time>2011-05-19T09:13:25.2Z</time>
 </trkpt>
 <trkpt lat="45.275232" lon="4.112397">
 <time>2011-05-19T09:13:37.2Z</time>
 </trkpt>
 <trkpt lat="45.274472" lon="4.112367">
 <time>2011-05-19T09:13:42.2Z</time>
 </trkpt>
 <trkpt lat="45.273699" lon="4.112291">
 <time>2011-05-19T09:13:47.2Z</time>
 </trkpt>
 <trkpt lat="45.272891" lon="4.112791">
 <time>2011-05-19T09:13:52.2Z</time>
 </trkpt>
 <trkpt lat="45.272028" lon="4.113335">
 <time>2011-05-19T09:13:56.2Z</time>
 </trkpt>
 <trkpt lat="45.270877" lon="4.11366">
 <time>2011-05-19T09:14:03.2Z</time>
 </trkpt>
 <trkpt lat="45.270195" lon="4.113613">
 <time>2011-05-19T09:14:08.2Z</time>
 </trkpt>
 <trkpt lat="45.269444" lon="4.112974">
 <time>2011-05-19T09:14:13.2Z</time>
 </trkpt>
 <trkpt lat="45.268613" lon="4.112012">
 <time>2011-05-19T09:14:18.2Z</time>
 </trkpt>
 <trkpt lat="45.265437" lon="4.109812">
 <time>2011-05-19T09:14:39.2Z</time>
 </trkpt>
 <trkpt lat="45.26492" lon="4.109268">
 <time>2011-05-19T09:14:44.2Z</time>
 </trkpt>
 <trkpt lat="45.263848" lon="4.107261">
 <time>2011-05-19T09:14:54.2Z</time>
 </trkpt>
 <trkpt lat="45.263507" lon="4.106435">
 <time>2011-05-19T09:14:59.2Z</time>
 </trkpt>
 <trkpt lat="45.26314" lon="4.105358">
 <time>2011-05-19T09:15:04.2Z</time>
 </trkpt>
 <trkpt lat="45.262718" lon="4.104394">
 <time>2011-05-19T09:15:09.2Z</time>
 </trkpt>
 <trkpt lat="45.262201" lon="4.103491">
 <time>2011-05-19T09:15:14.2Z</time>
 </trkpt>
 <trkpt lat="45.261413" lon="4.102436">
 <time>2011-05-19T09:15:21.2Z</time>
 </trkpt>
 <trkpt lat="45.26101" lon="4.101943">
 <time>2011-05-19T09:15:26.2Z</time>
 </trkpt>
 <trkpt lat="45.260765" lon="4.101488">
 <time>2011-05-19T09:15:31.2Z</time>
 </trkpt>
 <trkpt lat="45.260448" lon="4.100778">
 <time>2011-05-19T09:15:36.2Z</time>
 </trkpt>
 <trkpt lat="45.260028" lon="4.100369">
 <time>2011-05-19T09:15:41.2Z</time>
 </trkpt>
 <trkpt lat="45.259641" lon="4.099932">
 <time>2011-05-19T09:15:46.2Z</time>
 </trkpt>
 <trkpt lat="45.25942" lon="4.099533">
 <time>2011-05-19T09:15:51.2Z</time>
 </trkpt>
 <trkpt lat="45.259108" lon="4.099379">
 <time>2011-05-19T09:15:56.2Z</time>
 </trkpt>
 <trkpt lat="45.25835" lon="4.099347">
 <time>2011-05-19T09:16:03.2Z</time>
 </trkpt>
 <trkpt lat="45.252848" lon="4.098771">
 <time>2011-05-19T09:16:40.2Z</time>
 </trkpt>
 <trkpt lat="45.252149" lon="4.098508">
 <time>2011-05-19T09:16:45.2Z</time>
 </trkpt>
 <trkpt lat="45.250325" lon="4.096833">
 <time>2011-05-19T09:16:54Z</time>
 </trkpt>
 <trkpt lat="45.248508" lon="4.095566">
 <time>2011-05-19T09:17:03.9Z</time>
 </trkpt>
 <trkpt lat="45.247916" lon="4.094964">
 <time>2011-05-19T09:17:07.9Z</time>
 </trkpt>
 <trkpt lat="45.247362" lon="4.094252">
 <time>2011-05-19T09:17:12.9Z</time>
 </trkpt>
 <trkpt lat="45.246349" lon="4.092439">
 <time>2011-05-19T09:17:19.9Z</time>
 </trkpt>
 <trkpt lat="45.245888" lon="4.091266">
 <time>2011-05-19T09:17:24.9Z</time>
 </trkpt>
 <trkpt lat="45.244445" lon="4.087061">
 <time>2011-05-19T09:17:36.9Z</time>
 </trkpt>
 <trkpt lat="45.243998" lon="4.086277">
 <time>2011-05-19T09:17:40.9Z</time>
 </trkpt>
 <trkpt lat="45.242928" lon="4.085072">
 <time>2011-05-19T09:17:45.9Z</time>
 </trkpt>
 <trkpt lat="45.242541" lon="4.083952">
 <time>2011-05-19T09:17:50.9Z</time>
 </trkpt>
 <trkpt lat="45.242484" lon="4.082268">
 <time>2011-05-19T09:17:55.9Z</time>
 </trkpt>
 <trkpt lat="45.242424" lon="4.080676">
 <time>2011-05-19T09:18:00.9Z</time>
 </trkpt>
 <trkpt lat="45.241863" lon="4.079172">
 <time>2011-05-19T09:18:04.9Z</time>
 </trkpt>
 <trkpt lat="45.241172" lon="4.077683">
 <time>2011-05-19T09:18:09.9Z</time>
 </trkpt>
 <trkpt lat="45.240743" lon="4.076427">
 <time>2011-05-19T09:18:13.9Z</time>
 </trkpt>
 <trkpt lat="45.240139" lon="4.074524">
 <time>2011-05-19T09:18:19.9Z</time>
 </trkpt>
 <trkpt lat="45.237802" lon="4.06804">
 <time>2011-05-19T09:18:40.9Z</time>
 </trkpt>
 <trkpt lat="45.23718" lon="4.066924">
 <time>2011-05-19T09:18:45.9Z</time>
 </trkpt>
 <trkpt lat="45.23631" lon="4.065981">
 <time>2011-05-19T09:18:50.9Z</time>
 </trkpt>
 <trkpt lat="45.23537" lon="4.064929">
 <time>2011-05-19T09:18:55.9Z</time>
 </trkpt>
 <trkpt lat="45.234594" lon="4.064508">
 <time>2011-05-19T09:19:00.9Z</time>
 </trkpt>
 <trkpt lat="45.23352" lon="4.064298">
 <time>2011-05-19T09:19:05.9Z</time>
 </trkpt>
 <trkpt lat="45.231975" lon="4.064193">
 <time>2011-05-19T09:19:12.9Z</time>
 </trkpt>
 <trkpt lat="45.231404" lon="4.063851">
 <time>2011-05-19T09:19:17.9Z</time>
 </trkpt>
 <trkpt lat="45.231105" lon="4.062919">
 <time>2011-05-19T09:19:22.9Z</time>
 </trkpt>
 <trkpt lat="45.231028" lon="4.061758">
 <time>2011-05-19T09:19:26.9Z</time>
 </trkpt>
 <trkpt lat="45.230744" lon="4.060852">
 <time>2011-05-19T09:19:31.9Z</time>
 </trkpt>
 <trkpt lat="45.230089" lon="4.059907">
 <time>2011-05-19T09:19:36.9Z</time>
 </trkpt>
 <trkpt lat="45.228786" lon="4.058231">
 <time>2011-05-19T09:19:42.9Z</time>
 </trkpt>
 <trkpt lat="45.227174" lon="4.056688">
 <time>2011-05-19T09:19:50.9Z</time>
 </trkpt>
 <trkpt lat="45.22666" lon="4.055675">
 <time>2011-05-19T09:19:55.9Z</time>
 </trkpt>
 <trkpt lat="45.226559" lon="4.054011">
 <time>2011-05-19T09:20:00.9Z</time>
 </trkpt>
 <trkpt lat="45.226696" lon="4.050495">
 <time>2011-05-19T09:20:10.3Z</time>
 </trkpt>
 <trkpt lat="45.226461" lon="4.049181">
 <time>2011-05-19T09:20:15.3Z</time>
 </trkpt>
 <trkpt lat="45.226139" lon="4.047556">
 <time>2011-05-19T09:20:19.9Z</time>
 </trkpt>
 <trkpt lat="45.226337" lon="4.046293">
 <time>2011-05-19T09:20:24.3Z</time>
 </trkpt>
 <trkpt lat="45.227119" lon="4.044127">
 <time>2011-05-19T09:20:29.9Z</time>
 </trkpt>
 <trkpt lat="45.227123" lon="4.042867">
 <time>2011-05-19T09:20:34.9Z</time>
 </trkpt>
 <trkpt lat="45.226187" lon="4.041893">
 <time>2011-05-19T09:20:39.9Z</time>
 </trkpt>
 <trkpt lat="45.225105" lon="4.041725">
 <time>2011-05-19T09:20:43.9Z</time>
 </trkpt>
 <trkpt lat="45.224703" lon="4.041159">
 <time>2011-05-19T09:20:48.3Z</time>
 </trkpt>
 <trkpt lat="45.22461" lon="4.039724">
 <time>2011-05-19T09:20:53.2Z</time>
 </trkpt>
 <trkpt lat="45.225125" lon="4.038314">
 <time>2011-05-19T09:20:58.2Z</time>
 </trkpt>
 <trkpt lat="45.225852" lon="4.036311">
 <time>2011-05-19T09:21:04.3Z</time>
 </trkpt>
 <trkpt lat="45.226118" lon="4.034993">
 <time>2011-05-19T09:21:09.3Z</time>
 </trkpt>
 <trkpt lat="45.22601" lon="4.033321">
 <time>2011-05-19T09:21:14.3Z</time>
 </trkpt>
 <trkpt lat="45.225438" lon="4.031792">
 <time>2011-05-19T09:21:19.3Z</time>
 </trkpt>
 <trkpt lat="45.224299" lon="4.02851">
 <time>2011-05-19T09:21:28.3Z</time>
 </trkpt>
 <trkpt lat="45.223571" lon="4.027102">
 <time>2011-05-19T09:21:33.9Z</time>
 </trkpt>
 <trkpt lat="45.222747" lon="4.026237">
 <time>2011-05-19T09:21:37.9Z</time>
 </trkpt>
 <trkpt lat="45.221739" lon="4.025298">
 <time>2011-05-19T09:21:42.9Z</time>
 </trkpt>
 <trkpt lat="45.221139" lon="4.024378">
 <time>2011-05-19T09:21:46.9Z</time>
 </trkpt>
 <trkpt lat="45.220582" lon="4.022743">
 <time>2011-05-19T09:21:51.9Z</time>
 </trkpt>
 <trkpt lat="45.220079" lon="4.022258">
 <time>2011-05-19T09:21:55.9Z</time>
 </trkpt>
 <trkpt lat="45.219035" lon="4.021832">
 <time>2011-05-19T09:22:00.9Z</time>
 </trkpt>
 <trkpt lat="45.218231" lon="4.0219">
 <time>2011-05-19T09:22:04.9Z</time>
 </trkpt>
 <trkpt lat="45.217357" lon="4.022737">
 <time>2011-05-19T09:22:09.9Z</time>
 </trkpt>
 <trkpt lat="45.216627" lon="4.023559">
 <time>2011-05-19T09:22:13.9Z</time>
 </trkpt>
 <trkpt lat="45.215291" lon="4.024576">
 <time>2011-05-19T09:22:19.2Z</time>
 </trkpt>
 <trkpt lat="45.214449" lon="4.025456">
 <time>2011-05-19T09:22:24.9Z</time>
 </trkpt>
 <trkpt lat="45.21405" lon="4.026658">
 <time>2011-05-19T09:22:29.9Z</time>
 </trkpt>
 <trkpt lat="45.21388" lon="4.028067">
 <time>2011-05-19T09:22:34.9Z</time>
 </trkpt>
 <trkpt lat="45.213546" lon="4.029066">
 <time>2011-05-19T09:22:39.9Z</time>
 </trkpt>
 <trkpt lat="45.213029" lon="4.029097">
 <time>2011-05-19T09:22:43.9Z</time>
 </trkpt>
 <trkpt lat="45.211905" lon="4.028287">
 <time>2011-05-19T09:22:49.9Z</time>
 </trkpt>
 <trkpt lat="45.211419" lon="4.028674">
 <time>2011-05-19T09:22:54.9Z</time>
 </trkpt>
 <trkpt lat="45.211109" lon="4.029344">
 <time>2011-05-19T09:22:59.9Z</time>
 </trkpt>
 <trkpt lat="45.211154" lon="4.029597">
 <time>2011-05-19T09:23:04.9Z</time>
 </trkpt>
 <trkpt lat="45.211278" lon="4.029954">
 <time>2011-05-19T09:23:09.9Z</time>
 </trkpt>
 <trkpt lat="45.211109" lon="4.030038">
 <time>2011-05-19T09:23:13.9Z</time>
 </trkpt>
 <trkpt lat="45.210898" lon="4.030138">
 <time>2011-05-19T09:23:18.9Z</time>
 </trkpt>
 <trkpt lat="45.210845" lon="4.029937">
 <time>2011-05-19T09:23:23.9Z</time>
 </trkpt>
 <trkpt lat="45.210953" lon="4.02982">
 <time>2011-05-19T09:23:36.9Z</time>
 </trkpt>
 <trkpt lat="45.211077" lon="4.029915">
 <time>2011-05-19T09:28:45.9Z</time>
 </trkpt>
 <trkpt lat="45.211197" lon="4.030047">
 <time>2011-05-19T09:28:54Z</time>
 </trkpt>
 <trkpt lat="45.211297" lon="4.029896">
 <time>2011-05-19T09:29:07.3Z</time>
 </trkpt>
 <trkpt lat="45.211252" lon="4.029691">
 <time>2011-05-19T09:29:11.9Z</time>
 </trkpt>
 <trkpt lat="45.211163" lon="4.029531">
 <time>2011-05-19T09:29:21.9Z</time>
 </trkpt>
 <trkpt lat="45.211003" lon="4.029455">
 <time>2011-05-19T09:29:31.9Z</time>
 </trkpt>
 <trkpt lat="45.210662" lon="4.029731">
 <time>2011-05-19T09:29:36.9Z</time>
 </trkpt>
 <trkpt lat="45.210072" lon="4.030185">
 <time>2011-05-19T09:29:41.9Z</time>
 </trkpt>
 <trkpt lat="45.206857" lon="4.03181">
 <time>2011-05-19T09:30:10.3Z</time>
 </trkpt>
 <trkpt lat="45.205892" lon="4.03232">
 <time>2011-05-19T09:30:18.9Z</time>
 </trkpt>
 <trkpt lat="45.205519" lon="4.032545">
 <time>2011-05-19T09:30:23.9Z</time>
 </trkpt>
 <trkpt lat="45.20463" lon="4.032733">
 <time>2011-05-19T09:30:30.9Z</time>
 </trkpt>
 <trkpt lat="45.204448" lon="4.032835">
 <time>2011-05-19T09:30:35.3Z</time>
 </trkpt>
 <trkpt lat="45.204179" lon="4.032974">
 <time>2011-05-19T09:30:39.9Z</time>
 </trkpt>
 <trkpt lat="45.203765" lon="4.033012">
 <time>2011-05-19T09:30:46.9Z</time>
 </trkpt>
 <trkpt lat="45.203553" lon="4.032992">
 <time>2011-05-19T09:30:51.9Z</time>
 </trkpt>
 <trkpt lat="45.203423" lon="4.033096">
 <time>2011-05-19T09:30:59.9Z</time>
 </trkpt>
 <trkpt lat="45.203415" lon="4.033584">
 <time>2011-05-19T09:31:04.9Z</time>
 </trkpt>
 <trkpt lat="45.203376" lon="4.034182">
 <time>2011-05-19T09:31:08.9Z</time>
 </trkpt>
 <trkpt lat="45.203015" lon="4.034608">
 <time>2011-05-19T09:31:13.9Z</time>
 </trkpt>
 <trkpt lat="45.202602" lon="4.035117">
 <time>2011-05-19T09:31:18.9Z</time>
 </trkpt>
 <trkpt lat="45.202254" lon="4.035782">
 <time>2011-05-19T09:31:23.9Z</time>
 </trkpt>
 <trkpt lat="45.202268" lon="4.036497">
 <time>2011-05-19T09:31:28.9Z</time>
 </trkpt>
 <trkpt lat="45.202148" lon="4.037036">
 <time>2011-05-19T09:31:33.9Z</time>
 </trkpt>
 <trkpt lat="45.201696" lon="4.037109">
 <time>2011-05-19T09:31:38.9Z</time>
 </trkpt>
 <trkpt lat="45.201473" lon="4.036997">
 <time>2011-05-19T09:31:42.9Z</time>
 </trkpt>
 <trkpt lat="45.20165" lon="4.037063">
 <time>2011-05-19T09:31:52.9Z</time>
 </trkpt>
 <trkpt lat="45.201802" lon="4.037055">
 <time>2011-05-19T09:31:57.9Z</time>
 </trkpt>
 <trkpt lat="45.201772" lon="4.037216">
 <time>2011-05-19T09:41:58.9Z</time>
 </trkpt>
 <trkpt lat="45.201744" lon="4.037235">
 <time>2011-05-19T09:51:59.9Z</time>
 </trkpt>
 <trkpt lat="45.201754" lon="4.037042">
 <time>2011-05-19T09:58:34.2Z</time>
 </trkpt>
 <trkpt lat="45.201614" lon="4.037047">
 <time>2011-05-19T09:59:37.9Z</time>
 </trkpt>
 <trkpt lat="45.201456" lon="4.037046">
 <time>2011-05-19T09:59:41.9Z</time>
 </trkpt>
 <trkpt lat="45.200822" lon="4.037">
 <time>2011-05-19T09:59:47.9Z</time>
 </trkpt>
 <trkpt lat="45.200306" lon="4.03695">
 <time>2011-05-19T09:59:52.9Z</time>
 </trkpt>
 <trkpt lat="45.198734" lon="4.03669">
 <time>2011-05-19T10:00:05.9Z</time>
 </trkpt>
 <trkpt lat="45.198464" lon="4.036697">
 <time>2011-05-19T10:00:10.9Z</time>
 </trkpt>
 <trkpt lat="45.198242" lon="4.036555">
 <time>2011-05-19T10:00:15.9Z</time>
 </trkpt>
 <trkpt lat="45.198102" lon="4.036825">
 <time>2011-05-19T10:00:20.9Z</time>
 </trkpt>
 <trkpt lat="45.197839" lon="4.037828">
 <time>2011-05-19T10:00:25.9Z</time>
 </trkpt>
 <trkpt lat="45.197698" lon="4.038665">
 <time>2011-05-19T10:00:31.3Z</time>
 </trkpt>
 <trkpt lat="45.197348" lon="4.0396">
 <time>2011-05-19T10:00:35.9Z</time>
 </trkpt>
 <trkpt lat="45.19708" lon="4.040471">
 <time>2011-05-19T10:00:40.9Z</time>
 </trkpt>
 <trkpt lat="45.196942" lon="4.041308">
 <time>2011-05-19T10:00:46.9Z</time>
 </trkpt>
 <trkpt lat="45.196975" lon="4.041532">
 <time>2011-05-19T10:01:44.2Z</time>
 </trkpt>
 <trkpt lat="45.197268" lon="4.044256">
 <time>2011-05-19T10:01:58.2Z</time>
 </trkpt>
 <trkpt lat="45.197248" lon="4.044934">
 <time>2011-05-19T10:02:02.2Z</time>
 </trkpt>
 <trkpt lat="45.19682" lon="4.045929">
 <time>2011-05-19T10:02:07.2Z</time>
 </trkpt>
 <trkpt lat="45.195851" lon="4.046435">
 <time>2011-05-19T10:02:12.2Z</time>
 </trkpt>
 <trkpt lat="45.195069" lon="4.046795">
 <time>2011-05-19T10:02:17.2Z</time>
 </trkpt>
 <trkpt lat="45.194445" lon="4.046943">
 <time>2011-05-19T10:02:22.2Z</time>
 </trkpt>
 <trkpt lat="45.19389" lon="4.046962">
 <time>2011-05-19T10:02:26.2Z</time>
 </trkpt>
 <trkpt lat="45.193463" lon="4.046894">
 <time>2011-05-19T10:02:30.2Z</time>
 </trkpt>
 <trkpt lat="45.192899" lon="4.046701">
 <time>2011-05-19T10:02:35.2Z</time>
 </trkpt>
 <trkpt lat="45.191737" lon="4.04666">
 <time>2011-05-19T10:02:45.2Z</time>
 </trkpt>
 <trkpt lat="45.191064" lon="4.046719">
 <time>2011-05-19T10:02:49.2Z</time>
 </trkpt>
 <trkpt lat="45.19021" lon="4.047024">
 <time>2011-05-19T10:02:53.9Z</time>
 </trkpt>
 <trkpt lat="45.189441" lon="4.047305">
 <time>2011-05-19T10:02:58.3Z</time>
 </trkpt>
 <trkpt lat="45.188492" lon="4.046899">
 <time>2011-05-19T10:03:02.3Z</time>
 </trkpt>
 <trkpt lat="45.187715" lon="4.046218">
 <time>2011-05-19T10:03:07.3Z</time>
 </trkpt>
 <trkpt lat="45.186191" lon="4.044838">
 <time>2011-05-19T10:03:15.3Z</time>
 </trkpt>
 <trkpt lat="45.185488" lon="4.044484">
 <time>2011-05-19T10:03:20.3Z</time>
 </trkpt>
 <trkpt lat="45.184474" lon="4.044418">
 <time>2011-05-19T10:03:25.2Z</time>
 </trkpt>
 <trkpt lat="45.183387" lon="4.044701">
 <time>2011-05-19T10:03:30.2Z</time>
 </trkpt>
 <trkpt lat="45.182633" lon="4.044901">
 <time>2011-05-19T10:03:34.2Z</time>
 </trkpt>
 <trkpt lat="45.181557" lon="4.044964">
 <time>2011-05-19T10:03:38.9Z</time>
 </trkpt>
 <trkpt lat="45.180085" lon="4.044977">
 <time>2011-05-19T10:03:46.3Z</time>
 </trkpt>
 <trkpt lat="45.179725" lon="4.045394">
 <time>2011-05-19T10:03:51.3Z</time>
 </trkpt>
 <trkpt lat="45.179917" lon="4.046145">
 <time>2011-05-19T10:03:55.3Z</time>
 </trkpt>
 <trkpt lat="45.180731" lon="4.047261">
 <time>2011-05-19T10:04:01.3Z</time>
 </trkpt>
 <trkpt lat="45.181021" lon="4.048261">
 <time>2011-05-19T10:04:06.3Z</time>
 </trkpt>
 <trkpt lat="45.181362" lon="4.049398">
 <time>2011-05-19T10:04:11.3Z</time>
 </trkpt>
 <trkpt lat="45.18214" lon="4.050151">
 <time>2011-05-19T10:04:16.3Z</time>
 </trkpt>
 <trkpt lat="45.182732" lon="4.051057">
 <time>2011-05-19T10:04:21.3Z</time>
 </trkpt>
 <trkpt lat="45.182631" lon="4.052254">
 <time>2011-05-19T10:04:25.3Z</time>
 </trkpt>
 <trkpt lat="45.182367" lon="4.054694">
 <time>2011-05-19T10:04:31.3Z</time>
 </trkpt>
 <trkpt lat="45.181929" lon="4.057753">
 <time>2011-05-19T10:04:41.9Z</time>
 </trkpt>
 <trkpt lat="45.181945" lon="4.058651">
 <time>2011-05-19T10:04:46.3Z</time>
 </trkpt>
 <trkpt lat="45.1821" lon="4.059736">
 <time>2011-05-19T10:04:50.3Z</time>
 </trkpt>
 <trkpt lat="45.1819" lon="4.060901">
 <time>2011-05-19T10:04:55.3Z</time>
 </trkpt>
 <trkpt lat="45.180947" lon="4.062781">
 <time>2011-05-19T10:05:01.3Z</time>
 </trkpt>
 <trkpt lat="45.180654" lon="4.063906">
 <time>2011-05-19T10:05:05.3Z</time>
 </trkpt>
 <trkpt lat="45.180305" lon="4.064645">
 <time>2011-05-19T10:05:09.3Z</time>
 </trkpt>
 <trkpt lat="45.179443" lon="4.066007">
 <time>2011-05-19T10:05:14.3Z</time>
 </trkpt>
 <trkpt lat="45.178712" lon="4.066402">
 <time>2011-05-19T10:05:19.3Z</time>
 </trkpt>
 <trkpt lat="45.177631" lon="4.066531">
 <time>2011-05-19T10:05:24.3Z</time>
 </trkpt>
 <trkpt lat="45.176669" lon="4.067202">
 <time>2011-05-19T10:05:29.3Z</time>
 </trkpt>
 <trkpt lat="45.175043" lon="4.069009">
 <time>2011-05-19T10:05:39.3Z</time>
 </trkpt>
 <trkpt lat="45.174575" lon="4.069602">
 <time>2011-05-19T10:05:45.3Z</time>
 </trkpt>
 <trkpt lat="45.174283" lon="4.070078">
 <time>2011-05-19T10:05:50.3Z</time>
 </trkpt>
 <trkpt lat="45.173898" lon="4.070845">
 <time>2011-05-19T10:05:55.3Z</time>
 </trkpt>
 <trkpt lat="45.173449" lon="4.071429">
 <time>2011-05-19T10:06:00.3Z</time>
 </trkpt>
 <trkpt lat="45.172774" lon="4.072044">
 <time>2011-05-19T10:06:05.3Z</time>
 </trkpt>
 <trkpt lat="45.172284" lon="4.072353">
 <time>2011-05-19T10:06:10.3Z</time>
 </trkpt>
 <trkpt lat="45.171751" lon="4.072422">
 <time>2011-05-19T10:06:14.3Z</time>
 </trkpt>
 <trkpt lat="45.171135" lon="4.072347">
 <time>2011-05-19T10:06:19.3Z</time>
 </trkpt>
 <trkpt lat="45.170824" lon="4.072563">
 <time>2011-05-19T10:06:23.2Z</time>
 </trkpt>
 <trkpt lat="45.1708" lon="4.073095">
 <time>2011-05-19T10:06:27.2Z</time>
 </trkpt>
 <trkpt lat="45.170988" lon="4.073735">
 <time>2011-05-19T10:06:32.3Z</time>
 </trkpt>
 <trkpt lat="45.170746" lon="4.074308">
 <time>2011-05-19T10:06:36.3Z</time>
 </trkpt>
 <trkpt lat="45.170042" lon="4.074588">
 <time>2011-05-19T10:06:41.9Z</time>
 </trkpt>
 <trkpt lat="45.169122" lon="4.074243">
 <time>2011-05-19T10:06:47.3Z</time>
 </trkpt>
 <trkpt lat="45.168653" lon="4.073827">
 <time>2011-05-19T10:06:51.9Z</time>
 </trkpt>
 <trkpt lat="45.167986" lon="4.072853">
 <time>2011-05-19T10:06:57.9Z</time>
 </trkpt>
 <trkpt lat="45.167693" lon="4.072717">
 <time>2011-05-19T10:07:02.2Z</time>
 </trkpt>
 <trkpt lat="45.167396" lon="4.073061">
 <time>2011-05-19T10:07:06.9Z</time>
 </trkpt>
 <trkpt lat="45.167624" lon="4.073543">
 <time>2011-05-19T10:07:11.2Z</time>
 </trkpt>
 <trkpt lat="45.168104" lon="4.07413">
 <time>2011-05-19T10:07:15.2Z</time>
 </trkpt>
 <trkpt lat="45.168066" lon="4.075108">
 <time>2011-05-19T10:07:19.9Z</time>
 </trkpt>
 <trkpt lat="45.167456" lon="4.0757">
 <time>2011-05-19T10:07:24.3Z</time>
 </trkpt>
 <trkpt lat="45.166196" lon="4.076037">
 <time>2011-05-19T10:07:29.3Z</time>
 </trkpt>
 <trkpt lat="45.165268" lon="4.076569">
 <time>2011-05-19T10:07:33.3Z</time>
 </trkpt>
 <trkpt lat="45.164078" lon="4.077338">
 <time>2011-05-19T10:07:38.3Z</time>
 </trkpt>
 <trkpt lat="45.162363" lon="4.07807">
 <time>2011-05-19T10:07:45.2Z</time>
 </trkpt>
 <trkpt lat="45.161814" lon="4.078708">
 <time>2011-05-19T10:07:50.2Z</time>
 </trkpt>
 <trkpt lat="45.161004" lon="4.079875">
 <time>2011-05-19T10:07:55.2Z</time>
 </trkpt>
 <trkpt lat="45.159982" lon="4.081236">
 <time>2011-05-19T10:07:59.2Z</time>
 </trkpt>
 <trkpt lat="45.158991" lon="4.083057">
 <time>2011-05-19T10:08:05.2Z</time>
 </trkpt>
 <trkpt lat="45.158556" lon="4.084101">
 <time>2011-05-19T10:08:10.2Z</time>
 </trkpt>
 <trkpt lat="45.158203" lon="4.085379">
 <time>2011-05-19T10:08:14.2Z</time>
 </trkpt>
 <trkpt lat="45.1575" lon="4.086073">
 <time>2011-05-19T10:08:19.2Z</time>
 </trkpt>
 <trkpt lat="45.156324" lon="4.087305">
 <time>2011-05-19T10:08:27.3Z</time>
 </trkpt>
 <trkpt lat="45.155968" lon="4.087522">
 <time>2011-05-19T10:08:32.3Z</time>
 </trkpt>
 <trkpt lat="45.154189" lon="4.087911">
 <time>2011-05-19T10:08:42.9Z</time>
 </trkpt>
 <trkpt lat="45.153533" lon="4.088299">
 <time>2011-05-19T10:08:47.9Z</time>
 </trkpt>
 <trkpt lat="45.153066" lon="4.088964">
 <time>2011-05-19T10:08:52.2Z</time>
 </trkpt>
 <trkpt lat="45.152843" lon="4.09015">
 <time>2011-05-19T10:08:57Z</time>
 </trkpt>
 <trkpt lat="45.152554" lon="4.091271">
 <time>2011-05-19T10:09:01.9Z</time>
 </trkpt>
 <trkpt lat="45.152123" lon="4.092339">
 <time>2011-05-19T10:09:06.9Z</time>
 </trkpt>
 <trkpt lat="45.152259" lon="4.093675">
 <time>2011-05-19T10:09:11.9Z</time>
 </trkpt>
 <trkpt lat="45.152212" lon="4.094923">
 <time>2011-05-19T10:09:16.9Z</time>
 </trkpt>
 <trkpt lat="45.151466" lon="4.095953">
 <time>2011-05-19T10:09:21.9Z</time>
 </trkpt>
 <trkpt lat="45.150109" lon="4.098293">
 <time>2011-05-19T10:09:29.9Z</time>
 </trkpt>
 <trkpt lat="45.149603" lon="4.099414">
 <time>2011-05-19T10:09:34.9Z</time>
 </trkpt>
 <trkpt lat="45.14887" lon="4.100544">
 <time>2011-05-19T10:09:39.3Z</time>
 </trkpt>
 <trkpt lat="45.148663" lon="4.101354">
 <time>2011-05-19T10:09:43.3Z</time>
 </trkpt>
 <trkpt lat="45.148756" lon="4.103042">
 <time>2011-05-19T10:09:48.3Z</time>
 </trkpt>
 <trkpt lat="45.148859" lon="4.104508">
 <time>2011-05-19T10:09:52.9Z</time>
 </trkpt>
 <trkpt lat="45.148806" lon="4.105402">
 <time>2011-05-19T10:09:57Z</time>
 </trkpt>
 <trkpt lat="45.148487" lon="4.106442">
 <time>2011-05-19T10:10:01.9Z</time>
 </trkpt>
 <trkpt lat="45.148105" lon="4.106992">
 <time>2011-05-19T10:10:06.3Z</time>
 </trkpt>
 <trkpt lat="45.146064" lon="4.108766">
 <time>2011-05-19T10:10:26.3Z</time>
 </trkpt>
 <trkpt lat="45.145708" lon="4.109327">
 <time>2011-05-19T10:10:30.9Z</time>
 </trkpt>
 <trkpt lat="45.145394" lon="4.109901">
 <time>2011-05-19T10:10:34.2Z</time>
 </trkpt>
 <trkpt lat="45.145121" lon="4.110193">
 <time>2011-05-19T10:10:39.2Z</time>
 </trkpt>
 <trkpt lat="45.144959" lon="4.110763">
 <time>2011-05-19T10:10:44.2Z</time>
 </trkpt>
 <trkpt lat="45.14448" lon="4.111973">
 <time>2011-05-19T10:10:56.2Z</time>
 </trkpt>
 <trkpt lat="45.144319" lon="4.112566">
 <time>2011-05-19T10:11:01.3Z</time>
 </trkpt>
 <trkpt lat="45.144205" lon="4.113312">
 <time>2011-05-19T10:11:05.3Z</time>
 </trkpt>
 <trkpt lat="45.143896" lon="4.11777">
 <time>2011-05-19T10:11:28.9Z</time>
 </trkpt>
 <trkpt lat="45.143853" lon="4.118121">
 <time>2011-05-19T10:11:32.9Z</time>
 </trkpt>
 <trkpt lat="45.143767" lon="4.120718">
 <time>2011-05-19T10:11:54.9Z</time>
 </trkpt>
 <trkpt lat="45.143627" lon="4.121511">
 <time>2011-05-19T10:12:01.3Z</time>
 </trkpt>
 <trkpt lat="45.143606" lon="4.123317">
 <time>2011-05-19T10:12:13.9Z</time>
 </trkpt>
 <trkpt lat="45.143524" lon="4.12351">
 <time>2011-05-19T10:12:18.9Z</time>
 </trkpt>
 <trkpt lat="45.143364" lon="4.123528">
 <time>2011-05-19T10:12:23.9Z</time>
 </trkpt>
 <trkpt lat="45.143212" lon="4.123499">
 <time>2011-05-19T10:12:32.9Z</time>
 </trkpt>
 <trkpt lat="45.143065" lon="4.12352">
 <time>2011-05-19T10:12:37.9Z</time>
 </trkpt>
 <trkpt lat="45.142855" lon="4.123446">
 <time>2011-05-19T10:12:47.9Z</time>
 </trkpt>
 <trkpt lat="45.142727" lon="4.123535">
 <time>2011-05-19T10:13:10.3Z</time>
 </trkpt>
 <trkpt lat="45.142487" lon="4.123545">
 <time>2011-05-19T10:13:19.3Z</time>
 </trkpt>
 <trkpt lat="45.14231" lon="4.123697">
 <time>2011-05-19T10:13:23.9Z</time>
 </trkpt>
 <trkpt lat="45.142188" lon="4.12389">
 <time>2011-05-19T10:13:28.9Z</time>
 </trkpt>
 <trkpt lat="45.142088" lon="4.124118">
 <time>2011-05-19T10:13:33.2Z</time>
 </trkpt>
 <trkpt lat="45.141948" lon="4.124401">
 <time>2011-05-19T10:13:37.9Z</time>
 </trkpt>
 <trkpt lat="45.141863" lon="4.124558">
 <time>2011-05-19T10:13:41.9Z</time>
 </trkpt>
 <trkpt lat="45.141824" lon="4.12476">
 <time>2011-05-19T10:13:46.3Z</time>
 </trkpt>
 <trkpt lat="45.141889" lon="4.124993">
 <time>2011-05-19T10:13:50.3Z</time>
 </trkpt>
 <trkpt lat="45.141996" lon="4.125285">
 <time>2011-05-19T10:13:55.9Z</time>
 </trkpt>
 <trkpt lat="45.142157" lon="4.125446">
 <time>2011-05-19T10:14:00.2Z</time>
 </trkpt>
 <trkpt lat="45.142416" lon="4.12553">
 <time>2011-05-19T10:14:04.9Z</time>
 </trkpt>
 <trkpt lat="45.142726" lon="4.125521">
 <time>2011-05-19T10:14:09.9Z</time>
 </trkpt>
 <trkpt lat="45.143038" lon="4.125512">
 <time>2011-05-19T10:14:14.9Z</time>
 </trkpt>
 <trkpt lat="45.143363" lon="4.125527">
 <time>2011-05-19T10:14:19.3Z</time>
 </trkpt>
 <trkpt lat="45.143735" lon="4.125648">
 <time>2011-05-19T10:14:23.9Z</time>
 </trkpt>
 <trkpt lat="45.144436" lon="4.125936">
 <time>2011-05-19T10:14:30.9Z</time>
 </trkpt>
 <trkpt lat="45.144708" lon="4.126137">
 <time>2011-05-19T10:14:35.3Z</time>
 </trkpt>
 <trkpt lat="45.145128" lon="4.126588">
 <time>2011-05-19T10:14:40.3Z</time>
 </trkpt>
 <trkpt lat="45.145617" lon="4.127066">
 <time>2011-05-19T10:14:45.3Z</time>
 </trkpt>
 <trkpt lat="45.146262" lon="4.127609">
 <time>2011-05-19T10:14:50.9Z</time>
 </trkpt>
 <trkpt lat="45.146629" lon="4.127851">
 <time>2011-05-19T10:14:55.3Z</time>
 </trkpt>
 <trkpt lat="45.147733" lon="4.128137">
 <time>2011-05-19T10:15:03.2Z</time>
 </trkpt>
 <trkpt lat="45.153984" lon="4.131937">
 <time>2011-05-19T10:15:57.3Z</time>
 </trkpt>
 <trkpt lat="45.154157" lon="4.132093">
 <time>2011-05-19T10:16:02.3Z</time>
 </trkpt>
 <trkpt lat="45.155194" lon="4.132673">
 <time>2011-05-19T10:16:11.3Z</time>
 </trkpt>
 <trkpt lat="45.155485" lon="4.132839">
 <time>2011-05-19T10:16:16.3Z</time>
 </trkpt>
 <trkpt lat="45.155587" lon="4.133002">
 <time>2011-05-19T10:18:17Z</time>
 </trkpt>
 <trkpt lat="45.155859" lon="4.13316">
 <time>2011-05-19T10:18:21.2Z</time>
 </trkpt>
 <trkpt lat="45.158676" lon="4.134825">
 <time>2011-05-19T10:18:41.3Z</time>
 </trkpt>
 <trkpt lat="45.159021" lon="4.135152">
 <time>2011-05-19T10:18:46.3Z</time>
 </trkpt>
 <trkpt lat="45.159365" lon="4.13563">
 <time>2011-05-19T10:18:51.3Z</time>
 </trkpt>
 <trkpt lat="45.159684" lon="4.136309">
 <time>2011-05-19T10:18:55.3Z</time>
 </trkpt>
 <trkpt lat="45.160883" lon="4.140734">
 <time>2011-05-19T10:19:11.3Z</time>
 </trkpt>
 <trkpt lat="45.160967" lon="4.141758">
 <time>2011-05-19T10:19:15.9Z</time>
 </trkpt>
 <trkpt lat="45.161009" lon="4.143225">
 <time>2011-05-19T10:19:20.3Z</time>
 </trkpt>
 <trkpt lat="45.160986" lon="4.144297">
 <time>2011-05-19T10:19:25.3Z</time>
 </trkpt>
 <trkpt lat="45.161154" lon="4.145482">
 <time>2011-05-19T10:19:30.2Z</time>
 </trkpt>
 <trkpt lat="45.161558" lon="4.146593">
 <time>2011-05-19T10:19:34.2Z</time>
 </trkpt>
 <trkpt lat="45.162291" lon="4.147749">
 <time>2011-05-19T10:19:39.2Z</time>
 </trkpt>
 <trkpt lat="45.164083" lon="4.152329">
 <time>2011-05-19T10:19:53.9Z</time>
 </trkpt>
 <trkpt lat="45.16432" lon="4.15315">
 <time>2011-05-19T10:19:57.9Z</time>
 </trkpt>
 <trkpt lat="45.164522" lon="4.154971">
 <time>2011-05-19T10:20:03.3Z</time>
 </trkpt>
 <trkpt lat="45.164563" lon="4.157135">
 <time>2011-05-19T10:20:08.3Z</time>
 </trkpt>
 <trkpt lat="45.164415" lon="4.158308">
 <time>2011-05-19T10:20:12.3Z</time>
 </trkpt>
 <trkpt lat="45.164039" lon="4.159574">
 <time>2011-05-19T10:20:17.3Z</time>
 </trkpt>
 <trkpt lat="45.163816" lon="4.161034">
 <time>2011-05-19T10:20:21.9Z</time>
 </trkpt>
 <trkpt lat="45.163769" lon="4.16284">
 <time>2011-05-19T10:20:27.2Z</time>
 </trkpt>
 <trkpt lat="45.16336" lon="4.16381">
 <time>2011-05-19T10:20:32.2Z</time>
 </trkpt>
 <trkpt lat="45.162741" lon="4.164421">
 <time>2011-05-19T10:20:36.3Z</time>
 </trkpt>
 <trkpt lat="45.162355" lon="4.165466">
 <time>2011-05-19T10:20:41.2Z</time>
 </trkpt>
 <trkpt lat="45.161818" lon="4.166267">
 <time>2011-05-19T10:20:45.9Z</time>
 </trkpt>
 <trkpt lat="45.161518" lon="4.167242">
 <time>2011-05-19T10:20:49.9Z</time>
 </trkpt>
 <trkpt lat="45.161585" lon="4.168209">
 <time>2011-05-19T10:20:54.9Z</time>
 </trkpt>
 <trkpt lat="45.161492" lon="4.169232">
 <time>2011-05-19T10:21:00.3Z</time>
 </trkpt>
 <trkpt lat="45.161989" lon="4.170105">
 <time>2011-05-19T10:21:04.9Z</time>
 </trkpt>
 <trkpt lat="45.162632" lon="4.170253">
 <time>2011-05-19T10:21:08.9Z</time>
 </trkpt>
 <trkpt lat="45.163032" lon="4.169978">
 <time>2011-05-19T10:21:12.9Z</time>
 </trkpt>
 <trkpt lat="45.163423" lon="4.170027">
 <time>2011-05-19T10:21:17.3Z</time>
 </trkpt>
 <trkpt lat="45.16361" lon="4.170778">
 <time>2011-05-19T10:21:22.3Z</time>
 </trkpt>
 <trkpt lat="45.163249" lon="4.171876">
 <time>2011-05-19T10:21:26.9Z</time>
 </trkpt>
 <trkpt lat="45.162586" lon="4.172855">
 <time>2011-05-19T10:21:30.9Z</time>
 </trkpt>
 <trkpt lat="45.16168" lon="4.173754">
 <time>2011-05-19T10:21:35.9Z</time>
 </trkpt>
 <trkpt lat="45.161129" lon="4.174662">
 <time>2011-05-19T10:21:39.9Z</time>
 </trkpt>
 <trkpt lat="45.161208" lon="4.175605">
 <time>2011-05-19T10:21:44.9Z</time>
 </trkpt>
 <trkpt lat="45.161695" lon="4.176843">
 <time>2011-05-19T10:21:49.9Z</time>
 </trkpt>
 <trkpt lat="45.162237" lon="4.177596">
 <time>2011-05-19T10:21:54.2Z</time>
 </trkpt>
 <trkpt lat="45.162988" lon="4.177647">
 <time>2011-05-19T10:21:58.9Z</time>
 </trkpt>
 <trkpt lat="45.164085" lon="4.17702">
 <time>2011-05-19T10:22:03.9Z</time>
 </trkpt>
 <trkpt lat="45.164968" lon="4.176628">
 <time>2011-05-19T10:22:07.9Z</time>
 </trkpt>
 <trkpt lat="45.165596" lon="4.176924">
 <time>2011-05-19T10:22:12.3Z</time>
 </trkpt>
 <trkpt lat="45.166988" lon="4.177664">
 <time>2011-05-19T10:22:20.2Z</time>
 </trkpt>
 <trkpt lat="45.167578" lon="4.17788">
 <time>2011-05-19T10:22:25.2Z</time>
 </trkpt>
 <trkpt lat="45.168151" lon="4.178543">
 <time>2011-05-19T10:22:29.2Z</time>
 </trkpt>
 <trkpt lat="45.168368" lon="4.179312">
 <time>2011-05-19T10:22:33.2Z</time>
 </trkpt>
 <trkpt lat="45.168568" lon="4.180958">
 <time>2011-05-19T10:22:38.9Z</time>
 </trkpt>
 <trkpt lat="45.168651" lon="4.182096">
 <time>2011-05-19T10:22:43.3Z</time>
 </trkpt>
 <trkpt lat="45.168647" lon="4.183424">
 <time>2011-05-19T10:22:47.9Z</time>
 </trkpt>
 <trkpt lat="45.168886" lon="4.184256">
 <time>2011-05-19T10:22:52.3Z</time>
 </trkpt>
 <trkpt lat="45.16948" lon="4.184966">
 <time>2011-05-19T10:22:56.3Z</time>
 </trkpt>
 <trkpt lat="45.169855" lon="4.186269">
 <time>2011-05-19T10:23:01.9Z</time>
 </trkpt>
 <trkpt lat="45.169521" lon="4.187312">
 <time>2011-05-19T10:23:06.2Z</time>
 </trkpt>
 <trkpt lat="45.169262" lon="4.188461">
 <time>2011-05-19T10:23:10.2Z</time>
 </trkpt>
 <trkpt lat="45.169425" lon="4.189658">
 <time>2011-05-19T10:23:15.3Z</time>
 </trkpt>
 <trkpt lat="45.169831" lon="4.190586">
 <time>2011-05-19T10:23:19.3Z</time>
 </trkpt>
 <trkpt lat="45.169898" lon="4.191604">
 <time>2011-05-19T10:23:23.3Z</time>
 </trkpt>
 <trkpt lat="45.169309" lon="4.193054">
 <time>2011-05-19T10:23:28.3Z</time>
 </trkpt>
 <trkpt lat="45.16873" lon="4.194523">
 <time>2011-05-19T10:23:32.3Z</time>
 </trkpt>
 <trkpt lat="45.168632" lon="4.195708">
 <time>2011-05-19T10:23:37.3Z</time>
 </trkpt>
 <trkpt lat="45.168982" lon="4.197288">
 <time>2011-05-19T10:23:42.3Z</time>
 </trkpt>
 <trkpt lat="45.169416" lon="4.198957">
 <time>2011-05-19T10:23:47.3Z</time>
 </trkpt>
 <trkpt lat="45.169455" lon="4.200033">
 <time>2011-05-19T10:23:52Z</time>
 </trkpt>
 <trkpt lat="45.16918" lon="4.204813">
 <time>2011-05-19T10:24:08.9Z</time>
 </trkpt>
 <trkpt lat="45.169083" lon="4.205624">
 <time>2011-05-19T10:24:13.3Z</time>
 </trkpt>
 <trkpt lat="45.168721" lon="4.213557">
 <time>2011-05-19T10:24:41.9Z</time>
 </trkpt>
 <trkpt lat="45.168542" lon="4.214571">
 <time>2011-05-19T10:24:45.9Z</time>
 </trkpt>
 <trkpt lat="45.167935" lon="4.216591">
 <time>2011-05-19T10:24:52.9Z</time>
 </trkpt>
 <trkpt lat="45.166011" lon="4.222434">
 <time>2011-05-19T10:25:11.9Z</time>
 </trkpt>
 <trkpt lat="45.165779" lon="4.223607">
 <time>2011-05-19T10:25:16.9Z</time>
 </trkpt>
 <trkpt lat="45.165799" lon="4.225363">
 <time>2011-05-19T10:25:21.9Z</time>
 </trkpt>
 <trkpt lat="45.166173" lon="4.228888">
 <time>2011-05-19T10:25:30.9Z</time>
 </trkpt>
 <trkpt lat="45.166814" lon="4.230321">
 <time>2011-05-19T10:25:35.9Z</time>
 </trkpt>
 <trkpt lat="45.168126" lon="4.232795">
 <time>2011-05-19T10:25:42.9Z</time>
 </trkpt>
 <trkpt lat="45.168437" lon="4.233975">
 <time>2011-05-19T10:25:47.9Z</time>
 </trkpt>
 <trkpt lat="45.16842" lon="4.235727">
 <time>2011-05-19T10:25:52.9Z</time>
 </trkpt>
 <trkpt lat="45.168559" lon="4.245846">
 <time>2011-05-19T10:26:19.9Z</time>
 </trkpt>
 <trkpt lat="45.168624" lon="4.248669">
 <time>2011-05-19T10:26:29.9Z</time>
 </trkpt>
 <trkpt lat="45.168621" lon="4.249399">
 <time>2011-05-19T10:26:34.9Z</time>
 </trkpt>
 <trkpt lat="45.168633" lon="4.250588">
 <time>2011-05-19T10:26:39.9Z</time>
 </trkpt>
 <trkpt lat="45.168654" lon="4.25139">
 <time>2011-05-19T10:26:44.9Z</time>
 </trkpt>
 <trkpt lat="45.168691" lon="4.252365">
 <time>2011-05-19T10:26:49.9Z</time>
 </trkpt>
 <trkpt lat="45.168957" lon="4.265121">
 <time>2011-05-19T10:27:47.9Z</time>
 </trkpt>
 <trkpt lat="45.169008" lon="4.268637">
 <time>2011-05-19T10:28:05.9Z</time>
 </trkpt>
 <trkpt lat="45.169185" lon="4.269546">
 <time>2011-05-19T10:28:11.3Z</time>
 </trkpt>
 <trkpt lat="45.169683" lon="4.271047">
 <time>2011-05-19T10:28:15.9Z</time>
 </trkpt>
 <trkpt lat="45.169975" lon="4.272278">
 <time>2011-05-19T10:28:20.9Z</time>
 </trkpt>
 <trkpt lat="45.171784" lon="4.284921">
 <time>2011-05-19T10:28:58.9Z</time>
 </trkpt>
 <trkpt lat="45.171989" lon="4.286437">
 <time>2011-05-19T10:29:04.9Z</time>
 </trkpt>
 <trkpt lat="45.172308" lon="4.287543">
 <time>2011-05-19T10:29:09.9Z</time>
 </trkpt>
 <trkpt lat="45.173452" lon="4.290012">
 <time>2011-05-19T10:29:19.9Z</time>
 </trkpt>
 <trkpt lat="45.17392" lon="4.290884">
 <time>2011-05-19T10:29:24.9Z</time>
 </trkpt>
 <trkpt lat="45.174554" lon="4.292024">
 <time>2011-05-19T10:29:29.9Z</time>
 </trkpt>
 <trkpt lat="45.174953" lon="4.293032">
 <time>2011-05-19T10:29:33.9Z</time>
 </trkpt>
 <trkpt lat="45.175132" lon="4.293639">
 <time>2011-05-19T10:29:38.9Z</time>
 </trkpt>
 <trkpt lat="45.175012" lon="4.293881">
 <time>2011-05-19T10:29:42.9Z</time>
 </trkpt>
 <trkpt lat="45.174403" lon="4.294224">
 <time>2011-05-19T10:29:47.9Z</time>
 </trkpt>
 <trkpt lat="45.17272" lon="4.295287">
 <time>2011-05-19T10:29:55.9Z</time>
 </trkpt>
 <trkpt lat="45.17194" lon="4.295526">
 <time>2011-05-19T10:30:00.9Z</time>
 </trkpt>
 <trkpt lat="45.166385" lon="4.296473">
 <time>2011-05-19T10:30:27.9Z</time>
 </trkpt>
 <trkpt lat="45.165647" lon="4.296943">
 <time>2011-05-19T10:30:32.9Z</time>
 </trkpt>
 <trkpt lat="45.164885" lon="4.298003">
 <time>2011-05-19T10:30:37.9Z</time>
 </trkpt>
 <trkpt lat="45.163684" lon="4.300098">
 <time>2011-05-19T10:30:45.3Z</time>
 </trkpt>
 <trkpt lat="45.162996" lon="4.300872">
 <time>2011-05-19T10:30:49.9Z</time>
 </trkpt>
 <trkpt lat="45.16241" lon="4.301636">
 <time>2011-05-19T10:30:53.9Z</time>
 </trkpt>
 <trkpt lat="45.161041" lon="4.304453">
 <time>2011-05-19T10:31:05.9Z</time>
 </trkpt>
 <trkpt lat="45.160758" lon="4.304558">
 <time>2011-05-19T10:31:10.9Z</time>
 </trkpt>
 <trkpt lat="45.160359" lon="4.304087">
 <time>2011-05-19T10:31:14.9Z</time>
 </trkpt>
 <trkpt lat="45.15976" lon="4.303447">
 <time>2011-05-19T10:31:19.9Z</time>
 </trkpt>
 <trkpt lat="45.158826" lon="4.302902">
 <time>2011-05-19T10:31:24.2Z</time>
 </trkpt>
 <trkpt lat="45.155166" lon="4.301415">
 <time>2011-05-19T10:31:38.3Z</time>
 </trkpt>
 <trkpt lat="45.154519" lon="4.300584">
 <time>2011-05-19T10:31:42.9Z</time>
 </trkpt>
 <trkpt lat="45.153936" lon="4.299293">
 <time>2011-05-19T10:31:47.9Z</time>
 </trkpt>
 <trkpt lat="45.153384" lon="4.298154">
 <time>2011-05-19T10:31:51.9Z</time>
 </trkpt>
 <trkpt lat="45.152408" lon="4.297184">
 <time>2011-05-19T10:31:57.9Z</time>
 </trkpt>
 <trkpt lat="45.151926" lon="4.296156">
 <time>2011-05-19T10:32:02.9Z</time>
 </trkpt>
 <trkpt lat="45.151385" lon="4.294572">
 <time>2011-05-19T10:32:06.9Z</time>
 </trkpt>
 <trkpt lat="45.150835" lon="4.293728">
 <time>2011-05-19T10:32:11.9Z</time>
 </trkpt>
 <trkpt lat="45.149975" lon="4.293293">
 <time>2011-05-19T10:32:16.9Z</time>
 </trkpt>
 <trkpt lat="45.148757" lon="4.293546">
 <time>2011-05-19T10:32:21.9Z</time>
 </trkpt>
 <trkpt lat="45.147494" lon="4.293801">
 <time>2011-05-19T10:32:26.9Z</time>
 </trkpt>
 <trkpt lat="45.146326" lon="4.293622">
 <time>2011-05-19T10:32:31.9Z</time>
 </trkpt>
 <trkpt lat="45.145212" lon="4.293811">
 <time>2011-05-19T10:32:36.9Z</time>
 </trkpt>
 <trkpt lat="45.14407" lon="4.293992">
 <time>2011-05-19T10:32:41.9Z</time>
 </trkpt>
 <trkpt lat="45.142611" lon="4.293576">
 <time>2011-05-19T10:32:46.9Z</time>
 </trkpt>
 <trkpt lat="45.141858" lon="4.293685">
 <time>2011-05-19T10:32:51.9Z</time>
 </trkpt>
 <trkpt lat="45.141085" lon="4.294339">
 <time>2011-05-19T10:32:55.9Z</time>
 </trkpt>
 <trkpt lat="45.140054" lon="4.294987">
 <time>2011-05-19T10:33:00.9Z</time>
 </trkpt>
 <trkpt lat="45.138902" lon="4.294839">
 <time>2011-05-19T10:33:05.9Z</time>
 </trkpt>
 <trkpt lat="45.138003" lon="4.294926">
 <time>2011-05-19T10:33:09.9Z</time>
 </trkpt>
 <trkpt lat="45.136874" lon="4.29473">
 <time>2011-05-19T10:33:13.9Z</time>
 </trkpt>
 <trkpt lat="45.135966" lon="4.29438">
 <time>2011-05-19T10:33:18.9Z</time>
 </trkpt>
 <trkpt lat="45.132398" lon="4.293676">
 <time>2011-05-19T10:33:30.9Z</time>
 </trkpt>
 <trkpt lat="45.130966" lon="4.293563">
 <time>2011-05-19T10:33:36.9Z</time>
 </trkpt>
 <trkpt lat="45.130051" lon="4.293278">
 <time>2011-05-19T10:33:40.9Z</time>
 </trkpt>
 <trkpt lat="45.129084" lon="4.292705">
 <time>2011-05-19T10:33:45.9Z</time>
 </trkpt>
 <trkpt lat="45.127847" lon="4.291551">
 <time>2011-05-19T10:33:50.9Z</time>
 </trkpt>
 <trkpt lat="45.126785" lon="4.290528">
 <time>2011-05-19T10:33:54.9Z</time>
 </trkpt>
 <trkpt lat="45.125787" lon="4.289703">
 <time>2011-05-19T10:33:59.9Z</time>
 </trkpt>
 <trkpt lat="45.125047" lon="4.289331">
 <time>2011-05-19T10:34:04.9Z</time>
 </trkpt>
 <trkpt lat="45.124456" lon="4.289078">
 <time>2011-05-19T10:34:08.9Z</time>
 </trkpt>
 <trkpt lat="45.12306" lon="4.288194">
 <time>2011-05-19T10:34:15.9Z</time>
 </trkpt>
 <trkpt lat="45.122419" lon="4.288183">
 <time>2011-05-19T10:34:20.9Z</time>
 </trkpt>
 <trkpt lat="45.121601" lon="4.28858">
 <time>2011-05-19T10:34:25.9Z</time>
 </trkpt>
 <trkpt lat="45.120833" lon="4.288996">
 <time>2011-05-19T10:34:30.9Z</time>
 </trkpt>
 <trkpt lat="45.120087" lon="4.289193">
 <time>2011-05-19T10:34:35.9Z</time>
 </trkpt>
 <trkpt lat="45.119429" lon="4.289006">
 <time>2011-05-19T10:34:39.9Z</time>
 </trkpt>
 <trkpt lat="45.11846" lon="4.28848">
 <time>2011-05-19T10:34:45.9Z</time>
 </trkpt>
 <trkpt lat="45.117965" lon="4.288165">
 <time>2011-05-19T10:34:50.9Z</time>
 </trkpt>
 <trkpt lat="45.116431" lon="4.287552">
 <time>2011-05-19T10:35:04.9Z</time>
 </trkpt>
 <trkpt lat="45.116289" lon="4.28744">
 <time>2011-05-19T10:35:09.9Z</time>
 </trkpt>
 <trkpt lat="45.116075" lon="4.287033">
 <time>2011-05-19T10:35:14.9Z</time>
 </trkpt>
 <trkpt lat="45.115721" lon="4.286476">
 <time>2011-05-19T10:35:19.9Z</time>
 </trkpt>
 <trkpt lat="45.115611" lon="4.285744">
 <time>2011-05-19T10:35:24.9Z</time>
 </trkpt>
 <trkpt lat="45.115848" lon="4.284626">
 <time>2011-05-19T10:35:29.9Z</time>
 </trkpt>
 <trkpt lat="45.116539" lon="4.276351">
 <time>2011-05-19T10:36:09.2Z</time>
 </trkpt>
 <trkpt lat="45.116484" lon="4.276115">
 <time>2011-05-19T10:36:13.9Z</time>
 </trkpt>
 <trkpt lat="45.116156" lon="4.275746">
 <time>2011-05-19T10:36:18.9Z</time>
 </trkpt>
 <trkpt lat="45.115511" lon="4.275603">
 <time>2011-05-19T10:36:23.9Z</time>
 </trkpt>
 <trkpt lat="45.114876" lon="4.275515">
 <time>2011-05-19T10:36:28.9Z</time>
 </trkpt>
 <trkpt lat="45.114628" lon="4.274899">
 <time>2011-05-19T10:36:32.9Z</time>
 </trkpt>
 <trkpt lat="45.114388" lon="4.274584">
 <time>2011-05-19T10:36:36.9Z</time>
 </trkpt>
 <trkpt lat="45.113908" lon="4.274522">
 <time>2011-05-19T10:36:41.9Z</time>
 </trkpt>
 <trkpt lat="45.113275" lon="4.273848">
 <time>2011-05-19T10:36:46.9Z</time>
 </trkpt>
 <trkpt lat="45.113032" lon="4.273116">
 <time>2011-05-19T10:36:50.9Z</time>
 </trkpt>
 <trkpt lat="45.113222" lon="4.271891">
 <time>2011-05-19T10:36:55.9Z</time>
 </trkpt>
 <trkpt lat="45.113463" lon="4.270784">
 <time>2011-05-19T10:37:00.9Z</time>
 </trkpt>
 <trkpt lat="45.113797" lon="4.269906">
 <time>2011-05-19T10:37:05.9Z</time>
 </trkpt>
 <trkpt lat="45.11368" lon="4.269281">
 <time>2011-05-19T10:37:10.9Z</time>
 </trkpt>
 <trkpt lat="45.113119" lon="4.268907">
 <time>2011-05-19T10:37:15.9Z</time>
 </trkpt>
 <trkpt lat="45.112652" lon="4.268479">
 <time>2011-05-19T10:37:20.9Z</time>
 </trkpt>
 <trkpt lat="45.112234" lon="4.268021">
 <time>2011-05-19T10:37:24.9Z</time>
 </trkpt>
 <trkpt lat="45.111341" lon="4.268001">
 <time>2011-05-19T10:37:29.9Z</time>
 </trkpt>
 <trkpt lat="45.110642" lon="4.26763">
 <time>2011-05-19T10:37:34.9Z</time>
 </trkpt>
 <trkpt lat="45.110028" lon="4.266824">
 <time>2011-05-19T10:37:39.9Z</time>
 </trkpt>
 <trkpt lat="45.109643" lon="4.265614">
 <time>2011-05-19T10:37:45Z</time>
 </trkpt>
 <trkpt lat="45.109034" lon="4.264606">
 <time>2011-05-19T10:37:49.9Z</time>
 </trkpt>
 <trkpt lat="45.108289" lon="4.263612">
 <time>2011-05-19T10:37:54.9Z</time>
 </trkpt>
 <trkpt lat="45.10782" lon="4.263224">
 <time>2011-05-19T10:37:58.9Z</time>
 </trkpt>
 <trkpt lat="45.107349" lon="4.263126">
 <time>2011-05-19T10:38:03.9Z</time>
 </trkpt>
 <trkpt lat="45.107034" lon="4.262656">
 <time>2011-05-19T10:38:07.9Z</time>
 </trkpt>
 <trkpt lat="45.106665" lon="4.26198">
 <time>2011-05-19T10:38:11.9Z</time>
 </trkpt>
 <trkpt lat="45.106035" lon="4.260953">
 <time>2011-05-19T10:38:16.9Z</time>
 </trkpt>
 <trkpt lat="45.10525" lon="4.26">
 <time>2011-05-19T10:38:23.9Z</time>
 </trkpt>
 <trkpt lat="45.104672" lon="4.259466">
 <time>2011-05-19T10:38:28.9Z</time>
 </trkpt>
 <trkpt lat="45.10396" lon="4.259141">
 <time>2011-05-19T10:38:33.3Z</time>
 </trkpt>
 <trkpt lat="45.102942" lon="4.258934">
 <time>2011-05-19T10:38:37.9Z</time>
 </trkpt>
 <trkpt lat="45.102228" lon="4.259019">
 <time>2011-05-19T10:38:41.9Z</time>
 </trkpt>
 <trkpt lat="45.101227" lon="4.259333">
 <time>2011-05-19T10:38:46.9Z</time>
 </trkpt>
 <trkpt lat="45.100679" lon="4.259267">
 <time>2011-05-19T10:38:51.9Z</time>
 </trkpt>
 <trkpt lat="45.100079" lon="4.259626">
 <time>2011-05-19T10:38:56.9Z</time>
 </trkpt>
 <trkpt lat="45.099457" lon="4.259585">
 <time>2011-05-19T10:39:01.9Z</time>
 </trkpt>
 <trkpt lat="45.098889" lon="4.258998">
 <time>2011-05-19T10:39:06.9Z</time>
 </trkpt>
 <trkpt lat="45.09838" lon="4.25838">
 <time>2011-05-19T10:39:10.9Z</time>
 </trkpt>
 <trkpt lat="45.097525" lon="4.257687">
 <time>2011-05-19T10:39:15.9Z</time>
 </trkpt>
 <trkpt lat="45.096917" lon="4.257727">
 <time>2011-05-19T10:39:20.9Z</time>
 </trkpt>
 <trkpt lat="45.096315" lon="4.258036">
 <time>2011-05-19T10:39:24.9Z</time>
 </trkpt>
 <trkpt lat="45.090637" lon="4.257393">
 <time>2011-05-19T10:39:53.9Z</time>
 </trkpt>
 <trkpt lat="45.090098" lon="4.257043">
 <time>2011-05-19T10:39:58.9Z</time>
 </trkpt>
 <trkpt lat="45.089603" lon="4.256141">
 <time>2011-05-19T10:40:02.9Z</time>
 </trkpt>
 <trkpt lat="45.088449" lon="4.253414">
 <time>2011-05-19T10:40:12.9Z</time>
 </trkpt>
 <trkpt lat="45.088011" lon="4.252725">
 <time>2011-05-19T10:40:17.9Z</time>
 </trkpt>
 <trkpt lat="45.087593" lon="4.252086">
 <time>2011-05-19T10:40:22.9Z</time>
 </trkpt>
 <trkpt lat="45.087326" lon="4.250659">
 <time>2011-05-19T10:40:28.9Z</time>
 </trkpt>
 <trkpt lat="45.087198" lon="4.249623">
 <time>2011-05-19T10:40:33.9Z</time>
 </trkpt>
 <trkpt lat="45.087073" lon="4.248847">
 <time>2011-05-19T10:40:38.9Z</time>
 </trkpt>
 <trkpt lat="45.086724" lon="4.248728">
 <time>2011-05-19T10:40:42.9Z</time>
 </trkpt>
 <trkpt lat="45.086118" lon="4.249099">
 <time>2011-05-19T10:40:47.9Z</time>
 </trkpt>
 <trkpt lat="45.085209" lon="4.249592">
 <time>2011-05-19T10:40:51.9Z</time>
 </trkpt>
 <trkpt lat="45.084531" lon="4.24982">
 <time>2011-05-19T10:40:55.9Z</time>
 </trkpt>
 <trkpt lat="45.084039" lon="4.249545">
 <time>2011-05-19T10:40:59.9Z</time>
 </trkpt>
 <trkpt lat="45.083452" lon="4.248799">
 <time>2011-05-19T10:41:04.9Z</time>
 </trkpt>
 <trkpt lat="45.082186" lon="4.247901">
 <time>2011-05-19T10:41:12.9Z</time>
 </trkpt>
 <trkpt lat="45.08177" lon="4.247295">
 <time>2011-05-19T10:41:17.9Z</time>
 </trkpt>
 <trkpt lat="45.081227" lon="4.246676">
 <time>2011-05-19T10:41:22.9Z</time>
 </trkpt>
 <trkpt lat="45.080685" lon="4.246857">
 <time>2011-05-19T10:41:26.9Z</time>
 </trkpt>
 <trkpt lat="45.079988" lon="4.247416">
 <time>2011-05-19T10:41:30.9Z</time>
 </trkpt>
 <trkpt lat="45.079389" lon="4.247508">
 <time>2011-05-19T10:41:35.9Z</time>
 </trkpt>
 <trkpt lat="45.078502" lon="4.247275">
 <time>2011-05-19T10:41:40.9Z</time>
 </trkpt>
 <trkpt lat="45.077787" lon="4.246693">
 <time>2011-05-19T10:41:44.9Z</time>
 </trkpt>
 <trkpt lat="45.076921" lon="4.245616">
 <time>2011-05-19T10:41:49.9Z</time>
 </trkpt>
 <trkpt lat="45.076012" lon="4.244464">
 <time>2011-05-19T10:41:53.9Z</time>
 </trkpt>
 <trkpt lat="45.07485" lon="4.243319">
 <time>2011-05-19T10:42:00.9Z</time>
 </trkpt>
 <trkpt lat="45.073646" lon="4.242451">
 <time>2011-05-19T10:42:08.9Z</time>
 </trkpt>
 <trkpt lat="45.073102" lon="4.241629">
 <time>2011-05-19T10:42:13.9Z</time>
 </trkpt>
 <trkpt lat="45.071884" lon="4.239312">
 <time>2011-05-19T10:42:24Z</time>
 </trkpt>
 <trkpt lat="45.071515" lon="4.238979">
 <time>2011-05-19T10:42:28.9Z</time>
 </trkpt>
 <trkpt lat="45.070564" lon="4.238607">
 <time>2011-05-19T10:42:34.2Z</time>
 </trkpt>
 <trkpt lat="45.069747" lon="4.238489">
 <time>2011-05-19T10:42:38.9Z</time>
 </trkpt>
 <trkpt lat="45.068665" lon="4.238187">
 <time>2011-05-19T10:42:42.9Z</time>
 </trkpt>
 <trkpt lat="45.067378" lon="4.237519">
 <time>2011-05-19T10:42:49.9Z</time>
 </trkpt>
 <trkpt lat="45.066687" lon="4.237324">
 <time>2011-05-19T10:42:54.9Z</time>
 </trkpt>
 <trkpt lat="45.066344" lon="4.2373">
 <time>2011-05-19T10:42:59.9Z</time>
 </trkpt>
 <trkpt lat="45.06614" lon="4.237341">
 <time>2011-05-19T10:43:04.9Z</time>
 </trkpt>
 <trkpt lat="45.064933" lon="4.237806">
 <time>2011-05-19T10:43:11.9Z</time>
 </trkpt>
 <trkpt lat="45.064318" lon="4.238275">
 <time>2011-05-19T10:43:16.9Z</time>
 </trkpt>
 <trkpt lat="45.062665" lon="4.240316">
 <time>2011-05-19T10:43:25.9Z</time>
 </trkpt>
 <trkpt lat="45.061801" lon="4.241576">
 <time>2011-05-19T10:43:31.9Z</time>
 </trkpt>
 <trkpt lat="45.061273" lon="4.242145">
 <time>2011-05-19T10:43:36.9Z</time>
 </trkpt>
 <trkpt lat="45.060386" lon="4.242347">
 <time>2011-05-19T10:43:40.9Z</time>
 </trkpt>
 <trkpt lat="45.059304" lon="4.242213">
 <time>2011-05-19T10:43:46.9Z</time>
 </trkpt>
 <trkpt lat="45.058845" lon="4.242632">
 <time>2011-05-19T10:43:51.9Z</time>
 </trkpt>
 <trkpt lat="45.058218" lon="4.243442">
 <time>2011-05-19T10:43:55.9Z</time>
 </trkpt>
 <trkpt lat="45.057729" lon="4.243869">
 <time>2011-05-19T10:43:59.9Z</time>
 </trkpt>
 <trkpt lat="45.056151" lon="4.244854">
 <time>2011-05-19T10:44:05.9Z</time>
 </trkpt>
 <trkpt lat="45.052851" lon="4.246567">
 <time>2011-05-19T10:44:26.9Z</time>
 </trkpt>
 <trkpt lat="45.051852" lon="4.247451">
 <time>2011-05-19T10:44:34.9Z</time>
 </trkpt>
 <trkpt lat="45.051352" lon="4.247551">
 <time>2011-05-19T10:44:38.9Z</time>
 </trkpt>
 <trkpt lat="45.050967" lon="4.247319">
 <time>2011-05-19T10:44:42.9Z</time>
 </trkpt>
 <trkpt lat="45.049852" lon="4.246641">
 <time>2011-05-19T10:44:49.9Z</time>
 </trkpt>
 <trkpt lat="45.048953" lon="4.246106">
 <time>2011-05-19T10:44:57.9Z</time>
 </trkpt>
 <trkpt lat="45.048639" lon="4.245893">
 <time>2011-05-19T10:45:02.2Z</time>
 </trkpt>
 <trkpt lat="45.047735" lon="4.245262">
 <time>2011-05-19T10:45:08.9Z</time>
 </trkpt>
 <trkpt lat="45.047361" lon="4.245052">
 <time>2011-05-19T10:45:13.9Z</time>
 </trkpt>
 <trkpt lat="45.047078" lon="4.244911">
 <time>2011-05-19T10:45:17.9Z</time>
 </trkpt>
 <trkpt lat="45.04669" lon="4.244891">
 <time>2011-05-19T10:45:22.3Z</time>
 </trkpt>
 <trkpt lat="45.046065" lon="4.24499">
 <time>2011-05-19T10:45:26.9Z</time>
 </trkpt>
 <trkpt lat="45.044274" lon="4.246167">
 <time>2011-05-19T10:45:39.3Z</time>
 </trkpt>
 <trkpt lat="45.043743" lon="4.246529">
 <time>2011-05-19T10:45:43.3Z</time>
 </trkpt>
 <trkpt lat="45.042847" lon="4.246642">
 <time>2011-05-19T10:45:48.9Z</time>
 </trkpt>
 <trkpt lat="45.041154" lon="4.246259">
 <time>2011-05-19T10:45:56.9Z</time>
 </trkpt>
 <trkpt lat="45.040647" lon="4.24583">
 <time>2011-05-19T10:46:01.9Z</time>
 </trkpt>
 <trkpt lat="45.040115" lon="4.244517">
 <time>2011-05-19T10:46:06.9Z</time>
 </trkpt>
 <trkpt lat="45.039564" lon="4.243938">
 <time>2011-05-19T10:46:11.9Z</time>
 </trkpt>
 <trkpt lat="45.038828" lon="4.243586">
 <time>2011-05-19T10:46:16.3Z</time>
 </trkpt>
 <trkpt lat="45.037888" lon="4.243824">
 <time>2011-05-19T10:46:21.2Z</time>
 </trkpt>
 <trkpt lat="45.036206" lon="4.244738">
 <time>2011-05-19T10:46:27.9Z</time>
 </trkpt>
 <trkpt lat="45.035496" lon="4.245391">
 <time>2011-05-19T10:46:32.9Z</time>
 </trkpt>
 <trkpt lat="45.033631" lon="4.248048">
 <time>2011-05-19T10:46:45.9Z</time>
 </trkpt>
 <trkpt lat="45.033375" lon="4.248191">
 <time>2011-05-19T10:46:50.9Z</time>
 </trkpt>
 <trkpt lat="45.033236" lon="4.248146">
 <time>2011-05-19T10:46:55.9Z</time>
 </trkpt>
 <trkpt lat="45.033011" lon="4.248087">
 <time>2011-05-19T10:47:00.9Z</time>
 </trkpt>
 <trkpt lat="45.03233" lon="4.247957">
 <time>2011-05-19T10:47:05.9Z</time>
 </trkpt>
 <trkpt lat="45.031313" lon="4.247668">
 <time>2011-05-19T10:47:10.9Z</time>
 </trkpt>
 <trkpt lat="45.029178" lon="4.246682">
 <time>2011-05-19T10:47:19.9Z</time>
 </trkpt>
 <trkpt lat="45.028245" lon="4.246424">
 <time>2011-05-19T10:47:24.9Z</time>
 </trkpt>
 <trkpt lat="45.027499" lon="4.245972">
 <time>2011-05-19T10:47:29.9Z</time>
 </trkpt>
 <trkpt lat="45.026653" lon="4.245547">
 <time>2011-05-19T10:47:33.9Z</time>
 </trkpt>
 <trkpt lat="45.02517" lon="4.244967">
 <time>2011-05-19T10:47:39.9Z</time>
 </trkpt>
 <trkpt lat="45.024516" lon="4.244409">
 <time>2011-05-19T10:47:43.9Z</time>
 </trkpt>
 <trkpt lat="45.023845" lon="4.24346">
 <time>2011-05-19T10:47:48.9Z</time>
 </trkpt>
 <trkpt lat="45.023304" lon="4.243072">
 <time>2011-05-19T10:47:53.9Z</time>
 </trkpt>
 <trkpt lat="45.02257" lon="4.24325">
 <time>2011-05-19T10:47:58.9Z</time>
 </trkpt>
 <trkpt lat="45.021885" lon="4.243589">
 <time>2011-05-19T10:48:02.9Z</time>
 </trkpt>
 <trkpt lat="45.02113" lon="4.243548">
 <time>2011-05-19T10:48:07.9Z</time>
 </trkpt>
 <trkpt lat="45.020665" lon="4.243002">
 <time>2011-05-19T10:48:11.9Z</time>
 </trkpt>
 <trkpt lat="45.019886" lon="4.241422">
 <time>2011-05-19T10:48:17.9Z</time>
 </trkpt>
 <trkpt lat="45.019304" lon="4.24061">
 <time>2011-05-19T10:48:22.9Z</time>
 </trkpt>
 <trkpt lat="45.018306" lon="4.239759">
 <time>2011-05-19T10:48:26.9Z</time>
 </trkpt>
 <trkpt lat="45.017651" lon="4.23931">
 <time>2011-05-19T10:48:31.9Z</time>
 </trkpt>
 <trkpt lat="45.017076" lon="4.238613">
 <time>2011-05-19T10:48:36.3Z</time>
 </trkpt>
 <trkpt lat="45.016289" lon="4.237945">
 <time>2011-05-19T10:48:40.3Z</time>
 </trkpt>
 <trkpt lat="45.015871" lon="4.237942">
 <time>2011-05-19T10:48:45.9Z</time>
 </trkpt>
 <trkpt lat="45.012854" lon="4.241845">
 <time>2011-05-19T10:49:04.9Z</time>
 </trkpt>
 <trkpt lat="45.012419" lon="4.242096">
 <time>2011-05-19T10:49:08.9Z</time>
 </trkpt>
 <trkpt lat="45.011529" lon="4.241888">
 <time>2011-05-19T10:49:14.2Z</time>
 </trkpt>
 <trkpt lat="45.009533" lon="4.240907">
 <time>2011-05-19T10:49:21.9Z</time>
 </trkpt>
 <trkpt lat="45.008486" lon="4.240649">
 <time>2011-05-19T10:49:27.2Z</time>
 </trkpt>
 <trkpt lat="45.001863" lon="4.239779">
 <time>2011-05-19T10:49:54.9Z</time>
 </trkpt>
 <trkpt lat="44.999555" lon="4.240021">
 <time>2011-05-19T10:50:05.9Z</time>
 </trkpt>
 <trkpt lat="44.999035" lon="4.240216">
 <time>2011-05-19T10:50:09.9Z</time>
 </trkpt>
 <trkpt lat="44.998211" lon="4.241119">
 <time>2011-05-19T10:50:16.3Z</time>
 </trkpt>
 <trkpt lat="44.997349" lon="4.241456">
 <time>2011-05-19T10:50:21.9Z</time>
 </trkpt>
 <trkpt lat="44.996513" lon="4.241361">
 <time>2011-05-19T10:50:26.9Z</time>
 </trkpt>
 <trkpt lat="44.995756" lon="4.240811">
 <time>2011-05-19T10:50:31.9Z</time>
 </trkpt>
 <trkpt lat="44.994998" lon="4.23978">
 <time>2011-05-19T10:50:37.9Z</time>
 </trkpt>
 <trkpt lat="44.994633" lon="4.239578">
 <time>2011-05-19T10:50:41.9Z</time>
 </trkpt>
 <trkpt lat="44.993672" lon="4.239756">
 <time>2011-05-19T10:50:46.9Z</time>
 </trkpt>
 <trkpt lat="44.992843" lon="4.240096">
 <time>2011-05-19T10:50:50.9Z</time>
 </trkpt>
 <trkpt lat="44.992039" lon="4.240737">
 <time>2011-05-19T10:50:55.9Z</time>
 </trkpt>
 <trkpt lat="44.991516" lon="4.241299">
 <time>2011-05-19T10:50:59.9Z</time>
 </trkpt>
 <trkpt lat="44.990763" lon="4.241678">
 <time>2011-05-19T10:51:04.9Z</time>
 </trkpt>
 <trkpt lat="44.990056" lon="4.241723">
 <time>2011-05-19T10:51:09.9Z</time>
 </trkpt>
 <trkpt lat="44.989359" lon="4.241058">
 <time>2011-05-19T10:51:14.9Z</time>
 </trkpt>
 <trkpt lat="44.988195" lon="4.239839">
 <time>2011-05-19T10:51:20.9Z</time>
 </trkpt>
 <trkpt lat="44.987782" lon="4.239488">
 <time>2011-05-19T10:51:24.9Z</time>
 </trkpt>
 <trkpt lat="44.986907" lon="4.239186">
 <time>2011-05-19T10:51:29.9Z</time>
 </trkpt>
 <trkpt lat="44.985029" lon="4.238629">
 <time>2011-05-19T10:51:37.9Z</time>
 </trkpt>
 <trkpt lat="44.984299" lon="4.237997">
 <time>2011-05-19T10:51:42.9Z</time>
 </trkpt>
 <trkpt lat="44.983747" lon="4.23795">
 <time>2011-05-19T10:51:47.9Z</time>
 </trkpt>
 <trkpt lat="44.982678" lon="4.238397">
 <time>2011-05-19T10:51:52.9Z</time>
 </trkpt>
 <trkpt lat="44.982016" lon="4.238282">
 <time>2011-05-19T10:51:57.9Z</time>
 </trkpt>
 <trkpt lat="44.981365" lon="4.237942">
 <time>2011-05-19T10:52:01.9Z</time>
 </trkpt>
 <trkpt lat="44.980629" lon="4.237936">
 <time>2011-05-19T10:52:06.2Z</time>
 </trkpt>
 <trkpt lat="44.979467" lon="4.238214">
 <time>2011-05-19T10:52:11.2Z</time>
 </trkpt>
 <trkpt lat="44.978608" lon="4.238242">
 <time>2011-05-19T10:52:15.2Z</time>
 </trkpt>
 <trkpt lat="44.977773" lon="4.237949">
 <time>2011-05-19T10:52:19.9Z</time>
 </trkpt>
 <trkpt lat="44.977308" lon="4.23758">
 <time>2011-05-19T10:52:24.9Z</time>
 </trkpt>
 <trkpt lat="44.977283" lon="4.237035">
 <time>2011-05-19T10:52:29.9Z</time>
 </trkpt>
 <trkpt lat="44.97758" lon="4.236431">
 <time>2011-05-19T10:52:33.9Z</time>
 </trkpt>
 <trkpt lat="44.9783" lon="4.236123">
 <time>2011-05-19T10:52:38.9Z</time>
 </trkpt>
 <trkpt lat="44.979051" lon="4.236042">
 <time>2011-05-19T10:52:42.9Z</time>
 </trkpt>
 <trkpt lat="44.979754" lon="4.23552">
 <time>2011-05-19T10:52:47.9Z</time>
 </trkpt>
 <trkpt lat="44.980021" lon="4.234413">
 <time>2011-05-19T10:52:52.9Z</time>
 </trkpt>
 <trkpt lat="44.980012" lon="4.232784">
 <time>2011-05-19T10:52:57.9Z</time>
 </trkpt>
 <trkpt lat="44.979973" lon="4.231284">
 <time>2011-05-19T10:53:02.9Z</time>
 </trkpt>
 <trkpt lat="44.979601" lon="4.230271">
 <time>2011-05-19T10:53:07.9Z</time>
 </trkpt>
 <trkpt lat="44.979155" lon="4.229597">
 <time>2011-05-19T10:53:11.9Z</time>
 </trkpt>
 <trkpt lat="44.97915" lon="4.228568">
 <time>2011-05-19T10:53:16.9Z</time>
 </trkpt>
 <trkpt lat="44.979814" lon="4.227816">
 <time>2011-05-19T10:53:21.9Z</time>
 </trkpt>
 <trkpt lat="44.980759" lon="4.227402">
 <time>2011-05-19T10:53:25.9Z</time>
 </trkpt>
 <trkpt lat="44.981238" lon="4.227467">
 <time>2011-05-19T10:53:29.9Z</time>
 </trkpt>
 <trkpt lat="44.981987" lon="4.227989">
 <time>2011-05-19T10:53:34.9Z</time>
 </trkpt>
 <trkpt lat="44.982561" lon="4.228198">
 <time>2011-05-19T10:53:39.9Z</time>
 </trkpt>
 <trkpt lat="44.98287" lon="4.228175">
 <time>2011-05-19T10:53:44.3Z</time>
 </trkpt>
 <trkpt lat="44.983691" lon="4.228004">
 <time>2011-05-19T10:53:51.9Z</time>
 </trkpt>
 <trkpt lat="44.984098" lon="4.227876">
 <time>2011-05-19T10:53:56.9Z</time>
 </trkpt>
 <trkpt lat="44.984411" lon="4.227759">
 <time>2011-05-19T10:54:00.9Z</time>
 </trkpt>
 <trkpt lat="44.985038" lon="4.227407">
 <time>2011-05-19T10:54:06.9Z</time>
 </trkpt>
 <trkpt lat="44.985358" lon="4.227168">
 <time>2011-05-19T10:54:10.9Z</time>
 </trkpt>
 <trkpt lat="44.985704" lon="4.226864">
 <time>2011-05-19T10:54:15.9Z</time>
 </trkpt>
 <trkpt lat="44.985959" lon="4.226609">
 <time>2011-05-19T10:54:20.9Z</time>
 </trkpt>
 <trkpt lat="44.986129" lon="4.226413">
 <time>2011-05-19T10:54:25.9Z</time>
 </trkpt>
 <trkpt lat="44.986146" lon="4.226146">
 <time>2011-05-19T10:54:30.9Z</time>
 </trkpt>
 <trkpt lat="44.986261" lon="4.226044">
 <time>2011-05-19T10:55:07.9Z</time>
 </trkpt>
 <trkpt lat="44.986404" lon="4.226082">
 <time>2011-05-19T11:00:08.9Z</time>
 </trkpt>
 <trkpt lat="44.986456" lon="4.22613">
 <time>2011-05-19T11:00:21.2Z</time>
 </trkpt>
 </trkseg>
 <trkseg>
 <trkpt lat="44.986454" lon="4.226129">
 <time>2011-05-19T11:01:15.2Z</time>
 </trkpt>
 <trkpt lat="44.986446" lon="4.226127">
 <time>2011-05-19T11:02:55.2Z</time>
 </trkpt>
 </trkseg>
 <trkseg>
 <trkpt lat="44.986446" lon="4.226126">
 <time>2011-05-19T11:03:43.2Z</time>
 </trkpt>
 <trkpt lat="44.986445" lon="4.226124">
 <time>2011-05-19T11:05:39.2Z</time>
 </trkpt>
 </trkseg>
 <trkseg>
 <trkpt lat="44.986444" lon="4.226122">
 <time>2011-05-19T11:14:33.2Z</time>
 </trkpt>
 </trkseg>
 <trkseg>
 <trkpt lat="44.986443" lon="4.226123">
 <time>2011-05-19T11:24:47.3Z</time>
 </trkpt>
 <trkpt lat="44.986442" lon="4.226123">
 <time>2011-05-19T11:34:48.3Z</time>
 </trkpt>
 </trkseg>
 <trkseg>
 <trkpt lat="44.986447" lon="4.226371">
 <time>2011-05-19T11:54:43Z</time>
 </trkpt>
 <trkpt lat="44.986413" lon="4.226138">
 <time>2011-05-19T11:58:33Z</time>
 </trkpt>
 </trkseg>
 <trkseg>
 <trkpt lat="44.986413" lon="4.226124">
 <time>2011-05-19T12:09:40Z</time>
 </trkpt>
 <trkpt lat="44.986414" lon="4.22612">
 <time>2011-05-19T12:19:41Z</time>
 </trkpt>
 <trkpt lat="44.986412" lon="4.22612">
 <time>2011-05-19T12:29:41.3Z</time>
 </trkpt>
 <trkpt lat="44.986305" lon="4.226325">
 <time>2011-05-19T12:38:21.9Z</time>
 </trkpt>
 <trkpt lat="44.986303" lon="4.226119">
 <time>2011-05-19T12:38:35.2Z</time>
 </trkpt>
 <trkpt lat="44.986267" lon="4.226041">
 <time>2011-05-19T12:46:57.9Z</time>
 </trkpt>
 </trkseg>
 <trkseg>
 <trkpt lat="44.986135" lon="4.226">
 <time>2011-05-19T12:55:07.3Z</time>
 </trkpt>
 <trkpt lat="44.985759" lon="4.226099">
 <time>2011-05-19T12:55:11.9Z</time>
 </trkpt>
 <trkpt lat="44.985032" lon="4.226335">
 <time>2011-05-19T12:55:16.9Z</time>
 </trkpt>
 <trkpt lat="44.984283" lon="4.226479">
 <time>2011-05-19T12:55:24.2Z</time>
 </trkpt>
 <trkpt lat="44.983894" lon="4.226426">
 <time>2011-05-19T12:55:29.2Z</time>
 </trkpt>
 <trkpt lat="44.983304" lon="4.22615">
 <time>2011-05-19T12:55:34.2Z</time>
 </trkpt>
 <trkpt lat="44.98273" lon="4.225846">
 <time>2011-05-19T12:55:39.2Z</time>
 </trkpt>
 <trkpt lat="44.980944" lon="4.225336">
 <time>2011-05-19T12:55:49.2Z</time>
 </trkpt>
 <trkpt lat="44.979477" lon="4.225199">
 <time>2011-05-19T12:55:56.2Z</time>
 </trkpt>
 <trkpt lat="44.978649" lon="4.225315">
 <time>2011-05-19T12:56:01.2Z</time>
 </trkpt>
 <trkpt lat="44.977447" lon="4.225832">
 <time>2011-05-19T12:56:06.2Z</time>
 </trkpt>
 <trkpt lat="44.976234" lon="4.22647">
 <time>2011-05-19T12:56:12.2Z</time>
 </trkpt>
 <trkpt lat="44.972173" lon="4.227885">
 <time>2011-05-19T12:56:31.2Z</time>
 </trkpt>
 <trkpt lat="44.970725" lon="4.228638">
 <time>2011-05-19T12:56:39.9Z</time>
 </trkpt>
 <trkpt lat="44.97" lon="4.228815">
 <time>2011-05-19T12:56:44.9Z</time>
 </trkpt>
 <trkpt lat="44.968614" lon="4.228924">
 <time>2011-05-19T12:56:51Z</time>
 </trkpt>
 <trkpt lat="44.967997" lon="4.229199">
 <time>2011-05-19T12:56:55.2Z</time>
 </trkpt>
 <trkpt lat="44.96555" lon="4.230796">
 <time>2011-05-19T12:57:07.2Z</time>
 </trkpt>
 <trkpt lat="44.963857" lon="4.231671">
 <time>2011-05-19T12:57:16.2Z</time>
 </trkpt>
 <trkpt lat="44.963244" lon="4.231641">
 <time>2011-05-19T12:57:21.2Z</time>
 </trkpt>
 <trkpt lat="44.96239" lon="4.231373">
 <time>2011-05-19T12:57:25.2Z</time>
 </trkpt>
 <trkpt lat="44.961565" lon="4.231316">
 <time>2011-05-19T12:57:30.2Z</time>
 </trkpt>
 <trkpt lat="44.959977" lon="4.231551">
 <time>2011-05-19T12:57:36.2Z</time>
 </trkpt>
 <trkpt lat="44.959496" lon="4.231771">
 <time>2011-05-19T12:57:40.3Z</time>
 </trkpt>
 <trkpt lat="44.958547" lon="4.232739">
 <time>2011-05-19T12:57:47.3Z</time>
 </trkpt>
 <trkpt lat="44.958352" lon="4.232979">
 <time>2011-05-19T12:57:51.3Z</time>
 </trkpt>
 <trkpt lat="44.956388" lon="4.234883">
 <time>2011-05-19T12:58:06.9Z</time>
 </trkpt>
 <trkpt lat="44.956054" lon="4.235374">
 <time>2011-05-19T12:58:10.9Z</time>
 </trkpt>
 <trkpt lat="44.955545" lon="4.236154">
 <time>2011-05-19T12:58:15.9Z</time>
 </trkpt>
 <trkpt lat="44.955074" lon="4.236554">
 <time>2011-05-19T12:58:20.9Z</time>
 </trkpt>
 <trkpt lat="44.954338" lon="4.236223">
 <time>2011-05-19T12:58:25.9Z</time>
 </trkpt>
 <trkpt lat="44.952459" lon="4.234747">
 <time>2011-05-19T12:58:35.9Z</time>
 </trkpt>
 <trkpt lat="44.951565" lon="4.23388">
 <time>2011-05-19T12:58:41.9Z</time>
 </trkpt>
 <trkpt lat="44.951207" lon="4.233646">
 <time>2011-05-19T12:58:45.9Z</time>
 </trkpt>
 <trkpt lat="44.950759" lon="4.233607">
 <time>2011-05-19T12:58:50.9Z</time>
 </trkpt>
 <trkpt lat="44.95052" lon="4.233711">
 <time>2011-05-19T12:58:55.9Z</time>
 </trkpt>
 <trkpt lat="44.950159" lon="4.233996">
 <time>2011-05-19T12:59:00.9Z</time>
 </trkpt>
 <trkpt lat="44.949613" lon="4.234054">
 <time>2011-05-19T12:59:05.9Z</time>
 </trkpt>
 <trkpt lat="44.948806" lon="4.233648">
 <time>2011-05-19T12:59:10.9Z</time>
 </trkpt>
 <trkpt lat="44.947204" lon="4.232633">
 <time>2011-05-19T12:59:18.9Z</time>
 </trkpt>
 <trkpt lat="44.94656" lon="4.231948">
 <time>2011-05-19T12:59:23.9Z</time>
 </trkpt>
 <trkpt lat="44.945967" lon="4.231175">
 <time>2011-05-19T12:59:28.9Z</time>
 </trkpt>
 <trkpt lat="44.945136" lon="4.229617">
 <time>2011-05-19T12:59:36.9Z</time>
 </trkpt>
 <trkpt lat="44.944822" lon="4.228777">
 <time>2011-05-19T12:59:41.9Z</time>
 </trkpt>
 <trkpt lat="44.944404" lon="4.2277">
 <time>2011-05-19T12:59:45.9Z</time>
 </trkpt>
 <trkpt lat="44.943965" lon="4.226726">
 <time>2011-05-19T12:59:50.9Z</time>
 </trkpt>
 <trkpt lat="44.943453" lon="4.225534">
 <time>2011-05-19T12:59:55.9Z</time>
 </trkpt>
 <trkpt lat="44.942735" lon="4.224574">
 <time>2011-05-19T13:00:00.9Z</time>
 </trkpt>
 <trkpt lat="44.942401" lon="4.223678">
 <time>2011-05-19T13:00:05.9Z</time>
 </trkpt>
 <trkpt lat="44.941804" lon="4.222643">
 <time>2011-05-19T13:00:10.9Z</time>
 </trkpt>
 <trkpt lat="44.941209" lon="4.221518">
 <time>2011-05-19T13:00:15.9Z</time>
 </trkpt>
 <trkpt lat="44.94042" lon="4.220717">
 <time>2011-05-19T13:00:21.9Z</time>
 </trkpt>
 <trkpt lat="44.939802" lon="4.219541">
 <time>2011-05-19T13:00:27.9Z</time>
 </trkpt>
 <trkpt lat="44.939306" lon="4.219044">
 <time>2011-05-19T13:00:32.9Z</time>
 </trkpt>
 <trkpt lat="44.938825" lon="4.218508">
 <time>2011-05-19T13:00:36.9Z</time>
 </trkpt>
 <trkpt lat="44.938532" lon="4.217718">
 <time>2011-05-19T13:00:41.9Z</time>
 </trkpt>
 <trkpt lat="44.938367" lon="4.217809">
 <time>2011-05-19T13:00:46.2Z</time>
 </trkpt>
 <trkpt lat="44.938295" lon="4.218931">
 <time>2011-05-19T13:00:51.9Z</time>
 </trkpt>
 <trkpt lat="44.938535" lon="4.219764">
 <time>2011-05-19T13:00:55.9Z</time>
 </trkpt>
 <trkpt lat="44.938494" lon="4.220793">
 <time>2011-05-19T13:01:00.9Z</time>
 </trkpt>
 <trkpt lat="44.938259" lon="4.221462">
 <time>2011-05-19T13:01:04.9Z</time>
 </trkpt>
 <trkpt lat="44.937676" lon="4.222024">
 <time>2011-05-19T13:01:08.9Z</time>
 </trkpt>
 <trkpt lat="44.937262" lon="4.222749">
 <time>2011-05-19T13:01:13.9Z</time>
 </trkpt>
 <trkpt lat="44.93694" lon="4.223114">
 <time>2011-05-19T13:01:18.9Z</time>
 </trkpt>
 <trkpt lat="44.936773" lon="4.222164">
 <time>2011-05-19T13:01:23.9Z</time>
 </trkpt>
 <trkpt lat="44.936382" lon="4.221099">
 <time>2011-05-19T13:01:28.9Z</time>
 </trkpt>
 <trkpt lat="44.935852" lon="4.220464">
 <time>2011-05-19T13:01:32.9Z</time>
 </trkpt>
 <trkpt lat="44.935019" lon="4.220078">
 <time>2011-05-19T13:01:37.9Z</time>
 </trkpt>
 <trkpt lat="44.934127" lon="4.220012">
 <time>2011-05-19T13:01:42.9Z</time>
 </trkpt>
 <trkpt lat="44.93322" lon="4.220163">
 <time>2011-05-19T13:01:47.9Z</time>
 </trkpt>
 <trkpt lat="44.932718" lon="4.220816">
 <time>2011-05-19T13:01:52.9Z</time>
 </trkpt>
 <trkpt lat="44.932398" lon="4.221945">
 <time>2011-05-19T13:01:57.9Z</time>
 </trkpt>
 <trkpt lat="44.932132" lon="4.222917">
 <time>2011-05-19T13:02:02.9Z</time>
 </trkpt>
 <trkpt lat="44.932141" lon="4.22366">
 <time>2011-05-19T13:02:07.9Z</time>
 </trkpt>
 <trkpt lat="44.931809" lon="4.224307">
 <time>2011-05-19T13:02:12.9Z</time>
 </trkpt>
 <trkpt lat="44.931611" lon="4.225003">
 <time>2011-05-19T13:02:16.9Z</time>
 </trkpt>
 <trkpt lat="44.931584" lon="4.226027">
 <time>2011-05-19T13:02:21.9Z</time>
 </trkpt>
 <trkpt lat="44.931605" lon="4.226578">
 <time>2011-05-19T13:02:25.9Z</time>
 </trkpt>
 <trkpt lat="44.931464" lon="4.226239">
 <time>2011-05-19T13:02:30.9Z</time>
 </trkpt>
 <trkpt lat="44.931401" lon="4.22524">
 <time>2011-05-19T13:02:35.9Z</time>
 </trkpt>
 <trkpt lat="44.931376" lon="4.224423">
 <time>2011-05-19T13:02:39.9Z</time>
 </trkpt>
 <trkpt lat="44.931546" lon="4.223724">
 <time>2011-05-19T13:02:44.9Z</time>
 </trkpt>
 <trkpt lat="44.931458" lon="4.223091">
 <time>2011-05-19T13:02:48.9Z</time>
 </trkpt>
 <trkpt lat="44.930136" lon="4.221546">
 <time>2011-05-19T13:02:58.9Z</time>
 </trkpt>
 <trkpt lat="44.929691" lon="4.221227">
 <time>2011-05-19T13:03:03.3Z</time>
 </trkpt>
 <trkpt lat="44.928807" lon="4.221154">
 <time>2011-05-19T13:03:08.9Z</time>
 </trkpt>
 <trkpt lat="44.927943" lon="4.221576">
 <time>2011-05-19T13:03:13.2Z</time>
 </trkpt>
 <trkpt lat="44.927315" lon="4.22199">
 <time>2011-05-19T13:03:17.9Z</time>
 </trkpt>
 <trkpt lat="44.926534" lon="4.222528">
 <time>2011-05-19T13:03:22.9Z</time>
 </trkpt>
 <trkpt lat="44.925718" lon="4.22267">
 <time>2011-05-19T13:03:27.9Z</time>
 </trkpt>
 <trkpt lat="44.924953" lon="4.22224">
 <time>2011-05-19T13:03:32.9Z</time>
 </trkpt>
 <trkpt lat="44.924211" lon="4.221807">
 <time>2011-05-19T13:03:36.9Z</time>
 </trkpt>
 <trkpt lat="44.923839" lon="4.221607">
 <time>2011-05-19T13:03:40.9Z</time>
 </trkpt>
 <trkpt lat="44.92345" lon="4.220933">
 <time>2011-05-19T13:03:45.9Z</time>
 </trkpt>
 <trkpt lat="44.923572" lon="4.220169">
 <time>2011-05-19T13:03:50.9Z</time>
 </trkpt>
 <trkpt lat="44.92407" lon="4.219761">
 <time>2011-05-19T13:03:54.9Z</time>
 </trkpt>
 <trkpt lat="44.924955" lon="4.219126">
 <time>2011-05-19T13:03:59.9Z</time>
 </trkpt>
 <trkpt lat="44.925752" lon="4.218146">
 <time>2011-05-19T13:04:04.9Z</time>
 </trkpt>
 <trkpt lat="44.926286" lon="4.216911">
 <time>2011-05-19T13:04:08.9Z</time>
 </trkpt>
 <trkpt lat="44.926443" lon="4.216">
 <time>2011-05-19T13:04:13.9Z</time>
 </trkpt>
 <trkpt lat="44.926198" lon="4.215004">
 <time>2011-05-19T13:04:18.9Z</time>
 </trkpt>
 <trkpt lat="44.925568" lon="4.214643">
 <time>2011-05-19T13:04:23.9Z</time>
 </trkpt>
 <trkpt lat="44.924898" lon="4.214819">
 <time>2011-05-19T13:04:27.9Z</time>
 </trkpt>
 <trkpt lat="44.923927" lon="4.215349">
 <time>2011-05-19T13:04:32.9Z</time>
 </trkpt>
 <trkpt lat="44.922866" lon="4.216392">
 <time>2011-05-19T13:04:37.9Z</time>
 </trkpt>
 <trkpt lat="44.920358" lon="4.219535">
 <time>2011-05-19T13:04:49.9Z</time>
 </trkpt>
 <trkpt lat="44.920179" lon="4.220198">
 <time>2011-05-19T13:04:54.9Z</time>
 </trkpt>
 <trkpt lat="44.92002" lon="4.221203">
 <time>2011-05-19T13:04:59.9Z</time>
 </trkpt>
 <trkpt lat="44.919778" lon="4.221951">
 <time>2011-05-19T13:05:03.9Z</time>
 </trkpt>
 <trkpt lat="44.919217" lon="4.222497">
 <time>2011-05-19T13:05:08.9Z</time>
 </trkpt>
 <trkpt lat="44.918721" lon="4.222796">
 <time>2011-05-19T13:05:13.3Z</time>
 </trkpt>
 <trkpt lat="44.918019" lon="4.223088">
 <time>2011-05-19T13:05:18.9Z</time>
 </trkpt>
 <trkpt lat="44.916921" lon="4.223166">
 <time>2011-05-19T13:05:24.9Z</time>
 </trkpt>
 <trkpt lat="44.915962" lon="4.222969">
 <time>2011-05-19T13:05:30.9Z</time>
 </trkpt>
 <trkpt lat="44.915364" lon="4.223036">
 <time>2011-05-19T13:05:35.9Z</time>
 </trkpt>
 <trkpt lat="44.914955" lon="4.223177">
 <time>2011-05-19T13:05:40.9Z</time>
 </trkpt>
 <trkpt lat="44.91503" lon="4.222741">
 <time>2011-05-19T13:05:45.9Z</time>
 </trkpt>
 <trkpt lat="44.915115" lon="4.222593">
 <time>2011-05-19T13:05:50.9Z</time>
 </trkpt>
 <trkpt lat="44.915188" lon="4.222353">
 <time>2011-05-19T13:05:55.2Z</time>
 </trkpt>
 <trkpt lat="44.915311" lon="4.221816">
 <time>2011-05-19T13:05:59.9Z</time>
 </trkpt>
 <trkpt lat="44.915303" lon="4.221196">
 <time>2011-05-19T13:06:04.3Z</time>
 </trkpt>
 <trkpt lat="44.914939" lon="4.220306">
 <time>2011-05-19T13:06:09.3Z</time>
 </trkpt>
 <trkpt lat="44.914836" lon="4.219531">
 <time>2011-05-19T13:06:14.9Z</time>
 </trkpt>
 <trkpt lat="44.914854" lon="4.218739">
 <time>2011-05-19T13:06:18.9Z</time>
 </trkpt>
 <trkpt lat="44.915032" lon="4.217696">
 <time>2011-05-19T13:06:23.9Z</time>
 </trkpt>
 <trkpt lat="44.915295" lon="4.216698">
 <time>2011-05-19T13:06:28.9Z</time>
 </trkpt>
 <trkpt lat="44.91567" lon="4.216094">
 <time>2011-05-19T13:06:32.9Z</time>
 </trkpt>
 <trkpt lat="44.916359" lon="4.215672">
 <time>2011-05-19T13:06:37.9Z</time>
 </trkpt>
 <trkpt lat="44.916699" lon="4.215289">
 <time>2011-05-19T13:06:42.9Z</time>
 </trkpt>
 <trkpt lat="44.916556" lon="4.214548">
 <time>2011-05-19T13:06:47.9Z</time>
 </trkpt>
 <trkpt lat="44.916608" lon="4.213685">
 <time>2011-05-19T13:06:52.9Z</time>
 </trkpt>
 <trkpt lat="44.916405" lon="4.212642">
 <time>2011-05-19T13:06:57.9Z</time>
 </trkpt>
 <trkpt lat="44.91633" lon="4.211811">
 <time>2011-05-19T13:07:02.9Z</time>
 </trkpt>
 <trkpt lat="44.916647" lon="4.211908">
 <time>2011-05-19T13:07:07.9Z</time>
 </trkpt>
 <trkpt lat="44.917059" lon="4.212249">
 <time>2011-05-19T13:07:11.9Z</time>
 </trkpt>
 <trkpt lat="44.91759" lon="4.212262">
 <time>2011-05-19T13:07:16.9Z</time>
 </trkpt>
 <trkpt lat="44.918166" lon="4.212091">
 <time>2011-05-19T13:07:20.9Z</time>
 </trkpt>
 <trkpt lat="44.918608" lon="4.211627">
 <time>2011-05-19T13:07:24.9Z</time>
 </trkpt>
 <trkpt lat="44.919142" lon="4.210945">
 <time>2011-05-19T13:07:29.9Z</time>
 </trkpt>
 <trkpt lat="44.919438" lon="4.20995">
 <time>2011-05-19T13:07:34.9Z</time>
 </trkpt>
 <trkpt lat="44.919475" lon="4.209116">
 <time>2011-05-19T13:07:38.9Z</time>
 </trkpt>
 <trkpt lat="44.918994" lon="4.20879">
 <time>2011-05-19T13:07:43.9Z</time>
 </trkpt>
 <trkpt lat="44.918385" lon="4.208119">
 <time>2011-05-19T13:07:47.9Z</time>
 </trkpt>
 <trkpt lat="44.91769" lon="4.206643">
 <time>2011-05-19T13:07:57.2Z</time>
 </trkpt>
 <trkpt lat="44.917068" lon="4.206454">
 <time>2011-05-19T13:08:01.9Z</time>
 </trkpt>
 <trkpt lat="44.916122" lon="4.206773">
 <time>2011-05-19T13:08:06.9Z</time>
 </trkpt>
 <trkpt lat="44.915205" lon="4.206974">
 <time>2011-05-19T13:08:11.9Z</time>
 </trkpt>
 <trkpt lat="44.91419" lon="4.206987">
 <time>2011-05-19T13:08:15.9Z</time>
 </trkpt>
 <trkpt lat="44.913199" lon="4.207264">
 <time>2011-05-19T13:08:20.9Z</time>
 </trkpt>
 <trkpt lat="44.912645" lon="4.207282">
 <time>2011-05-19T13:08:24.9Z</time>
 </trkpt>
 <trkpt lat="44.911741" lon="4.207288">
 <time>2011-05-19T13:08:29.9Z</time>
 </trkpt>
 <trkpt lat="44.910966" lon="4.207148">
 <time>2011-05-19T13:08:34.9Z</time>
 </trkpt>
 <trkpt lat="44.910236" lon="4.206489">
 <time>2011-05-19T13:08:40.3Z</time>
 </trkpt>
 <trkpt lat="44.909444" lon="4.206305">
 <time>2011-05-19T13:08:44.9Z</time>
 </trkpt>
 <trkpt lat="44.908572" lon="4.205907">
 <time>2011-05-19T13:08:49.9Z</time>
 </trkpt>
 <trkpt lat="44.907911" lon="4.205857">
 <time>2011-05-19T13:08:54.9Z</time>
 </trkpt>
 <trkpt lat="44.904255" lon="4.207273">
 <time>2011-05-19T13:09:12.9Z</time>
 </trkpt>
 <trkpt lat="44.903544" lon="4.207315">
 <time>2011-05-19T13:09:17.9Z</time>
 </trkpt>
 <trkpt lat="44.902808" lon="4.206935">
 <time>2011-05-19T13:09:21.9Z</time>
 </trkpt>
 <trkpt lat="44.902549" lon="4.20613">
 <time>2011-05-19T13:09:26.9Z</time>
 </trkpt>
 <trkpt lat="44.902247" lon="4.20505">
 <time>2011-05-19T13:09:31.9Z</time>
 </trkpt>
 <trkpt lat="44.901693" lon="4.204314">
 <time>2011-05-19T13:09:36.3Z</time>
 </trkpt>
 <trkpt lat="44.901103" lon="4.203391">
 <time>2011-05-19T13:09:41.3Z</time>
 </trkpt>
 <trkpt lat="44.900787" lon="4.202489">
 <time>2011-05-19T13:09:45.3Z</time>
 </trkpt>
 <trkpt lat="44.900319" lon="4.201656">
 <time>2011-05-19T13:09:49.9Z</time>
 </trkpt>
 <trkpt lat="44.899675" lon="4.201467">
 <time>2011-05-19T13:09:54.9Z</time>
 </trkpt>
 <trkpt lat="44.898981" lon="4.201241">
 <time>2011-05-19T13:09:59.9Z</time>
 </trkpt>
 <trkpt lat="44.898721" lon="4.200279">
 <time>2011-05-19T13:10:04.9Z</time>
 </trkpt>
 <trkpt lat="44.898715" lon="4.199137">
 <time>2011-05-19T13:10:09.9Z</time>
 </trkpt>
 <trkpt lat="44.8993" lon="4.196777">
 <time>2011-05-19T13:10:17.9Z</time>
 </trkpt>
 <trkpt lat="44.899317" lon="4.195892">
 <time>2011-05-19T13:10:22.9Z</time>
 </trkpt>
 <trkpt lat="44.899041" lon="4.195192">
 <time>2011-05-19T13:10:27.9Z</time>
 </trkpt>
 <trkpt lat="44.898439" lon="4.194739">
 <time>2011-05-19T13:10:32.9Z</time>
 </trkpt>
 <trkpt lat="44.897875" lon="4.193862">
 <time>2011-05-19T13:10:36.9Z</time>
 </trkpt>
 <trkpt lat="44.897351" lon="4.19295">
 <time>2011-05-19T13:10:41.9Z</time>
 </trkpt>
 <trkpt lat="44.897009" lon="4.192567">
 <time>2011-05-19T13:10:46.9Z</time>
 </trkpt>
 <trkpt lat="44.896526" lon="4.192303">
 <time>2011-05-19T13:10:51.9Z</time>
 </trkpt>
 <trkpt lat="44.895959" lon="4.191931">
 <time>2011-05-19T13:10:56.9Z</time>
 </trkpt>
 <trkpt lat="44.895682" lon="4.191847">
 <time>2011-05-19T13:11:00.9Z</time>
 </trkpt>
 <trkpt lat="44.89536" lon="4.192072">
 <time>2011-05-19T13:11:05.9Z</time>
 </trkpt>
 <trkpt lat="44.895332" lon="4.192349">
 <time>2011-05-19T13:11:09.9Z</time>
 </trkpt>
 <trkpt lat="44.895426" lon="4.192908">
 <time>2011-05-19T13:11:14.9Z</time>
 </trkpt>
 <trkpt lat="44.895585" lon="4.19376">
 <time>2011-05-19T13:11:19.9Z</time>
 </trkpt>
 <trkpt lat="44.895683" lon="4.194006">
 <time>2011-05-19T13:11:24.9Z</time>
 </trkpt>
 <trkpt lat="44.895819" lon="4.194064">
 <time>2011-05-19T13:11:30.9Z</time>
 </trkpt>
 <trkpt lat="44.895788" lon="4.194288">
 <time>2011-05-19T13:15:23.9Z</time>
 </trkpt>
 <trkpt lat="44.895632" lon="4.194922">
 <time>2011-05-19T13:15:28.9Z</time>
 </trkpt>
 <trkpt lat="44.895389" lon="4.195639">
 <time>2011-05-19T13:15:32.9Z</time>
 </trkpt>
 <trkpt lat="44.89517" lon="4.19612">
 <time>2011-05-19T13:15:37.9Z</time>
 </trkpt>
 <trkpt lat="44.89481" lon="4.196728">
 <time>2011-05-19T13:15:42.9Z</time>
 </trkpt>
 <trkpt lat="44.894648" lon="4.197445">
 <time>2011-05-19T13:15:47.9Z</time>
 </trkpt>
 <trkpt lat="44.8945" lon="4.198699">
 <time>2011-05-19T13:15:53.9Z</time>
 </trkpt>
 <trkpt lat="44.89427" lon="4.199175">
 <time>2011-05-19T13:15:58.9Z</time>
 </trkpt>
 <trkpt lat="44.893777" lon="4.199438">
 <time>2011-05-19T13:16:03.9Z</time>
 </trkpt>
 <trkpt lat="44.893236" lon="4.199521">
 <time>2011-05-19T13:16:08.3Z</time>
 </trkpt>
 <trkpt lat="44.891963" lon="4.19949">
 <time>2011-05-19T13:16:16Z</time>
 </trkpt>
 <trkpt lat="44.891614" lon="4.199691">
 <time>2011-05-19T13:16:20.9Z</time>
 </trkpt>
 <trkpt lat="44.891845" lon="4.200564">
 <time>2011-05-19T13:16:24.9Z</time>
 </trkpt>
 <trkpt lat="44.892521" lon="4.202101">
 <time>2011-05-19T13:16:31.9Z</time>
 </trkpt>
 <trkpt lat="44.892465" lon="4.202778">
 <time>2011-05-19T13:16:36.9Z</time>
 </trkpt>
 <trkpt lat="44.89189" lon="4.203209">
 <time>2011-05-19T13:16:41.9Z</time>
 </trkpt>
 <trkpt lat="44.891271" lon="4.203405">
 <time>2011-05-19T13:16:45.9Z</time>
 </trkpt>
 <trkpt lat="44.890612" lon="4.203946">
 <time>2011-05-19T13:16:50.9Z</time>
 </trkpt>
 <trkpt lat="44.89002" lon="4.20428">
 <time>2011-05-19T13:16:54.9Z</time>
 </trkpt>
 <trkpt lat="44.889549" lon="4.204347">
 <time>2011-05-19T13:16:59.9Z</time>
 </trkpt>
 <trkpt lat="44.88874" lon="4.204841">
 <time>2011-05-19T13:17:04.9Z</time>
 </trkpt>
 <trkpt lat="44.888354" lon="4.204951">
 <time>2011-05-19T13:17:08.9Z</time>
 </trkpt>
 <trkpt lat="44.888093" lon="4.204931">
 <time>2011-05-19T13:17:13.9Z</time>
 </trkpt>
 <trkpt lat="44.888156" lon="4.204742">
 <time>2011-05-19T13:17:22.9Z</time>
 </trkpt>
 <trkpt lat="44.88841" lon="4.204315">
 <time>2011-05-19T13:17:26.9Z</time>
 </trkpt>
 <trkpt lat="44.888832" lon="4.203685">
 <time>2011-05-19T13:17:31.9Z</time>
 </trkpt>
 <trkpt lat="44.889344" lon="4.202786">
 <time>2011-05-19T13:17:36.9Z</time>
 </trkpt>
 <trkpt lat="44.890237" lon="4.201858">
 <time>2011-05-19T13:17:43.9Z</time>
 </trkpt>
 <trkpt lat="44.890475" lon="4.201275">
 <time>2011-05-19T13:17:48.9Z</time>
 </trkpt>
 <trkpt lat="44.89035" lon="4.200288">
 <time>2011-05-19T13:17:53.9Z</time>
 </trkpt>
 <trkpt lat="44.890222" lon="4.199014">
 <time>2011-05-19T13:17:58.9Z</time>
 </trkpt>
 <trkpt lat="44.89039" lon="4.198036">
 <time>2011-05-19T13:18:02.9Z</time>
 </trkpt>
 <trkpt lat="44.890869" lon="4.197126">
 <time>2011-05-19T13:18:07.9Z</time>
 </trkpt>
 <trkpt lat="44.891514" lon="4.19635">
 <time>2011-05-19T13:18:12.9Z</time>
 </trkpt>
 <trkpt lat="44.8919" lon="4.195401">
 <time>2011-05-19T13:18:17.9Z</time>
 </trkpt>
 <trkpt lat="44.892146" lon="4.194398">
 <time>2011-05-19T13:18:22.9Z</time>
 </trkpt>
 <trkpt lat="44.89198" lon="4.193555">
 <time>2011-05-19T13:18:27.9Z</time>
 </trkpt>
 <trkpt lat="44.891671" lon="4.192463">
 <time>2011-05-19T13:18:33.3Z</time>
 </trkpt>
 <trkpt lat="44.8913" lon="4.191319">
 <time>2011-05-19T13:18:38.3Z</time>
 </trkpt>
 <trkpt lat="44.890676" lon="4.189262">
 <time>2011-05-19T13:18:45.9Z</time>
 </trkpt>
 <trkpt lat="44.890684" lon="4.188487">
 <time>2011-05-19T13:18:50.9Z</time>
 </trkpt>
 <trkpt lat="44.891042" lon="4.187857">
 <time>2011-05-19T13:18:54.9Z</time>
 </trkpt>
 <trkpt lat="44.892067" lon="4.187303">
 <time>2011-05-19T13:18:59.9Z</time>
 </trkpt>
 <trkpt lat="44.892844" lon="4.187343">
 <time>2011-05-19T13:19:04.9Z</time>
 </trkpt>
 <trkpt lat="44.893367" lon="4.1872">
 <time>2011-05-19T13:19:09.9Z</time>
 </trkpt>
 <trkpt lat="44.89384" lon="4.186794">
 <time>2011-05-19T13:19:14.9Z</time>
 </trkpt>
 <trkpt lat="44.894386" lon="4.186237">
 <time>2011-05-19T13:19:19.9Z</time>
 </trkpt>
 <trkpt lat="44.895056" lon="4.186123">
 <time>2011-05-19T13:19:24.9Z</time>
 </trkpt>
 <trkpt lat="44.895696" lon="4.186313">
 <time>2011-05-19T13:19:28.9Z</time>
 </trkpt>
 <trkpt lat="44.896613" lon="4.186316">
 <time>2011-05-19T13:19:33.9Z</time>
 </trkpt>
 <trkpt lat="44.897489" lon="4.186494">
 <time>2011-05-19T13:19:37.9Z</time>
 </trkpt>
 <trkpt lat="44.898071" lon="4.186744">
 <time>2011-05-19T13:19:42.9Z</time>
 </trkpt>
 <trkpt lat="44.89901" lon="4.186633">
 <time>2011-05-19T13:19:47.9Z</time>
 </trkpt>
 <trkpt lat="44.899751" lon="4.186645">
 <time>2011-05-19T13:19:52.9Z</time>
 </trkpt>
 <trkpt lat="44.90051" lon="4.186672">
 <time>2011-05-19T13:19:57.9Z</time>
 </trkpt>
 <trkpt lat="44.900558" lon="4.186485">
 <time>2011-05-19T13:20:02.9Z</time>
 </trkpt>
 <trkpt lat="44.900161" lon="4.186051">
 <time>2011-05-19T13:20:06.9Z</time>
 </trkpt>
 <trkpt lat="44.899562" lon="4.185406">
 <time>2011-05-19T13:20:11.9Z</time>
 </trkpt>
 <trkpt lat="44.899341" lon="4.184862">
 <time>2011-05-19T13:20:17.2Z</time>
 </trkpt>
 <trkpt lat="44.899255" lon="4.184284">
 <time>2011-05-19T13:20:21.9Z</time>
 </trkpt>
 <trkpt lat="44.899242" lon="4.183158">
 <time>2011-05-19T13:20:28.9Z</time>
 </trkpt>
 <trkpt lat="44.899378" lon="4.182642">
 <time>2011-05-19T13:20:33Z</time>
 </trkpt>
 <trkpt lat="44.899509" lon="4.182213">
 <time>2011-05-19T13:20:38.9Z</time>
 </trkpt>
 <trkpt lat="44.899369" lon="4.182354">
 <time>2011-05-19T13:21:26.9Z</time>
 </trkpt>
 <trkpt lat="44.899292" lon="4.182757">
 <time>2011-05-19T13:21:31.9Z</time>
 </trkpt>
 <trkpt lat="44.899251" lon="4.183609">
 <time>2011-05-19T13:21:36.9Z</time>
 </trkpt>
 <trkpt lat="44.899264" lon="4.184617">
 <time>2011-05-19T13:21:41.9Z</time>
 </trkpt>
 <trkpt lat="44.899337" lon="4.185124">
 <time>2011-05-19T13:21:46.9Z</time>
 </trkpt>
 <trkpt lat="44.899383" lon="4.185395">
 <time>2011-05-19T13:21:51.9Z</time>
 </trkpt>
 <trkpt lat="44.899403" lon="4.18559">
 <time>2011-05-19T13:26:11.9Z</time>
 </trkpt>
 <trkpt lat="44.899279" lon="4.185709">
 <time>2011-05-19T13:26:21.9Z</time>
 </trkpt>
 <trkpt lat="44.899201" lon="4.185867">
 <time>2011-05-19T13:26:34.9Z</time>
 </trkpt>
 <trkpt lat="44.899064" lon="4.185959">
 <time>2011-05-19T13:26:58.9Z</time>
 </trkpt>
 <trkpt lat="44.898971" lon="4.186117">
 <time>2011-05-19T13:27:18.9Z</time>
 </trkpt>
 <trkpt lat="44.899056" lon="4.185961">
 <time>2011-05-19T13:30:31.9Z</time>
 </trkpt>
 <trkpt lat="44.899087" lon="4.185767">
 <time>2011-05-19T13:30:46.3Z</time>
 </trkpt>
 <trkpt lat="44.899157" lon="4.185598">
 <time>2011-05-19T13:31:01.9Z</time>
 </trkpt>
 <trkpt lat="44.899232" lon="4.185411">
 <time>2011-05-19T13:31:25.3Z</time>
 </trkpt>
 <trkpt lat="44.899358" lon="4.18549">
 <time>2011-05-19T13:31:39Z</time>
 </trkpt>
 <trkpt lat="44.899504" lon="4.185562">
 <time>2011-05-19T13:36:03.9Z</time>
 </trkpt>
 <trkpt lat="44.899758" lon="4.185869">
 <time>2011-05-19T13:36:08.9Z</time>
 </trkpt>
 <trkpt lat="44.900169" lon="4.186256">
 <time>2011-05-19T13:36:12.9Z</time>
 </trkpt>
 <trkpt lat="44.900412" lon="4.186469">
 <time>2011-05-19T13:36:16.9Z</time>
 </trkpt>
 <trkpt lat="44.900474" lon="4.186697">
 <time>2011-05-19T13:36:21.9Z</time>
 </trkpt>
 <trkpt lat="44.900314" lon="4.186691">
 <time>2011-05-19T13:36:25.9Z</time>
 </trkpt>
 <trkpt lat="44.900142" lon="4.186707">
 <time>2011-05-19T13:36:30.9Z</time>
 </trkpt>
 <trkpt lat="44.899916" lon="4.186734">
 <time>2011-05-19T13:37:28.9Z</time>
 </trkpt>
 <trkpt lat="44.899735" lon="4.186737">
 <time>2011-05-19T13:37:32.9Z</time>
 </trkpt>
 <trkpt lat="44.899052" lon="4.186655">
 <time>2011-05-19T13:37:41.9Z</time>
 </trkpt>
 <trkpt lat="44.898765" lon="4.186719">
 <time>2011-05-19T13:37:46.9Z</time>
 </trkpt>
 <trkpt lat="44.898204" lon="4.186883">
 <time>2011-05-19T13:37:52.9Z</time>
 </trkpt>
 <trkpt lat="44.89783" lon="4.186831">
 <time>2011-05-19T13:37:56.9Z</time>
 </trkpt>
 <trkpt lat="44.897368" lon="4.186644">
 <time>2011-05-19T13:38:01.9Z</time>
 </trkpt>
 <trkpt lat="44.896768" lon="4.1864">
 <time>2011-05-19T13:38:06.9Z</time>
 </trkpt>
 <trkpt lat="44.89607" lon="4.186426">
 <time>2011-05-19T13:38:11.9Z</time>
 </trkpt>
 <trkpt lat="44.895368" lon="4.186386">
 <time>2011-05-19T13:38:16.9Z</time>
 </trkpt>
 <trkpt lat="44.894703" lon="4.186217">
 <time>2011-05-19T13:38:21.9Z</time>
 </trkpt>
 <trkpt lat="44.894244" lon="4.186393">
 <time>2011-05-19T13:38:25.9Z</time>
 </trkpt>
 <trkpt lat="44.893322" lon="4.187237">
 <time>2011-05-19T13:38:33.9Z</time>
 </trkpt>
 <trkpt lat="44.892886" lon="4.187443">
 <time>2011-05-19T13:38:38.9Z</time>
 </trkpt>
 <trkpt lat="44.892473" lon="4.187397">
 <time>2011-05-19T13:38:42.9Z</time>
 </trkpt>
 <trkpt lat="44.892118" lon="4.187372">
 <time>2011-05-19T13:38:47.9Z</time>
 </trkpt>
 <trkpt lat="44.892008" lon="4.18749">
 <time>2011-05-19T13:39:00.9Z</time>
 </trkpt>
 <trkpt lat="44.891806" lon="4.187594">
 <time>2011-05-19T13:39:04.9Z</time>
 </trkpt>
 <trkpt lat="44.89122" lon="4.188089">
 <time>2011-05-19T13:39:11.9Z</time>
 </trkpt>
 <trkpt lat="44.890906" lon="4.188527">
 <time>2011-05-19T13:39:16.9Z</time>
 </trkpt>
 <trkpt lat="44.890822" lon="4.189287">
 <time>2011-05-19T13:39:20.9Z</time>
 </trkpt>
 <trkpt lat="44.890984" lon="4.189772">
 <time>2011-05-19T13:39:24.9Z</time>
 </trkpt>
 <trkpt lat="44.891366" lon="4.191206">
 <time>2011-05-19T13:39:31.9Z</time>
 </trkpt>
 <trkpt lat="44.891606" lon="4.19183">
 <time>2011-05-19T13:39:36.9Z</time>
 </trkpt>
 <trkpt lat="44.891773" lon="4.193051">
 <time>2011-05-19T13:39:41.9Z</time>
 </trkpt>
 <trkpt lat="44.892134" lon="4.194118">
 <time>2011-05-19T13:39:47.9Z</time>
 </trkpt>
 <trkpt lat="44.892056" lon="4.194753">
 <time>2011-05-19T13:39:51.9Z</time>
 </trkpt>
 <trkpt lat="44.891684" lon="4.196055">
 <time>2011-05-19T13:39:58.9Z</time>
 </trkpt>
 <trkpt lat="44.891246" lon="4.196702">
 <time>2011-05-19T13:40:04.2Z</time>
 </trkpt>
 <trkpt lat="44.890566" lon="4.197642">
 <time>2011-05-19T13:40:09.9Z</time>
 </trkpt>
 <trkpt lat="44.890217" lon="4.198614">
 <time>2011-05-19T13:40:14.9Z</time>
 </trkpt>
 <trkpt lat="44.890194" lon="4.199632">
 <time>2011-05-19T13:40:19.9Z</time>
 </trkpt>
 <trkpt lat="44.890434" lon="4.201122">
 <time>2011-05-19T13:40:26.9Z</time>
 </trkpt>
 <trkpt lat="44.890337" lon="4.201728">
 <time>2011-05-19T13:40:31.9Z</time>
 </trkpt>
 <trkpt lat="44.889971" lon="4.202172">
 <time>2011-05-19T13:40:36.3Z</time>
 </trkpt>
 <trkpt lat="44.88943" lon="4.202798">
 <time>2011-05-19T13:40:40.9Z</time>
 </trkpt>
 <trkpt lat="44.888958" lon="4.203556">
 <time>2011-05-19T13:40:44.9Z</time>
 </trkpt>
 <trkpt lat="44.888622" lon="4.204162">
 <time>2011-05-19T13:40:49.9Z</time>
 </trkpt>
 <trkpt lat="44.888107" lon="4.204872">
 <time>2011-05-19T13:40:55.9Z</time>
 </trkpt>
 <trkpt lat="44.887805" lon="4.205047">
 <time>2011-05-19T13:41:00.9Z</time>
 </trkpt>
 <trkpt lat="44.887445" lon="4.205415">
 <time>2011-05-19T13:41:04.9Z</time>
 </trkpt>
 <trkpt lat="44.887229" lon="4.206351">
 <time>2011-05-19T13:41:09.9Z</time>
 </trkpt>
 <trkpt lat="44.886692" lon="4.206457">
 <time>2011-05-19T13:41:14.9Z</time>
 </trkpt>
 <trkpt lat="44.885967" lon="4.2062">
 <time>2011-05-19T13:41:19.9Z</time>
 </trkpt>
 <trkpt lat="44.885477" lon="4.205526">
 <time>2011-05-19T13:41:24.9Z</time>
 </trkpt>
 <trkpt lat="44.885097" lon="4.205565">
 <time>2011-05-19T13:41:29.9Z</time>
 </trkpt>
 <trkpt lat="44.884512" lon="4.20592">
 <time>2011-05-19T13:41:34.9Z</time>
 </trkpt>
 <trkpt lat="44.884065" lon="4.206047">
 <time>2011-05-19T13:41:39.9Z</time>
 </trkpt>
 <trkpt lat="44.884016" lon="4.20561">
 <time>2011-05-19T13:41:44.9Z</time>
 </trkpt>
 <trkpt lat="44.884066" lon="4.204748">
 <time>2011-05-19T13:41:49.9Z</time>
 </trkpt>
 <trkpt lat="44.883849" lon="4.20376">
 <time>2011-05-19T13:41:53.9Z</time>
 </trkpt>
 <trkpt lat="44.883613" lon="4.202978">
 <time>2011-05-19T13:41:58.9Z</time>
 </trkpt>
 <trkpt lat="44.883672" lon="4.201977">
 <time>2011-05-19T13:42:03.9Z</time>
 </trkpt>
 <trkpt lat="44.884074" lon="4.201101">
 <time>2011-05-19T13:42:08.9Z</time>
 </trkpt>
 <trkpt lat="44.884776" lon="4.200268">
 <time>2011-05-19T13:42:15.2Z</time>
 </trkpt>
 <trkpt lat="44.884692" lon="4.199675">
 <time>2011-05-19T13:42:19.9Z</time>
 </trkpt>
 <trkpt lat="44.88438" lon="4.199075">
 <time>2011-05-19T13:42:24.9Z</time>
 </trkpt>
 <trkpt lat="44.88375" lon="4.198598">
 <time>2011-05-19T13:42:29.9Z</time>
 </trkpt>
 <trkpt lat="44.883633" lon="4.19819">
 <time>2011-05-19T13:42:34.9Z</time>
 </trkpt>
 <trkpt lat="44.883788" lon="4.19747">
 <time>2011-05-19T13:42:38.9Z</time>
 </trkpt>
 <trkpt lat="44.883787" lon="4.196473">
 <time>2011-05-19T13:42:42.9Z</time>
 </trkpt>
 <trkpt lat="44.883611" lon="4.195924">
 <time>2011-05-19T13:42:47.9Z</time>
 </trkpt>
 <trkpt lat="44.883176" lon="4.195345">
 <time>2011-05-19T13:42:52.9Z</time>
 </trkpt>
 <trkpt lat="44.882759" lon="4.193325">
 <time>2011-05-19T13:43:01.9Z</time>
 </trkpt>
 <trkpt lat="44.882628" lon="4.192264">
 <time>2011-05-19T13:43:06.9Z</time>
 </trkpt>
 <trkpt lat="44.882659" lon="4.191322">
 <time>2011-05-19T13:43:11.9Z</time>
 </trkpt>
 <trkpt lat="44.882432" lon="4.190831">
 <time>2011-05-19T13:43:16.9Z</time>
 </trkpt>
 <trkpt lat="44.881785" lon="4.190445">
 <time>2011-05-19T13:43:20.9Z</time>
 </trkpt>
 <trkpt lat="44.881541" lon="4.189983">
 <time>2011-05-19T13:43:24.9Z</time>
 </trkpt>
 <trkpt lat="44.88141" lon="4.188886">
 <time>2011-05-19T13:43:29.9Z</time>
 </trkpt>
 <trkpt lat="44.881549" lon="4.187926">
 <time>2011-05-19T13:43:34.2Z</time>
 </trkpt>
 <trkpt lat="44.88181" lon="4.187044">
 <time>2011-05-19T13:43:39.2Z</time>
 </trkpt>
 <trkpt lat="44.88162" lon="4.186796">
 <time>2011-05-19T13:43:43.2Z</time>
 </trkpt>
 <trkpt lat="44.880781" lon="4.186765">
 <time>2011-05-19T13:43:47.9Z</time>
 </trkpt>
 <trkpt lat="44.880377" lon="4.186366">
 <time>2011-05-19T13:43:52.9Z</time>
 </trkpt>
 <trkpt lat="44.8803" lon="4.185434">
 <time>2011-05-19T13:43:57.9Z</time>
 </trkpt>
 <trkpt lat="44.880362" lon="4.184488">
 <time>2011-05-19T13:44:02.9Z</time>
 </trkpt>
 <trkpt lat="44.879898" lon="4.183969">
 <time>2011-05-19T13:44:07.9Z</time>
 </trkpt>
 <trkpt lat="44.879242" lon="4.184046">
 <time>2011-05-19T13:44:11.9Z</time>
 </trkpt>
 <trkpt lat="44.878503" lon="4.184653">
 <time>2011-05-19T13:44:17.9Z</time>
 </trkpt>
 <trkpt lat="44.87815" lon="4.184897">
 <time>2011-05-19T13:44:22.9Z</time>
 </trkpt>
 <trkpt lat="44.878061" lon="4.185586">
 <time>2011-05-19T13:44:27.9Z</time>
 </trkpt>
 <trkpt lat="44.878044" lon="4.185823">
 <time>2011-05-19T13:44:32.9Z</time>
 </trkpt>
 <trkpt lat="44.877931" lon="4.185097">
 <time>2011-05-19T13:44:37.9Z</time>
 </trkpt>
 <trkpt lat="44.877823" lon="4.184125">
 <time>2011-05-19T13:44:42.9Z</time>
 </trkpt>
 <trkpt lat="44.877527" lon="4.183544">
 <time>2011-05-19T13:44:46.9Z</time>
 </trkpt>
 <trkpt lat="44.876742" lon="4.182104">
 <time>2011-05-19T13:44:53.9Z</time>
 </trkpt>
 <trkpt lat="44.876255" lon="4.181549">
 <time>2011-05-19T13:44:58.9Z</time>
 </trkpt>
 <trkpt lat="44.875493" lon="4.180776">
 <time>2011-05-19T13:45:03.9Z</time>
 </trkpt>
 <trkpt lat="44.874813" lon="4.180055">
 <time>2011-05-19T13:45:08.9Z</time>
 </trkpt>
 <trkpt lat="44.874421" lon="4.179727">
 <time>2011-05-19T13:45:13.3Z</time>
 </trkpt>
 <trkpt lat="44.873857" lon="4.179377">
 <time>2011-05-19T13:45:19.2Z</time>
 </trkpt>
 <trkpt lat="44.874023" lon="4.17955">
 <time>2011-05-19T13:45:28.2Z</time>
 </trkpt>
 <trkpt lat="44.874408" lon="4.180052">
 <time>2011-05-19T13:45:32.9Z</time>
 </trkpt>
 <trkpt lat="44.87468" lon="4.180736">
 <time>2011-05-19T13:45:37.9Z</time>
 </trkpt>
 <trkpt lat="44.874566" lon="4.181043">
 <time>2011-05-19T13:45:41.9Z</time>
 </trkpt>
 <trkpt lat="44.873852" lon="4.181803">
 <time>2011-05-19T13:45:47.2Z</time>
 </trkpt>
 <trkpt lat="44.873191" lon="4.182434">
 <time>2011-05-19T13:45:51.9Z</time>
 </trkpt>
 <trkpt lat="44.872801" lon="4.183447">
 <time>2011-05-19T13:45:56.9Z</time>
 </trkpt>
 <trkpt lat="44.87245" lon="4.184334">
 <time>2011-05-19T13:46:00.9Z</time>
 </trkpt>
 <trkpt lat="44.871932" lon="4.184371">
 <time>2011-05-19T13:46:04.9Z</time>
 </trkpt>
 <trkpt lat="44.871455" lon="4.183811">
 <time>2011-05-19T13:46:10.3Z</time>
 </trkpt>
 <trkpt lat="44.870734" lon="4.183008">
 <time>2011-05-19T13:46:14.9Z</time>
 </trkpt>
 <trkpt lat="44.870307" lon="4.182785">
 <time>2011-05-19T13:46:19.2Z</time>
 </trkpt>
 <trkpt lat="44.870354" lon="4.183136">
 <time>2011-05-19T13:46:23.9Z</time>
 </trkpt>
 <trkpt lat="44.870865" lon="4.18369">
 <time>2011-05-19T13:46:27.9Z</time>
 </trkpt>
 <trkpt lat="44.87149" lon="4.185391">
 <time>2011-05-19T13:46:33.9Z</time>
 </trkpt>
 <trkpt lat="44.872063" lon="4.185859">
 <time>2011-05-19T13:46:38.9Z</time>
 </trkpt>
 <trkpt lat="44.872888" lon="4.185894">
 <time>2011-05-19T13:46:43.3Z</time>
 </trkpt>
 <trkpt lat="44.873611" lon="4.185797">
 <time>2011-05-19T13:46:47.3Z</time>
 </trkpt>
 <trkpt lat="44.874352" lon="4.18602">
 <time>2011-05-19T13:46:52.9Z</time>
 </trkpt>
 <trkpt lat="44.874979" lon="4.186477">
 <time>2011-05-19T13:46:57.9Z</time>
 </trkpt>
 <trkpt lat="44.875424" lon="4.187101">
 <time>2011-05-19T13:47:03.3Z</time>
 </trkpt>
 <trkpt lat="44.875443" lon="4.188252">
 <time>2011-05-19T13:47:08.3Z</time>
 </trkpt>
 <trkpt lat="44.874965" lon="4.189403">
 <time>2011-05-19T13:47:13.3Z</time>
 </trkpt>
 <trkpt lat="44.874164" lon="4.190637">
 <time>2011-05-19T13:47:18.9Z</time>
 </trkpt>
 <trkpt lat="44.873953" lon="4.191663">
 <time>2011-05-19T13:47:23.9Z</time>
 </trkpt>
 <trkpt lat="44.873834" lon="4.193149">
 <time>2011-05-19T13:47:27.9Z</time>
 </trkpt>
 <trkpt lat="44.873563" lon="4.195672">
 <time>2011-05-19T13:47:37.9Z</time>
 </trkpt>
 <trkpt lat="44.87327" lon="4.195955">
 <time>2011-05-19T13:47:42.9Z</time>
 </trkpt>
 <trkpt lat="44.872157" lon="4.195124">
 <time>2011-05-19T13:47:49.9Z</time>
 </trkpt>
 <trkpt lat="44.87149" lon="4.195055">
 <time>2011-05-19T13:47:54.9Z</time>
 </trkpt>
 <trkpt lat="44.870745" lon="4.195131">
 <time>2011-05-19T13:47:58.9Z</time>
 </trkpt>
 <trkpt lat="44.869807" lon="4.194956">
 <time>2011-05-19T13:48:03.9Z</time>
 </trkpt>
 <trkpt lat="44.869124" lon="4.194965">
 <time>2011-05-19T13:48:08.9Z</time>
 </trkpt>
 <trkpt lat="44.868709" lon="4.194374">
 <time>2011-05-19T13:48:13.9Z</time>
 </trkpt>
 <trkpt lat="44.868569" lon="4.193858">
 <time>2011-05-19T13:48:17.9Z</time>
 </trkpt>
 <trkpt lat="44.867925" lon="4.19372">
 <time>2011-05-19T13:48:22.9Z</time>
 </trkpt>
 <trkpt lat="44.867254" lon="4.193976">
 <time>2011-05-19T13:48:27.9Z</time>
 </trkpt>
 <trkpt lat="44.866698" lon="4.193833">
 <time>2011-05-19T13:48:32.9Z</time>
 </trkpt>
 <trkpt lat="44.866107" lon="4.194401">
 <time>2011-05-19T13:48:37.9Z</time>
 </trkpt>
 <trkpt lat="44.865311" lon="4.195341">
 <time>2011-05-19T13:48:43.2Z</time>
 </trkpt>
 <trkpt lat="44.863968" lon="4.196381">
 <time>2011-05-19T13:48:48.2Z</time>
 </trkpt>
 <trkpt lat="44.862093" lon="4.197324">
 <time>2011-05-19T13:48:56.2Z</time>
 </trkpt>
 <trkpt lat="44.861253" lon="4.19747">
 <time>2011-05-19T13:49:00.9Z</time>
 </trkpt>
 <trkpt lat="44.859866" lon="4.197324">
 <time>2011-05-19T13:49:06.9Z</time>
 </trkpt>
 <trkpt lat="44.859351" lon="4.19774">
 <time>2011-05-19T13:49:12.3Z</time>
 </trkpt>
 <trkpt lat="44.858906" lon="4.198891">
 <time>2011-05-19T13:49:16.3Z</time>
 </trkpt>
 <trkpt lat="44.858322" lon="4.199406">
 <time>2011-05-19T13:49:21.3Z</time>
 </trkpt>
 <trkpt lat="44.857372" lon="4.199135">
 <time>2011-05-19T13:49:26.3Z</time>
 </trkpt>
 <trkpt lat="44.856401" lon="4.198866">
 <time>2011-05-19T13:49:32.3Z</time>
 </trkpt>
 <trkpt lat="44.855686" lon="4.199524">
 <time>2011-05-19T13:49:37.3Z</time>
 </trkpt>
 <trkpt lat="44.855037" lon="4.200838">
 <time>2011-05-19T13:49:42.9Z</time>
 </trkpt>
 <trkpt lat="44.854851" lon="4.202476">
 <time>2011-05-19T13:49:47.9Z</time>
 </trkpt>
 <trkpt lat="44.854583" lon="4.204408">
 <time>2011-05-19T13:49:53.3Z</time>
 </trkpt>
 <trkpt lat="44.854128" lon="4.205412">
 <time>2011-05-19T13:49:58.9Z</time>
 </trkpt>
 <trkpt lat="44.853463" lon="4.20559">
 <time>2011-05-19T13:50:02.9Z</time>
 </trkpt>
 <trkpt lat="44.852251" lon="4.205249">
 <time>2011-05-19T13:50:07.9Z</time>
 </trkpt>
 <trkpt lat="44.851649" lon="4.204986">
 <time>2011-05-19T13:50:11.9Z</time>
 </trkpt>
 <trkpt lat="44.850832" lon="4.20432">
 <time>2011-05-19T13:50:16.9Z</time>
 </trkpt>
 <trkpt lat="44.850029" lon="4.203742">
 <time>2011-05-19T13:50:21.9Z</time>
 </trkpt>
 <trkpt lat="44.848981" lon="4.203781">
 <time>2011-05-19T13:50:26.9Z</time>
 </trkpt>
 <trkpt lat="44.848215" lon="4.20401">
 <time>2011-05-19T13:50:30.9Z</time>
 </trkpt>
 <trkpt lat="44.847683" lon="4.204568">
 <time>2011-05-19T13:50:35.3Z</time>
 </trkpt>
 <trkpt lat="44.847807" lon="4.205512">
 <time>2011-05-19T13:50:39.9Z</time>
 </trkpt>
 <trkpt lat="44.84831" lon="4.206358">
 <time>2011-05-19T13:50:43.9Z</time>
 </trkpt>
 <trkpt lat="44.848227" lon="4.207031">
 <time>2011-05-19T13:50:48.9Z</time>
 </trkpt>
 <trkpt lat="44.847852" lon="4.207749">
 <time>2011-05-19T13:50:52.9Z</time>
 </trkpt>
 <trkpt lat="44.84743" lon="4.208687">
 <time>2011-05-19T13:50:57.9Z</time>
 </trkpt>
 <trkpt lat="44.847109" lon="4.210322">
 <time>2011-05-19T13:51:03.9Z</time>
 </trkpt>
 <trkpt lat="44.846673" lon="4.211047">
 <time>2011-05-19T13:51:08.9Z</time>
 </trkpt>
 <trkpt lat="44.845762" lon="4.211775">
 <time>2011-05-19T13:51:13.9Z</time>
 </trkpt>
 <trkpt lat="44.844663" lon="4.212325">
 <time>2011-05-19T13:51:18.9Z</time>
 </trkpt>
 <trkpt lat="44.844325" lon="4.212775">
 <time>2011-05-19T13:51:23.2Z</time>
 </trkpt>
 <trkpt lat="44.843781" lon="4.214781">
 <time>2011-05-19T13:51:32.2Z</time>
 </trkpt>
 <trkpt lat="44.843401" lon="4.215793">
 <time>2011-05-19T13:51:39.2Z</time>
 </trkpt>
 <trkpt lat="44.843279" lon="4.216048">
 <time>2011-05-19T13:51:44.2Z</time>
 </trkpt>
 <trkpt lat="44.843281" lon="4.216282">
 <time>2011-05-19T13:51:49.2Z</time>
 </trkpt>
 <trkpt lat="44.843423" lon="4.216223">
 <time>2011-05-19T13:52:12.2Z</time>
 </trkpt>
 <trkpt lat="44.843468" lon="4.21634">
 <time>2011-05-19T14:02:12.9Z</time>
 </trkpt>
 <trkpt lat="44.843485" lon="4.216313">
 <time>2011-05-19T14:12:13.2Z</time>
 </trkpt>
 <trkpt lat="44.843388" lon="4.216139">
 <time>2011-05-19T14:18:56.2Z</time>
 </trkpt>
 <trkpt lat="44.84317" lon="4.216204">
 <time>2011-05-19T14:19:00.9Z</time>
 </trkpt>
 <trkpt lat="44.842857" lon="4.216468">
 <time>2011-05-19T14:19:05.9Z</time>
 </trkpt>
 <trkpt lat="44.842612" lon="4.216767">
 <time>2011-05-19T14:19:10.2Z</time>
 </trkpt>
 <trkpt lat="44.842235" lon="4.217445">
 <time>2011-05-19T14:19:15.9Z</time>
 </trkpt>
 <trkpt lat="44.841942" lon="4.218158">
 <time>2011-05-19T14:19:20.3Z</time>
 </trkpt>
 <trkpt lat="44.841779" lon="4.218678">
 <time>2011-05-19T14:19:25.3Z</time>
 </trkpt>
 <trkpt lat="44.841634" lon="4.219889">
 <time>2011-05-19T14:19:35.9Z</time>
 </trkpt>
 <trkpt lat="44.841213" lon="4.222027">
 <time>2011-05-19T14:19:50.9Z</time>
 </trkpt>
 <trkpt lat="44.841097" lon="4.222267">
 <time>2011-05-19T14:19:54.9Z</time>
 </trkpt>
 <trkpt lat="44.840919" lon="4.222064">
 <time>2011-05-19T14:19:59.9Z</time>
 </trkpt>
 <trkpt lat="44.84089" lon="4.22111">
 <time>2011-05-19T14:20:04.9Z</time>
 </trkpt>
 <trkpt lat="44.840869" lon="4.220288">
 <time>2011-05-19T14:20:09.3Z</time>
 </trkpt>
 <trkpt lat="44.840783" lon="4.219735">
 <time>2011-05-19T14:20:13.3Z</time>
 </trkpt>
 <trkpt lat="44.840581" lon="4.218937">
 <time>2011-05-19T14:20:20.3Z</time>
 </trkpt>
 <trkpt lat="44.840495" lon="4.218335">
 <time>2011-05-19T14:20:25.3Z</time>
 </trkpt>
 <trkpt lat="44.8406" lon="4.216174">
 <time>2011-05-19T14:20:33.9Z</time>
 </trkpt>
 <trkpt lat="44.840669" lon="4.215234">
 <time>2011-05-19T14:20:38.9Z</time>
 </trkpt>
 <trkpt lat="44.840573" lon="4.214178">
 <time>2011-05-19T14:20:42.9Z</time>
 </trkpt>
 <trkpt lat="44.840404" lon="4.212474">
 <time>2011-05-19T14:20:47.9Z</time>
 </trkpt>
 <trkpt lat="44.840527" lon="4.211241">
 <time>2011-05-19T14:20:52.9Z</time>
 </trkpt>
 <trkpt lat="44.840396" lon="4.210515">
 <time>2011-05-19T14:20:57.3Z</time>
 </trkpt>
 <trkpt lat="44.839542" lon="4.209564">
 <time>2011-05-19T14:21:01.9Z</time>
 </trkpt>
 <trkpt lat="44.838926" lon="4.20929">
 <time>2011-05-19T14:21:06.3Z</time>
 </trkpt>
 <trkpt lat="44.83794" lon="4.208983">
 <time>2011-05-19T14:21:10.9Z</time>
 </trkpt>
 <trkpt lat="44.837219" lon="4.208483">
 <time>2011-05-19T14:21:15.9Z</time>
 </trkpt>
 <trkpt lat="44.836885" lon="4.207884">
 <time>2011-05-19T14:21:19.9Z</time>
 </trkpt>
 <trkpt lat="44.836897" lon="4.20679">
 <time>2011-05-19T14:21:24Z</time>
 </trkpt>
 <trkpt lat="44.836888" lon="4.20562">
 <time>2011-05-19T14:21:28.3Z</time>
 </trkpt>
 <trkpt lat="44.836571" lon="4.20436">
 <time>2011-05-19T14:21:33.3Z</time>
 </trkpt>
 <trkpt lat="44.836106" lon="4.203157">
 <time>2011-05-19T14:21:38.3Z</time>
 </trkpt>
 <trkpt lat="44.836273" lon="4.201692">
 <time>2011-05-19T14:21:43.9Z</time>
 </trkpt>
 <trkpt lat="44.836364" lon="4.200745">
 <time>2011-05-19T14:21:47.9Z</time>
 </trkpt>
 <trkpt lat="44.836122" lon="4.199952">
 <time>2011-05-19T14:21:52.9Z</time>
 </trkpt>
 <trkpt lat="44.835358" lon="4.199688">
 <time>2011-05-19T14:21:56.9Z</time>
 </trkpt>
 <trkpt lat="44.832661" lon="4.199208">
 <time>2011-05-19T14:22:07.3Z</time>
 </trkpt>
 <trkpt lat="44.831971" lon="4.199176">
 <time>2011-05-19T14:22:12.3Z</time>
 </trkpt>
 <trkpt lat="44.831615" lon="4.198552">
 <time>2011-05-19T14:22:17.3Z</time>
 </trkpt>
 <trkpt lat="44.831616" lon="4.197747">
 <time>2011-05-19T14:22:21.2Z</time>
 </trkpt>
 <trkpt lat="44.831145" lon="4.197106">
 <time>2011-05-19T14:22:26.2Z</time>
 </trkpt>
 <trkpt lat="44.829915" lon="4.196929">
 <time>2011-05-19T14:22:32.2Z</time>
 </trkpt>
 <trkpt lat="44.82933" lon="4.196263">
 <time>2011-05-19T14:22:36.9Z</time>
 </trkpt>
 <trkpt lat="44.828855" lon="4.195331">
 <time>2011-05-19T14:22:40.9Z</time>
 </trkpt>
 <trkpt lat="44.828522" lon="4.194386">
 <time>2011-05-19T14:22:44.9Z</time>
 </trkpt>
 <trkpt lat="44.828194" lon="4.194184">
 <time>2011-05-19T14:22:49.3Z</time>
 </trkpt>
 <trkpt lat="44.827444" lon="4.1942">
 <time>2011-05-19T14:22:53.2Z</time>
 </trkpt>
 <trkpt lat="44.826111" lon="4.194838">
 <time>2011-05-19T14:23:00.3Z</time>
 </trkpt>
 <trkpt lat="44.825375" lon="4.194842">
 <time>2011-05-19T14:23:04.9Z</time>
 </trkpt>
 <trkpt lat="44.824699" lon="4.194596">
 <time>2011-05-19T14:23:09.2Z</time>
 </trkpt>
 <trkpt lat="44.824081" lon="4.194334">
 <time>2011-05-19T14:23:13.2Z</time>
 </trkpt>
 <trkpt lat="44.823942" lon="4.194286">
 <time>2011-05-19T14:23:17.2Z</time>
 </trkpt>
 <trkpt lat="44.823657" lon="4.194067">
 <time>2011-05-19T14:23:23.2Z</time>
 </trkpt>
 <trkpt lat="44.823022" lon="4.193896">
 <time>2011-05-19T14:23:27.9Z</time>
 </trkpt>
 <trkpt lat="44.821069" lon="4.193555">
 <time>2011-05-19T14:23:37.2Z</time>
 </trkpt>
 <trkpt lat="44.818527" lon="4.193077">
 <time>2011-05-19T14:23:49.9Z</time>
 </trkpt>
 <trkpt lat="44.818389" lon="4.193134">
 <time>2011-05-19T14:23:54.9Z</time>
 </trkpt>
 <trkpt lat="44.81853" lon="4.19315">
 <time>2011-05-19T14:24:19.9Z</time>
 </trkpt>
 <trkpt lat="44.818533" lon="4.193372">
 <time>2011-05-19T14:24:24.9Z</time>
 </trkpt>
 <trkpt lat="44.818289" lon="4.193594">
 <time>2011-05-19T14:24:29.9Z</time>
 </trkpt>
 <trkpt lat="44.817837" lon="4.193701">
 <time>2011-05-19T14:24:34.2Z</time>
 </trkpt>
 <trkpt lat="44.816922" lon="4.193459">
 <time>2011-05-19T14:24:39.2Z</time>
 </trkpt>
 <trkpt lat="44.81613" lon="4.193245">
 <time>2011-05-19T14:24:44.2Z</time>
 </trkpt>
 <trkpt lat="44.815427" lon="4.193036">
 <time>2011-05-19T14:24:48.9Z</time>
 </trkpt>
 <trkpt lat="44.814886" lon="4.192754">
 <time>2011-05-19T14:24:53.9Z</time>
 </trkpt>
 <trkpt lat="44.81465" lon="4.19198">
 <time>2011-05-19T14:24:58.9Z</time>
 </trkpt>
 <trkpt lat="44.8145" lon="4.191265">
 <time>2011-05-19T14:25:02.9Z</time>
 </trkpt>
 <trkpt lat="44.814126" lon="4.190831">
 <time>2011-05-19T14:25:07.3Z</time>
 </trkpt>
 <trkpt lat="44.813172" lon="4.190417">
 <time>2011-05-19T14:25:11.9Z</time>
 </trkpt>
 <trkpt lat="44.812656" lon="4.190321">
 <time>2011-05-19T14:25:15.9Z</time>
 </trkpt>
 <trkpt lat="44.812225" lon="4.19022">
 <time>2011-05-19T14:25:20.9Z</time>
 </trkpt>
 <trkpt lat="44.81175" lon="4.18991">
 <time>2011-05-19T14:25:24.9Z</time>
 </trkpt>
 <trkpt lat="44.811073" lon="4.189817">
 <time>2011-05-19T14:25:29.9Z</time>
 </trkpt>
 <trkpt lat="44.810331" lon="4.189852">
 <time>2011-05-19T14:25:34.9Z</time>
 </trkpt>
 <trkpt lat="44.809998" lon="4.189847">
 <time>2011-05-19T14:25:39.9Z</time>
 </trkpt>
 <trkpt lat="44.809758" lon="4.189888">
 <time>2011-05-19T14:25:44.2Z</time>
 </trkpt>
 <trkpt lat="44.809415" lon="4.189701">
 <time>2011-05-19T14:25:48.9Z</time>
 </trkpt>
 <trkpt lat="44.808903" lon="4.189512">
 <time>2011-05-19T14:25:54Z</time>
 </trkpt>
 <trkpt lat="44.808664" lon="4.189318">
 <time>2011-05-19T14:25:58.9Z</time>
 </trkpt>
 <trkpt lat="44.808851" lon="4.188423">
 <time>2011-05-19T14:26:03.9Z</time>
 </trkpt>
 <trkpt lat="44.809045" lon="4.18779">
 <time>2011-05-19T14:26:07.9Z</time>
 </trkpt>
 <trkpt lat="44.808827" lon="4.187622">
 <time>2011-05-19T14:26:12.3Z</time>
 </trkpt>
 <trkpt lat="44.808247" lon="4.18829">
 <time>2011-05-19T14:26:16.9Z</time>
 </trkpt>
 <trkpt lat="44.807676" lon="4.188566">
 <time>2011-05-19T14:26:21.3Z</time>
 </trkpt>
 <trkpt lat="44.806737" lon="4.18827">
 <time>2011-05-19T14:26:26.9Z</time>
 </trkpt>
 <trkpt lat="44.803496" lon="4.186318">
 <time>2011-05-19T14:26:42.2Z</time>
 </trkpt>
 <trkpt lat="44.803119" lon="4.186051">
 <time>2011-05-19T14:26:46.2Z</time>
 </trkpt>
 <trkpt lat="44.802955" lon="4.185261">
 <time>2011-05-19T14:26:51.2Z</time>
 </trkpt>
 <trkpt lat="44.802526" lon="4.184496">
 <time>2011-05-19T14:26:55.2Z</time>
 </trkpt>
 <trkpt lat="44.801816" lon="4.184016">
 <time>2011-05-19T14:27:00.2Z</time>
 </trkpt>
 <trkpt lat="44.798743" lon="4.184432">
 <time>2011-05-19T14:27:14.2Z</time>
 </trkpt>
 <trkpt lat="44.797555" lon="4.184884">
 <time>2011-05-19T14:27:20.2Z</time>
 </trkpt>
 <trkpt lat="44.796842" lon="4.184905">
 <time>2011-05-19T14:27:24.9Z</time>
 </trkpt>
 <trkpt lat="44.795914" lon="4.184719">
 <time>2011-05-19T14:27:29.9Z</time>
 </trkpt>
 <trkpt lat="44.794186" lon="4.184763">
 <time>2011-05-19T14:27:36.9Z</time>
 </trkpt>
 <trkpt lat="44.793472" lon="4.184402">
 <time>2011-05-19T14:27:41.9Z</time>
 </trkpt>
 <trkpt lat="44.792037" lon="4.183348">
 <time>2011-05-19T14:27:48.9Z</time>
 </trkpt>
 <trkpt lat="44.791349" lon="4.183278">
 <time>2011-05-19T14:27:53.9Z</time>
 </trkpt>
 <trkpt lat="44.79052" lon="4.183979">
 <time>2011-05-19T14:27:57.9Z</time>
 </trkpt>
 <trkpt lat="44.789971" lon="4.184785">
 <time>2011-05-19T14:28:01.9Z</time>
 </trkpt>
 <trkpt lat="44.789474" lon="4.18551">
 <time>2011-05-19T14:28:06.9Z</time>
 </trkpt>
 <trkpt lat="44.788675" lon="4.185615">
 <time>2011-05-19T14:28:11.9Z</time>
 </trkpt>
 <trkpt lat="44.787718" lon="4.185059">
 <time>2011-05-19T14:28:16.9Z</time>
 </trkpt>
 <trkpt lat="44.786902" lon="4.184507">
 <time>2011-05-19T14:28:20.9Z</time>
 </trkpt>
 <trkpt lat="44.786434" lon="4.184561">
 <time>2011-05-19T14:28:24.9Z</time>
 </trkpt>
 <trkpt lat="44.785536" lon="4.185165">
 <time>2011-05-19T14:28:29.9Z</time>
 </trkpt>
 <trkpt lat="44.784499" lon="4.186004">
 <time>2011-05-19T14:28:34.9Z</time>
 </trkpt>
 <trkpt lat="44.783824" lon="4.186193">
 <time>2011-05-19T14:28:39.9Z</time>
 </trkpt>
 <trkpt lat="44.782709" lon="4.185885">
 <time>2011-05-19T14:28:44.9Z</time>
 </trkpt>
 <trkpt lat="44.781995" lon="4.185587">
 <time>2011-05-19T14:28:49.9Z</time>
 </trkpt>
 <trkpt lat="44.78128" lon="4.184568">
 <time>2011-05-19T14:28:54.9Z</time>
 </trkpt>
 <trkpt lat="44.778925" lon="4.180943">
 <time>2011-05-19T14:29:06.9Z</time>
 </trkpt>
 <trkpt lat="44.778622" lon="4.17985">
 <time>2011-05-19T14:29:11.9Z</time>
 </trkpt>
 <trkpt lat="44.778592" lon="4.17853">
 <time>2011-05-19T14:29:16.9Z</time>
 </trkpt>
 <trkpt lat="44.778889" lon="4.177463">
 <time>2011-05-19T14:29:21.9Z</time>
 </trkpt>
 <trkpt lat="44.779405" lon="4.1767">
 <time>2011-05-19T14:29:25.9Z</time>
 </trkpt>
 <trkpt lat="44.77941" lon="4.176143">
 <time>2011-05-19T14:29:29.9Z</time>
 </trkpt>
 <trkpt lat="44.778876" lon="4.175812">
 <time>2011-05-19T14:29:34.9Z</time>
 </trkpt>
 <trkpt lat="44.776767" lon="4.175623">
 <time>2011-05-19T14:29:45.9Z</time>
 </trkpt>
 <trkpt lat="44.776403" lon="4.175234">
 <time>2011-05-19T14:29:50.9Z</time>
 </trkpt>
 <trkpt lat="44.776243" lon="4.174354">
 <time>2011-05-19T14:29:54.9Z</time>
 </trkpt>
 <trkpt lat="44.776165" lon="4.173512">
 <time>2011-05-19T14:29:59.9Z</time>
 </trkpt>
 <trkpt lat="44.775865" lon="4.172584">
 <time>2011-05-19T14:30:04.9Z</time>
 </trkpt>
 <trkpt lat="44.775353" lon="4.172318">
 <time>2011-05-19T14:30:08.9Z</time>
 </trkpt>
 <trkpt lat="44.774825" lon="4.172242">
 <time>2011-05-19T14:30:12.9Z</time>
 </trkpt>
 <trkpt lat="44.773962" lon="4.171931">
 <time>2011-05-19T14:30:17.9Z</time>
 </trkpt>
 <trkpt lat="44.773114" lon="4.171752">
 <time>2011-05-19T14:30:22.9Z</time>
 </trkpt>
 <trkpt lat="44.772799" lon="4.171066">
 <time>2011-05-19T14:30:26.9Z</time>
 </trkpt>
 <trkpt lat="44.772871" lon="4.170224">
 <time>2011-05-19T14:30:30.9Z</time>
 </trkpt>
 <trkpt lat="44.772671" lon="4.169506">
 <time>2011-05-19T14:30:35.9Z</time>
 </trkpt>
 <trkpt lat="44.772336" lon="4.168763">
 <time>2011-05-19T14:30:39.9Z</time>
 </trkpt>
 <trkpt lat="44.771926" lon="4.168066">
 <time>2011-05-19T14:30:44Z</time>
 </trkpt>
 <trkpt lat="44.771214" lon="4.167602">
 <time>2011-05-19T14:30:48.9Z</time>
 </trkpt>
 <trkpt lat="44.77059" lon="4.16774">
 <time>2011-05-19T14:30:53.9Z</time>
 </trkpt>
 <trkpt lat="44.770198" lon="4.167441">
 <time>2011-05-19T14:30:58.9Z</time>
 </trkpt>
 <trkpt lat="44.770042" lon="4.167294">
 <time>2011-05-19T14:31:03.9Z</time>
 </trkpt>
 <trkpt lat="44.770008" lon="4.167501">
 <time>2011-05-19T14:32:17.9Z</time>
 </trkpt>
 <trkpt lat="44.769982" lon="4.167801">
 <time>2011-05-19T14:32:21.9Z</time>
 </trkpt>
 <trkpt lat="44.769929" lon="4.168309">
 <time>2011-05-19T14:32:25.9Z</time>
 </trkpt>
 <trkpt lat="44.769631" lon="4.168711">
 <time>2011-05-19T14:32:30.9Z</time>
 </trkpt>
 <trkpt lat="44.769193" lon="4.168478">
 <time>2011-05-19T14:32:34.9Z</time>
 </trkpt>
 <trkpt lat="44.768794" lon="4.167699">
 <time>2011-05-19T14:32:39.9Z</time>
 </trkpt>
 <trkpt lat="44.768549" lon="4.166569">
 <time>2011-05-19T14:32:44.9Z</time>
 </trkpt>
 <trkpt lat="44.767999" lon="4.165549">
 <time>2011-05-19T14:32:49.9Z</time>
 </trkpt>
 <trkpt lat="44.766973" lon="4.164432">
 <time>2011-05-19T14:32:55.9Z</time>
 </trkpt>
 <trkpt lat="44.766415" lon="4.163497">
 <time>2011-05-19T14:33:00.9Z</time>
 </trkpt>
 <trkpt lat="44.765764" lon="4.162942">
 <time>2011-05-19T14:33:04.9Z</time>
 </trkpt>
 <trkpt lat="44.765" lon="4.162529">
 <time>2011-05-19T14:33:09.9Z</time>
 </trkpt>
 <trkpt lat="44.764176" lon="4.162266">
 <time>2011-05-19T14:33:14.9Z</time>
 </trkpt>
 <trkpt lat="44.763489" lon="4.16234">
 <time>2011-05-19T14:33:19.9Z</time>
 </trkpt>
 <trkpt lat="44.762492" lon="4.162515">
 <time>2011-05-19T14:33:26.3Z</time>
 </trkpt>
 <trkpt lat="44.762071" lon="4.162235">
 <time>2011-05-19T14:33:31.9Z</time>
 </trkpt>
 <trkpt lat="44.76165" lon="4.161625">
 <time>2011-05-19T14:33:36.3Z</time>
 </trkpt>
 <trkpt lat="44.761341" lon="4.160785">
 <time>2011-05-19T14:33:40.3Z</time>
 </trkpt>
 <trkpt lat="44.76076" lon="4.160413">
 <time>2011-05-19T14:33:45.9Z</time>
 </trkpt>
 <trkpt lat="44.760238" lon="4.159882">
 <time>2011-05-19T14:33:49.9Z</time>
 </trkpt>
 <trkpt lat="44.759498" lon="4.157426">
 <time>2011-05-19T14:34:00.9Z</time>
 </trkpt>
 <trkpt lat="44.75904" lon="4.156623">
 <time>2011-05-19T14:34:05.9Z</time>
 </trkpt>
 <trkpt lat="44.759006" lon="4.15622">
 <time>2011-05-19T14:34:10.3Z</time>
 </trkpt>
 <trkpt lat="44.76006" lon="4.15593">
 <time>2011-05-19T14:34:15.9Z</time>
 </trkpt>
 <trkpt lat="44.760848" lon="4.155365">
 <time>2011-05-19T14:34:19.9Z</time>
 </trkpt>
 <trkpt lat="44.761447" lon="4.154697">
 <time>2011-05-19T14:34:24.2Z</time>
 </trkpt>
 <trkpt lat="44.761986" lon="4.153805">
 <time>2011-05-19T14:34:28.9Z</time>
 </trkpt>
 <trkpt lat="44.761981" lon="4.153026">
 <time>2011-05-19T14:34:33.3Z</time>
 </trkpt>
 <trkpt lat="44.761581" lon="4.151857">
 <time>2011-05-19T14:34:38.3Z</time>
 </trkpt>
 <trkpt lat="44.760754" lon="4.150719">
 <time>2011-05-19T14:34:44Z</time>
 </trkpt>
 <trkpt lat="44.760735" lon="4.150065">
 <time>2011-05-19T14:34:48.9Z</time>
 </trkpt>
 <trkpt lat="44.760907" lon="4.149304">
 <time>2011-05-19T14:34:53.2Z</time>
 </trkpt>
 <trkpt lat="44.760687" lon="4.148513">
 <time>2011-05-19T14:34:57.2Z</time>
 </trkpt>
 <trkpt lat="44.760034" lon="4.14782">
 <time>2011-05-19T14:35:02.3Z</time>
 </trkpt>
 <trkpt lat="44.75908" lon="4.147296">
 <time>2011-05-19T14:35:07.2Z</time>
 </trkpt>
 <trkpt lat="44.758705" lon="4.14669">
 <time>2011-05-19T14:35:11.9Z</time>
 </trkpt>
 <trkpt lat="44.758032" lon="4.145512">
 <time>2011-05-19T14:35:18.3Z</time>
 </trkpt>
 <trkpt lat="44.758205" lon="4.144678">
 <time>2011-05-19T14:35:24.3Z</time>
 </trkpt>
 <trkpt lat="44.759156" lon="4.143684">
 <time>2011-05-19T14:35:29.9Z</time>
 </trkpt>
 <trkpt lat="44.759235" lon="4.143261">
 <time>2011-05-19T14:35:33.3Z</time>
 </trkpt>
 <trkpt lat="44.759289" lon="4.141838">
 <time>2011-05-19T14:35:39.2Z</time>
 </trkpt>
 <trkpt lat="44.759074" lon="4.141">
 <time>2011-05-19T14:35:43.2Z</time>
 </trkpt>
 <trkpt lat="44.758664" lon="4.140234">
 <time>2011-05-19T14:35:47.2Z</time>
 </trkpt>
 <trkpt lat="44.758239" lon="4.139836">
 <time>2011-05-19T14:35:51.2Z</time>
 </trkpt>
 <trkpt lat="44.757667" lon="4.139769">
 <time>2011-05-19T14:35:56.3Z</time>
 </trkpt>
 <trkpt lat="44.757343" lon="4.13929">
 <time>2011-05-19T14:36:00.3Z</time>
 </trkpt>
 <trkpt lat="44.757337" lon="4.13823">
 <time>2011-05-19T14:36:05.3Z</time>
 </trkpt>
 <trkpt lat="44.757211" lon="4.137018">
 <time>2011-05-19T14:36:10.3Z</time>
 </trkpt>
 <trkpt lat="44.756662" lon="4.136131">
 <time>2011-05-19T14:36:14.9Z</time>
 </trkpt>
 <trkpt lat="44.755952" lon="4.135928">
 <time>2011-05-19T14:36:20.2Z</time>
 </trkpt>
 <trkpt lat="44.755156" lon="4.136727">
 <time>2011-05-19T14:36:24.9Z</time>
 </trkpt>
 <trkpt lat="44.754763" lon="4.136913">
 <time>2011-05-19T14:36:29.2Z</time>
 </trkpt>
 <trkpt lat="44.754496" lon="4.136039">
 <time>2011-05-19T14:36:33.9Z</time>
 </trkpt>
 <trkpt lat="44.753837" lon="4.135497">
 <time>2011-05-19T14:36:38.9Z</time>
 </trkpt>
 <trkpt lat="44.753123" lon="4.135066">
 <time>2011-05-19T14:36:42.9Z</time>
 </trkpt>
 <trkpt lat="44.752291" lon="4.135341">
 <time>2011-05-19T14:36:47.9Z</time>
 </trkpt>
 <trkpt lat="44.751522" lon="4.136133">
 <time>2011-05-19T14:36:51.9Z</time>
 </trkpt>
 <trkpt lat="44.751122" lon="4.136632">
 <time>2011-05-19T14:36:55.9Z</time>
 </trkpt>
 <trkpt lat="44.750452" lon="4.137008">
 <time>2011-05-19T14:37:00.3Z</time>
 </trkpt>
 <trkpt lat="44.749719" lon="4.137348">
 <time>2011-05-19T14:37:04.3Z</time>
 </trkpt>
 <trkpt lat="44.748954" lon="4.137892">
 <time>2011-05-19T14:37:08.3Z</time>
 </trkpt>
 <trkpt lat="44.748241" lon="4.1377">
 <time>2011-05-19T14:37:13.3Z</time>
 </trkpt>
 <trkpt lat="44.747187" lon="4.137361">
 <time>2011-05-19T14:37:17.3Z</time>
 </trkpt>
 <trkpt lat="44.746628" lon="4.137351">
 <time>2011-05-19T14:37:21.3Z</time>
 </trkpt>
 <trkpt lat="44.745862" lon="4.137885">
 <time>2011-05-19T14:37:25.9Z</time>
 </trkpt>
 <trkpt lat="44.745244" lon="4.1384">
 <time>2011-05-19T14:37:30.3Z</time>
 </trkpt>
 <trkpt lat="44.7442" lon="4.138697">
 <time>2011-05-19T14:37:35.3Z</time>
 </trkpt>
 <trkpt lat="44.743112" lon="4.13897">
 <time>2011-05-19T14:37:40.3Z</time>
 </trkpt>
 <trkpt lat="44.742111" lon="4.139709">
 <time>2011-05-19T14:37:44.9Z</time>
 </trkpt>
 <trkpt lat="44.741519" lon="4.140275">
 <time>2011-05-19T14:37:48.2Z</time>
 </trkpt>
 <trkpt lat="44.740851" lon="4.141561">
 <time>2011-05-19T14:37:54.3Z</time>
 </trkpt>
 <trkpt lat="44.740905" lon="4.142385">
 <time>2011-05-19T14:37:59.3Z</time>
 </trkpt>
 <trkpt lat="44.740812" lon="4.142954">
 <time>2011-05-19T14:38:03.3Z</time>
 </trkpt>
 <trkpt lat="44.74001" lon="4.143812">
 <time>2011-05-19T14:38:08.9Z</time>
 </trkpt>
 <trkpt lat="44.739278" lon="4.144323">
 <time>2011-05-19T14:38:13.3Z</time>
 </trkpt>
 <trkpt lat="44.738665" lon="4.145345">
 <time>2011-05-19T14:38:18.2Z</time>
 </trkpt>
 <trkpt lat="44.737654" lon="4.148565">
 <time>2011-05-19T14:38:28.3Z</time>
 </trkpt>
 <trkpt lat="44.73753" lon="4.149254">
 <time>2011-05-19T14:38:32.3Z</time>
 </trkpt>
 <trkpt lat="44.737695" lon="4.150308">
 <time>2011-05-19T14:38:37.2Z</time>
 </trkpt>
 <trkpt lat="44.737975" lon="4.151241">
 <time>2011-05-19T14:38:42.3Z</time>
 </trkpt>
 <trkpt lat="44.737546" lon="4.151701">
 <time>2011-05-19T14:38:46.3Z</time>
 </trkpt>
 <trkpt lat="44.736885" lon="4.152628">
 <time>2011-05-19T14:38:51.3Z</time>
 </trkpt>
 <trkpt lat="44.73608" lon="4.154316">
 <time>2011-05-19T14:38:56.3Z</time>
 </trkpt>
 <trkpt lat="44.735776" lon="4.155347">
 <time>2011-05-19T14:39:00.9Z</time>
 </trkpt>
 <trkpt lat="44.735861" lon="4.156348">
 <time>2011-05-19T14:39:04.9Z</time>
 </trkpt>
 <trkpt lat="44.736141" lon="4.157752">
 <time>2011-05-19T14:39:09.9Z</time>
 </trkpt>
 <trkpt lat="44.736699" lon="4.159018">
 <time>2011-05-19T14:39:13.9Z</time>
 </trkpt>
 <trkpt lat="44.737129" lon="4.159424">
 <time>2011-05-19T14:39:18Z</time>
 </trkpt>
 <trkpt lat="44.737558" lon="4.159782">
 <time>2011-05-19T14:39:21.9Z</time>
 </trkpt>
 <trkpt lat="44.737932" lon="4.16039">
 <time>2011-05-19T14:39:28.9Z</time>
 </trkpt>
 <trkpt lat="44.73805" lon="4.160782">
 <time>2011-05-19T14:39:33.9Z</time>
 </trkpt>
 <trkpt lat="44.738334" lon="4.161209">
 <time>2011-05-19T14:39:38.9Z</time>
 </trkpt>
 <trkpt lat="44.738701" lon="4.161367">
 <time>2011-05-19T14:39:42.9Z</time>
 </trkpt>
 <trkpt lat="44.739235" lon="4.161348">
 <time>2011-05-19T14:39:46.9Z</time>
 </trkpt>
 <trkpt lat="44.740096" lon="4.161265">
 <time>2011-05-19T14:39:52.2Z</time>
 </trkpt>
 <trkpt lat="44.740488" lon="4.161442">
 <time>2011-05-19T14:39:56.9Z</time>
 </trkpt>
 <trkpt lat="44.740317" lon="4.161856">
 <time>2011-05-19T14:40:01.2Z</time>
 </trkpt>
 <trkpt lat="44.739618" lon="4.162569">
 <time>2011-05-19T14:40:05.9Z</time>
 </trkpt>
 <trkpt lat="44.739037" lon="4.163713">
 <time>2011-05-19T14:40:10.9Z</time>
 </trkpt>
 <trkpt lat="44.738426" lon="4.164448">
 <time>2011-05-19T14:40:15.2Z</time>
 </trkpt>
 <trkpt lat="44.738304" lon="4.165094">
 <time>2011-05-19T14:40:20.3Z</time>
 </trkpt>
 <trkpt lat="44.738625" lon="4.166334">
 <time>2011-05-19T14:40:24.9Z</time>
 </trkpt>
 <trkpt lat="44.739086" lon="4.167335">
 <time>2011-05-19T14:40:28.9Z</time>
 </trkpt>
 <trkpt lat="44.739476" lon="4.168357">
 <time>2011-05-19T14:40:33.9Z</time>
 </trkpt>
 <trkpt lat="44.739463" lon="4.168764">
 <time>2011-05-19T14:40:38.9Z</time>
 </trkpt>
 <trkpt lat="44.738978" lon="4.168448">
 <time>2011-05-19T14:40:42.9Z</time>
 </trkpt>
 <trkpt lat="44.738233" lon="4.167937">
 <time>2011-05-19T14:40:47.9Z</time>
 </trkpt>
 <trkpt lat="44.737464" lon="4.167575">
 <time>2011-05-19T14:40:52.9Z</time>
 </trkpt>
 <trkpt lat="44.736967" lon="4.166927">
 <time>2011-05-19T14:40:57.3Z</time>
 </trkpt>
 <trkpt lat="44.736546" lon="4.166001">
 <time>2011-05-19T14:41:01.3Z</time>
 </trkpt>
 <trkpt lat="44.736168" lon="4.16594">
 <time>2011-05-19T14:41:05.9Z</time>
 </trkpt>
 <trkpt lat="44.73572" lon="4.166119">
 <time>2011-05-19T14:41:10.9Z</time>
 </trkpt>
 <trkpt lat="44.735457" lon="4.165484">
 <time>2011-05-19T14:41:15.3Z</time>
 </trkpt>
 <trkpt lat="44.734974" lon="4.164761">
 <time>2011-05-19T14:41:19.9Z</time>
 </trkpt>
 <trkpt lat="44.734319" lon="4.164186">
 <time>2011-05-19T14:41:24.3Z</time>
 </trkpt>
 <trkpt lat="44.733374" lon="4.16415">
 <time>2011-05-19T14:41:28.9Z</time>
 </trkpt>
 <trkpt lat="44.732828" lon="4.164829">
 <time>2011-05-19T14:41:33.3Z</time>
 </trkpt>
 <trkpt lat="44.732445" lon="4.166083">
 <time>2011-05-19T14:41:38.3Z</time>
 </trkpt>
 <trkpt lat="44.732263" lon="4.165806">
 <time>2011-05-19T14:41:43.3Z</time>
 </trkpt>
 <trkpt lat="44.732247" lon="4.16438">
 <time>2011-05-19T14:41:47.9Z</time>
 </trkpt>
 <trkpt lat="44.732372" lon="4.163423">
 <time>2011-05-19T14:41:51.2Z</time>
 </trkpt>
 <trkpt lat="44.732302" lon="4.161685">
 <time>2011-05-19T14:41:56.3Z</time>
 </trkpt>
 <trkpt lat="44.732059" lon="4.160141">
 <time>2011-05-19T14:42:01.3Z</time>
 </trkpt>
 <trkpt lat="44.731602" lon="4.159311">
 <time>2011-05-19T14:42:05.3Z</time>
 </trkpt>
 <trkpt lat="44.730639" lon="4.159185">
 <time>2011-05-19T14:42:09.9Z</time>
 </trkpt>
 <trkpt lat="44.729877" lon="4.159465">
 <time>2011-05-19T14:42:14.3Z</time>
 </trkpt>
 <trkpt lat="44.729504" lon="4.159247">
 <time>2011-05-19T14:42:18.9Z</time>
 </trkpt>
 <trkpt lat="44.729529" lon="4.158348">
 <time>2011-05-19T14:42:23.3Z</time>
 </trkpt>
 <trkpt lat="44.729321" lon="4.156984">
 <time>2011-05-19T14:42:29.3Z</time>
 </trkpt>
 <trkpt lat="44.728741" lon="4.156396">
 <time>2011-05-19T14:42:33.3Z</time>
 </trkpt>
 <trkpt lat="44.728145" lon="4.156196">
 <time>2011-05-19T14:42:38.2Z</time>
 </trkpt>
 <trkpt lat="44.727354" lon="4.157334">
 <time>2011-05-19T14:42:43.3Z</time>
 </trkpt>
 <trkpt lat="44.726907" lon="4.158506">
 <time>2011-05-19T14:42:47.3Z</time>
 </trkpt>
 <trkpt lat="44.726672" lon="4.159705">
 <time>2011-05-19T14:42:51.9Z</time>
 </trkpt>
 <trkpt lat="44.72632" lon="4.159984">
 <time>2011-05-19T14:42:56.2Z</time>
 </trkpt>
 <trkpt lat="44.725401" lon="4.159728">
 <time>2011-05-19T14:43:01.3Z</time>
 </trkpt>
 <trkpt lat="44.724772" lon="4.159989">
 <time>2011-05-19T14:43:06.3Z</time>
 </trkpt>
 <trkpt lat="44.724589" lon="4.159667">
 <time>2011-05-19T14:43:10.3Z</time>
 </trkpt>
 <trkpt lat="44.724364" lon="4.15805">
 <time>2011-05-19T14:43:14.3Z</time>
 </trkpt>
 <trkpt lat="44.723966" lon="4.157305">
 <time>2011-05-19T14:43:19.3Z</time>
 </trkpt>
 <trkpt lat="44.723006" lon="4.157214">
 <time>2011-05-19T14:43:24.9Z</time>
 </trkpt>
 <trkpt lat="44.72245" lon="4.157299">
 <time>2011-05-19T14:43:29.2Z</time>
 </trkpt>
 <trkpt lat="44.72189" lon="4.156927">
 <time>2011-05-19T14:43:34.2Z</time>
 </trkpt>
 <trkpt lat="44.721656" lon="4.156498">
 <time>2011-05-19T14:43:38.2Z</time>
 </trkpt>
 <trkpt lat="44.721363" lon="4.155715">
 <time>2011-05-19T14:43:43.3Z</time>
 </trkpt>
 <trkpt lat="44.721235" lon="4.154693">
 <time>2011-05-19T14:43:47.3Z</time>
 </trkpt>
 <trkpt lat="44.721078" lon="4.153547">
 <time>2011-05-19T14:43:51.3Z</time>
 </trkpt>
 <trkpt lat="44.720531" lon="4.152371">
 <time>2011-05-19T14:43:56.3Z</time>
 </trkpt>
 <trkpt lat="44.720118" lon="4.15182">
 <time>2011-05-19T14:44:01.3Z</time>
 </trkpt>
 <trkpt lat="44.719716" lon="4.15218">
 <time>2011-05-19T14:44:05.9Z</time>
 </trkpt>
 <trkpt lat="44.719415" lon="4.153701">
 <time>2011-05-19T14:44:12.9Z</time>
 </trkpt>
 <trkpt lat="44.718951" lon="4.154113">
 <time>2011-05-19T14:44:17.9Z</time>
 </trkpt>
 <trkpt lat="44.718562" lon="4.15493">
 <time>2011-05-19T14:44:22.9Z</time>
 </trkpt>
 <trkpt lat="44.718247" lon="4.15575">
 <time>2011-05-19T14:44:27.9Z</time>
 </trkpt>
 <trkpt lat="44.717633" lon="4.15596">
 <time>2011-05-19T14:44:32.9Z</time>
 </trkpt>
 <trkpt lat="44.717511" lon="4.156456">
 <time>2011-05-19T14:44:37.9Z</time>
 </trkpt>
 <trkpt lat="44.718176" lon="4.157124">
 <time>2011-05-19T14:44:42.9Z</time>
 </trkpt>
 <trkpt lat="44.718791" lon="4.158103">
 <time>2011-05-19T14:44:47.9Z</time>
 </trkpt>
 <trkpt lat="44.719102" lon="4.15878">
 <time>2011-05-19T14:44:52.9Z</time>
 </trkpt>
 <trkpt lat="44.718919" lon="4.159652">
 <time>2011-05-19T14:44:58.3Z</time>
 </trkpt>
 <trkpt lat="44.717966" lon="4.160423">
 <time>2011-05-19T14:45:03.9Z</time>
 </trkpt>
 <trkpt lat="44.717222" lon="4.161311">
 <time>2011-05-19T14:45:08.9Z</time>
 </trkpt>
 <trkpt lat="44.717227" lon="4.161844">
 <time>2011-05-19T14:45:12.9Z</time>
 </trkpt>
 <trkpt lat="44.717744" lon="4.163094">
 <time>2011-05-19T14:45:17.9Z</time>
 </trkpt>
 <trkpt lat="44.717907" lon="4.164571">
 <time>2011-05-19T14:45:22.9Z</time>
 </trkpt>
 <trkpt lat="44.717579" lon="4.164867">
 <time>2011-05-19T14:45:27.9Z</time>
 </trkpt>
 <trkpt lat="44.71696" lon="4.164705">
 <time>2011-05-19T14:45:32.2Z</time>
 </trkpt>
 <trkpt lat="44.716108" lon="4.165028">
 <time>2011-05-19T14:45:37.3Z</time>
 </trkpt>
 <trkpt lat="44.714959" lon="4.166493">
 <time>2011-05-19T14:45:43.9Z</time>
 </trkpt>
 <trkpt lat="44.714017" lon="4.167">
 <time>2011-05-19T14:45:48.9Z</time>
 </trkpt>
 <trkpt lat="44.713342" lon="4.167265">
 <time>2011-05-19T14:45:52.9Z</time>
 </trkpt>
 <trkpt lat="44.713108" lon="4.167576">
 <time>2011-05-19T14:45:57.9Z</time>
 </trkpt>
 <trkpt lat="44.713466" lon="4.168345">
 <time>2011-05-19T14:46:03.3Z</time>
 </trkpt>
 <trkpt lat="44.713911" lon="4.169206">
 <time>2011-05-19T14:46:07.3Z</time>
 </trkpt>
 <trkpt lat="44.714437" lon="4.169943">
 <time>2011-05-19T14:46:11.9Z</time>
 </trkpt>
 <trkpt lat="44.715024" lon="4.170287">
 <time>2011-05-19T14:46:16.2Z</time>
 </trkpt>
 <trkpt lat="44.715775" lon="4.170659">
 <time>2011-05-19T14:46:21.9Z</time>
 </trkpt>
 <trkpt lat="44.715624" lon="4.17148">
 <time>2011-05-19T14:46:26Z</time>
 </trkpt>
 <trkpt lat="44.714657" lon="4.172453">
 <time>2011-05-19T14:46:30.9Z</time>
 </trkpt>
 <trkpt lat="44.714" lon="4.172851">
 <time>2011-05-19T14:46:35.9Z</time>
 </trkpt>
 <trkpt lat="44.71342" lon="4.173442">
 <time>2011-05-19T14:46:40.9Z</time>
 </trkpt>
 <trkpt lat="44.712694" lon="4.173904">
 <time>2011-05-19T14:46:44.9Z</time>
 </trkpt>
 <trkpt lat="44.712073" lon="4.174576">
 <time>2011-05-19T14:46:48.9Z</time>
 </trkpt>
 <trkpt lat="44.712092" lon="4.175665">
 <time>2011-05-19T14:46:53.9Z</time>
 </trkpt>
 <trkpt lat="44.712573" lon="4.176952">
 <time>2011-05-19T14:46:58.9Z</time>
 </trkpt>
 <trkpt lat="44.712277" lon="4.178248">
 <time>2011-05-19T14:47:02.9Z</time>
 </trkpt>
 <trkpt lat="44.711972" lon="4.179297">
 <time>2011-05-19T14:47:07.9Z</time>
 </trkpt>
 <trkpt lat="44.711564" lon="4.180559">
 <time>2011-05-19T14:47:12.9Z</time>
 </trkpt>
 <trkpt lat="44.710805" lon="4.1815">
 <time>2011-05-19T14:47:17.9Z</time>
 </trkpt>
 <trkpt lat="44.710251" lon="4.181997">
 <time>2011-05-19T14:47:22.9Z</time>
 </trkpt>
 <trkpt lat="44.710571" lon="4.182514">
 <time>2011-05-19T14:47:26.9Z</time>
 </trkpt>
 <trkpt lat="44.711328" lon="4.183357">
 <time>2011-05-19T14:47:31.9Z</time>
 </trkpt>
 <trkpt lat="44.71177" lon="4.184747">
 <time>2011-05-19T14:47:36.9Z</time>
 </trkpt>
 <trkpt lat="44.711767" lon="4.185667">
 <time>2011-05-19T14:47:41.9Z</time>
 </trkpt>
 <trkpt lat="44.71191" lon="4.186133">
 <time>2011-05-19T14:47:45.9Z</time>
 </trkpt>
 <trkpt lat="44.711593" lon="4.186703">
 <time>2011-05-19T14:47:50.9Z</time>
 </trkpt>
 <trkpt lat="44.711435" lon="4.187414">
 <time>2011-05-19T14:47:54.9Z</time>
 </trkpt>
 <trkpt lat="44.711094" lon="4.187661">
 <time>2011-05-19T14:47:59.9Z</time>
 </trkpt>
 <trkpt lat="44.710558" lon="4.18785">
 <time>2011-05-19T14:48:04.9Z</time>
 </trkpt>
 <trkpt lat="44.710371" lon="4.188224">
 <time>2011-05-19T14:48:08.9Z</time>
 </trkpt>
 <trkpt lat="44.710028" lon="4.18902">
 <time>2011-05-19T14:48:12.9Z</time>
 </trkpt>
 <trkpt lat="44.71004" lon="4.189689">
 <time>2011-05-19T14:48:17.9Z</time>
 </trkpt>
 <trkpt lat="44.709939" lon="4.190761">
 <time>2011-05-19T14:48:22.9Z</time>
 </trkpt>
 <trkpt lat="44.709381" lon="4.191769">
 <time>2011-05-19T14:48:27.9Z</time>
 </trkpt>
 <trkpt lat="44.709155" lon="4.192761">
 <time>2011-05-19T14:48:32.9Z</time>
 </trkpt>
 <trkpt lat="44.708442" lon="4.193864">
 <time>2011-05-19T14:48:38.2Z</time>
 </trkpt>
 <trkpt lat="44.707919" lon="4.195079">
 <time>2011-05-19T14:48:42.9Z</time>
 </trkpt>
 <trkpt lat="44.707474" lon="4.19624">
 <time>2011-05-19T14:48:46.9Z</time>
 </trkpt>
 <trkpt lat="44.707302" lon="4.197545">
 <time>2011-05-19T14:48:50.9Z</time>
 </trkpt>
 <trkpt lat="44.707795" lon="4.198275">
 <time>2011-05-19T14:48:55.9Z</time>
 </trkpt>
 <trkpt lat="44.708251" lon="4.199012">
 <time>2011-05-19T14:49:00.9Z</time>
 </trkpt>
 <trkpt lat="44.708715" lon="4.20099">
 <time>2011-05-19T14:49:07.9Z</time>
 </trkpt>
 <trkpt lat="44.709274" lon="4.202251">
 <time>2011-05-19T14:49:13.9Z</time>
 </trkpt>
 <trkpt lat="44.709481" lon="4.2035">
 <time>2011-05-19T14:49:18.9Z</time>
 </trkpt>
 <trkpt lat="44.709746" lon="4.203958">
 <time>2011-05-19T14:49:22.9Z</time>
 </trkpt>
 <trkpt lat="44.710407" lon="4.203836">
 <time>2011-05-19T14:49:27.9Z</time>
 </trkpt>
 <trkpt lat="44.711014" lon="4.203333">
 <time>2011-05-19T14:49:33.2Z</time>
 </trkpt>
 <trkpt lat="44.711206" lon="4.203021">
 <time>2011-05-19T14:49:38.2Z</time>
 </trkpt>
 <trkpt lat="44.71139" lon="4.202734">
 <time>2011-05-19T14:49:42.2Z</time>
 </trkpt>
 <trkpt lat="44.711982" lon="4.203244">
 <time>2011-05-19T14:49:46.9Z</time>
 </trkpt>
 <trkpt lat="44.712345" lon="4.203769">
 <time>2011-05-19T14:49:50.9Z</time>
 </trkpt>
 <trkpt lat="44.712829" lon="4.203639">
 <time>2011-05-19T14:49:55.9Z</time>
 </trkpt>
 <trkpt lat="44.713653" lon="4.202364">
 <time>2011-05-19T14:50:02.3Z</time>
 </trkpt>
 <trkpt lat="44.71407" lon="4.202404">
 <time>2011-05-19T14:50:06.3Z</time>
 </trkpt>
 <trkpt lat="44.714825" lon="4.202349">
 <time>2011-05-19T14:50:11.9Z</time>
 </trkpt>
 <trkpt lat="44.715546" lon="4.201783">
 <time>2011-05-19T14:50:16.9Z</time>
 </trkpt>
 <trkpt lat="44.716022" lon="4.201681">
 <time>2011-05-19T14:50:20.9Z</time>
 </trkpt>
 <trkpt lat="44.716308" lon="4.202219">
 <time>2011-05-19T14:50:24.9Z</time>
 </trkpt>
 <trkpt lat="44.71636" lon="4.202931">
 <time>2011-05-19T14:50:28.9Z</time>
 </trkpt>
 <trkpt lat="44.715865" lon="4.203291">
 <time>2011-05-19T14:50:33.9Z</time>
 </trkpt>
 <trkpt lat="44.71507" lon="4.203391">
 <time>2011-05-19T14:50:38.9Z</time>
 </trkpt>
 <trkpt lat="44.714486" lon="4.203993">
 <time>2011-05-19T14:50:43.9Z</time>
 </trkpt>
 <trkpt lat="44.714151" lon="4.204651">
 <time>2011-05-19T14:50:48.9Z</time>
 </trkpt>
 <trkpt lat="44.713359" lon="4.205578">
 <time>2011-05-19T14:50:57.9Z</time>
 </trkpt>
 <trkpt lat="44.713184" lon="4.205818">
 <time>2011-05-19T14:51:01.9Z</time>
 </trkpt>
 <trkpt lat="44.712976" lon="4.206176">
 <time>2011-05-19T14:51:06.3Z</time>
 </trkpt>
 <trkpt lat="44.712798" lon="4.206503">
 <time>2011-05-19T14:51:10.3Z</time>
 </trkpt>
 <trkpt lat="44.71243" lon="4.206772">
 <time>2011-05-19T14:51:15.2Z</time>
 </trkpt>
 <trkpt lat="44.712033" lon="4.207104">
 <time>2011-05-19T14:51:20.9Z</time>
 </trkpt>
 <trkpt lat="44.711902" lon="4.207233">
 <time>2011-05-19T14:51:25.2Z</time>
 </trkpt>
 <trkpt lat="44.711611" lon="4.207323">
 <time>2011-05-19T14:51:30.2Z</time>
 </trkpt>
 <trkpt lat="44.710941" lon="4.207382">
 <time>2011-05-19T14:51:35.2Z</time>
 </trkpt>
 <trkpt lat="44.710715" lon="4.207606">
 <time>2011-05-19T14:51:39.2Z</time>
 </trkpt>
 <trkpt lat="44.710413" lon="4.208091">
 <time>2011-05-19T14:51:43.2Z</time>
 </trkpt>
 <trkpt lat="44.71022" lon="4.20852">
 <time>2011-05-19T14:51:48.3Z</time>
 </trkpt>
 <trkpt lat="44.70995" lon="4.209146">
 <time>2011-05-19T14:51:53.9Z</time>
 </trkpt>
 <trkpt lat="44.709598" lon="4.209551">
 <time>2011-05-19T14:51:57.9Z</time>
 </trkpt>
 <trkpt lat="44.709201" lon="4.209981">
 <time>2011-05-19T14:52:01.9Z</time>
 </trkpt>
 <trkpt lat="44.708851" lon="4.210638">
 <time>2011-05-19T14:52:06.9Z</time>
 </trkpt>
 <trkpt lat="44.708368" lon="4.211642">
 <time>2011-05-19T14:52:14.9Z</time>
 </trkpt>
 <trkpt lat="44.7081" lon="4.212074">
 <time>2011-05-19T14:52:19.9Z</time>
 </trkpt>
 <trkpt lat="44.707942" lon="4.212336">
 <time>2011-05-19T14:52:24.9Z</time>
 </trkpt>
 <trkpt lat="44.705592" lon="4.215948">
 <time>2011-05-19T14:52:55.9Z</time>
 </trkpt>
 <trkpt lat="44.705299" lon="4.216333">
 <time>2011-05-19T14:53:00.9Z</time>
 </trkpt>
 <trkpt lat="44.704897" lon="4.216405">
 <time>2011-05-19T14:53:04.9Z</time>
 </trkpt>
 <trkpt lat="44.70432" lon="4.21656">
 <time>2011-05-19T14:53:09.9Z</time>
 </trkpt>
 <trkpt lat="44.704021" lon="4.216808">
 <time>2011-05-19T14:53:13.9Z</time>
 </trkpt>
 <trkpt lat="44.703821" lon="4.217684">
 <time>2011-05-19T14:53:18.9Z</time>
 </trkpt>
 <trkpt lat="44.703681" lon="4.218473">
 <time>2011-05-19T14:53:22.9Z</time>
 </trkpt>
 <trkpt lat="44.703518" lon="4.219069">
 <time>2011-05-19T14:53:28.3Z</time>
 </trkpt>
 <trkpt lat="44.70335" lon="4.219849">
 <time>2011-05-19T14:53:32.9Z</time>
 </trkpt>
 <trkpt lat="44.703315" lon="4.220743">
 <time>2011-05-19T14:53:37.9Z</time>
 </trkpt>
 <trkpt lat="44.703152" lon="4.221394">
 <time>2011-05-19T14:53:42.9Z</time>
 </trkpt>
 <trkpt lat="44.702171" lon="4.223973">
 <time>2011-05-19T14:53:52.9Z</time>
 </trkpt>
 <trkpt lat="44.70136" lon="4.226316">
 <time>2011-05-19T14:54:03.9Z</time>
 </trkpt>
 <trkpt lat="44.701159" lon="4.227213">
 <time>2011-05-19T14:54:07.9Z</time>
 </trkpt>
 <trkpt lat="44.701142" lon="4.228143">
 <time>2011-05-19T14:54:12.9Z</time>
 </trkpt>
 <trkpt lat="44.701073" lon="4.229142">
 <time>2011-05-19T14:54:17.9Z</time>
 </trkpt>
 <trkpt lat="44.700666" lon="4.229923">
 <time>2011-05-19T14:54:21.9Z</time>
 </trkpt>
 <trkpt lat="44.700463" lon="4.230797">
 <time>2011-05-19T14:54:26.9Z</time>
 </trkpt>
 <trkpt lat="44.70027" lon="4.232134">
 <time>2011-05-19T14:54:31.9Z</time>
 </trkpt>
 <trkpt lat="44.700049" lon="4.233323">
 <time>2011-05-19T14:54:36.9Z</time>
 </trkpt>
 <trkpt lat="44.699938" lon="4.234755">
 <time>2011-05-19T14:54:42.3Z</time>
 </trkpt>
 <trkpt lat="44.699347" lon="4.236246">
 <time>2011-05-19T14:54:49.9Z</time>
 </trkpt>
 <trkpt lat="44.69919" lon="4.237064">
 <time>2011-05-19T14:54:54.9Z</time>
 </trkpt>
 <trkpt lat="44.698962" lon="4.238355">
 <time>2011-05-19T14:55:02.9Z</time>
 </trkpt>
 <trkpt lat="44.698812" lon="4.238939">
 <time>2011-05-19T14:55:07.9Z</time>
 </trkpt>
 <trkpt lat="44.698616" lon="4.239453">
 <time>2011-05-19T14:55:12.9Z</time>
 </trkpt>
 <trkpt lat="44.698461" lon="4.240213">
 <time>2011-05-19T14:55:17.9Z</time>
 </trkpt>
 <trkpt lat="44.698109" lon="4.241362">
 <time>2011-05-19T14:55:22.9Z</time>
 </trkpt>
 <trkpt lat="44.697634" lon="4.242058">
 <time>2011-05-19T14:55:26.9Z</time>
 </trkpt>
 <trkpt lat="44.697244" lon="4.243056">
 <time>2011-05-19T14:55:31.9Z</time>
 </trkpt>
 <trkpt lat="44.696705" lon="4.244971">
 <time>2011-05-19T14:55:39.9Z</time>
 </trkpt>
 <trkpt lat="44.696411" lon="4.245588">
 <time>2011-05-19T14:55:44.9Z</time>
 </trkpt>
 <trkpt lat="44.696035" lon="4.246218">
 <time>2011-05-19T14:55:48.9Z</time>
 </trkpt>
 <trkpt lat="44.695488" lon="4.247342">
 <time>2011-05-19T14:55:55.9Z</time>
 </trkpt>
 <trkpt lat="44.695105" lon="4.247936">
 <time>2011-05-19T14:56:00.9Z</time>
 </trkpt>
 <trkpt lat="44.694604" lon="4.249212">
 <time>2011-05-19T14:56:05.9Z</time>
 </trkpt>
 <trkpt lat="44.694407" lon="4.250122">
 <time>2011-05-19T14:56:10.9Z</time>
 </trkpt>
 <trkpt lat="44.69412" lon="4.251163">
 <time>2011-05-19T14:56:15.9Z</time>
 </trkpt>
 <trkpt lat="44.693583" lon="4.252114">
 <time>2011-05-19T14:56:20.9Z</time>
 </trkpt>
 <trkpt lat="44.693072" lon="4.253181">
 <time>2011-05-19T14:56:24.9Z</time>
 </trkpt>
 <trkpt lat="44.692634" lon="4.255802">
 <time>2011-05-19T14:56:37.9Z</time>
 </trkpt>
 <trkpt lat="44.692534" lon="4.255941">
 <time>2011-05-19T14:56:58.9Z</time>
 </trkpt>
 <trkpt lat="44.692557" lon="4.256141">
 <time>2011-05-19T14:57:21.9Z</time>
 </trkpt>
 <trkpt lat="44.692461" lon="4.2567">
 <time>2011-05-19T14:57:26.9Z</time>
 </trkpt>
 <trkpt lat="44.691031" lon="4.264005">
 <time>2011-05-19T14:58:00.9Z</time>
 </trkpt>
 <trkpt lat="44.691074" lon="4.2651">
 <time>2011-05-19T14:58:04.9Z</time>
 </trkpt>
 <trkpt lat="44.691202" lon="4.266132">
 <time>2011-05-19T14:58:08.9Z</time>
 </trkpt>
 <trkpt lat="44.691008" lon="4.267074">
 <time>2011-05-19T14:58:13.9Z</time>
 </trkpt>
 <trkpt lat="44.688752" lon="4.271182">
 <time>2011-05-19T14:58:28.9Z</time>
 </trkpt>
 <trkpt lat="44.688504" lon="4.271941">
 <time>2011-05-19T14:58:33.3Z</time>
 </trkpt>
 <trkpt lat="44.688162" lon="4.273446">
 <time>2011-05-19T14:58:39.3Z</time>
 </trkpt>
 <trkpt lat="44.687707" lon="4.274988">
 <time>2011-05-19T14:58:49.9Z</time>
 </trkpt>
 <trkpt lat="44.687373" lon="4.275709">
 <time>2011-05-19T14:58:55.9Z</time>
 </trkpt>
 <trkpt lat="44.687206" lon="4.276336">
 <time>2011-05-19T14:58:59.9Z</time>
 </trkpt>
 <trkpt lat="44.687087" lon="4.277512">
 <time>2011-05-19T14:59:04.9Z</time>
 </trkpt>
 <trkpt lat="44.687157" lon="4.278634">
 <time>2011-05-19T14:59:09.9Z</time>
 </trkpt>
 <trkpt lat="44.687626" lon="4.279824">
 <time>2011-05-19T14:59:14.9Z</time>
 </trkpt>
 <trkpt lat="44.687736" lon="4.280694">
 <time>2011-05-19T14:59:19.9Z</time>
 </trkpt>
 <trkpt lat="44.687711" lon="4.28175">
 <time>2011-05-19T14:59:24.9Z</time>
 </trkpt>
 <trkpt lat="44.687495" lon="4.282643">
 <time>2011-05-19T14:59:28.9Z</time>
 </trkpt>
 <trkpt lat="44.687101" lon="4.283149">
 <time>2011-05-19T14:59:33.9Z</time>
 </trkpt>
 <trkpt lat="44.68649" lon="4.283314">
 <time>2011-05-19T14:59:38.9Z</time>
 </trkpt>
 <trkpt lat="44.68547" lon="4.283065">
 <time>2011-05-19T14:59:44.9Z</time>
 </trkpt>
 <trkpt lat="44.684892" lon="4.28276">
 <time>2011-05-19T14:59:49.9Z</time>
 </trkpt>
 <trkpt lat="44.684178" lon="4.282318">
 <time>2011-05-19T14:59:54.9Z</time>
 </trkpt>
 <trkpt lat="44.682894" lon="4.281832">
 <time>2011-05-19T15:00:01.9Z</time>
 </trkpt>
 <trkpt lat="44.682338" lon="4.281818">
 <time>2011-05-19T15:00:06.9Z</time>
 </trkpt>
 <trkpt lat="44.682009" lon="4.282585">
 <time>2011-05-19T15:00:11.9Z</time>
 </trkpt>
 <trkpt lat="44.681737" lon="4.283362">
 <time>2011-05-19T15:00:15.9Z</time>
 </trkpt>
 <trkpt lat="44.681214" lon="4.283435">
 <time>2011-05-19T15:00:20.3Z</time>
 </trkpt>
 <trkpt lat="44.677414" lon="4.28392">
 <time>2011-05-19T15:00:36.9Z</time>
 </trkpt>
 <trkpt lat="44.676832" lon="4.284304">
 <time>2011-05-19T15:00:42.3Z</time>
 </trkpt>
 <trkpt lat="44.676624" lon="4.285478">
 <time>2011-05-19T15:00:46.9Z</time>
 </trkpt>
 <trkpt lat="44.676162" lon="4.28637">
 <time>2011-05-19T15:00:51.9Z</time>
 </trkpt>
 <trkpt lat="44.675347" lon="4.286209">
 <time>2011-05-19T15:00:56.9Z</time>
 </trkpt>
 <trkpt lat="44.674281" lon="4.284978">
 <time>2011-05-19T15:01:02.9Z</time>
 </trkpt>
 <trkpt lat="44.673668" lon="4.284511">
 <time>2011-05-19T15:01:07.9Z</time>
 </trkpt>
 <trkpt lat="44.67312" lon="4.28438">
 <time>2011-05-19T15:01:12.3Z</time>
 </trkpt>
 <trkpt lat="44.672297" lon="4.284407">
 <time>2011-05-19T15:01:17.9Z</time>
 </trkpt>
 <trkpt lat="44.67178" lon="4.28463">
 <time>2011-05-19T15:01:22.2Z</time>
 </trkpt>
 <trkpt lat="44.671219" lon="4.285269">
 <time>2011-05-19T15:01:27.2Z</time>
 </trkpt>
 <trkpt lat="44.670872" lon="4.286201">
 <time>2011-05-19T15:01:32.2Z</time>
 </trkpt>
 <trkpt lat="44.670946" lon="4.287033">
 <time>2011-05-19T15:01:36.2Z</time>
 </trkpt>
 <trkpt lat="44.671106" lon="4.287423">
 <time>2011-05-19T15:01:40.2Z</time>
 </trkpt>
 <trkpt lat="44.670969" lon="4.288087">
 <time>2011-05-19T15:01:45.2Z</time>
 </trkpt>
 <trkpt lat="44.670383" lon="4.288321">
 <time>2011-05-19T15:01:49.9Z</time>
 </trkpt>
 <trkpt lat="44.669882" lon="4.288361">
 <time>2011-05-19T15:01:54.3Z</time>
 </trkpt>
 <trkpt lat="44.669389" lon="4.288032">
 <time>2011-05-19T15:01:59.3Z</time>
 </trkpt>
 <trkpt lat="44.668845" lon="4.286344">
 <time>2011-05-19T15:02:11.3Z</time>
 </trkpt>
 <trkpt lat="44.668781" lon="4.286005">
 <time>2011-05-19T15:02:16.3Z</time>
 </trkpt>
 <trkpt lat="44.668784" lon="4.285756">
 <time>2011-05-19T15:02:23.3Z</time>
 </trkpt>
 <trkpt lat="44.668598" lon="4.285838">
 <time>2011-05-19T15:06:19.9Z</time>
 </trkpt>
 <trkpt lat="44.668018" lon="4.286154">
 <time>2011-05-19T15:06:26.9Z</time>
 </trkpt>
 <trkpt lat="44.667876" lon="4.286296">
 <time>2011-05-19T15:06:30.2Z</time>
 </trkpt>
 <trkpt lat="44.667821" lon="4.286784">
 <time>2011-05-19T15:06:34.9Z</time>
 </trkpt>
 <trkpt lat="44.668109" lon="4.287341">
 <time>2011-05-19T15:06:39.9Z</time>
 </trkpt>
 <trkpt lat="44.6683" lon="4.28804">
 <time>2011-05-19T15:06:44.9Z</time>
 </trkpt>
 <trkpt lat="44.668408" lon="4.288821">
 <time>2011-05-19T15:06:49.9Z</time>
 </trkpt>
 <trkpt lat="44.668365" lon="4.289237">
 <time>2011-05-19T15:06:53.2Z</time>
 </trkpt>
 <trkpt lat="44.667907" lon="4.289605">
 <time>2011-05-19T15:06:58.3Z</time>
 </trkpt>
 <trkpt lat="44.667366" lon="4.289639">
 <time>2011-05-19T15:07:03.3Z</time>
 </trkpt>
 <trkpt lat="44.666529" lon="4.289497">
 <time>2011-05-19T15:07:11.3Z</time>
 </trkpt>
 <trkpt lat="44.66635" lon="4.289398">
 <time>2011-05-19T15:07:15.3Z</time>
 </trkpt>
 <trkpt lat="44.666287" lon="4.289131">
 <time>2011-05-19T15:07:19.3Z</time>
 </trkpt>
 <trkpt lat="44.666251" lon="4.288828">
 <time>2011-05-19T15:07:23.9Z</time>
 </trkpt>
 <trkpt lat="44.666039" lon="4.288571">
 <time>2011-05-19T15:07:28.2Z</time>
 </trkpt>
 <trkpt lat="44.665546" lon="4.288297">
 <time>2011-05-19T15:07:33.2Z</time>
 </trkpt>
 <trkpt lat="44.665158" lon="4.288142">
 <time>2011-05-19T15:07:37.2Z</time>
 </trkpt>
 <trkpt lat="44.664843" lon="4.288103">
 <time>2011-05-19T15:07:41.9Z</time>
 </trkpt>
 <trkpt lat="44.664584" lon="4.288128">
 <time>2011-05-19T15:07:46.3Z</time>
 </trkpt>
 <trkpt lat="44.664754" lon="4.287917">
 <time>2011-05-19T15:07:50.3Z</time>
 </trkpt>
 <trkpt lat="44.665321" lon="4.287778">
 <time>2011-05-19T15:07:54.3Z</time>
 </trkpt>
 <trkpt lat="44.665761" lon="4.288008">
 <time>2011-05-19T15:07:58.3Z</time>
 </trkpt>
 <trkpt lat="44.666338" lon="4.287762">
 <time>2011-05-19T15:08:03.3Z</time>
 </trkpt>
 <trkpt lat="44.666849" lon="4.287293">
 <time>2011-05-19T15:08:07.3Z</time>
 </trkpt>
 <trkpt lat="44.667229" lon="4.286418">
 <time>2011-05-19T15:08:12.3Z</time>
 </trkpt>
 <trkpt lat="44.667312" lon="4.285368">
 <time>2011-05-19T15:08:17.3Z</time>
 </trkpt>
 <trkpt lat="44.666966" lon="4.284506">
 <time>2011-05-19T15:08:22.3Z</time>
 </trkpt>
 <trkpt lat="44.666729" lon="4.283514">
 <time>2011-05-19T15:08:27.3Z</time>
 </trkpt>
 <trkpt lat="44.665956" lon="4.277455">
 <time>2011-05-19T15:08:48.3Z</time>
 </trkpt>
 <trkpt lat="44.665833" lon="4.275023">
 <time>2011-05-19T15:08:58.3Z</time>
 </trkpt>
 <trkpt lat="44.665663" lon="4.274223">
 <time>2011-05-19T15:09:03.3Z</time>
 </trkpt>
 <trkpt lat="44.665099" lon="4.273418">
 <time>2011-05-19T15:09:08.3Z</time>
 </trkpt>
 <trkpt lat="44.662984" lon="4.270694">
 <time>2011-05-19T15:09:20.2Z</time>
 </trkpt>
 <trkpt lat="44.662233" lon="4.270061">
 <time>2011-05-19T15:09:25.2Z</time>
 </trkpt>
 <trkpt lat="44.661196" lon="4.269697">
 <time>2011-05-19T15:09:30.2Z</time>
 </trkpt>
 <trkpt lat="44.660136" lon="4.269539">
 <time>2011-05-19T15:09:35.2Z</time>
 </trkpt>
 <trkpt lat="44.658927" lon="4.269661">
 <time>2011-05-19T15:09:40.3Z</time>
 </trkpt>
 <trkpt lat="44.658272" lon="4.270042">
 <time>2011-05-19T15:09:45.3Z</time>
 </trkpt>
 <trkpt lat="44.657667" lon="4.27064">
 <time>2011-05-19T15:09:49.3Z</time>
 </trkpt>
 <trkpt lat="44.656768" lon="4.271049">
 <time>2011-05-19T15:09:54.3Z</time>
 </trkpt>
 <trkpt lat="44.656071" lon="4.270919">
 <time>2011-05-19T15:09:58.3Z</time>
 </trkpt>
 <trkpt lat="44.654264" lon="4.269917">
 <time>2011-05-19T15:10:07.3Z</time>
 </trkpt>
 <trkpt lat="44.653516" lon="4.269283">
 <time>2011-05-19T15:10:12.3Z</time>
 </trkpt>
 <trkpt lat="44.652645" lon="4.268335">
 <time>2011-05-19T15:10:17.3Z</time>
 </trkpt>
 <trkpt lat="44.651433" lon="4.266753">
 <time>2011-05-19T15:10:24.3Z</time>
 </trkpt>
 <trkpt lat="44.650774" lon="4.266294">
 <time>2011-05-19T15:10:29.3Z</time>
 </trkpt>
 <trkpt lat="44.648958" lon="4.265745">
 <time>2011-05-19T15:10:38.3Z</time>
 </trkpt>
 <trkpt lat="44.648357" lon="4.265407">
 <time>2011-05-19T15:10:43.3Z</time>
 </trkpt>
 <trkpt lat="44.647605" lon="4.264777">
 <time>2011-05-19T15:10:48.3Z</time>
 </trkpt>
 <trkpt lat="44.646832" lon="4.263869">
 <time>2011-05-19T15:10:52.3Z</time>
 </trkpt>
 <trkpt lat="44.645771" lon="4.262208">
 <time>2011-05-19T15:10:59.9Z</time>
 </trkpt>
 <trkpt lat="44.645158" lon="4.261595">
 <time>2011-05-19T15:11:04.3Z</time>
 </trkpt>
 <trkpt lat="44.644136" lon="4.260804">
 <time>2011-05-19T15:11:10.3Z</time>
 </trkpt>
 <trkpt lat="44.643548" lon="4.260126">
 <time>2011-05-19T15:11:15.3Z</time>
 </trkpt>
 <trkpt lat="44.642759" lon="4.259328">
 <time>2011-05-19T15:11:20.3Z</time>
 </trkpt>
 <trkpt lat="44.640026" lon="4.257259">
 <time>2011-05-19T15:11:36.2Z</time>
 </trkpt>
 <trkpt lat="44.638609" lon="4.256565">
 <time>2011-05-19T15:11:47.2Z</time>
 </trkpt>
 <trkpt lat="44.638103" lon="4.25614">
 <time>2011-05-19T15:11:52.2Z</time>
 </trkpt>
 <trkpt lat="44.637769" lon="4.255657">
 <time>2011-05-19T15:11:57.3Z</time>
 </trkpt>
 <trkpt lat="44.63752" lon="4.255295">
 <time>2011-05-19T15:12:02.3Z</time>
 </trkpt>
 <trkpt lat="44.637147" lon="4.254926">
 <time>2011-05-19T15:12:07.3Z</time>
 </trkpt>
 <trkpt lat="44.636991" lon="4.254735">
 <time>2011-05-19T15:12:11.2Z</time>
 </trkpt>
 <trkpt lat="44.636758" lon="4.25463">
 <time>2011-05-19T15:12:16.2Z</time>
 </trkpt>
 <trkpt lat="44.636377" lon="4.254672">
 <time>2011-05-19T15:12:21.2Z</time>
 </trkpt>
 <trkpt lat="44.635994" lon="4.254722">
 <time>2011-05-19T15:12:26.2Z</time>
 </trkpt>
 <trkpt lat="44.635676" lon="4.254881">
 <time>2011-05-19T15:12:31.2Z</time>
 </trkpt>
 <trkpt lat="44.635517" lon="4.255465">
 <time>2011-05-19T15:12:37.2Z</time>
 </trkpt>
 <trkpt lat="44.635306" lon="4.255671">
 <time>2011-05-19T15:12:42.2Z</time>
 </trkpt>
 <trkpt lat="44.635029" lon="4.25577">
 <time>2011-05-19T15:12:46.2Z</time>
 </trkpt>
 <trkpt lat="44.634728" lon="4.255676">
 <time>2011-05-19T15:12:50.2Z</time>
 </trkpt>
 <trkpt lat="44.634258" lon="4.254975">
 <time>2011-05-19T15:12:55.3Z</time>
 </trkpt>
 <trkpt lat="44.631359" lon="4.251438">
 <time>2011-05-19T15:13:22.2Z</time>
 </trkpt>
 <trkpt lat="44.631022" lon="4.250901">
 <time>2011-05-19T15:13:26.9Z</time>
 </trkpt>
 <trkpt lat="44.630747" lon="4.250304">
 <time>2011-05-19T15:13:31.2Z</time>
 </trkpt>
 <trkpt lat="44.630432" lon="4.249362">
 <time>2011-05-19T15:13:35.2Z</time>
 </trkpt>
 <trkpt lat="44.62995" lon="4.247357">
 <time>2011-05-19T15:13:45.2Z</time>
 </trkpt>
 <trkpt lat="44.629766" lon="4.246502">
 <time>2011-05-19T15:13:49.2Z</time>
 </trkpt>
 <trkpt lat="44.62938" lon="4.245462">
 <time>2011-05-19T15:13:54.2Z</time>
 </trkpt>
 <trkpt lat="44.629214" lon="4.24452">
 <time>2011-05-19T15:13:59.2Z</time>
 </trkpt>
 <trkpt lat="44.629137" lon="4.241305">
 <time>2011-05-19T15:14:10.2Z</time>
 </trkpt>
 <trkpt lat="44.629277" lon="4.240728">
 <time>2011-05-19T15:14:14.2Z</time>
 </trkpt>
 <trkpt lat="44.629706" lon="4.24051">
 <time>2011-05-19T15:14:18.9Z</time>
 </trkpt>
 <trkpt lat="44.630063" lon="4.240358">
 <time>2011-05-19T15:14:23.2Z</time>
 </trkpt>
 <trkpt lat="44.630222" lon="4.240027">
 <time>2011-05-19T15:14:27.2Z</time>
 </trkpt>
 <trkpt lat="44.630012" lon="4.239197">
 <time>2011-05-19T15:14:32.2Z</time>
 </trkpt>
 <trkpt lat="44.629683" lon="4.23811">
 <time>2011-05-19T15:14:37.2Z</time>
 </trkpt>
 <trkpt lat="44.628965" lon="4.236538">
 <time>2011-05-19T15:14:44.2Z</time>
 </trkpt>
 <trkpt lat="44.628624" lon="4.235325">
 <time>2011-05-19T15:14:49.9Z</time>
 </trkpt>
 <trkpt lat="44.628282" lon="4.234714">
 <time>2011-05-19T15:14:54.2Z</time>
 </trkpt>
 <trkpt lat="44.62735" lon="4.233656">
 <time>2011-05-19T15:14:59.2Z</time>
 </trkpt>
 <trkpt lat="44.62662" lon="4.232951">
 <time>2011-05-19T15:15:04.2Z</time>
 </trkpt>
 <trkpt lat="44.626103" lon="4.232614">
 <time>2011-05-19T15:15:09.2Z</time>
 </trkpt>
 <trkpt lat="44.625784" lon="4.232529">
 <time>2011-05-19T15:15:13.2Z</time>
 </trkpt>
 <trkpt lat="44.625628" lon="4.232477">
 <time>2011-05-19T15:15:34.9Z</time>
 </trkpt>
 <trkpt lat="44.625095" lon="4.23225">
 <time>2011-05-19T15:15:40.9Z</time>
 </trkpt>
 <trkpt lat="44.62482" lon="4.23219">
 <time>2011-05-19T15:15:45Z</time>
 </trkpt>
 <trkpt lat="44.623916" lon="4.232235">
 <time>2011-05-19T15:15:53.3Z</time>
 </trkpt>
 <trkpt lat="44.623585" lon="4.232007">
 <time>2011-05-19T15:15:58.3Z</time>
 </trkpt>
 <trkpt lat="44.623085" lon="4.231825">
 <time>2011-05-19T15:16:02.9Z</time>
 </trkpt>
 <trkpt lat="44.622335" lon="4.231656">
 <time>2011-05-19T15:16:07.9Z</time>
 </trkpt>
 <trkpt lat="44.62179" lon="4.231747">
 <time>2011-05-19T15:16:12.9Z</time>
 </trkpt>
 <trkpt lat="44.621094" lon="4.232109">
 <time>2011-05-19T15:16:17.9Z</time>
 </trkpt>
 <trkpt lat="44.620327" lon="4.231889">
 <time>2011-05-19T15:16:23.3Z</time>
 </trkpt>
 <trkpt lat="44.619407" lon="4.231039">
 <time>2011-05-19T15:16:28.9Z</time>
 </trkpt>
 <trkpt lat="44.619015" lon="4.230301">
 <time>2011-05-19T15:16:32.9Z</time>
 </trkpt>
 <trkpt lat="44.618729" lon="4.229453">
 <time>2011-05-19T15:16:37.9Z</time>
 </trkpt>
 <trkpt lat="44.619076" lon="4.228891">
 <time>2011-05-19T15:16:41.9Z</time>
 </trkpt>
 <trkpt lat="44.619514" lon="4.228015">
 <time>2011-05-19T15:16:45.9Z</time>
 </trkpt>
 <trkpt lat="44.619776" lon="4.226883">
 <time>2011-05-19T15:16:50.9Z</time>
 </trkpt>
 <trkpt lat="44.619914" lon="4.225826">
 <time>2011-05-19T15:16:55.9Z</time>
 </trkpt>
 <trkpt lat="44.619857" lon="4.225165">
 <time>2011-05-19T15:17:00.9Z</time>
 </trkpt>
 <trkpt lat="44.61961" lon="4.224634">
 <time>2011-05-19T15:17:06.2Z</time>
 </trkpt>
 <trkpt lat="44.620089" lon="4.223863">
 <time>2011-05-19T15:17:10.9Z</time>
 </trkpt>
 <trkpt lat="44.62055" lon="4.223062">
 <time>2011-05-19T15:17:15.3Z</time>
 </trkpt>
 <trkpt lat="44.620759" lon="4.221959">
 <time>2011-05-19T15:17:20.3Z</time>
 </trkpt>
 <trkpt lat="44.621158" lon="4.220747">
 <time>2011-05-19T15:17:24.9Z</time>
 </trkpt>
 <trkpt lat="44.621518" lon="4.21973">
 <time>2011-05-19T15:17:28.9Z</time>
 </trkpt>
 <trkpt lat="44.621827" lon="4.218091">
 <time>2011-05-19T15:17:33.9Z</time>
 </trkpt>
 <trkpt lat="44.621971" lon="4.217529">
 <time>2011-05-19T15:17:37.9Z</time>
 </trkpt>
 <trkpt lat="44.622451" lon="4.216761">
 <time>2011-05-19T15:17:42.9Z</time>
 </trkpt>
 <trkpt lat="44.622664" lon="4.215989">
 <time>2011-05-19T15:17:47Z</time>
 </trkpt>
 <trkpt lat="44.622701" lon="4.21479">
 <time>2011-05-19T15:17:51.9Z</time>
 </trkpt>
 <trkpt lat="44.622958" lon="4.213731">
 <time>2011-05-19T15:17:56.9Z</time>
 </trkpt>
 <trkpt lat="44.624465" lon="4.210558">
 <time>2011-05-19T15:18:13.9Z</time>
 </trkpt>
 <trkpt lat="44.624675" lon="4.20997">
 <time>2011-05-19T15:18:18.9Z</time>
 </trkpt>
 <trkpt lat="44.624994" lon="4.209566">
 <time>2011-05-19T15:18:23.2Z</time>
 </trkpt>
 <trkpt lat="44.625606" lon="4.208839">
 <time>2011-05-19T15:18:28.9Z</time>
 </trkpt>
 <trkpt lat="44.625982" lon="4.208138">
 <time>2011-05-19T15:18:32.9Z</time>
 </trkpt>
 <trkpt lat="44.626355" lon="4.207303">
 <time>2011-05-19T15:18:37.9Z</time>
 </trkpt>
 <trkpt lat="44.626642" lon="4.20612">
 <time>2011-05-19T15:18:42.9Z</time>
 </trkpt>
 <trkpt lat="44.62674" lon="4.205733">
 <time>2011-05-19T15:18:46.3Z</time>
 </trkpt>
 <trkpt lat="44.626883" lon="4.204835">
 <time>2011-05-19T15:18:51.9Z</time>
 </trkpt>
 <trkpt lat="44.627483" lon="4.204246">
 <time>2011-05-19T15:18:56.9Z</time>
 </trkpt>
 <trkpt lat="44.62805" lon="4.203452">
 <time>2011-05-19T15:19:01.9Z</time>
 </trkpt>
 <trkpt lat="44.628418" lon="4.202659">
 <time>2011-05-19T15:19:06.9Z</time>
 </trkpt>
 <trkpt lat="44.628592" lon="4.201907">
 <time>2011-05-19T15:19:11.9Z</time>
 </trkpt>
 <trkpt lat="44.628691" lon="4.201161">
 <time>2011-05-19T15:19:17.3Z</time>
 </trkpt>
 <trkpt lat="44.629094" lon="4.200595">
 <time>2011-05-19T15:19:22.9Z</time>
 </trkpt>
 <trkpt lat="44.629361" lon="4.199842">
 <time>2011-05-19T15:19:27.9Z</time>
 </trkpt>
 <trkpt lat="44.629488" lon="4.19907">
 <time>2011-05-19T15:19:32.9Z</time>
 </trkpt>
 <trkpt lat="44.62933" lon="4.198435">
 <time>2011-05-19T15:19:38.2Z</time>
 </trkpt>
 <trkpt lat="44.629219" lon="4.197791">
 <time>2011-05-19T15:19:42.9Z</time>
 </trkpt>
 <trkpt lat="44.629217" lon="4.197215">
 <time>2011-05-19T15:19:47.2Z</time>
 </trkpt>
 <trkpt lat="44.629655" lon="4.194469">
 <time>2011-05-19T15:20:01.3Z</time>
 </trkpt>
 <trkpt lat="44.629687" lon="4.193345">
 <time>2011-05-19T15:20:06.9Z</time>
 </trkpt>
 <trkpt lat="44.629843" lon="4.19318">
 <time>2011-05-19T15:20:10.9Z</time>
 </trkpt>
 <trkpt lat="44.630773" lon="4.192934">
 <time>2011-05-19T15:20:17.9Z</time>
 </trkpt>
 <trkpt lat="44.631311" lon="4.192822">
 <time>2011-05-19T15:20:22.9Z</time>
 </trkpt>
 <trkpt lat="44.631679" lon="4.193307">
 <time>2011-05-19T15:20:27.9Z</time>
 </trkpt>
 <trkpt lat="44.631842" lon="4.194198">
 <time>2011-05-19T15:20:32.9Z</time>
 </trkpt>
 <trkpt lat="44.632057" lon="4.194329">
 <time>2011-05-19T15:20:37.9Z</time>
 </trkpt>
 <trkpt lat="44.631738" lon="4.193398">
 <time>2011-05-19T15:20:42.9Z</time>
 </trkpt>
 <trkpt lat="44.631087" lon="4.189313">
 <time>2011-05-19T15:20:57.9Z</time>
 </trkpt>
 <trkpt lat="44.630392" lon="4.186593">
 <time>2011-05-19T15:21:07.9Z</time>
 </trkpt>
 <trkpt lat="44.6304" lon="4.185857">
 <time>2011-05-19T15:21:12.9Z</time>
 </trkpt>
 <trkpt lat="44.630903" lon="4.185227">
 <time>2011-05-19T15:21:18.9Z</time>
 </trkpt>
 <trkpt lat="44.630757" lon="4.184865">
 <time>2011-05-19T15:21:22.9Z</time>
 </trkpt>
 <trkpt lat="44.630551" lon="4.18375">
 <time>2011-05-19T15:21:28.3Z</time>
 </trkpt>
 <trkpt lat="44.630497" lon="4.182052">
 <time>2011-05-19T15:21:33.9Z</time>
 </trkpt>
 <trkpt lat="44.630717" lon="4.181697">
 <time>2011-05-19T15:21:37.9Z</time>
 </trkpt>
 <trkpt lat="44.631582" lon="4.181653">
 <time>2011-05-19T15:21:42.9Z</time>
 </trkpt>
 <trkpt lat="44.631538" lon="4.181037">
 <time>2011-05-19T15:21:47.9Z</time>
 </trkpt>
 <trkpt lat="44.630974" lon="4.18005">
 <time>2011-05-19T15:21:52.9Z</time>
 </trkpt>
 <trkpt lat="44.630627" lon="4.179237">
 <time>2011-05-19T15:21:57.9Z</time>
 </trkpt>
 <trkpt lat="44.631147" lon="4.178906">
 <time>2011-05-19T15:22:02.9Z</time>
 </trkpt>
 <trkpt lat="44.63157" lon="4.17859">
 <time>2011-05-19T15:22:07.2Z</time>
 </trkpt>
 <trkpt lat="44.631193" lon="4.177698">
 <time>2011-05-19T15:22:11.9Z</time>
 </trkpt>
 <trkpt lat="44.630553" lon="4.177069">
 <time>2011-05-19T15:22:16.9Z</time>
 </trkpt>
 <trkpt lat="44.630547" lon="4.175822">
 <time>2011-05-19T15:22:21.9Z</time>
 </trkpt>
 <trkpt lat="44.630588" lon="4.174185">
 <time>2011-05-19T15:22:26.9Z</time>
 </trkpt>
 <trkpt lat="44.631017" lon="4.173595">
 <time>2011-05-19T15:22:31.9Z</time>
 </trkpt>
 <trkpt lat="44.631741" lon="4.1734">
 <time>2011-05-19T15:22:35.9Z</time>
 </trkpt>
 <trkpt lat="44.632372" lon="4.17259">
 <time>2011-05-19T15:22:39.9Z</time>
 </trkpt>
 <trkpt lat="44.632839" lon="4.17151">
 <time>2011-05-19T15:22:44.9Z</time>
 </trkpt>
 <trkpt lat="44.632418" lon="4.170844">
 <time>2011-05-19T15:22:49.9Z</time>
 </trkpt>
 <trkpt lat="44.631881" lon="4.170879">
 <time>2011-05-19T15:22:53.9Z</time>
 </trkpt>
 <trkpt lat="44.631183" lon="4.171198">
 <time>2011-05-19T15:22:57.9Z</time>
 </trkpt>
 <trkpt lat="44.630637" lon="4.170996">
 <time>2011-05-19T15:23:02.9Z</time>
 </trkpt>
 <trkpt lat="44.630977" lon="4.170382">
 <time>2011-05-19T15:23:07.9Z</time>
 </trkpt>
 <trkpt lat="44.631751" lon="4.169282">
 <time>2011-05-19T15:23:11.9Z</time>
 </trkpt>
 <trkpt lat="44.63183" lon="4.168388">
 <time>2011-05-19T15:23:16.9Z</time>
 </trkpt>
 <trkpt lat="44.631527" lon="4.168004">
 <time>2011-05-19T15:23:20.9Z</time>
 </trkpt>
 <trkpt lat="44.631248" lon="4.167653">
 <time>2011-05-19T15:23:25.9Z</time>
 </trkpt>
 <trkpt lat="44.631388" lon="4.16682">
 <time>2011-05-19T15:23:30.2Z</time>
 </trkpt>
 <trkpt lat="44.631223" lon="4.165625">
 <time>2011-05-19T15:23:35.2Z</time>
 </trkpt>
 <trkpt lat="44.631509" lon="4.164803">
 <time>2011-05-19T15:23:40.2Z</time>
 </trkpt>
 <trkpt lat="44.632134" lon="4.164098">
 <time>2011-05-19T15:23:44.2Z</time>
 </trkpt>
 <trkpt lat="44.632614" lon="4.163751">
 <time>2011-05-19T15:23:49.2Z</time>
 </trkpt>
 <trkpt lat="44.632594" lon="4.162844">
 <time>2011-05-19T15:23:53.2Z</time>
 </trkpt>
 <trkpt lat="44.632735" lon="4.16192">
 <time>2011-05-19T15:23:58.2Z</time>
 </trkpt>
 <trkpt lat="44.633291" lon="4.160591">
 <time>2011-05-19T15:24:02.2Z</time>
 </trkpt>
 <trkpt lat="44.633569" lon="4.1598">
 <time>2011-05-19T15:24:07.2Z</time>
 </trkpt>
 <trkpt lat="44.633249" lon="4.159327">
 <time>2011-05-19T15:24:12.2Z</time>
 </trkpt>
 <trkpt lat="44.63272" lon="4.159073">
 <time>2011-05-19T15:24:17.2Z</time>
 </trkpt>
 <trkpt lat="44.632714" lon="4.158519">
 <time>2011-05-19T15:24:21.2Z</time>
 </trkpt>
 <trkpt lat="44.633098" lon="4.157691">
 <time>2011-05-19T15:24:26.2Z</time>
 </trkpt>
 <trkpt lat="44.632699" lon="4.156488">
 <time>2011-05-19T15:24:30.2Z</time>
 </trkpt>
 <trkpt lat="44.63269" lon="4.155736">
 <time>2011-05-19T15:24:35.2Z</time>
 </trkpt>
 <trkpt lat="44.632933" lon="4.154905">
 <time>2011-05-19T15:24:40.2Z</time>
 </trkpt>
 <trkpt lat="44.633016" lon="4.153558">
 <time>2011-05-19T15:24:45.2Z</time>
 </trkpt>
 <trkpt lat="44.633389" lon="4.1528">
 <time>2011-05-19T15:24:50.2Z</time>
 </trkpt>
 <trkpt lat="44.633883" lon="4.152414">
 <time>2011-05-19T15:24:54.2Z</time>
 </trkpt>
 <trkpt lat="44.633757" lon="4.151515">
 <time>2011-05-19T15:24:58.2Z</time>
 </trkpt>
 <trkpt lat="44.633742" lon="4.150799">
 <time>2011-05-19T15:25:03.2Z</time>
 </trkpt>
 <trkpt lat="44.633315" lon="4.150005">
 <time>2011-05-19T15:25:08.2Z</time>
 </trkpt>
 <trkpt lat="44.632333" lon="4.147888">
 <time>2011-05-19T15:25:18.2Z</time>
 </trkpt>
 <trkpt lat="44.632488" lon="4.147517">
 <time>2011-05-19T15:25:23.2Z</time>
 </trkpt>
 <trkpt lat="44.632917" lon="4.14683">
 <time>2011-05-19T15:25:27.2Z</time>
 </trkpt>
 <trkpt lat="44.632786" lon="4.146027">
 <time>2011-05-19T15:25:32Z</time>
 </trkpt>
 <trkpt lat="44.632621" lon="4.145404">
 <time>2011-05-19T15:25:36.2Z</time>
 </trkpt>
 <trkpt lat="44.632349" lon="4.14466">
 <time>2011-05-19T15:25:41.2Z</time>
 </trkpt>
 <trkpt lat="44.631931" lon="4.144392">
 <time>2011-05-19T15:25:46.2Z</time>
 </trkpt>
 <trkpt lat="44.632076" lon="4.143646">
 <time>2011-05-19T15:25:51.2Z</time>
 </trkpt>
 <trkpt lat="44.632272" lon="4.142633">
 <time>2011-05-19T15:25:56.2Z</time>
 </trkpt>
 <trkpt lat="44.633006" lon="4.141878">
 <time>2011-05-19T15:26:00.9Z</time>
 </trkpt>
 <trkpt lat="44.633447" lon="4.141208">
 <time>2011-05-19T15:26:04.9Z</time>
 </trkpt>
 <trkpt lat="44.633552" lon="4.140383">
 <time>2011-05-19T15:26:08.9Z</time>
 </trkpt>
 <trkpt lat="44.633505" lon="4.138694">
 <time>2011-05-19T15:26:15.3Z</time>
 </trkpt>
 <trkpt lat="44.633372" lon="4.137117">
 <time>2011-05-19T15:26:21.9Z</time>
 </trkpt>
 <trkpt lat="44.63358" lon="4.137026">
 <time>2011-05-19T15:26:27.2Z</time>
 </trkpt>
 <trkpt lat="44.63377" lon="4.13834">
 <time>2011-05-19T15:26:31.9Z</time>
 </trkpt>
 <trkpt lat="44.634024" lon="4.139729">
 <time>2011-05-19T15:26:36.9Z</time>
 </trkpt>
 <trkpt lat="44.634257" lon="4.140772">
 <time>2011-05-19T15:26:41.9Z</time>
 </trkpt>
 <trkpt lat="44.634439" lon="4.140825">
 <time>2011-05-19T15:26:46.2Z</time>
 </trkpt>
 <trkpt lat="44.634247" lon="4.139689">
 <time>2011-05-19T15:26:50.9Z</time>
 </trkpt>
 <trkpt lat="44.63409" lon="4.13848">
 <time>2011-05-19T15:26:55.9Z</time>
 </trkpt>
 <trkpt lat="44.634183" lon="4.13714">
 <time>2011-05-19T15:26:59.9Z</time>
 </trkpt>
 <trkpt lat="44.634331" lon="4.135589">
 <time>2011-05-19T15:27:04.3Z</time>
 </trkpt>
 <trkpt lat="44.634407" lon="4.134575">
 <time>2011-05-19T15:27:08.3Z</time>
 </trkpt>
 <trkpt lat="44.633866" lon="4.134438">
 <time>2011-05-19T15:27:13.3Z</time>
 </trkpt>
 <trkpt lat="44.63341" lon="4.134014">
 <time>2011-05-19T15:27:18.3Z</time>
 </trkpt>
 <trkpt lat="44.633233" lon="4.132371">
 <time>2011-05-19T15:27:23.9Z</time>
 </trkpt>
 <trkpt lat="44.633129" lon="4.13159">
 <time>2011-05-19T15:27:28.3Z</time>
 </trkpt>
 <trkpt lat="44.632633" lon="4.131866">
 <time>2011-05-19T15:27:32.9Z</time>
 </trkpt>
 <trkpt lat="44.631938" lon="4.133486">
 <time>2011-05-19T15:27:37.9Z</time>
 </trkpt>
 <trkpt lat="44.631186" lon="4.134555">
 <time>2011-05-19T15:27:41.9Z</time>
 </trkpt>
 <trkpt lat="44.630257" lon="4.135526">
 <time>2011-05-19T15:27:46.9Z</time>
 </trkpt>
 <trkpt lat="44.629852" lon="4.135618">
 <time>2011-05-19T15:27:51.9Z</time>
 </trkpt>
 <trkpt lat="44.629985" lon="4.134865">
 <time>2011-05-19T15:27:56.9Z</time>
 </trkpt>
 <trkpt lat="44.63014" lon="4.134398">
 <time>2011-05-19T15:28:02.9Z</time>
 </trkpt>
 <trkpt lat="44.630134" lon="4.134101">
 <time>2011-05-19T15:28:07.9Z</time>
 </trkpt>
 <trkpt lat="44.630133" lon="4.13355">
 <time>2011-05-19T15:28:11.9Z</time>
 </trkpt>
 <trkpt lat="44.630276" lon="4.132713">
 <time>2011-05-19T15:28:16.3Z</time>
 </trkpt>
 <trkpt lat="44.6302" lon="4.131437">
 <time>2011-05-19T15:28:21.9Z</time>
 </trkpt>
 <trkpt lat="44.629666" lon="4.130679">
 <time>2011-05-19T15:28:26.9Z</time>
 </trkpt>
 <trkpt lat="44.629279" lon="4.129987">
 <time>2011-05-19T15:28:31.9Z</time>
 </trkpt>
 <trkpt lat="44.629576" lon="4.12892">
 <time>2011-05-19T15:28:37.3Z</time>
 </trkpt>
 <trkpt lat="44.629652" lon="4.127887">
 <time>2011-05-19T15:28:41.9Z</time>
 </trkpt>
 <trkpt lat="44.629774" lon="4.127101">
 <time>2011-05-19T15:28:45.9Z</time>
 </trkpt>
 <trkpt lat="44.630143" lon="4.126071">
 <time>2011-05-19T15:28:50.9Z</time>
 </trkpt>
 <trkpt lat="44.630803" lon="4.125814">
 <time>2011-05-19T15:28:55.9Z</time>
 </trkpt>
 <trkpt lat="44.631575" lon="4.125649">
 <time>2011-05-19T15:29:00.9Z</time>
 </trkpt>
 <trkpt lat="44.632249" lon="4.125726">
 <time>2011-05-19T15:29:05.9Z</time>
 </trkpt>
 <trkpt lat="44.632957" lon="4.125215">
 <time>2011-05-19T15:29:10.9Z</time>
 </trkpt>
 <trkpt lat="44.633573" lon="4.124418">
 <time>2011-05-19T15:29:15.9Z</time>
 </trkpt>
 <trkpt lat="44.634208" lon="4.123741">
 <time>2011-05-19T15:29:20.3Z</time>
 </trkpt>
 <trkpt lat="44.634748" lon="4.122902">
 <time>2011-05-19T15:29:25.3Z</time>
 </trkpt>
 <trkpt lat="44.634264" lon="4.122229">
 <time>2011-05-19T15:29:29.3Z</time>
 </trkpt>
 <trkpt lat="44.633769" lon="4.121772">
 <time>2011-05-19T15:29:34.3Z</time>
 </trkpt>
 <trkpt lat="44.633496" lon="4.12084">
 <time>2011-05-19T15:29:39.3Z</time>
 </trkpt>
 <trkpt lat="44.633502" lon="4.12005">
 <time>2011-05-19T15:29:43.3Z</time>
 </trkpt>
 <trkpt lat="44.633905" lon="4.119093">
 <time>2011-05-19T15:29:48.3Z</time>
 </trkpt>
 <trkpt lat="44.633678" lon="4.118639">
 <time>2011-05-19T15:29:53.3Z</time>
 </trkpt>
 <trkpt lat="44.633706" lon="4.117804">
 <time>2011-05-19T15:29:58.3Z</time>
 </trkpt>
 <trkpt lat="44.634212" lon="4.116479">
 <time>2011-05-19T15:30:03.3Z</time>
 </trkpt>
 <trkpt lat="44.634459" lon="4.115254">
 <time>2011-05-19T15:30:08.3Z</time>
 </trkpt>
 <trkpt lat="44.634658" lon="4.113611">
 <time>2011-05-19T15:30:15.3Z</time>
 </trkpt>
 <trkpt lat="44.63446" lon="4.113071">
 <time>2011-05-19T15:30:20.2Z</time>
 </trkpt>
 <trkpt lat="44.634086" lon="4.112596">
 <time>2011-05-19T15:30:24.2Z</time>
 </trkpt>
 <trkpt lat="44.63396" lon="4.111665">
 <time>2011-05-19T15:30:29.2Z</time>
 </trkpt>
 <trkpt lat="44.633643" lon="4.111412">
 <time>2011-05-19T15:30:34.3Z</time>
 </trkpt>
 <trkpt lat="44.632943" lon="4.112265">
 <time>2011-05-19T15:30:39.2Z</time>
 </trkpt>
 <trkpt lat="44.631741" lon="4.113752">
 <time>2011-05-19T15:30:46.3Z</time>
 </trkpt>
 <trkpt lat="44.631443" lon="4.113586">
 <time>2011-05-19T15:30:51.3Z</time>
 </trkpt>
 <trkpt lat="44.631381" lon="4.112641">
 <time>2011-05-19T15:30:56.3Z</time>
 </trkpt>
 <trkpt lat="44.631367" lon="4.111312">
 <time>2011-05-19T15:31:01.3Z</time>
 </trkpt>
 <trkpt lat="44.631208" lon="4.11033">
 <time>2011-05-19T15:31:06.3Z</time>
 </trkpt>
 <trkpt lat="44.630896" lon="4.109478">
 <time>2011-05-19T15:31:11.3Z</time>
 </trkpt>
 <trkpt lat="44.630924" lon="4.108776">
 <time>2011-05-19T15:31:15.3Z</time>
 </trkpt>
 <trkpt lat="44.631399" lon="4.108795">
 <time>2011-05-19T15:31:20.3Z</time>
 </trkpt>
 <trkpt lat="44.632239" lon="4.109133">
 <time>2011-05-19T15:31:25.3Z</time>
 </trkpt>
 <trkpt lat="44.632848" lon="4.108816">
 <time>2011-05-19T15:31:29.3Z</time>
 </trkpt>
 <trkpt lat="44.633145" lon="4.108328">
 <time>2011-05-19T15:31:34.3Z</time>
 </trkpt>
 <trkpt lat="44.633652" lon="4.108723">
 <time>2011-05-19T15:31:39.3Z</time>
 </trkpt>
 <trkpt lat="44.634244" lon="4.109423">
 <time>2011-05-19T15:31:44.3Z</time>
 </trkpt>
 <trkpt lat="44.634914" lon="4.109381">
 <time>2011-05-19T15:31:49.3Z</time>
 </trkpt>
 <trkpt lat="44.635355" lon="4.109539">
 <time>2011-05-19T15:31:53.3Z</time>
 </trkpt>
 <trkpt lat="44.635521" lon="4.110443">
 <time>2011-05-19T15:31:57.3Z</time>
 </trkpt>
 <trkpt lat="44.635726" lon="4.111556">
 <time>2011-05-19T15:32:02.3Z</time>
 </trkpt>
 <trkpt lat="44.636093" lon="4.112111">
 <time>2011-05-19T15:32:07.3Z</time>
 </trkpt>
 <trkpt lat="44.636301" lon="4.111921">
 <time>2011-05-19T15:32:11.3Z</time>
 </trkpt>
 <trkpt lat="44.635778" lon="4.109006">
 <time>2011-05-19T15:32:23.3Z</time>
 </trkpt>
 <trkpt lat="44.635485" lon="4.10841">
 <time>2011-05-19T15:32:28.3Z</time>
 </trkpt>
 <trkpt lat="44.635235" lon="4.107549">
 <time>2011-05-19T15:32:33.3Z</time>
 </trkpt>
 <trkpt lat="44.635501" lon="4.10707">
 <time>2011-05-19T15:32:37.3Z</time>
 </trkpt>
 <trkpt lat="44.635998" lon="4.107084">
 <time>2011-05-19T15:32:41.3Z</time>
 </trkpt>
 <trkpt lat="44.637023" lon="4.106578">
 <time>2011-05-19T15:32:46.3Z</time>
 </trkpt>
 <trkpt lat="44.637355" lon="4.106241">
 <time>2011-05-19T15:32:50.9Z</time>
 </trkpt>
 <trkpt lat="44.637133" lon="4.105799">
 <time>2011-05-19T15:32:55.3Z</time>
 </trkpt>
 <trkpt lat="44.636648" lon="4.105006">
 <time>2011-05-19T15:32:59.9Z</time>
 </trkpt>
 <trkpt lat="44.636296" lon="4.104511">
 <time>2011-05-19T15:33:04.2Z</time>
 </trkpt>
 <trkpt lat="44.635765" lon="4.104076">
 <time>2011-05-19T15:33:09.2Z</time>
 </trkpt>
 <trkpt lat="44.63582" lon="4.102907">
 <time>2011-05-19T15:33:14.2Z</time>
 </trkpt>
 <trkpt lat="44.636255" lon="4.102132">
 <time>2011-05-19T15:33:18.2Z</time>
 </trkpt>
 <trkpt lat="44.636503" lon="4.101454">
 <time>2011-05-19T15:33:23.2Z</time>
 </trkpt>
 <trkpt lat="44.636076" lon="4.100802">
 <time>2011-05-19T15:33:27.2Z</time>
 </trkpt>
 <trkpt lat="44.635743" lon="4.100007">
 <time>2011-05-19T15:33:32.2Z</time>
 </trkpt>
 <trkpt lat="44.635571" lon="4.098926">
 <time>2011-05-19T15:33:36.2Z</time>
 </trkpt>
 <trkpt lat="44.635395" lon="4.098258">
 <time>2011-05-19T15:33:41.2Z</time>
 </trkpt>
 <trkpt lat="44.635211" lon="4.097656">
 <time>2011-05-19T15:33:46.2Z</time>
 </trkpt>
 <trkpt lat="44.635142" lon="4.097328">
 <time>2011-05-19T15:33:51.2Z</time>
 </trkpt>
 <trkpt lat="44.635036" lon="4.09719">
 <time>2011-05-19T15:33:56.2Z</time>
 </trkpt>
 <trkpt lat="44.634891" lon="4.097291">
 <time>2011-05-19T15:41:03.9Z</time>
 </trkpt>
 <trkpt lat="44.635011" lon="4.097167">
 <time>2011-05-19T15:49:03.9Z</time>
 </trkpt>
 <trkpt lat="44.635197" lon="4.096773">
 <time>2011-05-19T15:49:08.9Z</time>
 </trkpt>
 <trkpt lat="44.635593" lon="4.09625">
 <time>2011-05-19T15:49:13.9Z</time>
 </trkpt>
 <trkpt lat="44.63574" lon="4.095861">
 <time>2011-05-19T15:49:17.9Z</time>
 </trkpt>
 <trkpt lat="44.635773" lon="4.095034">
 <time>2011-05-19T15:49:23.9Z</time>
 </trkpt>
 <trkpt lat="44.635841" lon="4.093777">
 <time>2011-05-19T15:49:31.9Z</time>
 </trkpt>
 <trkpt lat="44.635998" lon="4.092868">
 <time>2011-05-19T15:49:36.9Z</time>
 </trkpt>
 <trkpt lat="44.636127" lon="4.09207">
 <time>2011-05-19T15:49:41.9Z</time>
 </trkpt>
 <trkpt lat="44.636007" lon="4.090935">
 <time>2011-05-19T15:49:46.9Z</time>
 </trkpt>
 <trkpt lat="44.635926" lon="4.089676">
 <time>2011-05-19T15:49:51.9Z</time>
 </trkpt>
 <trkpt lat="44.636119" lon="4.088265">
 <time>2011-05-19T15:49:56.9Z</time>
 </trkpt>
 <trkpt lat="44.636249" lon="4.087046">
 <time>2011-05-19T15:50:00.9Z</time>
 </trkpt>
 <trkpt lat="44.636104" lon="4.085639">
 <time>2011-05-19T15:50:05.9Z</time>
 </trkpt>
 <trkpt lat="44.635874" lon="4.084319">
 <time>2011-05-19T15:50:10.9Z</time>
 </trkpt>
 <trkpt lat="44.635778" lon="4.08299">
 <time>2011-05-19T15:50:15.9Z</time>
 </trkpt>
 <trkpt lat="44.635787" lon="4.08204">
 <time>2011-05-19T15:50:20.9Z</time>
 </trkpt>
 <trkpt lat="44.635877" lon="4.080806">
 <time>2011-05-19T15:50:25.9Z</time>
 </trkpt>
 <trkpt lat="44.635725" lon="4.079681">
 <time>2011-05-19T15:50:29.9Z</time>
 </trkpt>
 <trkpt lat="44.635526" lon="4.078637">
 <time>2011-05-19T15:50:33.9Z</time>
 </trkpt>
 <trkpt lat="44.635527" lon="4.077557">
 <time>2011-05-19T15:50:37.9Z</time>
 </trkpt>
 <trkpt lat="44.635521" lon="4.07465">
 <time>2011-05-19T15:50:46.9Z</time>
 </trkpt>
 <trkpt lat="44.63545" lon="4.07321">
 <time>2011-05-19T15:50:52.3Z</time>
 </trkpt>
 <trkpt lat="44.635538" lon="4.069776">
 <time>2011-05-19T15:51:02.9Z</time>
 </trkpt>
 <trkpt lat="44.635689" lon="4.068779">
 <time>2011-05-19T15:51:06.9Z</time>
 </trkpt>
 <trkpt lat="44.636038" lon="4.067283">
 <time>2011-05-19T15:51:11.9Z</time>
 </trkpt>
 <trkpt lat="44.636169" lon="4.06542">
 <time>2011-05-19T15:51:16.9Z</time>
 </trkpt>
 <trkpt lat="44.636374" lon="4.064395">
 <time>2011-05-19T15:51:21.9Z</time>
 </trkpt>
 <trkpt lat="44.636264" lon="4.06325">
 <time>2011-05-19T15:51:26.9Z</time>
 </trkpt>
 <trkpt lat="44.636025" lon="4.062341">
 <time>2011-05-19T15:51:31.9Z</time>
 </trkpt>
 <trkpt lat="44.636009" lon="4.061875">
 <time>2011-05-19T15:51:36.9Z</time>
 </trkpt>
 <trkpt lat="44.635943" lon="4.061708">
 <time>2011-05-19T15:52:12.3Z</time>
 </trkpt>
 <trkpt lat="44.635802" lon="4.061733">
 <time>2011-05-19T15:52:16.3Z</time>
 </trkpt>
 <trkpt lat="44.63534" lon="4.061669">
 <time>2011-05-19T15:52:21.9Z</time>
 </trkpt>
 <trkpt lat="44.635152" lon="4.06148">
 <time>2011-05-19T15:52:25.3Z</time>
 </trkpt>
 <trkpt lat="44.634923" lon="4.060563">
 <time>2011-05-19T15:52:30.9Z</time>
 </trkpt>
 <trkpt lat="44.63438" lon="4.059733">
 <time>2011-05-19T15:52:35.9Z</time>
 </trkpt>
 <trkpt lat="44.633659" lon="4.05888">
 <time>2011-05-19T15:52:39.9Z</time>
 </trkpt>
 <trkpt lat="44.633387" lon="4.058185">
 <time>2011-05-19T15:52:44.2Z</time>
 </trkpt>
 <trkpt lat="44.633235" lon="4.057112">
 <time>2011-05-19T15:52:48.2Z</time>
 </trkpt>
 <trkpt lat="44.633352" lon="4.055703">
 <time>2011-05-19T15:52:53.9Z</time>
 </trkpt>
 <trkpt lat="44.633467" lon="4.054829">
 <time>2011-05-19T15:52:58.3Z</time>
 </trkpt>
 <trkpt lat="44.632812" lon="4.054307">
 <time>2011-05-19T15:53:03.9Z</time>
 </trkpt>
 <trkpt lat="44.630701" lon="4.054148">
 <time>2011-05-19T15:53:12.9Z</time>
 </trkpt>
 <trkpt lat="44.630113" lon="4.054364">
 <time>2011-05-19T15:53:16.9Z</time>
 </trkpt>
 <trkpt lat="44.63005" lon="4.055127">
 <time>2011-05-19T15:53:21.9Z</time>
 </trkpt>
 <trkpt lat="44.630277" lon="4.057072">
 <time>2011-05-19T15:53:27.9Z</time>
 </trkpt>
 <trkpt lat="44.630264" lon="4.057576">
 <time>2011-05-19T15:53:31.9Z</time>
 </trkpt>
 <trkpt lat="44.629919" lon="4.057757">
 <time>2011-05-19T15:53:36.9Z</time>
 </trkpt>
 <trkpt lat="44.629633" lon="4.057769">
 <time>2011-05-19T15:53:41.9Z</time>
 </trkpt>
 <trkpt lat="44.629203" lon="4.057198">
 <time>2011-05-19T15:53:46.9Z</time>
 </trkpt>
 <trkpt lat="44.628372" lon="4.055555">
 <time>2011-05-19T15:53:52.9Z</time>
 </trkpt>
 <trkpt lat="44.627814" lon="4.054772">
 <time>2011-05-19T15:53:56.9Z</time>
 </trkpt>
 <trkpt lat="44.626121" lon="4.053835">
 <time>2011-05-19T15:54:05.9Z</time>
 </trkpt>
 <trkpt lat="44.625434" lon="4.053819">
 <time>2011-05-19T15:54:10.9Z</time>
 </trkpt>
 <trkpt lat="44.624528" lon="4.054385">
 <time>2011-05-19T15:54:14.9Z</time>
 </trkpt>
 <trkpt lat="44.623386" lon="4.054839">
 <time>2011-05-19T15:54:20.9Z</time>
 </trkpt>
 <trkpt lat="44.622937" lon="4.055587">
 <time>2011-05-19T15:54:25.9Z</time>
 </trkpt>
 <trkpt lat="44.622611" lon="4.056977">
 <time>2011-05-19T15:54:30.9Z</time>
 </trkpt>
 <trkpt lat="44.622399" lon="4.058174">
 <time>2011-05-19T15:54:35.3Z</time>
 </trkpt>
 <trkpt lat="44.622012" lon="4.05969">
 <time>2011-05-19T15:54:40.9Z</time>
 </trkpt>
 <trkpt lat="44.621172" lon="4.060291">
 <time>2011-05-19T15:54:45.9Z</time>
 </trkpt>
 <trkpt lat="44.620599" lon="4.060998">
 <time>2011-05-19T15:54:50.3Z</time>
 </trkpt>
 <trkpt lat="44.620014" lon="4.061577">
 <time>2011-05-19T15:54:54.9Z</time>
 </trkpt>
 <trkpt lat="44.619163" lon="4.061905">
 <time>2011-05-19T15:54:59.9Z</time>
 </trkpt>
 <trkpt lat="44.618509" lon="4.062756">
 <time>2011-05-19T15:55:04.9Z</time>
 </trkpt>
 <trkpt lat="44.618391" lon="4.063954">
 <time>2011-05-19T15:55:10.3Z</time>
 </trkpt>
 <trkpt lat="44.618457" lon="4.065073">
 <time>2011-05-19T15:55:14.9Z</time>
 </trkpt>
 <trkpt lat="44.618253" lon="4.066173">
 <time>2011-05-19T15:55:19.9Z</time>
 </trkpt>
 <trkpt lat="44.618425" lon="4.067401">
 <time>2011-05-19T15:55:23.9Z</time>
 </trkpt>
 <trkpt lat="44.61863" lon="4.067866">
 <time>2011-05-19T15:55:28.9Z</time>
 </trkpt>
 <trkpt lat="44.618294" lon="4.068023">
 <time>2011-05-19T15:55:33.3Z</time>
 </trkpt>
 <trkpt lat="44.617234" lon="4.067973">
 <time>2011-05-19T15:55:38.9Z</time>
 </trkpt>
 <trkpt lat="44.616574" lon="4.068197">
 <time>2011-05-19T15:55:42.9Z</time>
 </trkpt>
 <trkpt lat="44.616065" lon="4.068724">
 <time>2011-05-19T15:55:47.9Z</time>
 </trkpt>
 <trkpt lat="44.615741" lon="4.068421">
 <time>2011-05-19T15:55:52.3Z</time>
 </trkpt>
 <trkpt lat="44.61535" lon="4.067605">
 <time>2011-05-19T15:55:57.9Z</time>
 </trkpt>
 <trkpt lat="44.615039" lon="4.067871">
 <time>2011-05-19T15:56:01.3Z</time>
 </trkpt>
 <trkpt lat="44.614286" lon="4.069202">
 <time>2011-05-19T15:56:06.9Z</time>
 </trkpt>
 <trkpt lat="44.613174" lon="4.069629">
 <time>2011-05-19T15:56:11.9Z</time>
 </trkpt>
 <trkpt lat="44.610474" lon="4.070734">
 <time>2011-05-19T15:56:21.9Z</time>
 </trkpt>
 <trkpt lat="44.609766" lon="4.071378">
 <time>2011-05-19T15:56:26.9Z</time>
 </trkpt>
 <trkpt lat="44.60934" lon="4.072728">
 <time>2011-05-19T15:56:31.9Z</time>
 </trkpt>
 <trkpt lat="44.609093" lon="4.073928">
 <time>2011-05-19T15:56:35.9Z</time>
 </trkpt>
 <trkpt lat="44.608544" lon="4.074509">
 <time>2011-05-19T15:56:40.9Z</time>
 </trkpt>
 <trkpt lat="44.607774" lon="4.074523">
 <time>2011-05-19T15:56:44.9Z</time>
 </trkpt>
 <trkpt lat="44.606961" lon="4.074303">
 <time>2011-05-19T15:56:49.9Z</time>
 </trkpt>
 <trkpt lat="44.606408" lon="4.0739">
 <time>2011-05-19T15:56:53.9Z</time>
 </trkpt>
 <trkpt lat="44.606084" lon="4.073502">
 <time>2011-05-19T15:56:58.3Z</time>
 </trkpt>
 <trkpt lat="44.605772" lon="4.072999">
 <time>2011-05-19T15:57:02.3Z</time>
 </trkpt>
 <trkpt lat="44.605431" lon="4.072265">
 <time>2011-05-19T15:57:09.3Z</time>
 </trkpt>
 <trkpt lat="44.605329" lon="4.072085">
 <time>2011-05-19T15:57:14.3Z</time>
 </trkpt>
 <trkpt lat="44.605302" lon="4.071885">
 <time>2011-05-19T15:57:19.3Z</time>
 </trkpt>
 <trkpt lat="44.605333" lon="4.071377">
 <time>2011-05-19T16:02:25.2Z</time>
 </trkpt>
 <trkpt lat="44.605368" lon="4.07099">
 <time>2011-05-19T16:02:29.9Z</time>
 </trkpt>
 <trkpt lat="44.605343" lon="4.070562">
 <time>2011-05-19T16:02:34.2Z</time>
 </trkpt>
 <trkpt lat="44.605159" lon="4.069863">
 <time>2011-05-19T16:02:39.2Z</time>
 </trkpt>
 <trkpt lat="44.605017" lon="4.069386">
 <time>2011-05-19T16:02:44.2Z</time>
 </trkpt>
 <trkpt lat="44.604886" lon="4.068595">
 <time>2011-05-19T16:02:48.9Z</time>
 </trkpt>
 <trkpt lat="44.604857" lon="4.067284">
 <time>2011-05-19T16:02:56.3Z</time>
 </trkpt>
 <trkpt lat="44.604684" lon="4.066409">
 <time>2011-05-19T16:03:01.2Z</time>
 </trkpt>
 <trkpt lat="44.604252" lon="4.064829">
 <time>2011-05-19T16:03:07.2Z</time>
 </trkpt>
 <trkpt lat="44.604125" lon="4.064096">
 <time>2011-05-19T16:03:11.2Z</time>
 </trkpt>
 <trkpt lat="44.603676" lon="4.063141">
 <time>2011-05-19T16:03:16.2Z</time>
 </trkpt>
 <trkpt lat="44.603433" lon="4.062153">
 <time>2011-05-19T16:03:20.9Z</time>
 </trkpt>
 <trkpt lat="44.603359" lon="4.06135">
 <time>2011-05-19T16:03:25.3Z</time>
 </trkpt>
 <trkpt lat="44.60372" lon="4.060569">
 <time>2011-05-19T16:03:30.2Z</time>
 </trkpt>
 <trkpt lat="44.604465" lon="4.059972">
 <time>2011-05-19T16:03:34.2Z</time>
 </trkpt>
 <trkpt lat="44.604941" lon="4.059243">
 <time>2011-05-19T16:03:39.2Z</time>
 </trkpt>
 <trkpt lat="44.605627" lon="4.058121">
 <time>2011-05-19T16:03:45.2Z</time>
 </trkpt>
 <trkpt lat="44.605634" lon="4.057653">
 <time>2011-05-19T16:03:49.9Z</time>
 </trkpt>
 <trkpt lat="44.605143" lon="4.057173">
 <time>2011-05-19T16:03:54.9Z</time>
 </trkpt>
 <trkpt lat="44.603576" lon="4.056669">
 <time>2011-05-19T16:04:01.9Z</time>
 </trkpt>
 <trkpt lat="44.603211" lon="4.05638">
 <time>2011-05-19T16:04:06.3Z</time>
 </trkpt>
 <trkpt lat="44.603021" lon="4.055583">
 <time>2011-05-19T16:04:10.3Z</time>
 </trkpt>
 <trkpt lat="44.602749" lon="4.054003">
 <time>2011-05-19T16:04:16.2Z</time>
 </trkpt>
 <trkpt lat="44.602735" lon="4.053419">
 <time>2011-05-19T16:04:20.3Z</time>
 </trkpt>
 <trkpt lat="44.60254" lon="4.05284">
 <time>2011-05-19T16:04:24.3Z</time>
 </trkpt>
 <trkpt lat="44.601895" lon="4.052416">
 <time>2011-05-19T16:04:29Z</time>
 </trkpt>
 <trkpt lat="44.601449" lon="4.051798">
 <time>2011-05-19T16:04:33.3Z</time>
 </trkpt>
 <trkpt lat="44.600957" lon="4.050819">
 <time>2011-05-19T16:04:38.3Z</time>
 </trkpt>
 <trkpt lat="44.600791" lon="4.050117">
 <time>2011-05-19T16:04:42.3Z</time>
 </trkpt>
 <trkpt lat="44.60086" lon="4.049161">
 <time>2011-05-19T16:04:46.9Z</time>
 </trkpt>
 <trkpt lat="44.600922" lon="4.048463">
 <time>2011-05-19T16:04:51.2Z</time>
 </trkpt>
 <trkpt lat="44.600706" lon="4.047358">
 <time>2011-05-19T16:04:55.2Z</time>
 </trkpt>
 <trkpt lat="44.600072" lon="4.044621">
 <time>2011-05-19T16:05:07.3Z</time>
 </trkpt>
 <trkpt lat="44.599873" lon="4.04431">
 <time>2011-05-19T16:05:12.3Z</time>
 </trkpt>
 <trkpt lat="44.599666" lon="4.044545">
 <time>2011-05-19T16:05:16.3Z</time>
 </trkpt>
 <trkpt lat="44.599636" lon="4.045131">
 <time>2011-05-19T16:05:20.3Z</time>
 </trkpt>
 <trkpt lat="44.59964" lon="4.04687">
 <time>2011-05-19T16:05:27.3Z</time>
 </trkpt>
 <trkpt lat="44.59949" lon="4.04745">
 <time>2011-05-19T16:05:31.3Z</time>
 </trkpt>
 <trkpt lat="44.598823" lon="4.047975">
 <time>2011-05-19T16:05:36.3Z</time>
 </trkpt>
 <trkpt lat="44.598092" lon="4.048202">
 <time>2011-05-19T16:05:40.3Z</time>
 </trkpt>
 <trkpt lat="44.597322" lon="4.049087">
 <time>2011-05-19T16:05:46.3Z</time>
 </trkpt>
 <trkpt lat="44.597018" lon="4.049683">
 <time>2011-05-19T16:05:51.3Z</time>
 </trkpt>
 <trkpt lat="44.596925" lon="4.050751">
 <time>2011-05-19T16:05:56.3Z</time>
 </trkpt>
 <trkpt lat="44.5967" lon="4.05179">
 <time>2011-05-19T16:06:01.3Z</time>
 </trkpt>
 <trkpt lat="44.596331" lon="4.052849">
 <time>2011-05-19T16:06:06.3Z</time>
 </trkpt>
 <trkpt lat="44.596181" lon="4.053749">
 <time>2011-05-19T16:06:10.3Z</time>
 </trkpt>
 <trkpt lat="44.596109" lon="4.054534">
 <time>2011-05-19T16:06:14.3Z</time>
 </trkpt>
 <trkpt lat="44.595865" lon="4.055284">
 <time>2011-05-19T16:06:18.3Z</time>
 </trkpt>
 <trkpt lat="44.595475" lon="4.055804">
 <time>2011-05-19T16:06:23.3Z</time>
 </trkpt>
 <trkpt lat="44.594738" lon="4.056217">
 <time>2011-05-19T16:06:27.3Z</time>
 </trkpt>
 <trkpt lat="44.594162" lon="4.05673">
 <time>2011-05-19T16:06:32.3Z</time>
 </trkpt>
 <trkpt lat="44.593208" lon="4.05729">
 <time>2011-05-19T16:06:37.3Z</time>
 </trkpt>
 <trkpt lat="44.592861" lon="4.057602">
 <time>2011-05-19T16:06:41.3Z</time>
 </trkpt>
 <trkpt lat="44.592432" lon="4.058521">
 <time>2011-05-19T16:06:46.3Z</time>
 </trkpt>
 <trkpt lat="44.592017" lon="4.058957">
 <time>2011-05-19T16:06:51.2Z</time>
 </trkpt>
 <trkpt lat="44.591736" lon="4.058339">
 <time>2011-05-19T16:06:56.3Z</time>
 </trkpt>
 <trkpt lat="44.59148" lon="4.057114">
 <time>2011-05-19T16:07:01.3Z</time>
 </trkpt>
 <trkpt lat="44.590963" lon="4.056269">
 <time>2011-05-19T16:07:06.2Z</time>
 </trkpt>
 <trkpt lat="44.590334" lon="4.055282">
 <time>2011-05-19T16:07:10.2Z</time>
 </trkpt>
 <trkpt lat="44.589809" lon="4.054919">
 <time>2011-05-19T16:07:15.2Z</time>
 </trkpt>
 <trkpt lat="44.588819" lon="4.054973">
 <time>2011-05-19T16:07:19.9Z</time>
 </trkpt>
 <trkpt lat="44.587944" lon="4.054818">
 <time>2011-05-19T16:07:24.2Z</time>
 </trkpt>
 <trkpt lat="44.587093" lon="4.054241">
 <time>2011-05-19T16:07:29.2Z</time>
 </trkpt>
 <trkpt lat="44.58678" lon="4.053103">
 <time>2011-05-19T16:07:34.2Z</time>
 </trkpt>
 <trkpt lat="44.586734" lon="4.052403">
 <time>2011-05-19T16:07:39.2Z</time>
 </trkpt>
 <trkpt lat="44.58613" lon="4.052631">
 <time>2011-05-19T16:07:44.2Z</time>
 </trkpt>
 <trkpt lat="44.585644" lon="4.053397">
 <time>2011-05-19T16:07:48.2Z</time>
 </trkpt>
 <trkpt lat="44.58501" lon="4.05406">
 <time>2011-05-19T16:07:53.3Z</time>
 </trkpt>
 <trkpt lat="44.584886" lon="4.054868">
 <time>2011-05-19T16:07:58.2Z</time>
 </trkpt>
 <trkpt lat="44.585067" lon="4.055702">
 <time>2011-05-19T16:08:04.2Z</time>
 </trkpt>
 <trkpt lat="44.584913" lon="4.055827">
 <time>2011-05-19T16:08:10.3Z</time>
 </trkpt>
 <trkpt lat="44.58468" lon="4.055844">
 <time>2011-05-19T16:08:14.3Z</time>
 </trkpt>
 <trkpt lat="44.584248" lon="4.055792">
 <time>2011-05-19T16:08:18.2Z</time>
 </trkpt>
 <trkpt lat="44.582889" lon="4.055911">
 <time>2011-05-19T16:08:26.3Z</time>
 </trkpt>
 <trkpt lat="44.582336" lon="4.056186">
 <time>2011-05-19T16:08:30.9Z</time>
 </trkpt>
 <trkpt lat="44.581952" lon="4.056589">
 <time>2011-05-19T16:08:35.2Z</time>
 </trkpt>
 <trkpt lat="44.581632" lon="4.056489">
 <time>2011-05-19T16:08:40.2Z</time>
 </trkpt>
 <trkpt lat="44.581775" lon="4.05592">
 <time>2011-05-19T16:08:45.2Z</time>
 </trkpt>
 <trkpt lat="44.582326" lon="4.055287">
 <time>2011-05-19T16:08:49.2Z</time>
 </trkpt>
 <trkpt lat="44.583002" lon="4.054826">
 <time>2011-05-19T16:08:53.2Z</time>
 </trkpt>
 <trkpt lat="44.583339" lon="4.05449">
 <time>2011-05-19T16:08:57.2Z</time>
 </trkpt>
 <trkpt lat="44.583297" lon="4.053759">
 <time>2011-05-19T16:09:01.2Z</time>
 </trkpt>
 <trkpt lat="44.583369" lon="4.052759">
 <time>2011-05-19T16:09:06.2Z</time>
 </trkpt>
 <trkpt lat="44.583237" lon="4.052308">
 <time>2011-05-19T16:09:11.2Z</time>
 </trkpt>
 <trkpt lat="44.582452" lon="4.05238">
 <time>2011-05-19T16:09:16.2Z</time>
 </trkpt>
 <trkpt lat="44.581604" lon="4.05277">
 <time>2011-05-19T16:09:21.2Z</time>
 </trkpt>
 <trkpt lat="44.580732" lon="4.052762">
 <time>2011-05-19T16:09:26Z</time>
 </trkpt>
 <trkpt lat="44.579987" lon="4.052229">
 <time>2011-05-19T16:09:30Z</time>
 </trkpt>
 <trkpt lat="44.579097" lon="4.051324">
 <time>2011-05-19T16:09:34.3Z</time>
 </trkpt>
 <trkpt lat="44.578565" lon="4.050687">
 <time>2011-05-19T16:09:39.3Z</time>
 </trkpt>
 <trkpt lat="44.578082" lon="4.050433">
 <time>2011-05-19T16:09:43.3Z</time>
 </trkpt>
 <trkpt lat="44.5779" lon="4.049901">
 <time>2011-05-19T16:09:47.3Z</time>
 </trkpt>
 <trkpt lat="44.578204" lon="4.048557">
 <time>2011-05-19T16:09:52Z</time>
 </trkpt>
 <trkpt lat="44.578501" lon="4.047376">
 <time>2011-05-19T16:09:56.2Z</time>
 </trkpt>
 <trkpt lat="44.578983" lon="4.045917">
 <time>2011-05-19T16:10:01.2Z</time>
 </trkpt>
 <trkpt lat="44.57899" lon="4.045315">
 <time>2011-05-19T16:10:05.2Z</time>
 </trkpt>
 <trkpt lat="44.578177" lon="4.042664">
 <time>2011-05-19T16:10:16.2Z</time>
 </trkpt>
 <trkpt lat="44.578207" lon="4.0417">
 <time>2011-05-19T16:10:21.2Z</time>
 </trkpt>
 <trkpt lat="44.578376" lon="4.040208">
 <time>2011-05-19T16:10:27.2Z</time>
 </trkpt>
 <trkpt lat="44.578118" lon="4.039687">
 <time>2011-05-19T16:10:32.2Z</time>
 </trkpt>
 <trkpt lat="44.577687" lon="4.03887">
 <time>2011-05-19T16:10:37.2Z</time>
 </trkpt>
 <trkpt lat="44.577539" lon="4.03764">
 <time>2011-05-19T16:10:42.3Z</time>
 </trkpt>
 <trkpt lat="44.577557" lon="4.036539">
 <time>2011-05-19T16:10:47.3Z</time>
 </trkpt>
 <trkpt lat="44.577306" lon="4.0357">
 <time>2011-05-19T16:10:52.2Z</time>
 </trkpt>
 <trkpt lat="44.577228" lon="4.034846">
 <time>2011-05-19T16:10:57.3Z</time>
 </trkpt>
 <trkpt lat="44.577424" lon="4.033829">
 <time>2011-05-19T16:11:01.9Z</time>
 </trkpt>
 <trkpt lat="44.577485" lon="4.03323">
 <time>2011-05-19T16:11:06Z</time>
 </trkpt>
 <trkpt lat="44.577124" lon="4.032817">
 <time>2011-05-19T16:11:10.3Z</time>
 </trkpt>
 <trkpt lat="44.575071" lon="4.030798">
 <time>2011-05-19T16:11:22Z</time>
 </trkpt>
 <trkpt lat="44.574425" lon="4.030565">
 <time>2011-05-19T16:11:26.9Z</time>
 </trkpt>
 <trkpt lat="44.573589" lon="4.030545">
 <time>2011-05-19T16:11:31.2Z</time>
 </trkpt>
 <trkpt lat="44.573011" lon="4.03078">
 <time>2011-05-19T16:11:35.2Z</time>
 </trkpt>
 <trkpt lat="44.572821" lon="4.031794">
 <time>2011-05-19T16:11:40.2Z</time>
 </trkpt>
 <trkpt lat="44.5729" lon="4.032882">
 <time>2011-05-19T16:11:44.2Z</time>
 </trkpt>
 <trkpt lat="44.572591" lon="4.03368">
 <time>2011-05-19T16:11:49.2Z</time>
 </trkpt>
 <trkpt lat="44.572193" lon="4.033742">
 <time>2011-05-19T16:11:53.9Z</time>
 </trkpt>
 <trkpt lat="44.571599" lon="4.033003">
 <time>2011-05-19T16:11:58.2Z</time>
 </trkpt>
 <trkpt lat="44.57061" lon="4.032472">
 <time>2011-05-19T16:12:04Z</time>
 </trkpt>
 <trkpt lat="44.570333" lon="4.031961">
 <time>2011-05-19T16:12:08.2Z</time>
 </trkpt>
 <trkpt lat="44.570284" lon="4.030999">
 <time>2011-05-19T16:12:12.9Z</time>
 </trkpt>
 <trkpt lat="44.570761" lon="4.029624">
 <time>2011-05-19T16:12:17.3Z</time>
 </trkpt>
 <trkpt lat="44.571196" lon="4.027558">
 <time>2011-05-19T16:12:21.9Z</time>
 </trkpt>
 <trkpt lat="44.571523" lon="4.02676">
 <time>2011-05-19T16:12:26.2Z</time>
 </trkpt>
 <trkpt lat="44.572148" lon="4.025477">
 <time>2011-05-19T16:12:30.2Z</time>
 </trkpt>
 <trkpt lat="44.57279" lon="4.023392">
 <time>2011-05-19T16:12:37.3Z</time>
 </trkpt>
 <trkpt lat="44.573324" lon="4.022542">
 <time>2011-05-19T16:12:42.3Z</time>
 </trkpt>
 <trkpt lat="44.574092" lon="4.022369">
 <time>2011-05-19T16:12:47.3Z</time>
 </trkpt>
 <trkpt lat="44.574663" lon="4.022567">
 <time>2011-05-19T16:12:51.3Z</time>
 </trkpt>
 <trkpt lat="44.57503" lon="4.022068">
 <time>2011-05-19T16:12:56.3Z</time>
 </trkpt>
 <trkpt lat="44.575056" lon="4.020311">
 <time>2011-05-19T16:13:01.9Z</time>
 </trkpt>
 <trkpt lat="44.575315" lon="4.019555">
 <time>2011-05-19T16:13:06.3Z</time>
 </trkpt>
 <trkpt lat="44.575573" lon="4.018675">
 <time>2011-05-19T16:13:11.2Z</time>
 </trkpt>
 <trkpt lat="44.575149" lon="4.017895">
 <time>2011-05-19T16:13:16.3Z</time>
 </trkpt>
 <trkpt lat="44.574438" lon="4.016682">
 <time>2011-05-19T16:13:21.3Z</time>
 </trkpt>
 <trkpt lat="44.573224" lon="4.014809">
 <time>2011-05-19T16:13:28.9Z</time>
 </trkpt>
 <trkpt lat="44.572963" lon="4.014514">
 <time>2011-05-19T16:13:33.3Z</time>
 </trkpt>
 <trkpt lat="44.573123" lon="4.014513">
 <time>2011-05-19T16:14:06.9Z</time>
 </trkpt>
 <trkpt lat="44.57441" lon="4.014894">
 <time>2011-05-19T16:14:14.3Z</time>
 </trkpt>
 <trkpt lat="44.575026" lon="4.015362">
 <time>2011-05-19T16:14:19.3Z</time>
 </trkpt>
 <trkpt lat="44.575388" lon="4.015881">
 <time>2011-05-19T16:14:23.3Z</time>
 </trkpt>
 <trkpt lat="44.575753" lon="4.015632">
 <time>2011-05-19T16:14:27.3Z</time>
 </trkpt>
 <trkpt lat="44.57594" lon="4.015029">
 <time>2011-05-19T16:14:32.3Z</time>
 </trkpt>
 <trkpt lat="44.575966" lon="4.013823">
 <time>2011-05-19T16:14:36.9Z</time>
 </trkpt>
 <trkpt lat="44.576105" lon="4.013023">
 <time>2011-05-19T16:14:40.9Z</time>
 </trkpt>
 <trkpt lat="44.576675" lon="4.013018">
 <time>2011-05-19T16:14:45.3Z</time>
 </trkpt>
 <trkpt lat="44.577723" lon="4.013561">
 <time>2011-05-19T16:14:49.3Z</time>
 </trkpt>
 <trkpt lat="44.578197" lon="4.013552">
 <time>2011-05-19T16:14:53.3Z</time>
 </trkpt>
 <trkpt lat="44.578876" lon="4.013059">
 <time>2011-05-19T16:14:58.2Z</time>
 </trkpt>
 <trkpt lat="44.579673" lon="4.012385">
 <time>2011-05-19T16:15:03.3Z</time>
 </trkpt>
 <trkpt lat="44.580247" lon="4.011542">
 <time>2011-05-19T16:15:08.3Z</time>
 </trkpt>
 <trkpt lat="44.580834" lon="4.010677">
 <time>2011-05-19T16:15:13.3Z</time>
 </trkpt>
 <trkpt lat="44.581389" lon="4.010085">
 <time>2011-05-19T16:15:17.3Z</time>
 </trkpt>
 <trkpt lat="44.582144" lon="4.009685">
 <time>2011-05-19T16:15:21.9Z</time>
 </trkpt>
 <trkpt lat="44.583008" lon="4.0094">
 <time>2011-05-19T16:15:26.3Z</time>
 </trkpt>
 <trkpt lat="44.583569" lon="4.008889">
 <time>2011-05-19T16:15:31.3Z</time>
 </trkpt>
 <trkpt lat="44.583823" lon="4.008666">
 <time>2011-05-19T16:15:35.3Z</time>
 </trkpt>
 <trkpt lat="44.583668" lon="4.009234">
 <time>2011-05-19T16:15:40.3Z</time>
 </trkpt>
 <trkpt lat="44.583044" lon="4.010122">
 <time>2011-05-19T16:15:44.9Z</time>
 </trkpt>
 <trkpt lat="44.582229" lon="4.010671">
 <time>2011-05-19T16:15:52.2Z</time>
 </trkpt>
 <trkpt lat="44.582522" lon="4.0106">
 <time>2011-05-19T16:15:57.2Z</time>
 </trkpt>
 <trkpt lat="44.583425" lon="4.01054">
 <time>2011-05-19T16:16:01.2Z</time>
 </trkpt>
 <trkpt lat="44.584183" lon="4.010159">
 <time>2011-05-19T16:16:05.9Z</time>
 </trkpt>
 <trkpt lat="44.584838" lon="4.009536">
 <time>2011-05-19T16:16:10.9Z</time>
 </trkpt>
 <trkpt lat="44.585572" lon="4.009094">
 <time>2011-05-19T16:16:14.9Z</time>
 </trkpt>
 <trkpt lat="44.586077" lon="4.008756">
 <time>2011-05-19T16:16:18.9Z</time>
 </trkpt>
 <trkpt lat="44.58702" lon="4.008282">
 <time>2011-05-19T16:16:23.9Z</time>
 </trkpt>
 <trkpt lat="44.587303" lon="4.007935">
 <time>2011-05-19T16:16:28.3Z</time>
 </trkpt>
 <trkpt lat="44.587805" lon="4.006276">
 <time>2011-05-19T16:16:37.2Z</time>
 </trkpt>
 <trkpt lat="44.588186" lon="4.005799">
 <time>2011-05-19T16:16:42Z</time>
 </trkpt>
 <trkpt lat="44.58847" lon="4.005392">
 <time>2011-05-19T16:16:46.3Z</time>
 </trkpt>
 <trkpt lat="44.588729" lon="4.004621">
 <time>2011-05-19T16:16:51.3Z</time>
 </trkpt>
 <trkpt lat="44.5894" lon="4.003224">
 <time>2011-05-19T16:16:59Z</time>
 </trkpt>
 <trkpt lat="44.589453" lon="4.002756">
 <time>2011-05-19T16:17:03.2Z</time>
 </trkpt>
 <trkpt lat="44.589403" lon="4.001923">
 <time>2011-05-19T16:17:08.2Z</time>
 </trkpt>
 <trkpt lat="44.589654" lon="4.00107">
 <time>2011-05-19T16:17:13.2Z</time>
 </trkpt>
 <trkpt lat="44.589925" lon="4.000233">
 <time>2011-05-19T16:17:18.2Z</time>
 </trkpt>
 <trkpt lat="44.590123" lon="3.999131">
 <time>2011-05-19T16:17:23.2Z</time>
 </trkpt>
 <trkpt lat="44.590457" lon="3.998642">
 <time>2011-05-19T16:17:28.2Z</time>
 </trkpt>
 <trkpt lat="44.590825" lon="3.997697">
 <time>2011-05-19T16:17:33.2Z</time>
 </trkpt>
 <trkpt lat="44.591384" lon="3.99681">
 <time>2011-05-19T16:17:38.3Z</time>
 </trkpt>
 <trkpt lat="44.591825" lon="3.996368">
 <time>2011-05-19T16:17:42.2Z</time>
 </trkpt>
 <trkpt lat="44.592026" lon="3.995972">
 <time>2011-05-19T16:17:47.2Z</time>
 </trkpt>
 <trkpt lat="44.591933" lon="3.996653">
 <time>2011-05-19T16:17:52.2Z</time>
 </trkpt>
 <trkpt lat="44.591364" lon="3.997453">
 <time>2011-05-19T16:17:57.2Z</time>
 </trkpt>
 <trkpt lat="44.591035" lon="3.998006">
 <time>2011-05-19T16:18:02.2Z</time>
 </trkpt>
 <trkpt lat="44.591174" lon="3.997731">
 <time>2011-05-19T16:18:07.2Z</time>
 </trkpt>
 <trkpt lat="44.592604" lon="3.996509">
 <time>2011-05-19T16:18:16.2Z</time>
 </trkpt>
 <trkpt lat="44.592997" lon="3.995648">
 <time>2011-05-19T16:18:20.2Z</time>
 </trkpt>
 <trkpt lat="44.593042" lon="3.994966">
 <time>2011-05-19T16:18:25.3Z</time>
 </trkpt>
 <trkpt lat="44.59262" lon="3.994671">
 <time>2011-05-19T16:18:29.3Z</time>
 </trkpt>
 <trkpt lat="44.592275" lon="3.99434">
 <time>2011-05-19T16:18:33.3Z</time>
 </trkpt>
 <trkpt lat="44.591928" lon="3.993753">
 <time>2011-05-19T16:18:38.3Z</time>
 </trkpt>
 <trkpt lat="44.591522" lon="3.99351">
 <time>2011-05-19T16:18:42.3Z</time>
 </trkpt>
 <trkpt lat="44.591105" lon="3.993387">
 <time>2011-05-19T16:18:47.3Z</time>
 </trkpt>
 <trkpt lat="44.591028" lon="3.992919">
 <time>2011-05-19T16:18:51.3Z</time>
 </trkpt>
 <trkpt lat="44.591295" lon="3.99231">
 <time>2011-05-19T16:18:55.3Z</time>
 </trkpt>
 <trkpt lat="44.591558" lon="3.991479">
 <time>2011-05-19T16:19:00.3Z</time>
 </trkpt>
 <trkpt lat="44.591668" lon="3.991127">
 <time>2011-05-19T16:19:05.3Z</time>
 </trkpt>
 <trkpt lat="44.591822" lon="3.990297">
 <time>2011-05-19T16:19:11.3Z</time>
 </trkpt>
 <trkpt lat="44.592023" lon="3.989774">
 <time>2011-05-19T16:19:15.3Z</time>
 </trkpt>
 </trkseg>
 <trkseg>
 <trkpt lat="44.59225" lon="3.989363">
 <time>2011-05-19T16:19:19.3Z</time>
 </trkpt>
 <trkpt lat="44.59277" lon="3.988593">
 <time>2011-05-19T16:19:24.3Z</time>
 </trkpt>
 <trkpt lat="44.593207" lon="3.988078">
 <time>2011-05-19T16:19:28.3Z</time>
 </trkpt>
 <trkpt lat="44.593762" lon="3.987687">
 <time>2011-05-19T16:19:33.3Z</time>
 </trkpt>
 <trkpt lat="44.593849" lon="3.987166">
 <time>2011-05-19T16:19:38.3Z</time>
 </trkpt>
 <trkpt lat="44.593399" lon="3.987085">
 <time>2011-05-19T16:19:42.3Z</time>
 </trkpt>
 <trkpt lat="44.592679" lon="3.987078">
 <time>2011-05-19T16:19:47.3Z</time>
 </trkpt>
 <trkpt lat="44.592524" lon="3.986951">
 <time>2011-05-19T16:19:52.3Z</time>
 </trkpt>
 <trkpt lat="44.592994" lon="3.986854">
 <time>2011-05-19T16:19:57.3Z</time>
 </trkpt>
 <trkpt lat="44.593377" lon="3.98656">
 <time>2011-05-19T16:20:02.3Z</time>
 </trkpt>
 <trkpt lat="44.593872" lon="3.986442">
 <time>2011-05-19T16:20:07.3Z</time>
 </trkpt>
 <trkpt lat="44.594314" lon="3.985919">
 <time>2011-05-19T16:20:12.3Z</time>
 </trkpt>
 <trkpt lat="44.594894" lon="3.985215">
 <time>2011-05-19T16:20:17.3Z</time>
 </trkpt>
 <trkpt lat="44.595467" lon="3.983733">
 <time>2011-05-19T16:20:23.2Z</time>
 </trkpt>
 <trkpt lat="44.595734" lon="3.982901">
 <time>2011-05-19T16:20:28.3Z</time>
 </trkpt>
 <trkpt lat="44.596196" lon="3.979512">
 <time>2011-05-19T16:20:41.2Z</time>
 </trkpt>
 <trkpt lat="44.596428" lon="3.979335">
 <time>2011-05-19T16:20:45.2Z</time>
 </trkpt>
 <trkpt lat="44.597081" lon="3.979549">
 <time>2011-05-19T16:20:50.2Z</time>
 </trkpt>
 <trkpt lat="44.597507" lon="3.980262">
 <time>2011-05-19T16:20:55.2Z</time>
 </trkpt>
 <trkpt lat="44.597902" lon="3.98093">
 <time>2011-05-19T16:20:59.3Z</time>
 </trkpt>
 <trkpt lat="44.598517" lon="3.981602">
 <time>2011-05-19T16:21:04.2Z</time>
 </trkpt>
 <trkpt lat="44.598854" lon="3.982078">
 <time>2011-05-19T16:21:08.2Z</time>
 </trkpt>
 <trkpt lat="44.598908" lon="3.982448">
 <time>2011-05-19T16:21:13.2Z</time>
 </trkpt>
 <trkpt lat="44.59895" lon="3.981927">
 <time>2011-05-19T16:21:17.9Z</time>
 </trkpt>
 <trkpt lat="44.598782" lon="3.981415">
 <time>2011-05-19T16:21:22.2Z</time>
 </trkpt>
 <trkpt lat="44.598967" lon="3.981504">
 <time>2011-05-19T16:21:28.3Z</time>
 </trkpt>
 <trkpt lat="44.599157" lon="3.981852">
 <time>2011-05-19T16:21:32.3Z</time>
 </trkpt>
 <trkpt lat="44.599163" lon="3.982913">
 <time>2011-05-19T16:21:37.3Z</time>
 </trkpt>
 <trkpt lat="44.599062" lon="3.983932">
 <time>2011-05-19T16:21:42.3Z</time>
 </trkpt>
 <trkpt lat="44.598955" lon="3.984345">
 <time>2011-05-19T16:21:47.3Z</time>
 </trkpt>
 <trkpt lat="44.599162" lon="3.983644">
 <time>2011-05-19T16:21:52.3Z</time>
 </trkpt>
 <trkpt lat="44.599446" lon="3.982777">
 <time>2011-05-19T16:21:57.2Z</time>
 </trkpt>
 <trkpt lat="44.599797" lon="3.982332">
 <time>2011-05-19T16:22:02.2Z</time>
 </trkpt>
 <trkpt lat="44.600183" lon="3.982391">
 <time>2011-05-19T16:22:07.2Z</time>
 </trkpt>
 <trkpt lat="44.600515" lon="3.982505">
 <time>2011-05-19T16:22:12.3Z</time>
 </trkpt>
 <trkpt lat="44.600785" lon="3.982378">
 <time>2011-05-19T16:22:17.9Z</time>
 </trkpt>
 <trkpt lat="44.601017" lon="3.981695">
 <time>2011-05-19T16:22:22.2Z</time>
 </trkpt>
 <trkpt lat="44.601282" lon="3.981026">
 <time>2011-05-19T16:22:26.9Z</time>
 </trkpt>
 <trkpt lat="44.601538" lon="3.980214">
 <time>2011-05-19T16:22:32.3Z</time>
 </trkpt>
 <trkpt lat="44.601405" lon="3.979395">
 <time>2011-05-19T16:22:36.9Z</time>
 </trkpt>
 <trkpt lat="44.601164" lon="3.978776">
 <time>2011-05-19T16:22:40.9Z</time>
 </trkpt>
 <trkpt lat="44.600796" lon="3.978124">
 <time>2011-05-19T16:22:45.3Z</time>
 </trkpt>
 <trkpt lat="44.600278" lon="3.977723">
 <time>2011-05-19T16:22:50Z</time>
 </trkpt>
 <trkpt lat="44.599932" lon="3.977471">
 <time>2011-05-19T16:22:54.9Z</time>
 </trkpt>
 <trkpt lat="44.600097" lon="3.976628">
 <time>2011-05-19T16:22:59.9Z</time>
 </trkpt>
 <trkpt lat="44.600567" lon="3.97567">
 <time>2011-05-19T16:23:04.2Z</time>
 </trkpt>
 <trkpt lat="44.60093" lon="3.975234">
 <time>2011-05-19T16:23:08.2Z</time>
 </trkpt>
 <trkpt lat="44.601033" lon="3.975412">
 <time>2011-05-19T16:23:13.2Z</time>
 </trkpt>
 <trkpt lat="44.600734" lon="3.976174">
 <time>2011-05-19T16:23:17.2Z</time>
 </trkpt>
 <trkpt lat="44.600546" lon="3.977197">
 <time>2011-05-19T16:23:22.2Z</time>
 </trkpt>
 <trkpt lat="44.600509" lon="3.977536">
 <time>2011-05-19T16:23:26.9Z</time>
 </trkpt>
 <trkpt lat="44.600768" lon="3.976661">
 <time>2011-05-19T16:23:31.9Z</time>
 </trkpt>
 <trkpt lat="44.601019" lon="3.975939">
 <time>2011-05-19T16:23:35.2Z</time>
 </trkpt>
 <trkpt lat="44.601512" lon="3.975127">
 <time>2011-05-19T16:23:40.2Z</time>
 </trkpt>
 <trkpt lat="44.601952" lon="3.974578">
 <time>2011-05-19T16:23:44.9Z</time>
 </trkpt>
 <trkpt lat="44.602104" lon="3.973899">
 <time>2011-05-19T16:23:49.3Z</time>
 </trkpt>
 <trkpt lat="44.602364" lon="3.973238">
 <time>2011-05-19T16:23:53.9Z</time>
 </trkpt>
 <trkpt lat="44.602813" lon="3.972582">
 <time>2011-05-19T16:23:58Z</time>
 </trkpt>
 <trkpt lat="44.603123" lon="3.972304">
 <time>2011-05-19T16:24:02.9Z</time>
 </trkpt>
 <trkpt lat="44.603393" lon="3.972212">
 <time>2011-05-19T16:24:07.3Z</time>
 </trkpt>
 <trkpt lat="44.603632" lon="3.972192">
 <time>2011-05-19T16:24:11.3Z</time>
 </trkpt>
 <trkpt lat="44.603925" lon="3.971938">
 <time>2011-05-19T16:24:15.3Z</time>
 </trkpt>
 <trkpt lat="44.604236" lon="3.971844">
 <time>2011-05-19T16:24:19.3Z</time>
 </trkpt>
 <trkpt lat="44.604571" lon="3.971869">
 <time>2011-05-19T16:24:23.9Z</time>
 </trkpt>
 <trkpt lat="44.604989" lon="3.971627">
 <time>2011-05-19T16:24:28.9Z</time>
 </trkpt>
 <trkpt lat="44.605444" lon="3.971466">
 <time>2011-05-19T16:24:33.9Z</time>
 </trkpt>
 <trkpt lat="44.605832" lon="3.971355">
 <time>2011-05-19T16:24:38.9Z</time>
 </trkpt>
 <trkpt lat="44.606319" lon="3.971069">
 <time>2011-05-19T16:24:44.9Z</time>
 </trkpt>
 <trkpt lat="44.606451" lon="3.97103">
 <time>2011-05-19T16:24:48.3Z</time>
 </trkpt>
 <trkpt lat="44.606671" lon="3.970834">
 <time>2011-05-19T16:24:53.3Z</time>
 </trkpt>
 <trkpt lat="44.606759" lon="3.970401">
 <time>2011-05-19T16:24:58.9Z</time>
 </trkpt>
 <trkpt lat="44.606963" lon="3.969977">
 <time>2011-05-19T16:25:03.9Z</time>
 </trkpt>
 <trkpt lat="44.607008" lon="3.969743">
 <time>2011-05-19T16:25:08.2Z</time>
 </trkpt>
 <trkpt lat="44.606917" lon="3.969512">
 <time>2011-05-19T16:25:13.2Z</time>
 </trkpt>
 <trkpt lat="44.606865" lon="3.969774">
 <time>2011-05-19T16:25:18.2Z</time>
 </trkpt>
 <trkpt lat="44.606262" lon="3.969931">
 <time>2011-05-19T16:25:23.2Z</time>
 </trkpt>
 <trkpt lat="44.60569" lon="3.970017">
 <time>2011-05-19T16:25:28.2Z</time>
 </trkpt>
 <trkpt lat="44.605237" lon="3.970077">
 <time>2011-05-19T16:25:32.2Z</time>
 </trkpt>
 <trkpt lat="44.60472" lon="3.969927">
 <time>2011-05-19T16:25:37.2Z</time>
 </trkpt>
 <trkpt lat="44.604031" lon="3.969739">
 <time>2011-05-19T16:25:41.9Z</time>
 </trkpt>
 <trkpt lat="44.603813" lon="3.96921">
 <time>2011-05-19T16:25:45.9Z</time>
 </trkpt>
 <trkpt lat="44.603905" lon="3.967997">
 <time>2011-05-19T16:25:50.9Z</time>
 </trkpt>
 <trkpt lat="44.60399" lon="3.9667">
 <time>2011-05-19T16:25:56.2Z</time>
 </trkpt>
 <trkpt lat="44.603694" lon="3.965798">
 <time>2011-05-19T16:26:00.9Z</time>
 </trkpt>
 <trkpt lat="44.60328" lon="3.965316">
 <time>2011-05-19T16:26:05.2Z</time>
 </trkpt>
 <trkpt lat="44.603111" lon="3.96436">
 <time>2011-05-19T16:26:10.2Z</time>
 </trkpt>
 <trkpt lat="44.602728" lon="3.963703">
 <time>2011-05-19T16:26:15.9Z</time>
 </trkpt>
 <trkpt lat="44.602236" lon="3.963362">
 <time>2011-05-19T16:26:20.2Z</time>
 </trkpt>
 <trkpt lat="44.601729" lon="3.96368">
 <time>2011-05-19T16:26:24.9Z</time>
 </trkpt>
 <trkpt lat="44.602101" lon="3.964985">
 <time>2011-05-19T16:26:29.9Z</time>
 </trkpt>
 <trkpt lat="44.602073" lon="3.965813">
 <time>2011-05-19T16:26:33.9Z</time>
 </trkpt>
 <trkpt lat="44.601642" lon="3.966284">
 <time>2011-05-19T16:26:38.9Z</time>
 </trkpt>
 <trkpt lat="44.600941" lon="3.966535">
 <time>2011-05-19T16:26:43.9Z</time>
 </trkpt>
 <trkpt lat="44.600171" lon="3.967387">
 <time>2011-05-19T16:26:48.9Z</time>
 </trkpt>
 <trkpt lat="44.599685" lon="3.967925">
 <time>2011-05-19T16:26:52.9Z</time>
 </trkpt>
 <trkpt lat="44.59956" lon="3.968835">
 <time>2011-05-19T16:26:57.9Z</time>
 </trkpt>
 <trkpt lat="44.599077" lon="3.969316">
 <time>2011-05-19T16:27:01.9Z</time>
 </trkpt>
 <trkpt lat="44.59824" lon="3.970097">
 <time>2011-05-19T16:27:06.3Z</time>
 </trkpt>
 <trkpt lat="44.597727" lon="3.970784">
 <time>2011-05-19T16:27:10.9Z</time>
 </trkpt>
 <trkpt lat="44.597119" lon="3.971121">
 <time>2011-05-19T16:27:15.3Z</time>
 </trkpt>
 <trkpt lat="44.596096" lon="3.971093">
 <time>2011-05-19T16:27:19.9Z</time>
 </trkpt>
 <trkpt lat="44.594967" lon="3.971089">
 <time>2011-05-19T16:27:24.9Z</time>
 </trkpt>
 <trkpt lat="44.594711" lon="3.970893">
 <time>2011-05-19T16:27:29.2Z</time>
 </trkpt>
 <trkpt lat="44.594964" lon="3.970164">
 <time>2011-05-19T16:27:34.2Z</time>
 </trkpt>
 <trkpt lat="44.595368" lon="3.968825">
 <time>2011-05-19T16:27:40.2Z</time>
 </trkpt>
 <trkpt lat="44.595805" lon="3.96773">
 <time>2011-05-19T16:27:46.2Z</time>
 </trkpt>
 <trkpt lat="44.596046" lon="3.966215">
 <time>2011-05-19T16:27:51.9Z</time>
 </trkpt>
 <trkpt lat="44.59607" lon="3.965366">
 <time>2011-05-19T16:27:56.2Z</time>
 </trkpt>
 <trkpt lat="44.59624" lon="3.963703">
 <time>2011-05-19T16:28:01.2Z</time>
 </trkpt>
 <trkpt lat="44.595841" lon="3.962636">
 <time>2011-05-19T16:28:06.2Z</time>
 </trkpt>
 <trkpt lat="44.595474" lon="3.961254">
 <time>2011-05-19T16:28:11.3Z</time>
 </trkpt>
 <trkpt lat="44.595313" lon="3.959116">
 <time>2011-05-19T16:28:16.3Z</time>
 </trkpt>
 <trkpt lat="44.595285" lon="3.958151">
 <time>2011-05-19T16:28:20.3Z</time>
 </trkpt>
 <trkpt lat="44.595448" lon="3.956511">
 <time>2011-05-19T16:28:24.3Z</time>
 </trkpt>
 <trkpt lat="44.595741" lon="3.955358">
 <time>2011-05-19T16:28:29.3Z</time>
 </trkpt>
 <trkpt lat="44.596368" lon="3.954207">
 <time>2011-05-19T16:28:34.3Z</time>
 </trkpt>
 <trkpt lat="44.59697" lon="3.953657">
 <time>2011-05-19T16:28:38.3Z</time>
 </trkpt>
 <trkpt lat="44.598346" lon="3.953373">
 <time>2011-05-19T16:28:44.9Z</time>
 </trkpt>
 <trkpt lat="44.598731" lon="3.953214">
 <time>2011-05-19T16:28:49.2Z</time>
 </trkpt>
 <trkpt lat="44.598688" lon="3.952907">
 <time>2011-05-19T16:28:53.2Z</time>
 </trkpt>
 <trkpt lat="44.597943" lon="3.952198">
 <time>2011-05-19T16:28:58.3Z</time>
 </trkpt>
 <trkpt lat="44.597707" lon="3.951661">
 <time>2011-05-19T16:29:02.3Z</time>
 </trkpt>
 <trkpt lat="44.597237" lon="3.951284">
 <time>2011-05-19T16:29:06.9Z</time>
 </trkpt>
 <trkpt lat="44.596667" lon="3.951177">
 <time>2011-05-19T16:29:11.2Z</time>
 </trkpt>
 <trkpt lat="44.596054" lon="3.950548">
 <time>2011-05-19T16:29:16.2Z</time>
 </trkpt>
 <trkpt lat="44.595064" lon="3.950237">
 <time>2011-05-19T16:29:21.9Z</time>
 </trkpt>
 <trkpt lat="44.594314" lon="3.949881">
 <time>2011-05-19T16:29:26.3Z</time>
 </trkpt>
 <trkpt lat="44.593865" lon="3.94869">
 <time>2011-05-19T16:29:31.2Z</time>
 </trkpt>
 <trkpt lat="44.593745" lon="3.946858">
 <time>2011-05-19T16:29:36.3Z</time>
 </trkpt>
 <trkpt lat="44.593688" lon="3.946054">
 <time>2011-05-19T16:29:40.3Z</time>
 </trkpt>
 <trkpt lat="44.593848" lon="3.945067">
 <time>2011-05-19T16:29:45.3Z</time>
 </trkpt>
 <trkpt lat="44.594393" lon="3.94417">
 <time>2011-05-19T16:29:49.9Z</time>
 </trkpt>
 <trkpt lat="44.59501" lon="3.943532">
 <time>2011-05-19T16:29:54.2Z</time>
 </trkpt>
 <trkpt lat="44.595843" lon="3.942783">
 <time>2011-05-19T16:29:58.9Z</time>
 </trkpt>
 <trkpt lat="44.596104" lon="3.941746">
 <time>2011-05-19T16:30:03.3Z</time>
 </trkpt>
 <trkpt lat="44.596015" lon="3.939467">
 <time>2011-05-19T16:30:08.9Z</time>
 </trkpt>
 <trkpt lat="44.595464" lon="3.934792">
 <time>2011-05-19T16:30:21.2Z</time>
 </trkpt>
 <trkpt lat="44.59509" lon="3.933471">
 <time>2011-05-19T16:30:25.9Z</time>
 </trkpt>
 <trkpt lat="44.594872" lon="3.932637">
 <time>2011-05-19T16:30:29.9Z</time>
 </trkpt>
 <trkpt lat="44.594858" lon="3.930957">
 <time>2011-05-19T16:30:34.9Z</time>
 </trkpt>
 <trkpt lat="44.594825" lon="3.929586">
 <time>2011-05-19T16:30:39.3Z</time>
 </trkpt>
 <trkpt lat="44.594371" lon="3.927606">
 <time>2011-05-19T16:30:43.3Z</time>
 </trkpt>
 <trkpt lat="44.593372" lon="3.923752">
 <time>2011-05-19T16:30:52.9Z</time>
 </trkpt>
 <trkpt lat="44.593001" lon="3.920754">
 <time>2011-05-19T16:31:01.3Z</time>
 </trkpt>
 <trkpt lat="44.592549" lon="3.919228">
 <time>2011-05-19T16:31:06.3Z</time>
 </trkpt>
 <trkpt lat="44.59185" lon="3.917558">
 <time>2011-05-19T16:31:11.3Z</time>
 </trkpt>
 <trkpt lat="44.590855" lon="3.915585">
 <time>2011-05-19T16:31:18.3Z</time>
 </trkpt>
 <trkpt lat="44.590447" lon="3.914788">
 <time>2011-05-19T16:31:24.9Z</time>
 </trkpt>
 <trkpt lat="44.590312" lon="3.914954">
 <time>2011-05-19T16:31:29.9Z</time>
 </trkpt>
 <trkpt lat="44.589918" lon="3.915107">
 <time>2011-05-19T16:31:34Z</time>
 </trkpt>
 <trkpt lat="44.588981" lon="3.915065">
 <time>2011-05-19T16:31:39.9Z</time>
 </trkpt>
 <trkpt lat="44.588485" lon="3.91487">
 <time>2011-05-19T16:31:43.9Z</time>
 </trkpt>
 <trkpt lat="44.58791" lon="3.914065">
 <time>2011-05-19T16:31:48.9Z</time>
 </trkpt>
 <trkpt lat="44.58738" lon="3.913045">
 <time>2011-05-19T16:31:54.3Z</time>
 </trkpt>
 <trkpt lat="44.586534" lon="3.912404">
 <time>2011-05-19T16:31:59.3Z</time>
 </trkpt>
 <trkpt lat="44.58599" lon="3.911536">
 <time>2011-05-19T16:32:03.9Z</time>
 </trkpt>
 <trkpt lat="44.585836" lon="3.910261">
 <time>2011-05-19T16:32:07.9Z</time>
 </trkpt>
 <trkpt lat="44.585679" lon="3.909268">
 <time>2011-05-19T16:32:12.3Z</time>
 </trkpt>
 <trkpt lat="44.585322" lon="3.907804">
 <time>2011-05-19T16:32:17.2Z</time>
 </trkpt>
 <trkpt lat="44.584681" lon="3.906547">
 <time>2011-05-19T16:32:22Z</time>
 </trkpt>
 <trkpt lat="44.58363" lon="3.905336">
 <time>2011-05-19T16:32:26.9Z</time>
 </trkpt>
 <trkpt lat="44.583097" lon="3.904858">
 <time>2011-05-19T16:32:30.9Z</time>
 </trkpt>
 <trkpt lat="44.582162" lon="3.904122">
 <time>2011-05-19T16:32:36.3Z</time>
 </trkpt>
 <trkpt lat="44.580999" lon="3.903522">
 <time>2011-05-19T16:32:41.3Z</time>
 </trkpt>
 <trkpt lat="44.57987" lon="3.903161">
 <time>2011-05-19T16:32:46.1Z</time>
 </trkpt>
 <trkpt lat="44.57869" lon="3.903021">
 <time>2011-05-19T16:32:50.9Z</time>
 </trkpt>
 <trkpt lat="44.577292" lon="3.903127">
 <time>2011-05-19T16:32:55.9Z</time>
 </trkpt>
 <trkpt lat="44.570977" lon="3.904677">
 <time>2011-05-19T16:33:13.9Z</time>
 </trkpt>
 <trkpt lat="44.570175" lon="3.904989">
 <time>2011-05-19T16:33:18.2Z</time>
 </trkpt>
 <trkpt lat="44.568149" lon="3.906292">
 <time>2011-05-19T16:33:27.2Z</time>
 </trkpt>
 <trkpt lat="44.567096" lon="3.90678">
 <time>2011-05-19T16:33:32.2Z</time>
 </trkpt>
 <trkpt lat="44.566483" lon="3.907353">
 <time>2011-05-19T16:33:37.2Z</time>
 </trkpt>
 <trkpt lat="44.565854" lon="3.908523">
 <time>2011-05-19T16:33:42.3Z</time>
 </trkpt>
 <trkpt lat="44.565382" lon="3.908976">
 <time>2011-05-19T16:33:46.3Z</time>
 </trkpt>
 <trkpt lat="44.564972" lon="3.909042">
 <time>2011-05-19T16:33:50.3Z</time>
 </trkpt>
 <trkpt lat="44.564251" lon="3.908851">
 <time>2011-05-19T16:33:55.2Z</time>
 </trkpt>
 <trkpt lat="44.563452" lon="3.908922">
 <time>2011-05-19T16:33:59.2Z</time>
 </trkpt>
 <trkpt lat="44.562225" lon="3.909377">
 <time>2011-05-19T16:34:04.2Z</time>
 </trkpt>
 <trkpt lat="44.561651" lon="3.909456">
 <time>2011-05-19T16:34:08.3Z</time>
 </trkpt>
 <trkpt lat="44.559993" lon="3.908793">
 <time>2011-05-19T16:34:15.3Z</time>
 </trkpt>
 <trkpt lat="44.559179" lon="3.909165">
 <time>2011-05-19T16:34:19.9Z</time>
 </trkpt>
 <trkpt lat="44.558336" lon="3.910367">
 <time>2011-05-19T16:34:24.9Z</time>
 </trkpt>
 <trkpt lat="44.557657" lon="3.911088">
 <time>2011-05-19T16:34:29Z</time>
 </trkpt>
 <trkpt lat="44.556033" lon="3.911816">
 <time>2011-05-19T16:34:36.2Z</time>
 </trkpt>
 <trkpt lat="44.55542" lon="3.912494">
 <time>2011-05-19T16:34:40.2Z</time>
 </trkpt>
 <trkpt lat="44.554834" lon="3.913933">
 <time>2011-05-19T16:34:45.9Z</time>
 </trkpt>
 <trkpt lat="44.55394" lon="3.914306">
 <time>2011-05-19T16:34:49.9Z</time>
 </trkpt>
 <trkpt lat="44.552772" lon="3.914391">
 <time>2011-05-19T16:34:54.9Z</time>
 </trkpt>
 <trkpt lat="44.551821" lon="3.914765">
 <time>2011-05-19T16:34:59.9Z</time>
 </trkpt>
 <trkpt lat="44.551238" lon="3.914389">
 <time>2011-05-19T16:35:03.9Z</time>
 </trkpt>
 <trkpt lat="44.551055" lon="3.913167">
 <time>2011-05-19T16:35:09.3Z</time>
 </trkpt>
 <trkpt lat="44.551551" lon="3.912243">
 <time>2011-05-19T16:35:13.2Z</time>
 </trkpt>
 <trkpt lat="44.551995" lon="3.911182">
 <time>2011-05-19T16:35:18.3Z</time>
 </trkpt>
 <trkpt lat="44.551388" lon="3.910326">
 <time>2011-05-19T16:35:23.9Z</time>
 </trkpt>
 <trkpt lat="44.550263" lon="3.91077">
 <time>2011-05-19T16:35:28.2Z</time>
 </trkpt>
 <trkpt lat="44.54914" lon="3.91124">
 <time>2011-05-19T16:35:32.2Z</time>
 </trkpt>
 <trkpt lat="44.547733" lon="3.912268">
 <time>2011-05-19T16:35:37.9Z</time>
 </trkpt>
 <trkpt lat="44.546812" lon="3.912978">
 <time>2011-05-19T16:35:42.2Z</time>
 </trkpt>
 <trkpt lat="44.545549" lon="3.913708">
 <time>2011-05-19T16:35:47.2Z</time>
 </trkpt>
 <trkpt lat="44.54485" lon="3.914241">
 <time>2011-05-19T16:35:51.9Z</time>
 </trkpt>
 <trkpt lat="44.54343" lon="3.915721">
 <time>2011-05-19T16:35:58.3Z</time>
 </trkpt>
 <trkpt lat="44.542312" lon="3.91623">
 <time>2011-05-19T16:36:03.2Z</time>
 </trkpt>
 <trkpt lat="44.540032" lon="3.916517">
 <time>2011-05-19T16:36:09.9Z</time>
 </trkpt>
 <trkpt lat="44.53929" lon="3.916426">
 <time>2011-05-19T16:36:14.2Z</time>
 </trkpt>
 <trkpt lat="44.53846" lon="3.916177">
 <time>2011-05-19T16:36:18.2Z</time>
 </trkpt>
 <trkpt lat="44.537746" lon="3.91644">
 <time>2011-05-19T16:36:23.3Z</time>
 </trkpt>
 <trkpt lat="44.537087" lon="3.916836">
 <time>2011-05-19T16:36:27.3Z</time>
 </trkpt>
 <trkpt lat="44.536295" lon="3.916867">
 <time>2011-05-19T16:36:32.2Z</time>
 </trkpt>
 <trkpt lat="44.535655" lon="3.916368">
 <time>2011-05-19T16:36:36.2Z</time>
 </trkpt>
 <trkpt lat="44.534894" lon="3.915924">
 <time>2011-05-19T16:36:40.9Z</time>
 </trkpt>
 <trkpt lat="44.534353" lon="3.915614">
 <time>2011-05-19T16:36:44.9Z</time>
 </trkpt>
 <trkpt lat="44.534059" lon="3.914669">
 <time>2011-05-19T16:36:49.9Z</time>
 </trkpt>
 <trkpt lat="44.533954" lon="3.913152">
 <time>2011-05-19T16:36:54.9Z</time>
 </trkpt>
 <trkpt lat="44.533921" lon="3.9119">
 <time>2011-05-19T16:37:00.9Z</time>
 </trkpt>
 <trkpt lat="44.533576" lon="3.911588">
 <time>2011-05-19T16:37:05.2Z</time>
 </trkpt>
 <trkpt lat="44.533033" lon="3.911516">
 <time>2011-05-19T16:37:09.2Z</time>
 </trkpt>
 <trkpt lat="44.532435" lon="3.912097">
 <time>2011-05-19T16:37:14Z</time>
 </trkpt>
 <trkpt lat="44.531826" lon="3.912074">
 <time>2011-05-19T16:37:18.3Z</time>
 </trkpt>
 <trkpt lat="44.531494" lon="3.911195">
 <time>2011-05-19T16:37:24.3Z</time>
 </trkpt>
 <trkpt lat="44.531122" lon="3.910578">
 <time>2011-05-19T16:37:28.9Z</time>
 </trkpt>
 <trkpt lat="44.530733" lon="3.910187">
 <time>2011-05-19T16:37:32.9Z</time>
 </trkpt>
 <trkpt lat="44.530567" lon="3.909632">
 <time>2011-05-19T16:37:37.2Z</time>
 </trkpt>
 <trkpt lat="44.530257" lon="3.909296">
 <time>2011-05-19T16:37:42.2Z</time>
 </trkpt>
 <trkpt lat="44.529748" lon="3.90911">
 <time>2011-05-19T16:37:46.9Z</time>
 </trkpt>
 <trkpt lat="44.529119" lon="3.909187">
 <time>2011-05-19T16:37:51.3Z</time>
 </trkpt>
 <trkpt lat="44.528422" lon="3.908904">
 <time>2011-05-19T16:37:56.3Z</time>
 </trkpt>
 <trkpt lat="44.527263" lon="3.908932">
 <time>2011-05-19T16:38:01.2Z</time>
 </trkpt>
 <trkpt lat="44.526612" lon="3.908841">
 <time>2011-05-19T16:38:05.2Z</time>
 </trkpt>
 <trkpt lat="44.525799" lon="3.908919">
 <time>2011-05-19T16:38:09.9Z</time>
 </trkpt>
 <trkpt lat="44.525319" lon="3.908577">
 <time>2011-05-19T16:38:14.2Z</time>
 </trkpt>
 <trkpt lat="44.524421" lon="3.908416">
 <time>2011-05-19T16:38:19.3Z</time>
 </trkpt>
 <trkpt lat="44.523712" lon="3.908502">
 <time>2011-05-19T16:38:23.3Z</time>
 </trkpt>
 <trkpt lat="44.522968" lon="3.908368">
 <time>2011-05-19T16:38:28.2Z</time>
 </trkpt>
 <trkpt lat="44.522325" lon="3.908376">
 <time>2011-05-19T16:38:33.3Z</time>
 </trkpt>
 <trkpt lat="44.520864" lon="3.908977">
 <time>2011-05-19T16:38:45.9Z</time>
 </trkpt>
 <trkpt lat="44.519857" lon="3.909595">
 <time>2011-05-19T16:38:54.9Z</time>
 </trkpt>
 <trkpt lat="44.519585" lon="3.909698">
 <time>2011-05-19T16:38:58.3Z</time>
 </trkpt>
 <trkpt lat="44.518754" lon="3.909403">
 <time>2011-05-19T16:39:03.9Z</time>
 </trkpt>
 <trkpt lat="44.517902" lon="3.909062">
 <time>2011-05-19T16:39:08.9Z</time>
 </trkpt>
 <trkpt lat="44.517027" lon="3.908351">
 <time>2011-05-19T16:39:15.9Z</time>
 </trkpt>
 <trkpt lat="44.516536" lon="3.908452">
 <time>2011-05-19T16:39:20.3Z</time>
 </trkpt>
 <trkpt lat="44.515819" lon="3.909226">
 <time>2011-05-19T16:39:25.2Z</time>
 </trkpt>
 <trkpt lat="44.515649" lon="3.910301">
 <time>2011-05-19T16:39:29.2Z</time>
 </trkpt>
 <trkpt lat="44.515426" lon="3.911548">
 <time>2011-05-19T16:39:34.2Z</time>
 </trkpt>
 <trkpt lat="44.514976" lon="3.912406">
 <time>2011-05-19T16:39:38.3Z</time>
 </trkpt>
 <trkpt lat="44.514028" lon="3.913011">
 <time>2011-05-19T16:39:44.3Z</time>
 </trkpt>
 <trkpt lat="44.513069" lon="3.912685">
 <time>2011-05-19T16:39:48.9Z</time>
 </trkpt>
 <trkpt lat="44.512531" lon="3.911693">
 <time>2011-05-19T16:39:52.9Z</time>
 </trkpt>
 <trkpt lat="44.512474" lon="3.910443">
 <time>2011-05-19T16:39:57.9Z</time>
 </trkpt>
 <trkpt lat="44.512454" lon="3.909349">
 <time>2011-05-19T16:40:01.9Z</time>
 </trkpt>
 <trkpt lat="44.511906" lon="3.908758">
 <time>2011-05-19T16:40:07.2Z</time>
 </trkpt>
 <trkpt lat="44.510905" lon="3.909361">
 <time>2011-05-19T16:40:12.2Z</time>
 </trkpt>
 <trkpt lat="44.509497" lon="3.909793">
 <time>2011-05-19T16:40:17.3Z</time>
 </trkpt>
 <trkpt lat="44.508428" lon="3.910472">
 <time>2011-05-19T16:40:22.9Z</time>
 </trkpt>
 <trkpt lat="44.506134" lon="3.912926">
 <time>2011-05-19T16:40:34Z</time>
 </trkpt>
 <trkpt lat="44.505784" lon="3.913124">
 <time>2011-05-19T16:40:37.3Z</time>
 </trkpt>
 <trkpt lat="44.504724" lon="3.912698">
 <time>2011-05-19T16:40:42.3Z</time>
 </trkpt>
 <trkpt lat="44.503701" lon="3.912853">
 <time>2011-05-19T16:40:47.3Z</time>
 </trkpt>
 <trkpt lat="44.503069" lon="3.91356">
 <time>2011-05-19T16:40:52.3Z</time>
 </trkpt>
 <trkpt lat="44.502465" lon="3.915069">
 <time>2011-05-19T16:40:56.9Z</time>
 </trkpt>
 <trkpt lat="44.502088" lon="3.916259">
 <time>2011-05-19T16:41:00.9Z</time>
 </trkpt>
 <trkpt lat="44.501782" lon="3.916923">
 <time>2011-05-19T16:41:05.9Z</time>
 </trkpt>
 <trkpt lat="44.500928" lon="3.9171">
 <time>2011-05-19T16:41:10.9Z</time>
 </trkpt>
 <trkpt lat="44.49878" lon="3.917316">
 <time>2011-05-19T16:41:18.9Z</time>
 </trkpt>
 <trkpt lat="44.49757" lon="3.917634">
 <time>2011-05-19T16:41:24Z</time>
 </trkpt>
 <trkpt lat="44.496455" lon="3.918056">
 <time>2011-05-19T16:41:28.9Z</time>
 </trkpt>
 <trkpt lat="44.495034" lon="3.918987">
 <time>2011-05-19T16:41:33.9Z</time>
 </trkpt>
 <trkpt lat="44.494007" lon="3.920132">
 <time>2011-05-19T16:41:37.9Z</time>
 </trkpt>
 <trkpt lat="44.492634" lon="3.921852">
 <time>2011-05-19T16:41:46.2Z</time>
 </trkpt>
 <trkpt lat="44.492286" lon="3.923086">
 <time>2011-05-19T16:41:51.3Z</time>
 </trkpt>
 <trkpt lat="44.491965" lon="3.925563">
 <time>2011-05-19T16:41:57.3Z</time>
 </trkpt>
 <trkpt lat="44.49154" lon="3.926744">
 <time>2011-05-19T16:42:02.3Z</time>
 </trkpt>
 <trkpt lat="44.490628" lon="3.927804">
 <time>2011-05-19T16:42:07.3Z</time>
 </trkpt>
 <trkpt lat="44.489518" lon="3.92822">
 <time>2011-05-19T16:42:12.3Z</time>
 </trkpt>
 <trkpt lat="44.486155" lon="3.928407">
 <time>2011-05-19T16:42:25.3Z</time>
 </trkpt>
 <trkpt lat="44.481919" lon="3.929572">
 <time>2011-05-19T16:42:43.3Z</time>
 </trkpt>
 <trkpt lat="44.481068" lon="3.929601">
 <time>2011-05-19T16:42:48.3Z</time>
 </trkpt>
 <trkpt lat="44.480032" lon="3.929255">
 <time>2011-05-19T16:42:53.3Z</time>
 </trkpt>
 <trkpt lat="44.479042" lon="3.929616">
 <time>2011-05-19T16:42:58.3Z</time>
 </trkpt>
 <trkpt lat="44.477817" lon="3.93091">
 <time>2011-05-19T16:43:06.3Z</time>
 </trkpt>
 <trkpt lat="44.477743" lon="3.931085">
 <time>2011-05-19T16:43:10.3Z</time>
 </trkpt>
 <trkpt lat="44.477716" lon="3.932946">
 <time>2011-05-19T16:43:23.3Z</time>
 </trkpt>
 <trkpt lat="44.477756" lon="3.933247">
 <time>2011-05-19T16:43:28.9Z</time>
 </trkpt>
 <trkpt lat="44.477841" lon="3.933814">
 <time>2011-05-19T16:43:33.9Z</time>
 </trkpt>
 <trkpt lat="44.477848" lon="3.934007">
 <time>2011-05-19T16:46:41Z</time>
 </trkpt>
 <trkpt lat="44.477878" lon="3.934192">
 <time>2011-05-19T16:46:55.3Z</time>
 </trkpt>
 <trkpt lat="44.477742" lon="3.934284">
 <time>2011-05-19T16:47:04.3Z</time>
 </trkpt>
 <trkpt lat="44.477723" lon="3.93429">
 <time>2011-05-19T16:47:05.3Z</time>
 </trkpt>
 </trkseg>
 <trkseg>
 <trkpt lat="44.477593" lon="3.934279">
 <time>2011-05-19T16:47:13.3Z</time>
 </trkpt>
 <trkpt lat="44.477711" lon="3.934426">
 <time>2011-05-19T16:47:19.3Z</time>
 </trkpt>
 <trkpt lat="44.477794" lon="3.93458">
 <time>2011-05-19T16:47:24.3Z</time>
 </trkpt>
 </trkseg>
 <trkseg>
 <trkpt lat="44.4778" lon="3.934592">
 <time>2011-05-19T16:47:40.3Z</time>
 </trkpt>
 <trkpt lat="44.477802" lon="3.934588">
 <time>2011-05-19T16:47:50.3Z</time>
 </trkpt>
 </trkseg>
 <trkseg>
 <trkpt lat="44.477705" lon="3.934657">
 <time>2011-05-19T16:52:42.3Z</time>
 </trkpt>
 <trkpt lat="44.47741" lon="3.93466">
 <time>2011-05-19T16:53:22.3Z</time>
 </trkpt>
 </trkseg>
 <trkseg>
 <trkpt lat="44.477557" lon="3.93449">
 <time>2011-05-19T16:54:17.3Z</time>
 </trkpt>
 <trkpt lat="44.477624" lon="3.934324">
 <time>2011-05-19T16:54:26.3Z</time>
 </trkpt>
 </trkseg>
 <trkseg>
 <trkpt lat="44.477658" lon="3.934406">
 <time>2011-05-19T16:58:29.9Z</time>
 </trkpt>
 <trkpt lat="44.477683" lon="3.934654">
 <time>2011-05-19T16:58:34.2Z</time>
 </trkpt>
 <trkpt lat="44.477551" lon="3.934748">
 <time>2011-05-19T16:58:43.2Z</time>
 </trkpt>
 <trkpt lat="44.47746" lon="3.934898">
 <time>2011-05-19T16:58:55.2Z</time>
 </trkpt>
 <trkpt lat="44.477416" lon="3.935084">
 <time>2011-05-19T16:59:08.2Z</time>
 </trkpt>
 <trkpt lat="44.477284" lon="3.935151">
 <time>2011-05-19T16:59:20.2Z</time>
 </trkpt>
 <trkpt lat="44.47724" lon="3.935162">
 <time>2011-05-19T16:59:28.2Z</time>
 </trkpt>
 </trkseg>
 <trkseg>
 <trkpt lat="44.477248" lon="3.935167">
 <time>2011-05-19T16:59:36.2Z</time>
 </trkpt>
 </trkseg>
 <trkseg>
 <trkpt lat="44.476874" lon="3.934606">
 <time>2011-05-20T07:41:20.5Z</time>
 </trkpt>
 </trkseg>
 <trkseg>
 <trkpt lat="44.477096" lon="3.934594">
 <time>2011-05-20T07:52:46.2Z</time>
 </trkpt>
 <trkpt lat="44.477653" lon="3.934489">
 <time>2011-05-20T07:52:53.2Z</time>
 </trkpt>
 <trkpt lat="44.477791" lon="3.934498">
 <time>2011-05-20T07:58:45.2Z</time>
 </trkpt>
 <trkpt lat="44.477743" lon="3.934523">
 <time>2011-05-20T08:00:21.2Z</time>
 </trkpt>
 </trkseg>
 <trkseg>
 <trkpt lat="44.477753" lon="3.934392">
 <time>2011-05-20T08:01:48.2Z</time>
 </trkpt>
 </trkseg>
 <trkseg>
 <trkpt lat="44.477762" lon="3.934388">
 <time>2011-05-20T08:01:50.2Z</time>
 </trkpt>
 <trkpt lat="44.477849" lon="3.934223">
 <time>2011-05-20T08:01:59.2Z</time>
 </trkpt>
 <trkpt lat="44.477762" lon="3.934017">
 <time>2011-05-20T08:02:04.2Z</time>
 </trkpt>
 <trkpt lat="44.477805" lon="3.934203">
 <time>2011-05-20T08:03:04.2Z</time>
 </trkpt>
 <trkpt lat="44.477776" lon="3.934396">
 <time>2011-05-20T08:03:20.2Z</time>
 </trkpt>
 </trkseg>
 <trkseg>
 <trkpt lat="44.477734" lon="3.934441">
 <time>2011-05-20T08:06:46.2Z</time>
 </trkpt>
 <trkpt lat="44.477732" lon="3.934441">
 <time>2011-05-20T08:08:12.2Z</time>
 </trkpt>
 </trkseg>
 <trkseg>
 <trkpt lat="44.47774" lon="3.934437">
 <time>2011-05-20T08:10:42.2Z</time>
 </trkpt>
 <trkpt lat="44.477741" lon="3.934436">
 <time>2011-05-20T08:11:00.2Z</time>
 </trkpt>
 </trkseg>
 <trkseg>
 <trkpt lat="44.477742" lon="3.934437">
 <time>2011-05-20T08:12:03.2Z</time>
 </trkpt>
 <trkpt lat="44.477743" lon="3.934436">
 <time>2011-05-20T08:13:25.2Z</time>
 </trkpt>
 </trkseg>
 <trkseg>
 <trkpt lat="44.477772" lon="3.933868">
 <time>2011-05-20T08:17:05.9Z</time>
 </trkpt>
 <trkpt lat="44.477793" lon="3.933639">
 <time>2011-05-20T08:24:34.9Z</time>
 </trkpt>
 <trkpt lat="44.477742" lon="3.933296">
 <time>2011-05-20T08:24:39.2Z</time>
 </trkpt>
 <trkpt lat="44.477736" lon="3.932807">
 <time>2011-05-20T08:24:44.2Z</time>
 </trkpt>
 <trkpt lat="44.477847" lon="3.931934">
 <time>2011-05-20T08:24:51.2Z</time>
 </trkpt>
 <trkpt lat="44.477866" lon="3.931454">
 <time>2011-05-20T08:24:55.2Z</time>
 </trkpt>
 <trkpt lat="44.477883" lon="3.931184">
 <time>2011-05-20T08:24:59.9Z</time>
 </trkpt>
 <trkpt lat="44.477833" lon="3.931009">
 <time>2011-05-20T08:25:05.2Z</time>
 </trkpt>
 <trkpt lat="44.477691" lon="3.931113">
 <time>2011-05-20T08:25:10.2Z</time>
 </trkpt>
 <trkpt lat="44.477084" lon="3.93169">
 <time>2011-05-20T08:25:15.2Z</time>
 </trkpt>
 <trkpt lat="44.4766" lon="3.932375">
 <time>2011-05-20T08:25:19.2Z</time>
 </trkpt>
 <trkpt lat="44.475682" lon="3.933839">
 <time>2011-05-20T08:25:25.9Z</time>
 </trkpt>
 <trkpt lat="44.475163" lon="3.934307">
 <time>2011-05-20T08:25:30.2Z</time>
 </trkpt>
 <trkpt lat="44.473951" lon="3.934903">
 <time>2011-05-20T08:25:35.9Z</time>
 </trkpt>
 <trkpt lat="44.472908" lon="3.934959">
 <time>2011-05-20T08:25:40.9Z</time>
 </trkpt>
 <trkpt lat="44.4718" lon="3.934979">
 <time>2011-05-20T08:25:45.9Z</time>
 </trkpt>
 <trkpt lat="44.470704" lon="3.934818">
 <time>2011-05-20T08:25:50.9Z</time>
 </trkpt>
 <trkpt lat="44.469837" lon="3.934612">
 <time>2011-05-20T08:25:55.9Z</time>
 </trkpt>
 <trkpt lat="44.469004" lon="3.935125">
 <time>2011-05-20T08:26:00.9Z</time>
 </trkpt>
 <trkpt lat="44.466964" lon="3.936615">
 <time>2011-05-20T08:26:10.9Z</time>
 </trkpt>
 <trkpt lat="44.466342" lon="3.937344">
 <time>2011-05-20T08:26:15.9Z</time>
 </trkpt>
 <trkpt lat="44.465473" lon="3.938768">
 <time>2011-05-20T08:26:20.9Z</time>
 </trkpt>
 <trkpt lat="44.464966" lon="3.939894">
 <time>2011-05-20T08:26:25.9Z</time>
 </trkpt>
 <trkpt lat="44.464352" lon="3.941764">
 <time>2011-05-20T08:26:30.9Z</time>
 </trkpt>
 <trkpt lat="44.464088" lon="3.942984">
 <time>2011-05-20T08:26:35.9Z</time>
 </trkpt>
 <trkpt lat="44.463547" lon="3.943562">
 <time>2011-05-20T08:26:40.9Z</time>
 </trkpt>
 <trkpt lat="44.462975" lon="3.94444">
 <time>2011-05-20T08:26:44.9Z</time>
 </trkpt>
 <trkpt lat="44.462621" lon="3.945287">
 <time>2011-05-20T08:26:48.9Z</time>
 </trkpt>
 <trkpt lat="44.461947" lon="3.946394">
 <time>2011-05-20T08:26:54.9Z</time>
 </trkpt>
 <trkpt lat="44.461532" lon="3.946631">
 <time>2011-05-20T08:26:59.9Z</time>
 </trkpt>
 <trkpt lat="44.461211" lon="3.946232">
 <time>2011-05-20T08:27:03.9Z</time>
 </trkpt>
 <trkpt lat="44.461029" lon="3.945802">
 <time>2011-05-20T08:27:07.9Z</time>
 </trkpt>
 <trkpt lat="44.460641" lon="3.94528">
 <time>2011-05-20T08:27:12.2Z</time>
 </trkpt>
 <trkpt lat="44.460361" lon="3.944424">
 <time>2011-05-20T08:27:16.9Z</time>
 </trkpt>
 <trkpt lat="44.460108" lon="3.944127">
 <time>2011-05-20T08:27:20.9Z</time>
 </trkpt>
 <trkpt lat="44.459597" lon="3.943912">
 <time>2011-05-20T08:27:26.2Z</time>
 </trkpt>
 <trkpt lat="44.458969" lon="3.943639">
 <time>2011-05-20T08:27:30.9Z</time>
 </trkpt>
 <trkpt lat="44.458909" lon="3.942862">
 <time>2011-05-20T08:27:34.9Z</time>
 </trkpt>
 <trkpt lat="44.459117" lon="3.942197">
 <time>2011-05-20T08:27:39.2Z</time>
 </trkpt>
 <trkpt lat="44.459016" lon="3.941357">
 <time>2011-05-20T08:27:43.9Z</time>
 </trkpt>
 <trkpt lat="44.458434" lon="3.941064">
 <time>2011-05-20T08:27:48.9Z</time>
 </trkpt>
 <trkpt lat="44.457914" lon="3.940957">
 <time>2011-05-20T08:27:52.9Z</time>
 </trkpt>
 <trkpt lat="44.457798" lon="3.940148">
 <time>2011-05-20T08:27:57.9Z</time>
 </trkpt>
 <trkpt lat="44.457776" lon="3.939351">
 <time>2011-05-20T08:28:02.9Z</time>
 </trkpt>
 <trkpt lat="44.457285" lon="3.939122">
 <time>2011-05-20T08:28:07.9Z</time>
 </trkpt>
 <trkpt lat="44.456913" lon="3.938755">
 <time>2011-05-20T08:28:12.9Z</time>
 </trkpt>
 <trkpt lat="44.45705" lon="3.938099">
 <time>2011-05-20T08:28:18.2Z</time>
 </trkpt>
 <trkpt lat="44.457049" lon="3.937504">
 <time>2011-05-20T08:28:22.9Z</time>
 </trkpt>
 <trkpt lat="44.457241" lon="3.936695">
 <time>2011-05-20T08:28:27.9Z</time>
 </trkpt>
 <trkpt lat="44.457291" lon="3.935914">
 <time>2011-05-20T08:28:32.2Z</time>
 </trkpt>
 <trkpt lat="44.456963" lon="3.934977">
 <time>2011-05-20T08:28:37.2Z</time>
 </trkpt>
 <trkpt lat="44.456289" lon="3.934505">
 <time>2011-05-20T08:28:42.9Z</time>
 </trkpt>
 <trkpt lat="44.456236" lon="3.933995">
 <time>2011-05-20T08:28:47.9Z</time>
 </trkpt>
 <trkpt lat="44.456188" lon="3.933194">
 <time>2011-05-20T08:28:52.9Z</time>
 </trkpt>
 <trkpt lat="44.456022" lon="3.932414">
 <time>2011-05-20T08:28:57.9Z</time>
 </trkpt>
 <trkpt lat="44.45643" lon="3.93169">
 <time>2011-05-20T08:29:02.9Z</time>
 </trkpt>
 <trkpt lat="44.45734" lon="3.931138">
 <time>2011-05-20T08:29:07.9Z</time>
 </trkpt>
 <trkpt lat="44.45815" lon="3.930717">
 <time>2011-05-20T08:29:11.9Z</time>
 </trkpt>
 <trkpt lat="44.459048" lon="3.929672">
 <time>2011-05-20T08:29:17.9Z</time>
 </trkpt>
 <trkpt lat="44.45939" lon="3.929627">
 <time>2011-05-20T08:29:21.9Z</time>
 </trkpt>
 <trkpt lat="44.460093" lon="3.930134">
 <time>2011-05-20T08:29:26.9Z</time>
 </trkpt>
 <trkpt lat="44.46048" lon="3.930012">
 <time>2011-05-20T08:29:31.9Z</time>
 </trkpt>
 <trkpt lat="44.460352" lon="3.929584">
 <time>2011-05-20T08:29:35.9Z</time>
 </trkpt>
 <trkpt lat="44.459482" lon="3.929089">
 <time>2011-05-20T08:29:39.9Z</time>
 </trkpt>
 <trkpt lat="44.458494" lon="3.929247">
 <time>2011-05-20T08:29:44.9Z</time>
 </trkpt>
 <trkpt lat="44.457581" lon="3.929815">
 <time>2011-05-20T08:29:49.9Z</time>
 </trkpt>
 <trkpt lat="44.456484" lon="3.929984">
 <time>2011-05-20T08:29:54.9Z</time>
 </trkpt>
 <trkpt lat="44.455669" lon="3.930481">
 <time>2011-05-20T08:29:59.9Z</time>
 </trkpt>
 <trkpt lat="44.454978" lon="3.931377">
 <time>2011-05-20T08:30:04.9Z</time>
 </trkpt>
 <trkpt lat="44.454909" lon="3.931963">
 <time>2011-05-20T08:30:09.9Z</time>
 </trkpt>
 <trkpt lat="44.454612" lon="3.932127">
 <time>2011-05-20T08:30:14.9Z</time>
 </trkpt>
 <trkpt lat="44.454085" lon="3.931711">
 <time>2011-05-20T08:30:20.9Z</time>
 </trkpt>
 <trkpt lat="44.45373" lon="3.931694">
 <time>2011-05-20T08:30:24.9Z</time>
 </trkpt>
 <trkpt lat="44.452827" lon="3.9316">
 <time>2011-05-20T08:30:30.9Z</time>
 </trkpt>
 <trkpt lat="44.452169" lon="3.931922">
 <time>2011-05-20T08:30:35.9Z</time>
 </trkpt>
 <trkpt lat="44.451546" lon="3.932266">
 <time>2011-05-20T08:30:40.2Z</time>
 </trkpt>
 <trkpt lat="44.450721" lon="3.931686">
 <time>2011-05-20T08:30:44.9Z</time>
 </trkpt>
 <trkpt lat="44.449132" lon="3.930533">
 <time>2011-05-20T08:30:54.9Z</time>
 </trkpt>
 <trkpt lat="44.448771" lon="3.930308">
 <time>2011-05-20T08:30:59.9Z</time>
 </trkpt>
 <trkpt lat="44.448483" lon="3.930265">
 <time>2011-05-20T08:31:04.9Z</time>
 </trkpt>
 <trkpt lat="44.44815" lon="3.930515">
 <time>2011-05-20T08:31:08.9Z</time>
 </trkpt>
 <trkpt lat="44.447228" lon="3.930429">
 <time>2011-05-20T08:31:13.9Z</time>
 </trkpt>
 <trkpt lat="44.445878" lon="3.929776">
 <time>2011-05-20T08:31:18.9Z</time>
 </trkpt>
 <trkpt lat="44.445004" lon="3.929889">
 <time>2011-05-20T08:31:23.9Z</time>
 </trkpt>
 <trkpt lat="44.444185" lon="3.930909">
 <time>2011-05-20T08:31:27.9Z</time>
 </trkpt>
 <trkpt lat="44.444052" lon="3.931934">
 <time>2011-05-20T08:31:32.9Z</time>
 </trkpt>
 <trkpt lat="44.444146" lon="3.932473">
 <time>2011-05-20T08:31:37.9Z</time>
 </trkpt>
 <trkpt lat="44.444201" lon="3.932659">
 <time>2011-05-20T08:31:42.9Z</time>
 </trkpt>
 <trkpt lat="44.444177" lon="3.932948">
 <time>2011-05-20T08:31:47.9Z</time>
 </trkpt>
 <trkpt lat="44.444016" lon="3.933394">
 <time>2011-05-20T08:31:51.9Z</time>
 </trkpt>
 <trkpt lat="44.443597" lon="3.933486">
 <time>2011-05-20T08:31:56.2Z</time>
 </trkpt>
 <trkpt lat="44.442975" lon="3.932961">
 <time>2011-05-20T08:32:00.9Z</time>
 </trkpt>
 <trkpt lat="44.442125" lon="3.931989">
 <time>2011-05-20T08:32:13.2Z</time>
 </trkpt>
 <trkpt lat="44.441937" lon="3.931874">
 <time>2011-05-20T08:32:17.9Z</time>
 </trkpt>
 <trkpt lat="44.441534" lon="3.931868">
 <time>2011-05-20T08:32:23.2Z</time>
 </trkpt>
 <trkpt lat="44.440803" lon="3.931904">
 <time>2011-05-20T08:32:30.9Z</time>
 </trkpt>
 <trkpt lat="44.440557" lon="3.931941">
 <time>2011-05-20T08:32:35.9Z</time>
 </trkpt>
 <trkpt lat="44.439913" lon="3.932055">
 <time>2011-05-20T08:32:46.9Z</time>
 </trkpt>
 <trkpt lat="44.439402" lon="3.932182">
 <time>2011-05-20T08:32:56.2Z</time>
 </trkpt>
 <trkpt lat="44.438764" lon="3.932243">
 <time>2011-05-20T08:33:03.9Z</time>
 </trkpt>
 <trkpt lat="44.438283" lon="3.93242">
 <time>2011-05-20T08:33:10Z</time>
 </trkpt>
 <trkpt lat="44.43805" lon="3.932554">
 <time>2011-05-20T08:33:14.2Z</time>
 </trkpt>
 <trkpt lat="44.437731" lon="3.933019">
 <time>2011-05-20T08:33:19.9Z</time>
 </trkpt>
 <trkpt lat="44.437454" lon="3.933168">
 <time>2011-05-20T08:33:24.9Z</time>
 </trkpt>
 <trkpt lat="44.43713" lon="3.933223">
 <time>2011-05-20T08:33:29.2Z</time>
 </trkpt>
 <trkpt lat="44.436484" lon="3.933178">
 <time>2011-05-20T08:33:38.9Z</time>
 </trkpt>
 <trkpt lat="44.436179" lon="3.933212">
 <time>2011-05-20T08:33:44.2Z</time>
 </trkpt>
 <trkpt lat="44.436043" lon="3.933156">
 <time>2011-05-20T08:33:56.9Z</time>
 </trkpt>
 <trkpt lat="44.435876" lon="3.933145">
 <time>2011-05-20T08:34:01.9Z</time>
 </trkpt>
 <trkpt lat="44.435456" lon="3.933184">
 <time>2011-05-20T08:34:06.9Z</time>
 </trkpt>
 <trkpt lat="44.435099" lon="3.933228">
 <time>2011-05-20T08:34:10.9Z</time>
 </trkpt>
 <trkpt lat="44.434936" lon="3.933361">
 <time>2011-05-20T08:34:16.9Z</time>
 </trkpt>
 <trkpt lat="44.435122" lon="3.933356">
 <time>2011-05-20T08:41:53.9Z</time>
 </trkpt>
 <trkpt lat="44.435541" lon="3.933313">
 <time>2011-05-20T08:41:58.2Z</time>
 </trkpt>
 <trkpt lat="44.436505" lon="3.933223">
 <time>2011-05-20T08:42:02.9Z</time>
 </trkpt>
 <trkpt lat="44.437261" lon="3.933195">
 <time>2011-05-20T08:42:07.9Z</time>
 </trkpt>
 <trkpt lat="44.437663" lon="3.933125">
 <time>2011-05-20T08:42:12.9Z</time>
 </trkpt>
 <trkpt lat="44.437917" lon="3.932941">
 <time>2011-05-20T08:42:17.2Z</time>
 </trkpt>
 <trkpt lat="44.438433" lon="3.932228">
 <time>2011-05-20T08:42:22.9Z</time>
 </trkpt>
 <trkpt lat="44.438941" lon="3.9321">
 <time>2011-05-20T08:42:27.9Z</time>
 </trkpt>
 <trkpt lat="44.439448" lon="3.93211">
 <time>2011-05-20T08:42:32.9Z</time>
 </trkpt>
 <trkpt lat="44.439797" lon="3.931943">
 <time>2011-05-20T08:42:37.9Z</time>
 </trkpt>
 <trkpt lat="44.439966" lon="3.931954">
 <time>2011-05-20T08:42:42.9Z</time>
 </trkpt>
 <trkpt lat="44.440224" lon="3.932046">
 <time>2011-05-20T08:42:47.9Z</time>
 </trkpt>
 <trkpt lat="44.440719" lon="3.932037">
 <time>2011-05-20T08:42:55.9Z</time>
 </trkpt>
 <trkpt lat="44.440851" lon="3.931978">
 <time>2011-05-20T08:43:00.9Z</time>
 </trkpt>
 <trkpt lat="44.440725" lon="3.931904">
 <time>2011-05-20T08:44:02.2Z</time>
 </trkpt>
 </trkseg>
 <trkseg>
 <trkpt lat="44.440682" lon="3.931742">
 <time>2011-05-20T08:50:18.2Z</time>
 </trkpt>
 <trkpt lat="44.440692" lon="3.931786">
 <time>2011-05-20T09:00:18.2Z</time>
 </trkpt>
 <trkpt lat="44.440723" lon="3.931908">
 <time>2011-05-20T09:10:18.2Z</time>
 </trkpt>
 <trkpt lat="44.440848" lon="3.931984">
 <time>2011-05-20T09:12:11.2Z</time>
 </trkpt>
 <trkpt lat="44.440989" lon="3.931976">
 <time>2011-05-20T09:15:07.9Z</time>
 </trkpt>
 <trkpt lat="44.441425" lon="3.931861">
 <time>2011-05-20T09:15:12.9Z</time>
 </trkpt>
 <trkpt lat="44.441881" lon="3.931889">
 <time>2011-05-20T09:15:17.9Z</time>
 </trkpt>
 <trkpt lat="44.442326" lon="3.932239">
 <time>2011-05-20T09:15:22.9Z</time>
 </trkpt>
 <trkpt lat="44.442612" lon="3.932547">
 <time>2011-05-20T09:15:27.9Z</time>
 </trkpt>
 <trkpt lat="44.442967" lon="3.93288">
 <time>2011-05-20T09:15:32.9Z</time>
 </trkpt>
 <trkpt lat="44.443417" lon="3.933377">
 <time>2011-05-20T09:15:37.2Z</time>
 </trkpt>
 <trkpt lat="44.444" lon="3.933482">
 <time>2011-05-20T09:15:42.9Z</time>
 </trkpt>
 <trkpt lat="44.444244" lon="3.933008">
 <time>2011-05-20T09:15:46.9Z</time>
 </trkpt>
 <trkpt lat="44.444297" lon="3.93195">
 <time>2011-05-20T09:15:51.9Z</time>
 </trkpt>
 <trkpt lat="44.444476" lon="3.930545">
 <time>2011-05-20T09:15:55.9Z</time>
 </trkpt>
 <trkpt lat="44.444939" lon="3.929835">
 <time>2011-05-20T09:16:00.9Z</time>
 </trkpt>
 <trkpt lat="44.446013" lon="3.929657">
 <time>2011-05-20T09:16:04.9Z</time>
 </trkpt>
 <trkpt lat="44.446533" lon="3.929878">
 <time>2011-05-20T09:16:08.9Z</time>
 </trkpt>
 <trkpt lat="44.447179" lon="3.930308">
 <time>2011-05-20T09:16:13.9Z</time>
 </trkpt>
 <trkpt lat="44.447907" lon="3.930536">
 <time>2011-05-20T09:16:18.9Z</time>
 </trkpt>
 <trkpt lat="44.448452" lon="3.930506">
 <time>2011-05-20T09:16:23.9Z</time>
 </trkpt>
 <trkpt lat="44.448709" lon="3.930406">
 <time>2011-05-20T09:16:28.9Z</time>
 </trkpt>
 <trkpt lat="44.448678" lon="3.929924">
 <time>2011-05-20T09:16:33.9Z</time>
 </trkpt>
 <trkpt lat="44.448855" lon="3.928996">
 <time>2011-05-20T09:16:38.9Z</time>
 </trkpt>
 <trkpt lat="44.449351" lon="3.927487">
 <time>2011-05-20T09:16:43.9Z</time>
 </trkpt>
 <trkpt lat="44.449954" lon="3.926">
 <time>2011-05-20T09:16:48.9Z</time>
 </trkpt>
 <trkpt lat="44.450291" lon="3.924443">
 <time>2011-05-20T09:16:53.9Z</time>
 </trkpt>
 <trkpt lat="44.450136" lon="3.922828">
 <time>2011-05-20T09:16:58.9Z</time>
 </trkpt>
 <trkpt lat="44.449905" lon="3.920874">
 <time>2011-05-20T09:17:04.9Z</time>
 </trkpt>
 <trkpt lat="44.449569" lon="3.920129">
 <time>2011-05-20T09:17:09.9Z</time>
 </trkpt>
 <trkpt lat="44.448544" lon="3.919311">
 <time>2011-05-20T09:17:14.9Z</time>
 </trkpt>
 <trkpt lat="44.44809" lon="3.918436">
 <time>2011-05-20T09:17:19.9Z</time>
 </trkpt>
 <trkpt lat="44.448054" lon="3.917424">
 <time>2011-05-20T09:17:23.9Z</time>
 </trkpt>
 <trkpt lat="44.448417" lon="3.916093">
 <time>2011-05-20T09:17:28.9Z</time>
 </trkpt>
 <trkpt lat="44.448102" lon="3.914638">
 <time>2011-05-20T09:17:33.9Z</time>
 </trkpt>
 <trkpt lat="44.44786" lon="3.913374">
 <time>2011-05-20T09:17:38.9Z</time>
 </trkpt>
 <trkpt lat="44.448278" lon="3.912751">
 <time>2011-05-20T09:17:42.9Z</time>
 </trkpt>
 <trkpt lat="44.449765" lon="3.912153">
 <time>2011-05-20T09:17:48.9Z</time>
 </trkpt>
 <trkpt lat="44.450527" lon="3.911969">
 <time>2011-05-20T09:17:53.9Z</time>
 </trkpt>
 <trkpt lat="44.451338" lon="3.911825">
 <time>2011-05-20T09:17:58.9Z</time>
 </trkpt>
 <trkpt lat="44.451647" lon="3.911404">
 <time>2011-05-20T09:18:02.9Z</time>
 </trkpt>
 <trkpt lat="44.451307" lon="3.910606">
 <time>2011-05-20T09:18:06.9Z</time>
 </trkpt>
 <trkpt lat="44.450636" lon="3.909733">
 <time>2011-05-20T09:18:11.9Z</time>
 </trkpt>
 <trkpt lat="44.450047" lon="3.908174">
 <time>2011-05-20T09:18:17.9Z</time>
 </trkpt>
 <trkpt lat="44.449561" lon="3.906975">
 <time>2011-05-20T09:18:22.9Z</time>
 </trkpt>
 <trkpt lat="44.449506" lon="3.906218">
 <time>2011-05-20T09:18:27.9Z</time>
 </trkpt>
 <trkpt lat="44.450375" lon="3.906021">
 <time>2011-05-20T09:18:33.2Z</time>
 </trkpt>
 <trkpt lat="44.451486" lon="3.905937">
 <time>2011-05-20T09:18:37.2Z</time>
 </trkpt>
 <trkpt lat="44.452044" lon="3.905239">
 <time>2011-05-20T09:18:41.9Z</time>
 </trkpt>
 <trkpt lat="44.452373" lon="3.9044">
 <time>2011-05-20T09:18:46.2Z</time>
 </trkpt>
 <trkpt lat="44.452012" lon="3.903208">
 <time>2011-05-20T09:18:50.9Z</time>
 </trkpt>
 <trkpt lat="44.451654" lon="3.902322">
 <time>2011-05-20T09:18:55.9Z</time>
 </trkpt>
 <trkpt lat="44.451972" lon="3.901204">
 <time>2011-05-20T09:19:00.9Z</time>
 </trkpt>
 <trkpt lat="44.451979" lon="3.900523">
 <time>2011-05-20T09:19:04.9Z</time>
 </trkpt>
 <trkpt lat="44.451609" lon="3.899598">
 <time>2011-05-20T09:19:09.9Z</time>
 </trkpt>
 <trkpt lat="44.450757" lon="3.898511">
 <time>2011-05-20T09:19:16.9Z</time>
 </trkpt>
 <trkpt lat="44.450575" lon="3.897833">
 <time>2011-05-20T09:19:20.9Z</time>
 </trkpt>
 <trkpt lat="44.450625" lon="3.897083">
 <time>2011-05-20T09:19:25.9Z</time>
 </trkpt>
 <trkpt lat="44.451097" lon="3.896022">
 <time>2011-05-20T09:19:30.9Z</time>
 </trkpt>
 <trkpt lat="44.451891" lon="3.894473">
 <time>2011-05-20T09:19:35.9Z</time>
 </trkpt>
 <trkpt lat="44.452479" lon="3.893843">
 <time>2011-05-20T09:19:40.9Z</time>
 </trkpt>
 <trkpt lat="44.453341" lon="3.893761">
 <time>2011-05-20T09:19:45.9Z</time>
 </trkpt>
 <trkpt lat="44.45405" lon="3.893237">
 <time>2011-05-20T09:19:49.9Z</time>
 </trkpt>
 <trkpt lat="44.454345" lon="3.892284">
 <time>2011-05-20T09:19:54.9Z</time>
 </trkpt>
 <trkpt lat="44.454315" lon="3.891008">
 <time>2011-05-20T09:19:59.9Z</time>
 </trkpt>
 <trkpt lat="44.454596" lon="3.889926">
 <time>2011-05-20T09:20:04.9Z</time>
 </trkpt>
 <trkpt lat="44.455244" lon="3.8895">
 <time>2011-05-20T09:20:08.9Z</time>
 </trkpt>
 <trkpt lat="44.456137" lon="3.88971">
 <time>2011-05-20T09:20:13.9Z</time>
 </trkpt>
 <trkpt lat="44.456581" lon="3.890739">
 <time>2011-05-20T09:20:18.9Z</time>
 </trkpt>
 <trkpt lat="44.456786" lon="3.891826">
 <time>2011-05-20T09:20:22.9Z</time>
 </trkpt>
 <trkpt lat="44.457489" lon="3.892347">
 <time>2011-05-20T09:20:26.9Z</time>
 </trkpt>
 <trkpt lat="44.458482" lon="3.892311">
 <time>2011-05-20T09:20:31.9Z</time>
 </trkpt>
 <trkpt lat="44.459134" lon="3.891697">
 <time>2011-05-20T09:20:35.9Z</time>
 </trkpt>
 <trkpt lat="44.459794" lon="3.890824">
 <time>2011-05-20T09:20:39.9Z</time>
 </trkpt>
 <trkpt lat="44.460431" lon="3.889416">
 <time>2011-05-20T09:20:46.9Z</time>
 </trkpt>
 <trkpt lat="44.460709" lon="3.888265">
 <time>2011-05-20T09:20:51.9Z</time>
 </trkpt>
 <trkpt lat="44.460614" lon="3.886883">
 <time>2011-05-20T09:20:56.9Z</time>
 </trkpt>
 <trkpt lat="44.46108" lon="3.886223">
 <time>2011-05-20T09:21:01.9Z</time>
 </trkpt>
 <trkpt lat="44.46159" lon="3.885335">
 <time>2011-05-20T09:21:05.9Z</time>
 </trkpt>
 <trkpt lat="44.461905" lon="3.884437">
 <time>2011-05-20T09:21:10.9Z</time>
 </trkpt>
 <trkpt lat="44.462771" lon="3.884093">
 <time>2011-05-20T09:21:15.9Z</time>
 </trkpt>
 <trkpt lat="44.463454" lon="3.883672">
 <time>2011-05-20T09:21:19.9Z</time>
 </trkpt>
 <trkpt lat="44.463992" lon="3.882679">
 <time>2011-05-20T09:21:24.9Z</time>
 </trkpt>
 <trkpt lat="44.463859" lon="3.88135">
 <time>2011-05-20T09:21:29.9Z</time>
 </trkpt>
 <trkpt lat="44.46372" lon="3.880001">
 <time>2011-05-20T09:21:34.9Z</time>
 </trkpt>
 <trkpt lat="44.463932" lon="3.878718">
 <time>2011-05-20T09:21:38.9Z</time>
 </trkpt>
 <trkpt lat="44.464538" lon="3.877977">
 <time>2011-05-20T09:21:43.9Z</time>
 </trkpt>
 <trkpt lat="44.465098" lon="3.877077">
 <time>2011-05-20T09:21:48.9Z</time>
 </trkpt>
 <trkpt lat="44.465292" lon="3.876299">
 <time>2011-05-20T09:21:53.9Z</time>
 </trkpt>
 <trkpt lat="44.465318" lon="3.875615">
 <time>2011-05-20T09:21:57.9Z</time>
 </trkpt>
 <trkpt lat="44.465057" lon="3.874938">
 <time>2011-05-20T09:22:03.2Z</time>
 </trkpt>
 <trkpt lat="44.464249" lon="3.873588">
 <time>2011-05-20T09:22:09.2Z</time>
 </trkpt>
 <trkpt lat="44.464333" lon="3.873096">
 <time>2011-05-20T09:22:13.2Z</time>
 </trkpt>
 <trkpt lat="44.465037" lon="3.871623">
 <time>2011-05-20T09:22:19.9Z</time>
 </trkpt>
 <trkpt lat="44.465443" lon="3.871419">
 <time>2011-05-20T09:22:23.9Z</time>
 </trkpt>
 <trkpt lat="44.466267" lon="3.871387">
 <time>2011-05-20T09:22:28.9Z</time>
 </trkpt>
 <trkpt lat="44.466955" lon="3.870751">
 <time>2011-05-20T09:22:33.9Z</time>
 </trkpt>
 <trkpt lat="44.46694" lon="3.869424">
 <time>2011-05-20T09:22:38.9Z</time>
 </trkpt>
 <trkpt lat="44.467094" lon="3.868453">
 <time>2011-05-20T09:22:43.9Z</time>
 </trkpt>
 <trkpt lat="44.467925" lon="3.868364">
 <time>2011-05-20T09:22:47.9Z</time>
 </trkpt>
 <trkpt lat="44.468692" lon="3.868207">
 <time>2011-05-20T09:22:52.9Z</time>
 </trkpt>
 <trkpt lat="44.469582" lon="3.867672">
 <time>2011-05-20T09:22:56.9Z</time>
 </trkpt>
 <trkpt lat="44.470218" lon="3.867716">
 <time>2011-05-20T09:23:01.9Z</time>
 </trkpt>
 <trkpt lat="44.470625" lon="3.86861">
 <time>2011-05-20T09:23:05.9Z</time>
 </trkpt>
 <trkpt lat="44.471159" lon="3.869255">
 <time>2011-05-20T09:23:10.9Z</time>
 </trkpt>
 <trkpt lat="44.472219" lon="3.870147">
 <time>2011-05-20T09:23:16Z</time>
 </trkpt>
 <trkpt lat="44.472978" lon="3.870385">
 <time>2011-05-20T09:23:20.9Z</time>
 </trkpt>
 <trkpt lat="44.473952" lon="3.870496">
 <time>2011-05-20T09:23:25.9Z</time>
 </trkpt>
 <trkpt lat="44.474187" lon="3.870324">
 <time>2011-05-20T09:23:29.9Z</time>
 </trkpt>
 <trkpt lat="44.474223" lon="3.869681">
 <time>2011-05-20T09:23:33.9Z</time>
 </trkpt>
 <trkpt lat="44.4745" lon="3.869131">
 <time>2011-05-20T09:23:38.9Z</time>
 </trkpt>
 <trkpt lat="44.47503" lon="3.869169">
 <time>2011-05-20T09:23:42.2Z</time>
 </trkpt>
 <trkpt lat="44.475971" lon="3.868837">
 <time>2011-05-20T09:23:47.9Z</time>
 </trkpt>
 <trkpt lat="44.476573" lon="3.868108">
 <time>2011-05-20T09:23:52.9Z</time>
 </trkpt>
 <trkpt lat="44.477009" lon="3.867087">
 <time>2011-05-20T09:23:57.9Z</time>
 </trkpt>
 <trkpt lat="44.477365" lon="3.866094">
 <time>2011-05-20T09:24:02.9Z</time>
 </trkpt>
 <trkpt lat="44.477763" lon="3.865622">
 <time>2011-05-20T09:24:06.9Z</time>
 </trkpt>
 <trkpt lat="44.477982" lon="3.865275">
 <time>2011-05-20T09:24:11.2Z</time>
 </trkpt>
 <trkpt lat="44.477902" lon="3.864865">
 <time>2011-05-20T09:24:15.9Z</time>
 </trkpt>
 <trkpt lat="44.477651" lon="3.863489">
 <time>2011-05-20T09:24:22.9Z</time>
 </trkpt>
 <trkpt lat="44.477358" lon="3.862677">
 <time>2011-05-20T09:24:27.9Z</time>
 </trkpt>
 <trkpt lat="44.476971" lon="3.862131">
 <time>2011-05-20T09:24:32.2Z</time>
 </trkpt>
 <trkpt lat="44.476192" lon="3.86211">
 <time>2011-05-20T09:24:36.9Z</time>
 </trkpt>
 <trkpt lat="44.475589" lon="3.862399">
 <time>2011-05-20T09:24:40.9Z</time>
 </trkpt>
 <trkpt lat="44.475051" lon="3.862899">
 <time>2011-05-20T09:24:45.9Z</time>
 </trkpt>
 <trkpt lat="44.474606" lon="3.862813">
 <time>2011-05-20T09:24:49.9Z</time>
 </trkpt>
 <trkpt lat="44.474334" lon="3.861929">
 <time>2011-05-20T09:24:54.9Z</time>
 </trkpt>
 <trkpt lat="44.47415" lon="3.861067">
 <time>2011-05-20T09:24:59.9Z</time>
 </trkpt>
 <trkpt lat="44.473786" lon="3.860208">
 <time>2011-05-20T09:25:03.9Z</time>
 </trkpt>
 <trkpt lat="44.473516" lon="3.859175">
 <time>2011-05-20T09:25:09.9Z</time>
 </trkpt>
 <trkpt lat="44.473556" lon="3.858486">
 <time>2011-05-20T09:25:14.9Z</time>
 </trkpt>
 <trkpt lat="44.473426" lon="3.858095">
 <time>2011-05-20T09:25:18.9Z</time>
 </trkpt>
 <trkpt lat="44.472831" lon="3.858358">
 <time>2011-05-20T09:25:23.9Z</time>
 </trkpt>
 <trkpt lat="44.471918" lon="3.858574">
 <time>2011-05-20T09:25:27.9Z</time>
 </trkpt>
 <trkpt lat="44.469953" lon="3.858604">
 <time>2011-05-20T09:25:36.9Z</time>
 </trkpt>
 <trkpt lat="44.469362" lon="3.858165">
 <time>2011-05-20T09:25:41.9Z</time>
 </trkpt>
 <trkpt lat="44.469207" lon="3.857596">
 <time>2011-05-20T09:25:45.9Z</time>
 </trkpt>
 <trkpt lat="44.469503" lon="3.857084">
 <time>2011-05-20T09:25:50.2Z</time>
 </trkpt>
 <trkpt lat="44.469886" lon="3.855387">
 <time>2011-05-20T09:25:55.9Z</time>
 </trkpt>
 <trkpt lat="44.469897" lon="3.853846">
 <time>2011-05-20T09:26:00.9Z</time>
 </trkpt>
 <trkpt lat="44.470117" lon="3.853049">
 <time>2011-05-20T09:26:04.9Z</time>
 </trkpt>
 <trkpt lat="44.470667" lon="3.852475">
 <time>2011-05-20T09:26:09.2Z</time>
 </trkpt>
 <trkpt lat="44.471544" lon="3.852041">
 <time>2011-05-20T09:26:13.9Z</time>
 </trkpt>
 <trkpt lat="44.472047" lon="3.851317">
 <time>2011-05-20T09:26:17.9Z</time>
 </trkpt>
 <trkpt lat="44.471981" lon="3.850668">
 <time>2011-05-20T09:26:22.9Z</time>
 </trkpt>
 <trkpt lat="44.471784" lon="3.850171">
 <time>2011-05-20T09:26:26.9Z</time>
 </trkpt>
 <trkpt lat="44.471694" lon="3.849977">
 <time>2011-05-20T09:26:30.2Z</time>
 </trkpt>
 <trkpt lat="44.471201" lon="3.849621">
 <time>2011-05-20T09:26:35.9Z</time>
 </trkpt>
 <trkpt lat="44.470816" lon="3.849074">
 <time>2011-05-20T09:26:40.9Z</time>
 </trkpt>
 <trkpt lat="44.470582" lon="3.848117">
 <time>2011-05-20T09:26:45.9Z</time>
 </trkpt>
 <trkpt lat="44.470283" lon="3.84737">
 <time>2011-05-20T09:26:50.9Z</time>
 </trkpt>
 <trkpt lat="44.470526" lon="3.846593">
 <time>2011-05-20T09:26:55.9Z</time>
 </trkpt>
 <trkpt lat="44.470814" lon="3.845714">
 <time>2011-05-20T09:27:00.2Z</time>
 </trkpt>
 <trkpt lat="44.47043" lon="3.844508">
 <time>2011-05-20T09:27:04.9Z</time>
 </trkpt>
 <trkpt lat="44.469735" lon="3.843693">
 <time>2011-05-20T09:27:08.9Z</time>
 </trkpt>
 <trkpt lat="44.46972" lon="3.84312">
 <time>2011-05-20T09:27:13.9Z</time>
 </trkpt>
 <trkpt lat="44.470494" lon="3.842812">
 <time>2011-05-20T09:27:19.2Z</time>
 </trkpt>
 <trkpt lat="44.47112" lon="3.843285">
 <time>2011-05-20T09:27:23.2Z</time>
 </trkpt>
 <trkpt lat="44.471912" lon="3.843706">
 <time>2011-05-20T09:27:28.2Z</time>
 </trkpt>
 <trkpt lat="44.472436" lon="3.843327">
 <time>2011-05-20T09:27:33.2Z</time>
 </trkpt>
 <trkpt lat="44.472677" lon="3.842163">
 <time>2011-05-20T09:27:38.2Z</time>
 </trkpt>
 <trkpt lat="44.472772" lon="3.8414">
 <time>2011-05-20T09:27:42.2Z</time>
 </trkpt>
 <trkpt lat="44.4733" lon="3.841357">
 <time>2011-05-20T09:27:47.2Z</time>
 </trkpt>
 <trkpt lat="44.474265" lon="3.841607">
 <time>2011-05-20T09:27:51.2Z</time>
 </trkpt>
 <trkpt lat="44.474758" lon="3.841499">
 <time>2011-05-20T09:27:55.2Z</time>
 </trkpt>
 <trkpt lat="44.475646" lon="3.841445">
 <time>2011-05-20T09:27:59.2Z</time>
 </trkpt>
 <trkpt lat="44.476193" lon="3.841522">
 <time>2011-05-20T09:28:04.2Z</time>
 </trkpt>
 <trkpt lat="44.476336" lon="3.840999">
 <time>2011-05-20T09:28:09.2Z</time>
 </trkpt>
 <trkpt lat="44.475448" lon="3.84005">
 <time>2011-05-20T09:28:14.9Z</time>
 </trkpt>
 <trkpt lat="44.475298" lon="3.83894">
 <time>2011-05-20T09:28:18.9Z</time>
 </trkpt>
 <trkpt lat="44.475533" lon="3.838134">
 <time>2011-05-20T09:28:23.9Z</time>
 </trkpt>
 <trkpt lat="44.47612" lon="3.838118">
 <time>2011-05-20T09:28:27.9Z</time>
 </trkpt>
 <trkpt lat="44.476328" lon="3.838764">
 <time>2011-05-20T09:28:32.9Z</time>
 </trkpt>
 <trkpt lat="44.476638" lon="3.839636">
 <time>2011-05-20T09:28:36.9Z</time>
 </trkpt>
 <trkpt lat="44.477351" lon="3.839748">
 <time>2011-05-20T09:28:40.9Z</time>
 </trkpt>
 <trkpt lat="44.478215" lon="3.839202">
 <time>2011-05-20T09:28:45.9Z</time>
 </trkpt>
 <trkpt lat="44.478856" lon="3.83981">
 <time>2011-05-20T09:28:49.9Z</time>
 </trkpt>
 <trkpt lat="44.479374" lon="3.840448">
 <time>2011-05-20T09:28:53.9Z</time>
 </trkpt>
 <trkpt lat="44.479917" lon="3.840475">
 <time>2011-05-20T09:28:58.9Z</time>
 </trkpt>
 <trkpt lat="44.480574" lon="3.840342">
 <time>2011-05-20T09:29:03.9Z</time>
 </trkpt>
 <trkpt lat="44.480932" lon="3.840054">
 <time>2011-05-20T09:29:08.9Z</time>
 </trkpt>
 <trkpt lat="44.481794" lon="3.839147">
 <time>2011-05-20T09:29:15.9Z</time>
 </trkpt>
 <trkpt lat="44.482365" lon="3.838846">
 <time>2011-05-20T09:29:20.9Z</time>
 </trkpt>
 <trkpt lat="44.483343" lon="3.838711">
 <time>2011-05-20T09:29:25.9Z</time>
 </trkpt>
 <trkpt lat="44.483977" lon="3.838435">
 <time>2011-05-20T09:29:30.9Z</time>
 </trkpt>
 <trkpt lat="44.484526" lon="3.838098">
 <time>2011-05-20T09:29:35.9Z</time>
 </trkpt>
 <trkpt lat="44.48496" lon="3.83749">
 <time>2011-05-20T09:29:40.9Z</time>
 </trkpt>
 <trkpt lat="44.485789" lon="3.837393">
 <time>2011-05-20T09:29:45.9Z</time>
 </trkpt>
 <trkpt lat="44.486442" lon="3.836939">
 <time>2011-05-20T09:29:50.9Z</time>
 </trkpt>
 <trkpt lat="44.48726" lon="3.836212">
 <time>2011-05-20T09:29:54.9Z</time>
 </trkpt>
 <trkpt lat="44.488081" lon="3.835896">
 <time>2011-05-20T09:30:00.2Z</time>
 </trkpt>
 <trkpt lat="44.488409" lon="3.83523">
 <time>2011-05-20T09:30:05.2Z</time>
 </trkpt>
 <trkpt lat="44.48885" lon="3.834024">
 <time>2011-05-20T09:30:09.9Z</time>
 </trkpt>
 <trkpt lat="44.489401" lon="3.833039">
 <time>2011-05-20T09:30:14.2Z</time>
 </trkpt>
 <trkpt lat="44.48938" lon="3.831854">
 <time>2011-05-20T09:30:18.9Z</time>
 </trkpt>
 <trkpt lat="44.488861" lon="3.830275">
 <time>2011-05-20T09:30:24.9Z</time>
 </trkpt>
 <trkpt lat="44.48879" lon="3.829204">
 <time>2011-05-20T09:30:29.9Z</time>
 </trkpt>
 <trkpt lat="44.488754" lon="3.827944">
 <time>2011-05-20T09:30:33.9Z</time>
 </trkpt>
 <trkpt lat="44.488475" lon="3.826413">
 <time>2011-05-20T09:30:38.9Z</time>
 </trkpt>
 <trkpt lat="44.488115" lon="3.825531">
 <time>2011-05-20T09:30:42.9Z</time>
 </trkpt>
 <trkpt lat="44.48738" lon="3.824964">
 <time>2011-05-20T09:30:47.9Z</time>
 </trkpt>
 <trkpt lat="44.486894" lon="3.824584">
 <time>2011-05-20T09:30:51.9Z</time>
 </trkpt>
 <trkpt lat="44.487164" lon="3.823758">
 <time>2011-05-20T09:30:56.9Z</time>
 </trkpt>
 <trkpt lat="44.48708" lon="3.822578">
 <time>2011-05-20T09:31:01.9Z</time>
 </trkpt>
 <trkpt lat="44.486605" lon="3.82188">
 <time>2011-05-20T09:31:06.2Z</time>
 </trkpt>
 <trkpt lat="44.486126" lon="3.822003">
 <time>2011-05-20T09:31:10.2Z</time>
 </trkpt>
 <trkpt lat="44.485555" lon="3.822137">
 <time>2011-05-20T09:31:15.9Z</time>
 </trkpt>
 <trkpt lat="44.485458" lon="3.821463">
 <time>2011-05-20T09:31:19.9Z</time>
 </trkpt>
 <trkpt lat="44.485604" lon="3.819404">
 <time>2011-05-20T09:31:25.9Z</time>
 </trkpt>
 <trkpt lat="44.485433" lon="3.818318">
 <time>2011-05-20T09:31:29.9Z</time>
 </trkpt>
 <trkpt lat="44.485095" lon="3.817757">
 <time>2011-05-20T09:31:33.9Z</time>
 </trkpt>
 <trkpt lat="44.484177" lon="3.817742">
 <time>2011-05-20T09:31:38.9Z</time>
 </trkpt>
 <trkpt lat="44.483389" lon="3.817663">
 <time>2011-05-20T09:31:43.9Z</time>
 </trkpt>
 <trkpt lat="44.483108" lon="3.816793">
 <time>2011-05-20T09:31:48.9Z</time>
 </trkpt>
 <trkpt lat="44.482768" lon="3.815615">
 <time>2011-05-20T09:31:53.9Z</time>
 </trkpt>
 <trkpt lat="44.482243" lon="3.814553">
 <time>2011-05-20T09:31:58.9Z</time>
 </trkpt>
 <trkpt lat="44.482219" lon="3.81354">
 <time>2011-05-20T09:32:03.9Z</time>
 </trkpt>
 <trkpt lat="44.482961" lon="3.812044">
 <time>2011-05-20T09:32:10.2Z</time>
 </trkpt>
 <trkpt lat="44.483037" lon="3.811169">
 <time>2011-05-20T09:32:14.9Z</time>
 </trkpt>
 <trkpt lat="44.482726" lon="3.810337">
 <time>2011-05-20T09:32:19.9Z</time>
 </trkpt>
 <trkpt lat="44.482456" lon="3.80965">
 <time>2011-05-20T09:32:23.9Z</time>
 </trkpt>
 <trkpt lat="44.482548" lon="3.809234">
 <time>2011-05-20T09:32:27.9Z</time>
 </trkpt>
 <trkpt lat="44.482863" lon="3.808572">
 <time>2011-05-20T09:32:31.9Z</time>
 </trkpt>
 <trkpt lat="44.483327" lon="3.807083">
 <time>2011-05-20T09:32:37.9Z</time>
 </trkpt>
 <trkpt lat="44.483655" lon="3.806337">
 <time>2011-05-20T09:32:41.9Z</time>
 </trkpt>
 <trkpt lat="44.484511" lon="3.805232">
 <time>2011-05-20T09:32:46.9Z</time>
 </trkpt>
 <trkpt lat="44.485335" lon="3.804667">
 <time>2011-05-20T09:32:50.9Z</time>
 </trkpt>
 <trkpt lat="44.486302" lon="3.804">
 <time>2011-05-20T09:32:54.9Z</time>
 </trkpt>
 <trkpt lat="44.486885" lon="3.803281">
 <time>2011-05-20T09:32:59.9Z</time>
 </trkpt>
 <trkpt lat="44.487233" lon="3.802525">
 <time>2011-05-20T09:33:03.9Z</time>
 </trkpt>
 <trkpt lat="44.487329" lon="3.801428">
 <time>2011-05-20T09:33:08.2Z</time>
 </trkpt>
 <trkpt lat="44.487632" lon="3.801172">
 <time>2011-05-20T09:33:12.2Z</time>
 </trkpt>
 <trkpt lat="44.488367" lon="3.801118">
 <time>2011-05-20T09:33:16.9Z</time>
 </trkpt>
 <trkpt lat="44.488676" lon="3.800406">
 <time>2011-05-20T09:33:21.2Z</time>
 </trkpt>
 <trkpt lat="44.4883" lon="3.798653">
 <time>2011-05-20T09:33:26.2Z</time>
 </trkpt>
 <trkpt lat="44.488087" lon="3.797501">
 <time>2011-05-20T09:33:30.2Z</time>
 </trkpt>
 <trkpt lat="44.48838" lon="3.796565">
 <time>2011-05-20T09:33:35.1Z</time>
 </trkpt>
 <trkpt lat="44.488888" lon="3.795563">
 <time>2011-05-20T09:33:39.9Z</time>
 </trkpt>
 <trkpt lat="44.488781" lon="3.794716">
 <time>2011-05-20T09:33:44.2Z</time>
 </trkpt>
 <trkpt lat="44.488508" lon="3.793895">
 <time>2011-05-20T09:33:48.9Z</time>
 </trkpt>
 <trkpt lat="44.488461" lon="3.792764">
 <time>2011-05-20T09:33:53.9Z</time>
 </trkpt>
 <trkpt lat="44.488144" lon="3.791466">
 <time>2011-05-20T09:33:58.9Z</time>
 </trkpt>
 <trkpt lat="44.487714" lon="3.790416">
 <time>2011-05-20T09:34:03.9Z</time>
 </trkpt>
 <trkpt lat="44.488014" lon="3.789637">
 <time>2011-05-20T09:34:09.2Z</time>
 </trkpt>
 <trkpt lat="44.488683" lon="3.788447">
 <time>2011-05-20T09:34:13.9Z</time>
 </trkpt>
 <trkpt lat="44.488605" lon="3.787194">
 <time>2011-05-20T09:34:18.9Z</time>
 </trkpt>
 <trkpt lat="44.488705" lon="3.786403">
 <time>2011-05-20T09:34:22.9Z</time>
 </trkpt>
 <trkpt lat="44.489526" lon="3.78574">
 <time>2011-05-20T09:34:27.9Z</time>
 </trkpt>
 <trkpt lat="44.490034" lon="3.785071">
 <time>2011-05-20T09:34:32.2Z</time>
 </trkpt>
 <trkpt lat="44.489864" lon="3.784195">
 <time>2011-05-20T09:34:37.2Z</time>
 </trkpt>
 <trkpt lat="44.488986" lon="3.784397">
 <time>2011-05-20T09:34:42.2Z</time>
 </trkpt>
 <trkpt lat="44.488297" lon="3.784818">
 <time>2011-05-20T09:34:46.2Z</time>
 </trkpt>
 <trkpt lat="44.487567" lon="3.784663">
 <time>2011-05-20T09:34:51.2Z</time>
 </trkpt>
 <trkpt lat="44.485905" lon="3.783041">
 <time>2011-05-20T09:35:03.2Z</time>
 </trkpt>
 <trkpt lat="44.484941" lon="3.781743">
 <time>2011-05-20T09:35:12.2Z</time>
 </trkpt>
 <trkpt lat="44.484408" lon="3.7818">
 <time>2011-05-20T09:35:17.2Z</time>
 </trkpt>
 <trkpt lat="44.48338" lon="3.783163">
 <time>2011-05-20T09:35:22.2Z</time>
 </trkpt>
 <trkpt lat="44.482756" lon="3.78282">
 <time>2011-05-20T09:35:27.2Z</time>
 </trkpt>
 <trkpt lat="44.482005" lon="3.782013">
 <time>2011-05-20T09:35:32.2Z</time>
 </trkpt>
 <trkpt lat="44.481067" lon="3.781588">
 <time>2011-05-20T09:35:37.2Z</time>
 </trkpt>
 <trkpt lat="44.480945" lon="3.780708">
 <time>2011-05-20T09:35:42.2Z</time>
 </trkpt>
 <trkpt lat="44.481166" lon="3.779382">
 <time>2011-05-20T09:35:47.2Z</time>
 </trkpt>
 <trkpt lat="44.481247" lon="3.77849">
 <time>2011-05-20T09:35:51.2Z</time>
 </trkpt>
 <trkpt lat="44.480921" lon="3.77825">
 <time>2011-05-20T09:35:55.2Z</time>
 </trkpt>
 <trkpt lat="44.479977" lon="3.778765">
 <time>2011-05-20T09:36:00.9Z</time>
 </trkpt>
 <trkpt lat="44.479628" lon="3.779593">
 <time>2011-05-20T09:36:04.2Z</time>
 </trkpt>
 <trkpt lat="44.478934" lon="3.78056">
 <time>2011-05-20T09:36:09.9Z</time>
 </trkpt>
 <trkpt lat="44.478356" lon="3.780277">
 <time>2011-05-20T09:36:13.9Z</time>
 </trkpt>
 <trkpt lat="44.477599" lon="3.779827">
 <time>2011-05-20T09:36:18.9Z</time>
 </trkpt>
 <trkpt lat="44.477116" lon="3.779109">
 <time>2011-05-20T09:36:23Z</time>
 </trkpt>
 <trkpt lat="44.477104" lon="3.778629">
 <time>2011-05-20T09:36:27.2Z</time>
 </trkpt>
 <trkpt lat="44.477594" lon="3.777921">
 <time>2011-05-20T09:36:32.2Z</time>
 </trkpt>
 <trkpt lat="44.478163" lon="3.777113">
 <time>2011-05-20T09:36:36.2Z</time>
 </trkpt>
 <trkpt lat="44.478446" lon="3.775942">
 <time>2011-05-20T09:36:41.2Z</time>
 </trkpt>
 <trkpt lat="44.478474" lon="3.774309">
 <time>2011-05-20T09:36:46.2Z</time>
 </trkpt>
 <trkpt lat="44.478483" lon="3.773155">
 <time>2011-05-20T09:36:51.2Z</time>
 </trkpt>
 <trkpt lat="44.478107" lon="3.772157">
 <time>2011-05-20T09:36:56.2Z</time>
 </trkpt>
 <trkpt lat="44.477284" lon="3.771643">
 <time>2011-05-20T09:37:01.2Z</time>
 </trkpt>
 <trkpt lat="44.477219" lon="3.771013">
 <time>2011-05-20T09:37:05.2Z</time>
 </trkpt>
 <trkpt lat="44.477369" lon="3.77016">
 <time>2011-05-20T09:37:09.2Z</time>
 </trkpt>
 <trkpt lat="44.477184" lon="3.76922">
 <time>2011-05-20T09:37:14.2Z</time>
 </trkpt>
 <trkpt lat="44.477212" lon="3.767668">
 <time>2011-05-20T09:37:19.2Z</time>
 </trkpt>
 <trkpt lat="44.476976" lon="3.766898">
 <time>2011-05-20T09:37:24.2Z</time>
 </trkpt>
 <trkpt lat="44.476189" lon="3.766747">
 <time>2011-05-20T09:37:29.2Z</time>
 </trkpt>
 <trkpt lat="44.475229" lon="3.767003">
 <time>2011-05-20T09:37:34.2Z</time>
 </trkpt>
 <trkpt lat="44.474788" lon="3.766327">
 <time>2011-05-20T09:37:39.2Z</time>
 </trkpt>
 <trkpt lat="44.475035" lon="3.764954">
 <time>2011-05-20T09:37:43.9Z</time>
 </trkpt>
 <trkpt lat="44.47537" lon="3.763677">
 <time>2011-05-20T09:37:48.2Z</time>
 </trkpt>
 <trkpt lat="44.47569" lon="3.762986">
 <time>2011-05-20T09:37:53.2Z</time>
 </trkpt>
 <trkpt lat="44.475883" lon="3.762721">
 <time>2011-05-20T09:37:57.2Z</time>
 </trkpt>
 <trkpt lat="44.47629" lon="3.762352">
 <time>2011-05-20T09:38:02.2Z</time>
 </trkpt>
 <trkpt lat="44.476572" lon="3.762122">
 <time>2011-05-20T09:38:06.2Z</time>
 </trkpt>
 <trkpt lat="44.476748" lon="3.761985">
 <time>2011-05-20T09:38:11.2Z</time>
 </trkpt>
 <trkpt lat="44.47698" lon="3.761797">
 <time>2011-05-20T09:39:15.2Z</time>
 </trkpt>
 <trkpt lat="44.478963" lon="3.760349">
 <time>2011-05-20T09:39:31.2Z</time>
 </trkpt>
 <trkpt lat="44.479547" lon="3.760013">
 <time>2011-05-20T09:39:36.2Z</time>
 </trkpt>
 <trkpt lat="44.480302" lon="3.759675">
 <time>2011-05-20T09:39:41.2Z</time>
 </trkpt>
 <trkpt lat="44.480949" lon="3.759257">
 <time>2011-05-20T09:39:45.2Z</time>
 </trkpt>
 <trkpt lat="44.482429" lon="3.758">
 <time>2011-05-20T09:39:52.2Z</time>
 </trkpt>
 <trkpt lat="44.483144" lon="3.757145">
 <time>2011-05-20T09:39:57.2Z</time>
 </trkpt>
 <trkpt lat="44.484432" lon="3.756146">
 <time>2011-05-20T09:40:02.2Z</time>
 </trkpt>
 <trkpt lat="44.485454" lon="3.755658">
 <time>2011-05-20T09:40:07.2Z</time>
 </trkpt>
 <trkpt lat="44.486899" lon="3.755336">
 <time>2011-05-20T09:40:12.2Z</time>
 </trkpt>
 <trkpt lat="44.488271" lon="3.755215">
 <time>2011-05-20T09:40:17.2Z</time>
 </trkpt>
 <trkpt lat="44.489511" lon="3.7551">
 <time>2011-05-20T09:40:22.2Z</time>
 </trkpt>
 <trkpt lat="44.490574" lon="3.754366">
 <time>2011-05-20T09:40:27.2Z</time>
 </trkpt>
 <trkpt lat="44.491354" lon="3.753256">
 <time>2011-05-20T09:40:32.2Z</time>
 </trkpt>
 <trkpt lat="44.491708" lon="3.752135">
 <time>2011-05-20T09:40:36.2Z</time>
 </trkpt>
 <trkpt lat="44.492099" lon="3.750514">
 <time>2011-05-20T09:40:40.2Z</time>
 </trkpt>
 <trkpt lat="44.492119" lon="3.749134">
 <time>2011-05-20T09:40:45.2Z</time>
 </trkpt>
 <trkpt lat="44.491861" lon="3.747549">
 <time>2011-05-20T09:40:50.2Z</time>
 </trkpt>
 <trkpt lat="44.491431" lon="3.746307">
 <time>2011-05-20T09:40:55.2Z</time>
 </trkpt>
 <trkpt lat="44.490852" lon="3.745529">
 <time>2011-05-20T09:40:59.2Z</time>
 </trkpt>
 <trkpt lat="44.490781" lon="3.744828">
 <time>2011-05-20T09:41:04.2Z</time>
 </trkpt>
 <trkpt lat="44.491165" lon="3.743911">
 <time>2011-05-20T09:41:09.2Z</time>
 </trkpt>
 <trkpt lat="44.491293" lon="3.743167">
 <time>2011-05-20T09:41:14.2Z</time>
 </trkpt>
 <trkpt lat="44.49124" lon="3.741844">
 <time>2011-05-20T09:41:19.2Z</time>
 </trkpt>
 <trkpt lat="44.491001" lon="3.740814">
 <time>2011-05-20T09:41:24.2Z</time>
 </trkpt>
 <trkpt lat="44.490526" lon="3.740214">
 <time>2011-05-20T09:41:29.2Z</time>
 </trkpt>
 <trkpt lat="44.490241" lon="3.739682">
 <time>2011-05-20T09:41:33.2Z</time>
 </trkpt>
 <trkpt lat="44.49022" lon="3.739495">
 <time>2011-05-20T09:41:38Z</time>
 </trkpt>
 <trkpt lat="44.490055" lon="3.739441">
 <time>2011-05-20T09:42:00.2Z</time>
 </trkpt>
 <trkpt lat="44.489228" lon="3.739197">
 <time>2011-05-20T09:42:09.2Z</time>
 </trkpt>
 <trkpt lat="44.489044" lon="3.738626">
 <time>2011-05-20T09:42:14.2Z</time>
 </trkpt>
 <trkpt lat="44.488817" lon="3.738058">
 <time>2011-05-20T09:42:19.2Z</time>
 </trkpt>
 <trkpt lat="44.488536" lon="3.737743">
 <time>2011-05-20T09:42:23.2Z</time>
 </trkpt>
 <trkpt lat="44.488099" lon="3.737135">
 <time>2011-05-20T09:42:28.2Z</time>
 </trkpt>
 <trkpt lat="44.487799" lon="3.736603">
 <time>2011-05-20T09:42:33.2Z</time>
 </trkpt>
 <trkpt lat="44.487545" lon="3.736271">
 <time>2011-05-20T09:42:38.2Z</time>
 </trkpt>
 <trkpt lat="44.487389" lon="3.736119">
 <time>2011-05-20T09:42:43.2Z</time>
 </trkpt>
 <trkpt lat="44.487199" lon="3.735903">
 <time>2011-05-20T09:42:48.2Z</time>
 </trkpt>
 <trkpt lat="44.486924" lon="3.735705">
 <time>2011-05-20T09:42:53.2Z</time>
 </trkpt>
 <trkpt lat="44.486713" lon="3.735536">
 <time>2011-05-20T09:42:58.2Z</time>
 </trkpt>
 <trkpt lat="44.486548" lon="3.735453">
 <time>2011-05-20T09:43:02.2Z</time>
 </trkpt>
 <trkpt lat="44.486377" lon="3.735148">
 <time>2011-05-20T09:43:07.2Z</time>
 </trkpt>
 <trkpt lat="44.48624" lon="3.734758">
 <time>2011-05-20T09:43:11.2Z</time>
 </trkpt>
 <trkpt lat="44.486206" lon="3.73456">
 <time>2011-05-20T09:43:15.2Z</time>
 </trkpt>
 <trkpt lat="44.486161" lon="3.734317">
 <time>2011-05-20T09:43:20.2Z</time>
 </trkpt>
 <trkpt lat="44.486093" lon="3.733991">
 <time>2011-05-20T09:43:25.2Z</time>
 </trkpt>
 <trkpt lat="44.486013" lon="3.733816">
 <time>2011-05-20T09:43:31.2Z</time>
 </trkpt>
 <trkpt lat="44.485716" lon="3.733435">
 <time>2011-05-20T09:43:35.2Z</time>
 </trkpt>
 <trkpt lat="44.485298" lon="3.732967">
 <time>2011-05-20T09:43:40.2Z</time>
 </trkpt>
 <trkpt lat="44.484682" lon="3.732485">
 <time>2011-05-20T09:43:44.9Z</time>
 </trkpt>
 <trkpt lat="44.483095" lon="3.731767">
 <time>2011-05-20T09:43:54.2Z</time>
 </trkpt>
 <trkpt lat="44.482412" lon="3.731198">
 <time>2011-05-20T09:43:59.2Z</time>
 </trkpt>
 <trkpt lat="44.481912" lon="3.730458">
 <time>2011-05-20T09:44:04.2Z</time>
 </trkpt>
 <trkpt lat="44.481345" lon="3.730194">
 <time>2011-05-20T09:44:09.2Z</time>
 </trkpt>
 <trkpt lat="44.479616" lon="3.729554">
 <time>2011-05-20T09:44:16.2Z</time>
 </trkpt>
 <trkpt lat="44.478672" lon="3.728939">
 <time>2011-05-20T09:44:21.2Z</time>
 </trkpt>
 <trkpt lat="44.477467" lon="3.728034">
 <time>2011-05-20T09:44:25.2Z</time>
 </trkpt>
 <trkpt lat="44.476613" lon="3.727534">
 <time>2011-05-20T09:44:30.2Z</time>
 </trkpt>
 <trkpt lat="44.475619" lon="3.727571">
 <time>2011-05-20T09:44:35.2Z</time>
 </trkpt>
 <trkpt lat="44.47473" lon="3.727721">
 <time>2011-05-20T09:44:40.1Z</time>
 </trkpt>
 <trkpt lat="44.474021" lon="3.727471">
 <time>2011-05-20T09:44:44.2Z</time>
 </trkpt>
 <trkpt lat="44.473434" lon="3.727104">
 <time>2011-05-20T09:44:49.2Z</time>
 </trkpt>
 <trkpt lat="44.472869" lon="3.726796">
 <time>2011-05-20T09:44:54.2Z</time>
 </trkpt>
 <trkpt lat="44.472365" lon="3.726764">
 <time>2011-05-20T09:44:59.2Z</time>
 </trkpt>
 <trkpt lat="44.47192" lon="3.727162">
 <time>2011-05-20T09:45:04.2Z</time>
 </trkpt>
 <trkpt lat="44.471332" lon="3.727417">
 <time>2011-05-20T09:45:08.9Z</time>
 </trkpt>
 <trkpt lat="44.470775" lon="3.727435">
 <time>2011-05-20T09:45:13Z</time>
 </trkpt>
 <trkpt lat="44.470044" lon="3.727269">
 <time>2011-05-20T09:45:17.2Z</time>
 </trkpt>
 <trkpt lat="44.468898" lon="3.727052">
 <time>2011-05-20T09:45:21.9Z</time>
 </trkpt>
 <trkpt lat="44.466876" lon="3.727142">
 <time>2011-05-20T09:45:31.2Z</time>
 </trkpt>
 <trkpt lat="44.466477" lon="3.726982">
 <time>2011-05-20T09:45:35.2Z</time>
 </trkpt>
 <trkpt lat="44.465744" lon="3.726575">
 <time>2011-05-20T09:45:40.2Z</time>
 </trkpt>
 <trkpt lat="44.46516" lon="3.726375">
 <time>2011-05-20T09:45:45.2Z</time>
 </trkpt>
 <trkpt lat="44.464837" lon="3.725725">
 <time>2011-05-20T09:45:50.2Z</time>
 </trkpt>
 <trkpt lat="44.464234" lon="3.725735">
 <time>2011-05-20T09:45:55.2Z</time>
 </trkpt>
 <trkpt lat="44.463452" lon="3.725596">
 <time>2011-05-20T09:46:00.2Z</time>
 </trkpt>
 <trkpt lat="44.46295" lon="3.725529">
 <time>2011-05-20T09:46:04.2Z</time>
 </trkpt>
 <trkpt lat="44.462469" lon="3.726767">
 <time>2011-05-20T09:46:10.2Z</time>
 </trkpt>
 <trkpt lat="44.462041" lon="3.727331">
 <time>2011-05-20T09:46:14.2Z</time>
 </trkpt>
 <trkpt lat="44.461195" lon="3.727504">
 <time>2011-05-20T09:46:19.2Z</time>
 </trkpt>
 <trkpt lat="44.460553" lon="3.727206">
 <time>2011-05-20T09:46:24.2Z</time>
 </trkpt>
 <trkpt lat="44.459653" lon="3.727845">
 <time>2011-05-20T09:46:29.2Z</time>
 </trkpt>
 <trkpt lat="44.459151" lon="3.728048">
 <time>2011-05-20T09:46:34.2Z</time>
 </trkpt>
 <trkpt lat="44.458868" lon="3.72893">
 <time>2011-05-20T09:46:39.2Z</time>
 </trkpt>
 <trkpt lat="44.458331" lon="3.72998">
 <time>2011-05-20T09:46:44.2Z</time>
 </trkpt>
 <trkpt lat="44.457933" lon="3.730595">
 <time>2011-05-20T09:46:48.2Z</time>
 </trkpt>
 <trkpt lat="44.45785" lon="3.731648">
 <time>2011-05-20T09:46:53.2Z</time>
 </trkpt>
 <trkpt lat="44.457542" lon="3.733534">
 <time>2011-05-20T09:47:00.2Z</time>
 </trkpt>
 <trkpt lat="44.45756" lon="3.734126">
 <time>2011-05-20T09:47:04.2Z</time>
 </trkpt>
 <trkpt lat="44.458043" lon="3.734829">
 <time>2011-05-20T09:47:09.2Z</time>
 </trkpt>
 <trkpt lat="44.458167" lon="3.73528">
 <time>2011-05-20T09:47:14.2Z</time>
 </trkpt>
 <trkpt lat="44.457622" lon="3.735131">
 <time>2011-05-20T09:47:19.2Z</time>
 </trkpt>
 <trkpt lat="44.457054" lon="3.735363">
 <time>2011-05-20T09:47:24.2Z</time>
 </trkpt>
 <trkpt lat="44.456781" lon="3.7363">
 <time>2011-05-20T09:47:29.2Z</time>
 </trkpt>
 <trkpt lat="44.456837" lon="3.737378">
 <time>2011-05-20T09:47:34.2Z</time>
 </trkpt>
 <trkpt lat="44.456862" lon="3.738506">
 <time>2011-05-20T09:47:39.2Z</time>
 </trkpt>
 <trkpt lat="44.456781" lon="3.739304">
 <time>2011-05-20T09:47:44.2Z</time>
 </trkpt>
 <trkpt lat="44.456832" lon="3.741283">
 <time>2011-05-20T09:47:51.2Z</time>
 </trkpt>
 <trkpt lat="44.456767" lon="3.742172">
 <time>2011-05-20T09:47:56.2Z</time>
 </trkpt>
 <trkpt lat="44.456547" lon="3.742577">
 <time>2011-05-20T09:48:00.2Z</time>
 </trkpt>
 <trkpt lat="44.456218" lon="3.742017">
 <time>2011-05-20T09:48:04.9Z</time>
 </trkpt>
 <trkpt lat="44.455846" lon="3.740522">
 <time>2011-05-20T09:48:09.9Z</time>
 </trkpt>
 <trkpt lat="44.455438" lon="3.7394">
 <time>2011-05-20T09:48:13.9Z</time>
 </trkpt>
 <trkpt lat="44.455003" lon="3.738566">
 <time>2011-05-20T09:48:18.2Z</time>
 </trkpt>
 <trkpt lat="44.454521" lon="3.738418">
 <time>2011-05-20T09:48:22.9Z</time>
 </trkpt>
 <trkpt lat="44.453882" lon="3.739003">
 <time>2011-05-20T09:48:27Z</time>
 </trkpt>
 <trkpt lat="44.452887" lon="3.739647">
 <time>2011-05-20T09:48:31.9Z</time>
 </trkpt>
 <trkpt lat="44.45207" lon="3.740542">
 <time>2011-05-20T09:48:36.9Z</time>
 </trkpt>
 <trkpt lat="44.451277" lon="3.741594">
 <time>2011-05-20T09:48:41.9Z</time>
 </trkpt>
 <trkpt lat="44.450834" lon="3.742347">
 <time>2011-05-20T09:48:46.9Z</time>
 </trkpt>
 <trkpt lat="44.451108" lon="3.743461">
 <time>2011-05-20T09:48:50.9Z</time>
 </trkpt>
 <trkpt lat="44.451262" lon="3.744251">
 <time>2011-05-20T09:48:55.9Z</time>
 </trkpt>
 <trkpt lat="44.451076" lon="3.744357">
 <time>2011-05-20T09:48:59.9Z</time>
 </trkpt>
 <trkpt lat="44.450557" lon="3.743695">
 <time>2011-05-20T09:49:04.9Z</time>
 </trkpt>
 <trkpt lat="44.450249" lon="3.743752">
 <time>2011-05-20T09:49:09.9Z</time>
 </trkpt>
 <trkpt lat="44.450722" lon="3.744704">
 <time>2011-05-20T09:49:14.9Z</time>
 </trkpt>
 <trkpt lat="44.451707" lon="3.747245">
 <time>2011-05-20T09:49:23.9Z</time>
 </trkpt>
 <trkpt lat="44.451881" lon="3.747697">
 <time>2011-05-20T09:49:28.9Z</time>
 </trkpt>
 <trkpt lat="44.451773" lon="3.747886">
 <time>2011-05-20T09:49:33.9Z</time>
 </trkpt>
 <trkpt lat="44.451873" lon="3.748064">
 <time>2011-05-20T09:49:38.9Z</time>
 </trkpt>
 <trkpt lat="44.452041" lon="3.748174">
 <time>2011-05-20T09:49:43.9Z</time>
 </trkpt>
 <trkpt lat="44.45223" lon="3.748306">
 <time>2011-05-20T09:49:47.9Z</time>
 </trkpt>
 <trkpt lat="44.452433" lon="3.748441">
 <time>2011-05-20T09:49:51.9Z</time>
 </trkpt>
 <trkpt lat="44.452591" lon="3.74856">
 <time>2011-05-20T09:49:56.9Z</time>
 </trkpt>
 <trkpt lat="44.452758" lon="3.748747">
 <time>2011-05-20T09:50:00.9Z</time>
 </trkpt>
 <trkpt lat="44.452947" lon="3.748833">
 <time>2011-05-20T09:50:04.9Z</time>
 </trkpt>
 <trkpt lat="44.453066" lon="3.748608">
 <time>2011-05-20T09:50:09.9Z</time>
 </trkpt>
 <trkpt lat="44.452914" lon="3.748576">
 <time>2011-05-20T09:50:13.9Z</time>
 </trkpt>
 <trkpt lat="44.452769" lon="3.748614">
 <time>2011-05-20T09:50:27.9Z</time>
 </trkpt>
 <trkpt lat="44.452619" lon="3.748673">
 <time>2011-05-20T09:50:32.9Z</time>
 </trkpt>
 <trkpt lat="44.4526" lon="3.748951">
 <time>2011-05-20T09:50:37.9Z</time>
 </trkpt>
 <trkpt lat="44.452459" lon="3.748989">
 <time>2011-05-20T09:50:43.9Z</time>
 </trkpt>
 <trkpt lat="44.452322" lon="3.74901">
 <time>2011-05-20T09:52:51.2Z</time>
 </trkpt>
 <trkpt lat="44.452298" lon="3.749199">
 <time>2011-05-20T09:53:12.2Z</time>
 </trkpt>
 <trkpt lat="44.452352" lon="3.749203">
 <time>2011-05-20T10:03:13.2Z</time>
 </trkpt>
 <trkpt lat="44.452325" lon="3.749196">
 <time>2011-05-20T10:13:13.2Z</time>
 </trkpt>
 <trkpt lat="44.452325" lon="3.749185">
 <time>2011-05-20T10:23:13.9Z</time>
 </trkpt>
 <trkpt lat="44.452385" lon="3.749005">
 <time>2011-05-20T10:27:33.9Z</time>
 </trkpt>
 <trkpt lat="44.452517" lon="3.748938">
 <time>2011-05-20T10:27:43.9Z</time>
 </trkpt>
 <trkpt lat="44.452486" lon="3.74866">
 <time>2011-05-20T10:30:42.9Z</time>
 </trkpt>
 <trkpt lat="44.452369" lon="3.748322">
 <time>2011-05-20T10:30:46.9Z</time>
 </trkpt>
 <trkpt lat="44.452002" lon="3.747918">
 <time>2011-05-20T10:30:51.9Z</time>
 </trkpt>
 <trkpt lat="44.451561" lon="3.747723">
 <time>2011-05-20T10:30:56.9Z</time>
 </trkpt>
 <trkpt lat="44.450663" lon="3.747628">
 <time>2011-05-20T10:31:02.9Z</time>
 </trkpt>
 <trkpt lat="44.449349" lon="3.747131">
 <time>2011-05-20T10:31:11.9Z</time>
 </trkpt>
 <trkpt lat="44.448145" lon="3.746951">
 <time>2011-05-20T10:31:18.9Z</time>
 </trkpt>
 <trkpt lat="44.447645" lon="3.746979">
 <time>2011-05-20T10:31:22.9Z</time>
 </trkpt>
 <trkpt lat="44.446787" lon="3.747396">
 <time>2011-05-20T10:31:27.9Z</time>
 </trkpt>
 <trkpt lat="44.445951" lon="3.748042">
 <time>2011-05-20T10:31:32.9Z</time>
 </trkpt>
 <trkpt lat="44.445379" lon="3.748472">
 <time>2011-05-20T10:31:36.9Z</time>
 </trkpt>
 <trkpt lat="44.444534" lon="3.748968">
 <time>2011-05-20T10:31:41.9Z</time>
 </trkpt>
 <trkpt lat="44.443888" lon="3.74944">
 <time>2011-05-20T10:31:45.9Z</time>
 </trkpt>
 <trkpt lat="44.442289" lon="3.751142">
 <time>2011-05-20T10:31:57.9Z</time>
 </trkpt>
 <trkpt lat="44.441904" lon="3.751456">
 <time>2011-05-20T10:32:02.9Z</time>
 </trkpt>
 <trkpt lat="44.441447" lon="3.751659">
 <time>2011-05-20T10:32:06.9Z</time>
 </trkpt>
 <trkpt lat="44.440698" lon="3.75186">
 <time>2011-05-20T10:32:11Z</time>
 </trkpt>
 <trkpt lat="44.439985" lon="3.751842">
 <time>2011-05-20T10:32:15.9Z</time>
 </trkpt>
 <trkpt lat="44.439215" lon="3.7518">
 <time>2011-05-20T10:32:19.9Z</time>
 </trkpt>
 <trkpt lat="44.438232" lon="3.752054">
 <time>2011-05-20T10:32:23.9Z</time>
 </trkpt>
 <trkpt lat="44.437505" lon="3.752562">
 <time>2011-05-20T10:32:28.9Z</time>
 </trkpt>
 <trkpt lat="44.436549" lon="3.7531">
 <time>2011-05-20T10:32:33.9Z</time>
 </trkpt>
 <trkpt lat="44.435877" lon="3.753299">
 <time>2011-05-20T10:32:37.9Z</time>
 </trkpt>
 <trkpt lat="44.435133" lon="3.753966">
 <time>2011-05-20T10:32:42.9Z</time>
 </trkpt>
 <trkpt lat="44.433669" lon="3.75587">
 <time>2011-05-20T10:32:51.9Z</time>
 </trkpt>
 <trkpt lat="44.433483" lon="3.756678">
 <time>2011-05-20T10:32:56.9Z</time>
 </trkpt>
 <trkpt lat="44.433543" lon="3.757817">
 <time>2011-05-20T10:33:00.9Z</time>
 </trkpt>
 <trkpt lat="44.433408" lon="3.758758">
 <time>2011-05-20T10:33:05.9Z</time>
 </trkpt>
 <trkpt lat="44.433089" lon="3.759705">
 <time>2011-05-20T10:33:09.9Z</time>
 </trkpt>
 <trkpt lat="44.4327" lon="3.76083">
 <time>2011-05-20T10:33:14.2Z</time>
 </trkpt>
 <trkpt lat="44.432516" lon="3.762433">
 <time>2011-05-20T10:33:19.9Z</time>
 </trkpt>
 <trkpt lat="44.432316" lon="3.76346">
 <time>2011-05-20T10:33:24.9Z</time>
 </trkpt>
 <trkpt lat="44.431725" lon="3.764099">
 <time>2011-05-20T10:33:29.9Z</time>
 </trkpt>
 <trkpt lat="44.430825" lon="3.764875">
 <time>2011-05-20T10:33:35.2Z</time>
 </trkpt>
 <trkpt lat="44.430344" lon="3.765074">
 <time>2011-05-20T10:33:39.2Z</time>
 </trkpt>
 <trkpt lat="44.429525" lon="3.764797">
 <time>2011-05-20T10:33:43.9Z</time>
 </trkpt>
 <trkpt lat="44.428572" lon="3.764489">
 <time>2011-05-20T10:33:48.9Z</time>
 </trkpt>
 <trkpt lat="44.427622" lon="3.76456">
 <time>2011-05-20T10:33:52.9Z</time>
 </trkpt>
 <trkpt lat="44.426939" lon="3.764848">
 <time>2011-05-20T10:33:57.9Z</time>
 </trkpt>
 <trkpt lat="44.426071" lon="3.765321">
 <time>2011-05-20T10:34:02.9Z</time>
 </trkpt>
 <trkpt lat="44.425197" lon="3.765418">
 <time>2011-05-20T10:34:06.9Z</time>
 </trkpt>
 <trkpt lat="44.424814" lon="3.765749">
 <time>2011-05-20T10:34:11.9Z</time>
 </trkpt>
 <trkpt lat="44.424701" lon="3.766777">
 <time>2011-05-20T10:34:15.9Z</time>
 </trkpt>
 <trkpt lat="44.424531" lon="3.767587">
 <time>2011-05-20T10:34:20.9Z</time>
 </trkpt>
 <trkpt lat="44.424274" lon="3.768326">
 <time>2011-05-20T10:34:24.9Z</time>
 </trkpt>
 <trkpt lat="44.423759" lon="3.769185">
 <time>2011-05-20T10:34:29.9Z</time>
 </trkpt>
 <trkpt lat="44.423097" lon="3.769816">
 <time>2011-05-20T10:34:34.9Z</time>
 </trkpt>
 <trkpt lat="44.422324" lon="3.770126">
 <time>2011-05-20T10:34:38.9Z</time>
 </trkpt>
 <trkpt lat="44.419932" lon="3.770388">
 <time>2011-05-20T10:34:49.2Z</time>
 </trkpt>
 <trkpt lat="44.419033" lon="3.770732">
 <time>2011-05-20T10:34:53.9Z</time>
 </trkpt>
 <trkpt lat="44.417749" lon="3.771444">
 <time>2011-05-20T10:34:58.9Z</time>
 </trkpt>
 <trkpt lat="44.416944" lon="3.772009">
 <time>2011-05-20T10:35:02.9Z</time>
 </trkpt>
 <trkpt lat="44.415754" lon="3.772673">
 <time>2011-05-20T10:35:08.9Z</time>
 </trkpt>
 <trkpt lat="44.414859" lon="3.77333">
 <time>2011-05-20T10:35:14.9Z</time>
 </trkpt>
 <trkpt lat="44.414465" lon="3.773373">
 <time>2011-05-20T10:35:19.9Z</time>
 </trkpt>
 <trkpt lat="44.414162" lon="3.772622">
 <time>2011-05-20T10:35:24.9Z</time>
 </trkpt>
 <trkpt lat="44.413746" lon="3.771807">
 <time>2011-05-20T10:35:29.9Z</time>
 </trkpt>
 <trkpt lat="44.413094" lon="3.771251">
 <time>2011-05-20T10:35:33.9Z</time>
 </trkpt>
 <trkpt lat="44.412411" lon="3.771114">
 <time>2011-05-20T10:35:38.2Z</time>
 </trkpt>
 <trkpt lat="44.410978" lon="3.771324">
 <time>2011-05-20T10:35:43.9Z</time>
 </trkpt>
 <trkpt lat="44.410341" lon="3.771167">
 <time>2011-05-20T10:35:48.9Z</time>
 </trkpt>
 <trkpt lat="44.409703" lon="3.770869">
 <time>2011-05-20T10:35:53.9Z</time>
 </trkpt>
 <trkpt lat="44.409287" lon="3.770332">
 <time>2011-05-20T10:35:57.9Z</time>
 </trkpt>
 <trkpt lat="44.408828" lon="3.769343">
 <time>2011-05-20T10:36:02.9Z</time>
 </trkpt>
 <trkpt lat="44.408401" lon="3.767541">
 <time>2011-05-20T10:36:08.9Z</time>
 </trkpt>
 <trkpt lat="44.407946" lon="3.766695">
 <time>2011-05-20T10:36:13.9Z</time>
 </trkpt>
 <trkpt lat="44.407055" lon="3.766089">
 <time>2011-05-20T10:36:18.9Z</time>
 </trkpt>
 <trkpt lat="44.406128" lon="3.765877">
 <time>2011-05-20T10:36:23.9Z</time>
 </trkpt>
 <trkpt lat="44.405874" lon="3.765509">
 <time>2011-05-20T10:36:28.9Z</time>
 </trkpt>
 <trkpt lat="44.406034" lon="3.764942">
 <time>2011-05-20T10:36:32.9Z</time>
 </trkpt>
 <trkpt lat="44.406424" lon="3.764107">
 <time>2011-05-20T10:36:37.9Z</time>
 </trkpt>
 <trkpt lat="44.406366" lon="3.763422">
 <time>2011-05-20T10:36:42.9Z</time>
 </trkpt>
 <trkpt lat="44.405718" lon="3.763177">
 <time>2011-05-20T10:36:47.9Z</time>
 </trkpt>
 <trkpt lat="44.404977" lon="3.763054">
 <time>2011-05-20T10:36:52.9Z</time>
 </trkpt>
 <trkpt lat="44.404196" lon="3.763063">
 <time>2011-05-20T10:36:57.9Z</time>
 </trkpt>
 <trkpt lat="44.403522" lon="3.76263">
 <time>2011-05-20T10:37:03.2Z</time>
 </trkpt>
 <trkpt lat="44.403189" lon="3.761957">
 <time>2011-05-20T10:37:07.2Z</time>
 </trkpt>
 <trkpt lat="44.403343" lon="3.76118">
 <time>2011-05-20T10:37:12.2Z</time>
 </trkpt>
 <trkpt lat="44.403678" lon="3.760537">
 <time>2011-05-20T10:37:16.2Z</time>
 </trkpt>
 <trkpt lat="44.404192" lon="3.760078">
 <time>2011-05-20T10:37:20.9Z</time>
 </trkpt>
 <trkpt lat="44.404689" lon="3.75972">
 <time>2011-05-20T10:37:25.9Z</time>
 </trkpt>
 <trkpt lat="44.404815" lon="3.758781">
 <time>2011-05-20T10:37:29.9Z</time>
 </trkpt>
 <trkpt lat="44.405055" lon="3.757981">
 <time>2011-05-20T10:37:34.9Z</time>
 </trkpt>
 <trkpt lat="44.40572" lon="3.757225">
 <time>2011-05-20T10:37:38.9Z</time>
 </trkpt>
 <trkpt lat="44.406392" lon="3.756778">
 <time>2011-05-20T10:37:43.9Z</time>
 </trkpt>
 <trkpt lat="44.407499" lon="3.756229">
 <time>2011-05-20T10:37:48.9Z</time>
 </trkpt>
 <trkpt lat="44.407736" lon="3.75587">
 <time>2011-05-20T10:37:52.9Z</time>
 </trkpt>
 <trkpt lat="44.408124" lon="3.754772">
 <time>2011-05-20T10:37:57.9Z</time>
 </trkpt>
 <trkpt lat="44.408218" lon="3.753987">
 <time>2011-05-20T10:38:01.9Z</time>
 </trkpt>
 <trkpt lat="44.40837" lon="3.753171">
 <time>2011-05-20T10:38:06.9Z</time>
 </trkpt>
 <trkpt lat="44.408627" lon="3.752079">
 <time>2011-05-20T10:38:10.9Z</time>
 </trkpt>
 <trkpt lat="44.40879" lon="3.751145">
 <time>2011-05-20T10:38:14.9Z</time>
 </trkpt>
 <trkpt lat="44.408599" lon="3.750608">
 <time>2011-05-20T10:38:19.9Z</time>
 </trkpt>
 <trkpt lat="44.407833" lon="3.750511">
 <time>2011-05-20T10:38:24.9Z</time>
 </trkpt>
 <trkpt lat="44.407052" lon="3.750375">
 <time>2011-05-20T10:38:29.9Z</time>
 </trkpt>
 <trkpt lat="44.406486" lon="3.749759">
 <time>2011-05-20T10:38:33.9Z</time>
 </trkpt>
 <trkpt lat="44.406022" lon="3.748518">
 <time>2011-05-20T10:38:39.9Z</time>
 </trkpt>
 <trkpt lat="44.405654" lon="3.747303">
 <time>2011-05-20T10:38:45.9Z</time>
 </trkpt>
 <trkpt lat="44.405669" lon="3.746856">
 <time>2011-05-20T10:38:49.9Z</time>
 </trkpt>
 <trkpt lat="44.405936" lon="3.746009">
 <time>2011-05-20T10:38:54.9Z</time>
 </trkpt>
 <trkpt lat="44.406074" lon="3.745308">
 <time>2011-05-20T10:38:59.9Z</time>
 </trkpt>
 <trkpt lat="44.405764" lon="3.745297">
 <time>2011-05-20T10:39:03.9Z</time>
 </trkpt>
 <trkpt lat="44.405198" lon="3.74544">
 <time>2011-05-20T10:39:08.9Z</time>
 </trkpt>
 <trkpt lat="44.404589" lon="3.745058">
 <time>2011-05-20T10:39:13.9Z</time>
 </trkpt>
 <trkpt lat="44.404249" lon="3.744334">
 <time>2011-05-20T10:39:18.9Z</time>
 </trkpt>
 <trkpt lat="44.404117" lon="3.744179">
 <time>2011-05-20T10:39:23.9Z</time>
 </trkpt>
 <trkpt lat="44.404198" lon="3.744749">
 <time>2011-05-20T10:39:28.9Z</time>
 </trkpt>
 <trkpt lat="44.404054" lon="3.745551">
 <time>2011-05-20T10:39:33.9Z</time>
 </trkpt>
 <trkpt lat="44.403901" lon="3.746346">
 <time>2011-05-20T10:39:38.9Z</time>
 </trkpt>
 <trkpt lat="44.403594" lon="3.747387">
 <time>2011-05-20T10:39:43.9Z</time>
 </trkpt>
 <trkpt lat="44.403172" lon="3.747984">
 <time>2011-05-20T10:39:47.9Z</time>
 </trkpt>
 <trkpt lat="44.402487" lon="3.748264">
 <time>2011-05-20T10:39:51.9Z</time>
 </trkpt>
 <trkpt lat="44.40176" lon="3.748664">
 <time>2011-05-20T10:39:56.9Z</time>
 </trkpt>
 <trkpt lat="44.401281" lon="3.749364">
 <time>2011-05-20T10:40:01.9Z</time>
 </trkpt>
 <trkpt lat="44.400666" lon="3.749411">
 <time>2011-05-20T10:40:06.9Z</time>
 </trkpt>
 <trkpt lat="44.400092" lon="3.749441">
 <time>2011-05-20T10:40:10.9Z</time>
 </trkpt>
 <trkpt lat="44.398872" lon="3.750129">
 <time>2011-05-20T10:40:18.9Z</time>
 </trkpt>
 <trkpt lat="44.398591" lon="3.750493">
 <time>2011-05-20T10:40:22.9Z</time>
 </trkpt>
 <trkpt lat="44.398401" lon="3.75133">
 <time>2011-05-20T10:40:27.9Z</time>
 </trkpt>
 <trkpt lat="44.398177" lon="3.751628">
 <time>2011-05-20T10:40:31.9Z</time>
 </trkpt>
 <trkpt lat="44.397595" lon="3.751583">
 <time>2011-05-20T10:40:35.9Z</time>
 </trkpt>
 <trkpt lat="44.39705" lon="3.751935">
 <time>2011-05-20T10:40:40.9Z</time>
 </trkpt>
 <trkpt lat="44.396661" lon="3.75178">
 <time>2011-05-20T10:40:44.9Z</time>
 </trkpt>
 <trkpt lat="44.396117" lon="3.751181">
 <time>2011-05-20T10:40:49.9Z</time>
 </trkpt>
 <trkpt lat="44.395288" lon="3.751356">
 <time>2011-05-20T10:40:53.9Z</time>
 </trkpt>
 <trkpt lat="44.393168" lon="3.75217">
 <time>2011-05-20T10:41:04.9Z</time>
 </trkpt>
 <trkpt lat="44.392676" lon="3.752105">
 <time>2011-05-20T10:41:09.9Z</time>
 </trkpt>
 <trkpt lat="44.392383" lon="3.751636">
 <time>2011-05-20T10:41:13.9Z</time>
 </trkpt>
 <trkpt lat="44.391929" lon="3.751194">
 <time>2011-05-20T10:41:18.9Z</time>
 </trkpt>
 <trkpt lat="44.39141" lon="3.751451">
 <time>2011-05-20T10:41:22.9Z</time>
 </trkpt>
 <trkpt lat="44.390904" lon="3.752187">
 <time>2011-05-20T10:41:27.2Z</time>
 </trkpt>
 <trkpt lat="44.390178" lon="3.752953">
 <time>2011-05-20T10:41:31.9Z</time>
 </trkpt>
 <trkpt lat="44.389503" lon="3.753389">
 <time>2011-05-20T10:41:36.9Z</time>
 </trkpt>
 <trkpt lat="44.388929" lon="3.753232">
 <time>2011-05-20T10:41:41.9Z</time>
 </trkpt>
 <trkpt lat="44.388388" lon="3.753168">
 <time>2011-05-20T10:41:46.9Z</time>
 </trkpt>
 <trkpt lat="44.387747" lon="3.753067">
 <time>2011-05-20T10:41:51.9Z</time>
 </trkpt>
 <trkpt lat="44.387001" lon="3.752887">
 <time>2011-05-20T10:41:56.9Z</time>
 </trkpt>
 <trkpt lat="44.385145" lon="3.753247">
 <time>2011-05-20T10:42:04.9Z</time>
 </trkpt>
 <trkpt lat="44.384304" lon="3.75327">
 <time>2011-05-20T10:42:09.9Z</time>
 </trkpt>
 <trkpt lat="44.383802" lon="3.75373">
 <time>2011-05-20T10:42:14.9Z</time>
 </trkpt>
 <trkpt lat="44.383489" lon="3.754479">
 <time>2011-05-20T10:42:18.9Z</time>
 </trkpt>
 <trkpt lat="44.383244" lon="3.755243">
 <time>2011-05-20T10:42:23.9Z</time>
 </trkpt>
 <trkpt lat="44.383018" lon="3.755738">
 <time>2011-05-20T10:42:28.9Z</time>
 </trkpt>
 <trkpt lat="44.382787" lon="3.75561">
 <time>2011-05-20T10:42:33.2Z</time>
 </trkpt>
 <trkpt lat="44.382607" lon="3.754669">
 <time>2011-05-20T10:42:37.9Z</time>
 </trkpt>
 <trkpt lat="44.382583" lon="3.753798">
 <time>2011-05-20T10:42:42.9Z</time>
 </trkpt>
 <trkpt lat="44.382578" lon="3.752986">
 <time>2011-05-20T10:42:47.9Z</time>
 </trkpt>
 <trkpt lat="44.38218" lon="3.752659">
 <time>2011-05-20T10:42:53.2Z</time>
 </trkpt>
 <trkpt lat="44.381378" lon="3.752679">
 <time>2011-05-20T10:42:57.2Z</time>
 </trkpt>
 <trkpt lat="44.380399" lon="3.75278">
 <time>2011-05-20T10:43:01.9Z</time>
 </trkpt>
 <trkpt lat="44.379595" lon="3.752421">
 <time>2011-05-20T10:43:05.9Z</time>
 </trkpt>
 <trkpt lat="44.379045" lon="3.752241">
 <time>2011-05-20T10:43:09.9Z</time>
 </trkpt>
 <trkpt lat="44.378341" lon="3.752183">
 <time>2011-05-20T10:43:13.9Z</time>
 </trkpt>
 <trkpt lat="44.377425" lon="3.752014">
 <time>2011-05-20T10:43:18.9Z</time>
 </trkpt>
 <trkpt lat="44.376206" lon="3.751908">
 <time>2011-05-20T10:43:23.9Z</time>
 </trkpt>
 <trkpt lat="44.37547" lon="3.751683">
 <time>2011-05-20T10:43:28.9Z</time>
 </trkpt>
 <trkpt lat="44.374576" lon="3.751418">
 <time>2011-05-20T10:43:33.9Z</time>
 </trkpt>
 <trkpt lat="44.373191" lon="3.751177">
 <time>2011-05-20T10:43:39.9Z</time>
 </trkpt>
 <trkpt lat="44.37196" lon="3.75083">
 <time>2011-05-20T10:43:45.9Z</time>
 </trkpt>
 <trkpt lat="44.371629" lon="3.750602">
 <time>2011-05-20T10:43:49.2Z</time>
 </trkpt>
 <trkpt lat="44.370918" lon="3.74973">
 <time>2011-05-20T10:43:53.9Z</time>
 </trkpt>
 <trkpt lat="44.37052" lon="3.749413">
 <time>2011-05-20T10:43:58.2Z</time>
 </trkpt>
 <trkpt lat="44.369844" lon="3.748718">
 <time>2011-05-20T10:44:02.9Z</time>
 </trkpt>
 <trkpt lat="44.369077" lon="3.748549">
 <time>2011-05-20T10:44:06.9Z</time>
 </trkpt>
 <trkpt lat="44.368091" lon="3.748313">
 <time>2011-05-20T10:44:11.9Z</time>
 </trkpt>
 <trkpt lat="44.36738" lon="3.747871">
 <time>2011-05-20T10:44:16.9Z</time>
 </trkpt>
 <trkpt lat="44.366948" lon="3.747028">
 <time>2011-05-20T10:44:20.9Z</time>
 </trkpt>
 <trkpt lat="44.366024" lon="3.746681">
 <time>2011-05-20T10:44:25.9Z</time>
 </trkpt>
 <trkpt lat="44.364725" lon="3.746467">
 <time>2011-05-20T10:44:31.9Z</time>
 </trkpt>
 <trkpt lat="44.364292" lon="3.746458">
 <time>2011-05-20T10:44:35.9Z</time>
 </trkpt>
 <trkpt lat="44.363808" lon="3.746792">
 <time>2011-05-20T10:44:40.9Z</time>
 </trkpt>
 <trkpt lat="44.363686" lon="3.747208">
 <time>2011-05-20T10:44:45.9Z</time>
 </trkpt>
 <trkpt lat="44.363693" lon="3.746936">
 <time>2011-05-20T10:44:50.9Z</time>
 </trkpt>
 <trkpt lat="44.363976" lon="3.745511">
 <time>2011-05-20T10:44:59.9Z</time>
 </trkpt>
 <trkpt lat="44.363944" lon="3.745289">
 <time>2011-05-20T10:45:04.9Z</time>
 </trkpt>
 <trkpt lat="44.363737" lon="3.74552">
 <time>2011-05-20T10:45:08.9Z</time>
 </trkpt>
 <trkpt lat="44.36356" lon="3.74593">
 <time>2011-05-20T10:45:12.2Z</time>
 </trkpt>
 <trkpt lat="44.36344" lon="3.746719">
 <time>2011-05-20T10:45:17.9Z</time>
 </trkpt>
 <trkpt lat="44.363401" lon="3.746904">
 <time>2011-05-20T10:45:23.9Z</time>
 </trkpt>
 <trkpt lat="44.363293" lon="3.746751">
 <time>2011-05-20T10:45:45.9Z</time>
 </trkpt>
 <trkpt lat="44.363212" lon="3.746525">
 <time>2011-05-20T10:45:50.9Z</time>
 </trkpt>
 <trkpt lat="44.363115" lon="3.746239">
 <time>2011-05-20T10:45:54.9Z</time>
 </trkpt>
 <trkpt lat="44.36306" lon="3.745671">
 <time>2011-05-20T10:46:01.2Z</time>
 </trkpt>
 <trkpt lat="44.363051" lon="3.744961">
 <time>2011-05-20T10:46:09.2Z</time>
 </trkpt>
 <trkpt lat="44.363107" lon="3.744608">
 <time>2011-05-20T10:46:14.2Z</time>
 </trkpt>
 <trkpt lat="44.363284" lon="3.743841">
 <time>2011-05-20T10:46:21.2Z</time>
 </trkpt>
 <trkpt lat="44.36333" lon="3.743654">
 <time>2011-05-20T10:46:32.2Z</time>
 </trkpt>
 <trkpt lat="44.36371" lon="3.743355">
 <time>2011-05-20T10:46:42.2Z</time>
 </trkpt>
 <trkpt lat="44.363813" lon="3.743123">
 <time>2011-05-20T10:46:47.2Z</time>
 </trkpt>
 <trkpt lat="44.363927" lon="3.742579">
 <time>2011-05-20T10:46:52.2Z</time>
 </trkpt>
 <trkpt lat="44.364173" lon="3.742229">
 <time>2011-05-20T10:46:57.2Z</time>
 </trkpt>
 <trkpt lat="44.364515" lon="3.741775">
 <time>2011-05-20T10:47:03.2Z</time>
 </trkpt>
 <trkpt lat="44.364944" lon="3.741238">
 <time>2011-05-20T10:47:09.2Z</time>
 </trkpt>
 <trkpt lat="44.365857" lon="3.740106">
 <time>2011-05-20T10:47:21.2Z</time>
 </trkpt>
 <trkpt lat="44.365962" lon="3.739985">
 <time>2011-05-20T10:47:33.2Z</time>
 </trkpt>
 <trkpt lat="44.366015" lon="3.739811">
 <time>2011-05-20T10:47:47.2Z</time>
 </trkpt>
 <trkpt lat="44.366506" lon="3.738782">
 <time>2011-05-20T10:47:57Z</time>
 </trkpt>
 <trkpt lat="44.366674" lon="3.738362">
 <time>2011-05-20T10:48:01.2Z</time>
 </trkpt>
 <trkpt lat="44.366943" lon="3.737838">
 <time>2011-05-20T10:48:05.2Z</time>
 </trkpt>
 <trkpt lat="44.366731" lon="3.736809">
 <time>2011-05-20T10:48:11.2Z</time>
 </trkpt>
 <trkpt lat="44.36682" lon="3.736201">
 <time>2011-05-20T10:48:15.2Z</time>
 </trkpt>
 <trkpt lat="44.367283" lon="3.734996">
 <time>2011-05-20T10:48:21.9Z</time>
 </trkpt>
 <trkpt lat="44.367356" lon="3.734593">
 <time>2011-05-20T10:48:25.9Z</time>
 </trkpt>
 <trkpt lat="44.367258" lon="3.734114">
 <time>2011-05-20T10:48:30.2Z</time>
 </trkpt>
 <trkpt lat="44.366777" lon="3.733761">
 <time>2011-05-20T10:48:35.2Z</time>
 </trkpt>
 <trkpt lat="44.365858" lon="3.734069">
 <time>2011-05-20T10:48:40.2Z</time>
 </trkpt>
 <trkpt lat="44.365179" lon="3.734026">
 <time>2011-05-20T10:48:44.2Z</time>
 </trkpt>
 <trkpt lat="44.364461" lon="3.734205">
 <time>2011-05-20T10:48:49.2Z</time>
 </trkpt>
 <trkpt lat="44.363653" lon="3.734653">
 <time>2011-05-20T10:48:53.2Z</time>
 </trkpt>
 <trkpt lat="44.362609" lon="3.734939">
 <time>2011-05-20T10:48:58Z</time>
 </trkpt>
 <trkpt lat="44.361835" lon="3.734943">
 <time>2011-05-20T10:49:01.9Z</time>
 </trkpt>
 <trkpt lat="44.361389" lon="3.734656">
 <time>2011-05-20T10:49:06.2Z</time>
 </trkpt>
 <trkpt lat="44.36157" lon="3.734076">
 <time>2011-05-20T10:49:10.2Z</time>
 </trkpt>
 <trkpt lat="44.362471" lon="3.732895">
 <time>2011-05-20T10:49:15.9Z</time>
 </trkpt>
 <trkpt lat="44.362674" lon="3.731906">
 <time>2011-05-20T10:49:21.2Z</time>
 </trkpt>
 <trkpt lat="44.362463" lon="3.730648">
 <time>2011-05-20T10:49:25.9Z</time>
 </trkpt>
 <trkpt lat="44.362314" lon="3.729853">
 <time>2011-05-20T10:49:30.2Z</time>
 </trkpt>
 <trkpt lat="44.362414" lon="3.728775">
 <time>2011-05-20T10:49:34.2Z</time>
 </trkpt>
 <trkpt lat="44.362372" lon="3.72773">
 <time>2011-05-20T10:49:39.2Z</time>
 </trkpt>
 <trkpt lat="44.361976" lon="3.72732">
 <time>2011-05-20T10:49:43.2Z</time>
 </trkpt>
 <trkpt lat="44.361985" lon="3.726857">
 <time>2011-05-20T10:49:47.9Z</time>
 </trkpt>
 <trkpt lat="44.362144" lon="3.72619">
 <time>2011-05-20T10:49:52.9Z</time>
 </trkpt>
 <trkpt lat="44.362082" lon="3.725437">
 <time>2011-05-20T10:49:57.9Z</time>
 </trkpt>
 <trkpt lat="44.362301" lon="3.724497">
 <time>2011-05-20T10:50:02.2Z</time>
 </trkpt>
 <trkpt lat="44.362467" lon="3.723525">
 <time>2011-05-20T10:50:07.2Z</time>
 </trkpt>
 <trkpt lat="44.361993" lon="3.722023">
 <time>2011-05-20T10:50:12.9Z</time>
 </trkpt>
 <trkpt lat="44.362081" lon="3.721302">
 <time>2011-05-20T10:50:17.2Z</time>
 </trkpt>
 <trkpt lat="44.362569" lon="3.720193">
 <time>2011-05-20T10:50:21.9Z</time>
 </trkpt>
 <trkpt lat="44.362439" lon="3.719606">
 <time>2011-05-20T10:50:26.9Z</time>
 </trkpt>
 <trkpt lat="44.361723" lon="3.719767">
 <time>2011-05-20T10:50:30.9Z</time>
 </trkpt>
 <trkpt lat="44.361149" lon="3.719828">
 <time>2011-05-20T10:50:35.9Z</time>
 </trkpt>
 <trkpt lat="44.361004" lon="3.719361">
 <time>2011-05-20T10:50:39.9Z</time>
 </trkpt>
 <trkpt lat="44.36127" lon="3.718191">
 <time>2011-05-20T10:50:44.9Z</time>
 </trkpt>
 <trkpt lat="44.361375" lon="3.716926">
 <time>2011-05-20T10:50:49.9Z</time>
 </trkpt>
 <trkpt lat="44.361257" lon="3.715976">
 <time>2011-05-20T10:50:53.9Z</time>
 </trkpt>
 <trkpt lat="44.361136" lon="3.715194">
 <time>2011-05-20T10:50:58.9Z</time>
 </trkpt>
 <trkpt lat="44.361616" lon="3.714671">
 <time>2011-05-20T10:51:03.9Z</time>
 </trkpt>
 <trkpt lat="44.362298" lon="3.714099">
 <time>2011-05-20T10:51:07.2Z</time>
 </trkpt>
 <trkpt lat="44.362824" lon="3.713157">
 <time>2011-05-20T10:51:12.2Z</time>
 </trkpt>
 <trkpt lat="44.36329" lon="3.711771">
 <time>2011-05-20T10:51:18.2Z</time>
 </trkpt>
 <trkpt lat="44.363563" lon="3.710697">
 <time>2011-05-20T10:51:22.9Z</time>
 </trkpt>
 <trkpt lat="44.363832" lon="3.709956">
 <time>2011-05-20T10:51:27.9Z</time>
 </trkpt>
 <trkpt lat="44.364157" lon="3.708376">
 <time>2011-05-20T10:51:33.9Z</time>
 </trkpt>
 <trkpt lat="44.364555" lon="3.707744">
 <time>2011-05-20T10:51:38.9Z</time>
 </trkpt>
 <trkpt lat="44.36521" lon="3.70713">
 <time>2011-05-20T10:51:43.9Z</time>
 </trkpt>
 <trkpt lat="44.365899" lon="3.707131">
 <time>2011-05-20T10:51:48.9Z</time>
 </trkpt>
 <trkpt lat="44.366499" lon="3.706335">
 <time>2011-05-20T10:51:53.9Z</time>
 </trkpt>
 <trkpt lat="44.366841" lon="3.705437">
 <time>2011-05-20T10:51:58.9Z</time>
 </trkpt>
 <trkpt lat="44.366563" lon="3.705088">
 <time>2011-05-20T10:52:02.9Z</time>
 </trkpt>
 <trkpt lat="44.366283" lon="3.705054">
 <time>2011-05-20T10:52:07.9Z</time>
 </trkpt>
 <trkpt lat="44.366292" lon="3.704465">
 <time>2011-05-20T10:52:12.2Z</time>
 </trkpt>
 <trkpt lat="44.36679" lon="3.702223">
 <time>2011-05-20T10:52:18.9Z</time>
 </trkpt>
 <trkpt lat="44.366779" lon="3.70147">
 <time>2011-05-20T10:52:22.9Z</time>
 </trkpt>
 <trkpt lat="44.366725" lon="3.700485">
 <time>2011-05-20T10:52:27.9Z</time>
 </trkpt>
 <trkpt lat="44.367053" lon="3.69972">
 <time>2011-05-20T10:52:32.9Z</time>
 </trkpt>
 <trkpt lat="44.366992" lon="3.69949">
 <time>2011-05-20T10:52:37.9Z</time>
 </trkpt>
 <trkpt lat="44.366547" lon="3.699357">
 <time>2011-05-20T10:52:41.2Z</time>
 </trkpt>
 <trkpt lat="44.365997" lon="3.69926">
 <time>2011-05-20T10:52:46.9Z</time>
 </trkpt>
 <trkpt lat="44.365858" lon="3.698907">
 <time>2011-05-20T10:52:50.9Z</time>
 </trkpt>
 <trkpt lat="44.365358" lon="3.697958">
 <time>2011-05-20T10:52:55.9Z</time>
 </trkpt>
 <trkpt lat="44.365167" lon="3.697207">
 <time>2011-05-20T10:53:00.9Z</time>
 </trkpt>
 <trkpt lat="44.364902" lon="3.695722">
 <time>2011-05-20T10:53:06.9Z</time>
 </trkpt>
 <trkpt lat="44.364732" lon="3.695091">
 <time>2011-05-20T10:53:11.2Z</time>
 </trkpt>
 <trkpt lat="44.364117" lon="3.69388">
 <time>2011-05-20T10:53:16.2Z</time>
 </trkpt>
 <trkpt lat="44.363643" lon="3.69285">
 <time>2011-05-20T10:53:20.9Z</time>
 </trkpt>
 <trkpt lat="44.363601" lon="3.69166">
 <time>2011-05-20T10:53:25.9Z</time>
 </trkpt>
 <trkpt lat="44.363718" lon="3.690413">
 <time>2011-05-20T10:53:30.9Z</time>
 </trkpt>
 <trkpt lat="44.364004" lon="3.689402">
 <time>2011-05-20T10:53:35.9Z</time>
 </trkpt>
 <trkpt lat="44.364357" lon="3.68865">
 <time>2011-05-20T10:53:40.9Z</time>
 </trkpt>
 <trkpt lat="44.364378" lon="3.688033">
 <time>2011-05-20T10:53:45.9Z</time>
 </trkpt>
 <trkpt lat="44.364212" lon="3.687352">
 <time>2011-05-20T10:53:50.2Z</time>
 </trkpt>
 <trkpt lat="44.363783" lon="3.686759">
 <time>2011-05-20T10:53:54.9Z</time>
 </trkpt>
 <trkpt lat="44.36339" lon="3.686477">
 <time>2011-05-20T10:53:59.9Z</time>
 </trkpt>
 <trkpt lat="44.363406" lon="3.68578">
 <time>2011-05-20T10:54:04.9Z</time>
 </trkpt>
 <trkpt lat="44.363824" lon="3.685323">
 <time>2011-05-20T10:54:08.9Z</time>
 </trkpt>
 <trkpt lat="44.364596" lon="3.684844">
 <time>2011-05-20T10:54:14.9Z</time>
 </trkpt>
 <trkpt lat="44.364864" lon="3.684569">
 <time>2011-05-20T10:54:19.9Z</time>
 </trkpt>
 <trkpt lat="44.364685" lon="3.684305">
 <time>2011-05-20T10:54:24.2Z</time>
 </trkpt>
 <trkpt lat="44.364161" lon="3.684424">
 <time>2011-05-20T10:54:29.2Z</time>
 </trkpt>
 <trkpt lat="44.363009" lon="3.68448">
 <time>2011-05-20T10:54:36.9Z</time>
 </trkpt>
 <trkpt lat="44.362616" lon="3.684758">
 <time>2011-05-20T10:54:41.2Z</time>
 </trkpt>
 <trkpt lat="44.361861" lon="3.685552">
 <time>2011-05-20T10:54:46.9Z</time>
 </trkpt>
 <trkpt lat="44.361474" lon="3.685537">
 <time>2011-05-20T10:54:51.9Z</time>
 </trkpt>
 <trkpt lat="44.361296" lon="3.684948">
 <time>2011-05-20T10:54:56.9Z</time>
 </trkpt>
 <trkpt lat="44.361492" lon="3.68392">
 <time>2011-05-20T10:55:00.9Z</time>
 </trkpt>
 <trkpt lat="44.362123" lon="3.68228">
 <time>2011-05-20T10:55:09.9Z</time>
 </trkpt>
 <trkpt lat="44.362151" lon="3.681762">
 <time>2011-05-20T10:55:13.9Z</time>
 </trkpt>
 <trkpt lat="44.362114" lon="3.680886">
 <time>2011-05-20T10:55:18.9Z</time>
 </trkpt>
 <trkpt lat="44.361871" lon="3.68031">
 <time>2011-05-20T10:55:22.9Z</time>
 </trkpt>
 <trkpt lat="44.361511" lon="3.680035">
 <time>2011-05-20T10:55:27.9Z</time>
 </trkpt>
 <trkpt lat="44.361175" lon="3.679631">
 <time>2011-05-20T10:55:31.9Z</time>
 </trkpt>
 <trkpt lat="44.360705" lon="3.678224">
 <time>2011-05-20T10:55:39.2Z</time>
 </trkpt>
 <trkpt lat="44.360665" lon="3.677627">
 <time>2011-05-20T10:55:44.2Z</time>
 </trkpt>
 <trkpt lat="44.361076" lon="3.676851">
 <time>2011-05-20T10:55:48.9Z</time>
 </trkpt>
 <trkpt lat="44.361548" lon="3.675805">
 <time>2011-05-20T10:55:52.9Z</time>
 </trkpt>
 <trkpt lat="44.36184" lon="3.674833">
 <time>2011-05-20T10:55:57.9Z</time>
 </trkpt>
 <trkpt lat="44.362438" lon="3.672979">
 <time>2011-05-20T10:56:06.2Z</time>
 </trkpt>
 <trkpt lat="44.362685" lon="3.672555">
 <time>2011-05-20T10:56:10.9Z</time>
 </trkpt>
 <trkpt lat="44.36261" lon="3.671977">
 <time>2011-05-20T10:56:15.2Z</time>
 </trkpt>
 <trkpt lat="44.362287" lon="3.671187">
 <time>2011-05-20T10:56:20.2Z</time>
 </trkpt>
 <trkpt lat="44.361849" lon="3.670566">
 <time>2011-05-20T10:56:25.2Z</time>
 </trkpt>
 <trkpt lat="44.361279" lon="3.670001">
 <time>2011-05-20T10:56:30.2Z</time>
 </trkpt>
 <trkpt lat="44.36056" lon="3.669817">
 <time>2011-05-20T10:56:35.2Z</time>
 </trkpt>
 <trkpt lat="44.360013" lon="3.669644">
 <time>2011-05-20T10:56:39.2Z</time>
 </trkpt>
 <trkpt lat="44.359457" lon="3.669278">
 <time>2011-05-20T10:56:44.2Z</time>
 </trkpt>
 <trkpt lat="44.359016" lon="3.668882">
 <time>2011-05-20T10:56:49.2Z</time>
 </trkpt>
 <trkpt lat="44.358454" lon="3.668713">
 <time>2011-05-20T10:56:54.2Z</time>
 </trkpt>
 <trkpt lat="44.357942" lon="3.668284">
 <time>2011-05-20T10:56:59.2Z</time>
 </trkpt>
 <trkpt lat="44.357341" lon="3.667833">
 <time>2011-05-20T10:57:03.2Z</time>
 </trkpt>
 <trkpt lat="44.357116" lon="3.667537">
 <time>2011-05-20T10:57:07.2Z</time>
 </trkpt>
 <trkpt lat="44.357082" lon="3.666676">
 <time>2011-05-20T10:57:12.2Z</time>
 </trkpt>
 <trkpt lat="44.357055" lon="3.66561">
 <time>2011-05-20T10:57:17.2Z</time>
 </trkpt>
 <trkpt lat="44.356984" lon="3.664756">
 <time>2011-05-20T10:57:22.2Z</time>
 </trkpt>
 <trkpt lat="44.357234" lon="3.661753">
 <time>2011-05-20T10:57:33.2Z</time>
 </trkpt>
 <trkpt lat="44.357286" lon="3.661161">
 <time>2011-05-20T10:57:37.2Z</time>
 </trkpt>
 <trkpt lat="44.35704" lon="3.660836">
 <time>2011-05-20T10:57:42.2Z</time>
 </trkpt>
 <trkpt lat="44.356285" lon="3.660672">
 <time>2011-05-20T10:57:47.2Z</time>
 </trkpt>
 <trkpt lat="44.355774" lon="3.660308">
 <time>2011-05-20T10:57:52.2Z</time>
 </trkpt>
 <trkpt lat="44.355304" lon="3.659822">
 <time>2011-05-20T10:57:57.2Z</time>
 </trkpt>
 <trkpt lat="44.355313" lon="3.659172">
 <time>2011-05-20T10:58:01.2Z</time>
 </trkpt>
 <trkpt lat="44.355633" lon="3.658402">
 <time>2011-05-20T10:58:05.2Z</time>
 </trkpt>
 <trkpt lat="44.356309" lon="3.657187">
 <time>2011-05-20T10:58:09.2Z</time>
 </trkpt>
 <trkpt lat="44.356664" lon="3.656221">
 <time>2011-05-20T10:58:14.2Z</time>
 </trkpt>
 <trkpt lat="44.35675" lon="3.655408">
 <time>2011-05-20T10:58:19.2Z</time>
 </trkpt>
 <trkpt lat="44.356469" lon="3.654304">
 <time>2011-05-20T10:58:24.2Z</time>
 </trkpt>
 <trkpt lat="44.356234" lon="3.653435">
 <time>2011-05-20T10:58:28.2Z</time>
 </trkpt>
 <trkpt lat="44.356291" lon="3.652321">
 <time>2011-05-20T10:58:33.2Z</time>
 </trkpt>
 <trkpt lat="44.356161" lon="3.651877">
 <time>2011-05-20T10:58:37.2Z</time>
 </trkpt>
 <trkpt lat="44.355816" lon="3.651739">
 <time>2011-05-20T10:58:42.2Z</time>
 </trkpt>
 <trkpt lat="44.355341" lon="3.651908">
 <time>2011-05-20T10:58:46.2Z</time>
 </trkpt>
 <trkpt lat="44.354817" lon="3.651727">
 <time>2011-05-20T10:58:51.2Z</time>
 </trkpt>
 <trkpt lat="44.354387" lon="3.651069">
 <time>2011-05-20T10:58:56.2Z</time>
 </trkpt>
 <trkpt lat="44.354244" lon="3.64996">
 <time>2011-05-20T10:59:01.2Z</time>
 </trkpt>
 <trkpt lat="44.354322" lon="3.648702">
 <time>2011-05-20T10:59:06.2Z</time>
 </trkpt>
 <trkpt lat="44.354495" lon="3.647443">
 <time>2011-05-20T10:59:11.2Z</time>
 </trkpt>
 <trkpt lat="44.354783" lon="3.646378">
 <time>2011-05-20T10:59:15.2Z</time>
 </trkpt>
 <trkpt lat="44.355512" lon="3.64499">
 <time>2011-05-20T10:59:22.2Z</time>
 </trkpt>
 <trkpt lat="44.356323" lon="3.642631">
 <time>2011-05-20T10:59:31.2Z</time>
 </trkpt>
 <trkpt lat="44.356512" lon="3.642373">
 <time>2011-05-20T10:59:36.2Z</time>
 </trkpt>
 <trkpt lat="44.35676" lon="3.642407">
 <time>2011-05-20T10:59:40.2Z</time>
 </trkpt>
 <trkpt lat="44.357047" lon="3.64255">
 <time>2011-05-20T10:59:45.2Z</time>
 </trkpt>
 <trkpt lat="44.357302" lon="3.642591">
 <time>2011-05-20T10:59:50.2Z</time>
 </trkpt>
 <trkpt lat="44.357486" lon="3.642614">
 <time>2011-05-20T10:59:54.2Z</time>
 </trkpt>
 <trkpt lat="44.358017" lon="3.642859">
 <time>2011-05-20T11:00:01.2Z</time>
 </trkpt>
 <trkpt lat="44.358323" lon="3.642708">
 <time>2011-05-20T11:00:06.2Z</time>
 </trkpt>
 <trkpt lat="44.358263" lon="3.642133">
 <time>2011-05-20T11:00:10.2Z</time>
 </trkpt>
 <trkpt lat="44.35794" lon="3.641698">
 <time>2011-05-20T11:00:15.2Z</time>
 </trkpt>
 <trkpt lat="44.357474" lon="3.641512">
 <time>2011-05-20T11:00:19.2Z</time>
 </trkpt>
 <trkpt lat="44.356936" lon="3.64119">
 <time>2011-05-20T11:00:24.2Z</time>
 </trkpt>
 <trkpt lat="44.356586" lon="3.640421">
 <time>2011-05-20T11:00:29.2Z</time>
 </trkpt>
 <trkpt lat="44.356257" lon="3.639447">
 <time>2011-05-20T11:00:33.2Z</time>
 </trkpt>
 <trkpt lat="44.355816" lon="3.638609">
 <time>2011-05-20T11:00:39.2Z</time>
 </trkpt>
 <trkpt lat="44.354681" lon="3.637317">
 <time>2011-05-20T11:00:47.2Z</time>
 </trkpt>
 <trkpt lat="44.354474" lon="3.636885">
 <time>2011-05-20T11:00:51.2Z</time>
 </trkpt>
 <trkpt lat="44.3541" lon="3.633753">
 <time>2011-05-20T11:01:01.9Z</time>
 </trkpt>
 <trkpt lat="44.35411" lon="3.63081">
 <time>2011-05-20T11:01:15.9Z</time>
 </trkpt>
 <trkpt lat="44.35405" lon="3.630425">
 <time>2011-05-20T11:01:20.9Z</time>
 </trkpt>
 <trkpt lat="44.353716" lon="3.629893">
 <time>2011-05-20T11:01:24.9Z</time>
 </trkpt>
 <trkpt lat="44.353348" lon="3.629912">
 <time>2011-05-20T11:01:29.9Z</time>
 </trkpt>
 <trkpt lat="44.352691" lon="3.629715">
 <time>2011-05-20T11:01:33.9Z</time>
 </trkpt>
 <trkpt lat="44.351933" lon="3.629763">
 <time>2011-05-20T11:01:38.9Z</time>
 </trkpt>
 <trkpt lat="44.351199" lon="3.63041">
 <time>2011-05-20T11:01:42.9Z</time>
 </trkpt>
 <trkpt lat="44.350519" lon="3.631128">
 <time>2011-05-20T11:01:47.9Z</time>
 </trkpt>
 <trkpt lat="44.350141" lon="3.631351">
 <time>2011-05-20T11:01:52.2Z</time>
 </trkpt>
 <trkpt lat="44.34945" lon="3.631144">
 <time>2011-05-20T11:01:57.9Z</time>
 </trkpt>
 <trkpt lat="44.349325" lon="3.630297">
 <time>2011-05-20T11:02:01.9Z</time>
 </trkpt>
 <trkpt lat="44.349348" lon="3.629185">
 <time>2011-05-20T11:02:06.2Z</time>
 </trkpt>
 <trkpt lat="44.349244" lon="3.628498">
 <time>2011-05-20T11:02:10.2Z</time>
 </trkpt>
 <trkpt lat="44.348944" lon="3.627672">
 <time>2011-05-20T11:02:15.2Z</time>
 </trkpt>
 <trkpt lat="44.349072" lon="3.626763">
 <time>2011-05-20T11:02:19.9Z</time>
 </trkpt>
 <trkpt lat="44.34893" lon="3.625741">
 <time>2011-05-20T11:02:25.2Z</time>
 </trkpt>
 <trkpt lat="44.348789" lon="3.625069">
 <time>2011-05-20T11:02:29.9Z</time>
 </trkpt>
 <trkpt lat="44.348813" lon="3.623498">
 <time>2011-05-20T11:02:35.9Z</time>
 </trkpt>
 <trkpt lat="44.348736" lon="3.622779">
 <time>2011-05-20T11:02:40.9Z</time>
 </trkpt>
 <trkpt lat="44.348571" lon="3.622086">
 <time>2011-05-20T11:02:46.9Z</time>
 </trkpt>
 <trkpt lat="44.34842" lon="3.621677">
 <time>2011-05-20T11:02:51.9Z</time>
 </trkpt>
 <trkpt lat="44.348088" lon="3.620989">
 <time>2011-05-20T11:02:58.9Z</time>
 </trkpt>
 <trkpt lat="44.347873" lon="3.620616">
 <time>2011-05-20T11:03:06.2Z</time>
 </trkpt>
 <trkpt lat="44.347722" lon="3.620413">
 <time>2011-05-20T11:03:10.9Z</time>
 </trkpt>
 <trkpt lat="44.347516" lon="3.620043">
 <time>2011-05-20T11:03:15.9Z</time>
 </trkpt>
 <trkpt lat="44.347426" lon="3.619695">
 <time>2011-05-20T11:03:19.9Z</time>
 </trkpt>
 <trkpt lat="44.34728" lon="3.619255">
 <time>2011-05-20T11:03:24.9Z</time>
 </trkpt>
 <trkpt lat="44.347198" lon="3.619061">
 <time>2011-05-20T11:03:30.2Z</time>
 </trkpt>
 <trkpt lat="44.347245" lon="3.619238">
 <time>2011-05-20T11:03:46.2Z</time>
 </trkpt>
 <trkpt lat="44.347329" lon="3.619413">
 <time>2011-05-20T11:03:51.2Z</time>
 </trkpt>
 <trkpt lat="44.34767" lon="3.620138">
 <time>2011-05-20T11:04:01.2Z</time>
 </trkpt>
 <trkpt lat="44.347756" lon="3.620285">
 <time>2011-05-20T11:04:06.2Z</time>
 </trkpt>
 <trkpt lat="44.347718" lon="3.62025">
 <time>2011-05-20T11:08:05.2Z</time>
 </trkpt>
 </trkseg>
 <trkseg>
 <trkpt lat="44.347712" lon="3.62025">
 <time>2011-05-20T11:08:10.2Z</time>
 </trkpt>
 <trkpt lat="44.347712" lon="3.62024">
 <time>2011-05-20T11:08:14.2Z</time>
 </trkpt>
 </trkseg>
 <trkseg>
 <trkpt lat="44.347646" lon="3.62026">
 <time>2011-05-20T11:09:15.2Z</time>
 </trkpt>
 <trkpt lat="44.347428" lon="3.620288">
 <time>2011-05-20T11:09:19.2Z</time>
 </trkpt>
 <trkpt lat="44.347565" lon="3.620283">
 <time>2011-05-20T11:09:35.2Z</time>
 </trkpt>
 <trkpt lat="44.347623" lon="3.62026">
 <time>2011-05-20T11:09:40.2Z</time>
 </trkpt>
 </trkseg>
 <trkseg>
 <trkpt lat="44.34771" lon="3.620195">
 <time>2011-05-20T11:10:44.2Z</time>
 </trkpt>
 <trkpt lat="44.347933" lon="3.620029">
 <time>2011-05-20T11:10:49.2Z</time>
 </trkpt>
 <trkpt lat="44.34791" lon="3.620169">
 <time>2011-05-20T11:13:44.2Z</time>
 </trkpt>
 </trkseg>
 <trkseg>
 <trkpt lat="44.34791" lon="3.620171">
 <time>2011-05-20T11:16:14.2Z</time>
 </trkpt>
 </trkseg>
 <trkseg>
 <trkpt lat="44.347908" lon="3.620172">
 <time>2011-05-20T11:17:55.2Z</time>
 </trkpt>
 </trkseg>
 <trkseg>
 <trkpt lat="44.347907" lon="3.620174">
 <time>2011-05-20T11:18:25.2Z</time>
 </trkpt>
 </trkseg>
 <trkseg>
 <trkpt lat="44.347907" lon="3.620176">
 <time>2011-05-20T11:19:00.2Z</time>
 </trkpt>
 </trkseg>
 <trkseg>
 <trkpt lat="44.347906" lon="3.620177">
 <time>2011-05-20T11:19:55.2Z</time>
 </trkpt>
 </trkseg>
 <trkseg>
 <trkpt lat="44.347905" lon="3.620178">
 <time>2011-05-20T11:21:05.2Z</time>
 </trkpt>
 </trkseg>
 <trkseg>
 <trkpt lat="44.347904" lon="3.620181">
 <time>2011-05-20T11:21:51.2Z</time>
 </trkpt>
 </trkseg>
 <trkseg>
 <trkpt lat="44.347904" lon="3.620183">
 <time>2011-05-20T11:24:07.2Z</time>
 </trkpt>
 </trkseg>
 <trkseg>
 <trkpt lat="44.347903" lon="3.620186">
 <time>2011-05-20T11:25:09.2Z</time>
 </trkpt>
 </trkseg>
 <trkseg>
 <trkpt lat="44.347903" lon="3.620188">
 <time>2011-05-20T11:26:17.2Z</time>
 </trkpt>
 </trkseg>
 <trkseg>
 <trkpt lat="44.347892" lon="3.620212">
 <time>2011-05-20T11:34:51.3Z</time>
 </trkpt>
 </trkseg>
 <trkseg>
 <trkpt lat="44.347892" lon="3.620214">
 <time>2011-05-20T11:36:02.3Z</time>
 </trkpt>
 </trkseg>
 <trkseg>
 <trkpt lat="44.347891" lon="3.620215">
 <time>2011-05-20T11:38:04.3Z</time>
 </trkpt>
 <trkpt lat="44.34789" lon="3.620219">
 <time>2011-05-20T11:38:19.3Z</time>
 </trkpt>
 </trkseg>
 <trkseg>
 <trkpt lat="44.34789" lon="3.62022">
 <time>2011-05-20T11:38:47.3Z</time>
 </trkpt>
 <trkpt lat="44.34789" lon="3.620222">
 <time>2011-05-20T11:39:36.3Z</time>
 </trkpt>
 </trkseg>
 <trkseg>
 <trkpt lat="44.34789" lon="3.620223">
 <time>2011-05-20T11:39:43.3Z</time>
 </trkpt>
 <trkpt lat="44.347889" lon="3.620223">
 <time>2011-05-20T11:39:46.3Z</time>
 </trkpt>
 </trkseg>
 <trkseg>
 <trkpt lat="44.347889" lon="3.620224">
 <time>2011-05-20T11:40:01.3Z</time>
 </trkpt>
 <trkpt lat="44.347888" lon="3.620227">
 <time>2011-05-20T11:40:29.3Z</time>
 </trkpt>
 </trkseg>
 <trkseg>
 <trkpt lat="44.347887" lon="3.620231">
 <time>2011-05-20T11:42:03.3Z</time>
 </trkpt>
 <trkpt lat="44.347879" lon="3.62025">
 <time>2011-05-20T11:47:25.3Z</time>
 </trkpt>
 </trkseg>
 <trkseg>
 <trkpt lat="44.347878" lon="3.620251">
 <time>2011-05-20T11:48:00.3Z</time>
 </trkpt>
 <trkpt lat="44.347876" lon="3.620258">
 <time>2011-05-20T11:51:04.3Z</time>
 </trkpt>
 </trkseg>
 <trkseg>
 <trkpt lat="44.347874" lon="3.620261">
 <time>2011-05-20T11:54:03.3Z</time>
 </trkpt>
 <trkpt lat="44.347874" lon="3.620263">
 <time>2011-05-20T11:54:58.3Z</time>
 </trkpt>
 </trkseg>
 <trkseg>
 <trkpt lat="44.347873" lon="3.620263">
 <time>2011-05-20T11:55:57.3Z</time>
 </trkpt>
 <trkpt lat="44.347873" lon="3.620265">
 <time>2011-05-20T11:56:32.3Z</time>
 </trkpt>
 </trkseg>
 <trkseg>
 <trkpt lat="44.347872" lon="3.620268">
 <time>2011-05-20T11:58:56.3Z</time>
 </trkpt>
 </trkseg>
 <trkseg>
 <trkpt lat="44.347871" lon="3.62027">
 <time>2011-05-20T12:00:22.3Z</time>
 </trkpt>
 </trkseg>
 <trkseg>
 <trkpt lat="44.347872" lon="3.62027">
 <time>2011-05-20T12:02:23.3Z</time>
 </trkpt>
 <trkpt lat="44.347871" lon="3.620271">
 <time>2011-05-20T12:07:07.3Z</time>
 </trkpt>
 </trkseg>
 <trkseg>
 <trkpt lat="44.347871" lon="3.620272">
 <time>2011-05-20T12:08:02.3Z</time>
 </trkpt>
 <trkpt lat="44.347867" lon="3.620281">
 <time>2011-05-20T12:12:32.3Z</time>
 </trkpt>
 </trkseg>
 <trkseg>
 <trkpt lat="44.347778" lon="3.620111">
 <time>2011-05-20T12:13:04.3Z</time>
 </trkpt>
 <trkpt lat="44.34765" lon="3.62014">
 <time>2011-05-20T12:19:09.2Z</time>
 </trkpt>
 </trkseg>
 <trkseg>
 <trkpt lat="44.347649" lon="3.620142">
 <time>2011-05-20T12:22:18.2Z</time>
 </trkpt>
 </trkseg>
 <trkseg>
 <trkpt lat="44.347742" lon="3.62028">
 <time>2011-05-20T12:25:09.2Z</time>
 </trkpt>
 <trkpt lat="44.347858" lon="3.620382">
 <time>2011-05-20T12:27:16.2Z</time>
 </trkpt>
 <trkpt lat="44.347743" lon="3.620267">
 <time>2011-05-20T12:31:48.9Z</time>
 </trkpt>
 <trkpt lat="44.347576" lon="3.620046">
 <time>2011-05-20T12:31:53.2Z</time>
 </trkpt>
 <trkpt lat="44.347108" lon="3.619028">
 <time>2011-05-20T12:31:59.9Z</time>
 </trkpt>
 <trkpt lat="44.346347" lon="3.618001">
 <time>2011-05-20T12:32:07.9Z</time>
 </trkpt>
 <trkpt lat="44.346101" lon="3.617423">
 <time>2011-05-20T12:32:12.2Z</time>
 </trkpt>
 <trkpt lat="44.345464" lon="3.615776">
 <time>2011-05-20T12:32:19.2Z</time>
 </trkpt>
 <trkpt lat="44.344973" lon="3.613799">
 <time>2011-05-20T12:32:28.2Z</time>
 </trkpt>
 <trkpt lat="44.344884" lon="3.612927">
 <time>2011-05-20T12:32:33.2Z</time>
 </trkpt>
 <trkpt lat="44.345079" lon="3.611137">
 <time>2011-05-20T12:32:40.2Z</time>
 </trkpt>
 <trkpt lat="44.344999" lon="3.610514">
 <time>2011-05-20T12:32:44.2Z</time>
 </trkpt>
 <trkpt lat="44.344667" lon="3.610152">
 <time>2011-05-20T12:32:49.2Z</time>
 </trkpt>
 <trkpt lat="44.344458" lon="3.609777">
 <time>2011-05-20T12:32:53.2Z</time>
 </trkpt>
 <trkpt lat="44.344455" lon="3.608971">
 <time>2011-05-20T12:32:58.2Z</time>
 </trkpt>
 <trkpt lat="44.344568" lon="3.608174">
 <time>2011-05-20T12:33:03.2Z</time>
 </trkpt>
 <trkpt lat="44.344357" lon="3.607083">
 <time>2011-05-20T12:33:08.2Z</time>
 </trkpt>
 <trkpt lat="44.344293" lon="3.606419">
 <time>2011-05-20T12:33:13.2Z</time>
 </trkpt>
 <trkpt lat="44.344204" lon="3.605733">
 <time>2011-05-20T12:33:18.2Z</time>
 </trkpt>
 <trkpt lat="44.343773" lon="3.604775">
 <time>2011-05-20T12:33:24.2Z</time>
 </trkpt>
 <trkpt lat="44.343528" lon="3.603889">
 <time>2011-05-20T12:33:29.2Z</time>
 </trkpt>
 <trkpt lat="44.34332" lon="3.602966">
 <time>2011-05-20T12:33:34.2Z</time>
 </trkpt>
 <trkpt lat="44.343273" lon="3.60221">
 <time>2011-05-20T12:33:39.2Z</time>
 </trkpt>
 <trkpt lat="44.343477" lon="3.601142">
 <time>2011-05-20T12:33:44.2Z</time>
 </trkpt>
 <trkpt lat="44.343741" lon="3.600216">
 <time>2011-05-20T12:33:49.2Z</time>
 </trkpt>
 <trkpt lat="44.34368" lon="3.599075">
 <time>2011-05-20T12:33:54.2Z</time>
 </trkpt>
 <trkpt lat="44.343177" lon="3.595754">
 <time>2011-05-20T12:34:05.2Z</time>
 </trkpt>
 <trkpt lat="44.342834" lon="3.595406">
 <time>2011-05-20T12:34:10.2Z</time>
 </trkpt>
 <trkpt lat="44.341989" lon="3.595947">
 <time>2011-05-20T12:34:15.2Z</time>
 </trkpt>
 <trkpt lat="44.34085" lon="3.596723">
 <time>2011-05-20T12:34:20.2Z</time>
 </trkpt>
 <trkpt lat="44.339633" lon="3.596971">
 <time>2011-05-20T12:34:25.2Z</time>
 </trkpt>
 <trkpt lat="44.338113" lon="3.596833">
 <time>2011-05-20T12:34:30.2Z</time>
 </trkpt>
 <trkpt lat="44.337445" lon="3.596592">
 <time>2011-05-20T12:34:34.9Z</time>
 </trkpt>
 <trkpt lat="44.336897" lon="3.596057">
 <time>2011-05-20T12:34:38.9Z</time>
 </trkpt>
 <trkpt lat="44.336573" lon="3.595254">
 <time>2011-05-20T12:34:43.2Z</time>
 </trkpt>
 <trkpt lat="44.335778" lon="3.592293">
 <time>2011-05-20T12:34:53.9Z</time>
 </trkpt>
 <trkpt lat="44.335566" lon="3.591201">
 <time>2011-05-20T12:34:58.2Z</time>
 </trkpt>
 <trkpt lat="44.335499" lon="3.589922">
 <time>2011-05-20T12:35:03.2Z</time>
 </trkpt>
 <trkpt lat="44.335587" lon="3.588696">
 <time>2011-05-20T12:35:07.2Z</time>
 </trkpt>
 <trkpt lat="44.335949" lon="3.586657">
 <time>2011-05-20T12:35:16.2Z</time>
 </trkpt>
 <trkpt lat="44.335964" lon="3.586388">
 <time>2011-05-20T12:35:20.2Z</time>
 </trkpt>
 <trkpt lat="44.335996" lon="3.586168">
 <time>2011-05-20T12:35:26.9Z</time>
 </trkpt>
 <trkpt lat="44.335847" lon="3.586111">
 <time>2011-05-20T12:35:31.2Z</time>
 </trkpt>
 <trkpt lat="44.33551" lon="3.586117">
 <time>2011-05-20T12:35:36.2Z</time>
 </trkpt>
 <trkpt lat="44.334825" lon="3.586159">
 <time>2011-05-20T12:35:40.9Z</time>
 </trkpt>
 <trkpt lat="44.333985" lon="3.586576">
 <time>2011-05-20T12:35:46.2Z</time>
 </trkpt>
 <trkpt lat="44.333187" lon="3.587605">
 <time>2011-05-20T12:35:50.9Z</time>
 </trkpt>
 <trkpt lat="44.332695" lon="3.58867">
 <time>2011-05-20T12:35:54.9Z</time>
 </trkpt>
 <trkpt lat="44.331847" lon="3.590917">
 <time>2011-05-20T12:36:03Z</time>
 </trkpt>
 <trkpt lat="44.331511" lon="3.591256">
 <time>2011-05-20T12:36:08.2Z</time>
 </trkpt>
 <trkpt lat="44.331154" lon="3.590795">
 <time>2011-05-20T12:36:13.2Z</time>
 </trkpt>
 <trkpt lat="44.330755" lon="3.590482">
 <time>2011-05-20T12:36:18.2Z</time>
 </trkpt>
 <trkpt lat="44.330238" lon="3.590707">
 <time>2011-05-20T12:36:23.2Z</time>
 </trkpt>
 <trkpt lat="44.328881" lon="3.591723">
 <time>2011-05-20T12:36:37.2Z</time>
 </trkpt>
 <trkpt lat="44.328641" lon="3.591441">
 <time>2011-05-20T12:36:41.2Z</time>
 </trkpt>
 <trkpt lat="44.328372" lon="3.591296">
 <time>2011-05-20T12:36:46.2Z</time>
 </trkpt>
 <trkpt lat="44.327906" lon="3.591534">
 <time>2011-05-20T12:36:51.2Z</time>
 </trkpt>
 <trkpt lat="44.327175" lon="3.59218">
 <time>2011-05-20T12:37:00.2Z</time>
 </trkpt>
 <trkpt lat="44.327025" lon="3.592261">
 <time>2011-05-20T12:37:06.2Z</time>
 </trkpt>
 <trkpt lat="44.326891" lon="3.592156">
 <time>2011-05-20T12:37:11.2Z</time>
 </trkpt>
 <trkpt lat="44.326681" lon="3.591421">
 <time>2011-05-20T12:37:23.2Z</time>
 </trkpt>
 <trkpt lat="44.326641" lon="3.591213">
 <time>2011-05-20T12:37:28.2Z</time>
 </trkpt>
 <trkpt lat="44.32651" lon="3.591158">
 <time>2011-05-20T12:37:33.2Z</time>
 </trkpt>
 <trkpt lat="44.32615" lon="3.591493">
 <time>2011-05-20T12:37:41.2Z</time>
 </trkpt>
 <trkpt lat="44.326015" lon="3.591385">
 <time>2011-05-20T12:37:51.2Z</time>
 </trkpt>
 <trkpt lat="44.325937" lon="3.591221">
 <time>2011-05-20T12:37:56.2Z</time>
 </trkpt>
 <trkpt lat="44.325519" lon="3.590981">
 <time>2011-05-20T12:38:01.2Z</time>
 </trkpt>
 <trkpt lat="44.324848" lon="3.590663">
 <time>2011-05-20T12:38:07Z</time>
 </trkpt>
 <trkpt lat="44.324583" lon="3.590633">
 <time>2011-05-20T12:38:11.2Z</time>
 </trkpt>
 <trkpt lat="44.324279" lon="3.590883">
 <time>2011-05-20T12:38:15.2Z</time>
 </trkpt>
 <trkpt lat="44.324032" lon="3.591228">
 <time>2011-05-20T12:38:19.9Z</time>
 </trkpt>
 <trkpt lat="44.323837" lon="3.5912">
 <time>2011-05-20T12:38:24.2Z</time>
 </trkpt>
 <trkpt lat="44.323901" lon="3.590826">
 <time>2011-05-20T12:38:29.2Z</time>
 </trkpt>
 <trkpt lat="44.323981" lon="3.590365">
 <time>2011-05-20T12:38:33.2Z</time>
 </trkpt>
 <trkpt lat="44.324163" lon="3.589666">
 <time>2011-05-20T12:38:38.2Z</time>
 </trkpt>
 <trkpt lat="44.32447" lon="3.589035">
 <time>2011-05-20T12:38:42.9Z</time>
 </trkpt>
 <trkpt lat="44.324447" lon="3.588342">
 <time>2011-05-20T12:38:47.2Z</time>
 </trkpt>
 <trkpt lat="44.324098" lon="3.587203">
 <time>2011-05-20T12:38:53.9Z</time>
 </trkpt>
 <trkpt lat="44.324251" lon="3.586924">
 <time>2011-05-20T12:38:58.2Z</time>
 </trkpt>
 <trkpt lat="44.324729" lon="3.586349">
 <time>2011-05-20T12:39:02.9Z</time>
 </trkpt>
 <trkpt lat="44.324565" lon="3.586338">
 <time>2011-05-20T12:39:07.9Z</time>
 </trkpt>
 <trkpt lat="44.324229" lon="3.586509">
 <time>2011-05-20T12:39:12.2Z</time>
 </trkpt>
 <trkpt lat="44.323677" lon="3.587137">
 <time>2011-05-20T12:39:17.2Z</time>
 </trkpt>
 <trkpt lat="44.323474" lon="3.58791">
 <time>2011-05-20T12:39:22.2Z</time>
 </trkpt>
 <trkpt lat="44.323111" lon="3.588407">
 <time>2011-05-20T12:39:26.9Z</time>
 </trkpt>
 <trkpt lat="44.322608" lon="3.58846">
 <time>2011-05-20T12:39:31.9Z</time>
 </trkpt>
 <trkpt lat="44.321977" lon="3.588224">
 <time>2011-05-20T12:39:37.2Z</time>
 </trkpt>
 <trkpt lat="44.321246" lon="3.588739">
 <time>2011-05-20T12:39:42.2Z</time>
 </trkpt>
 <trkpt lat="44.320754" lon="3.589073">
 <time>2011-05-20T12:39:46.2Z</time>
 </trkpt>
 <trkpt lat="44.320564" lon="3.589284">
 <time>2011-05-20T12:39:50.2Z</time>
 </trkpt>
 <trkpt lat="44.320687" lon="3.588911">
 <time>2011-05-20T12:39:55.2Z</time>
 </trkpt>
 <trkpt lat="44.321183" lon="3.588227">
 <time>2011-05-20T12:39:59.9Z</time>
 </trkpt>
 <trkpt lat="44.32167" lon="3.58768">
 <time>2011-05-20T12:40:05.2Z</time>
 </trkpt>
 <trkpt lat="44.322166" lon="3.587327">
 <time>2011-05-20T12:40:10.2Z</time>
 </trkpt>
 <trkpt lat="44.32251" lon="3.586761">
 <time>2011-05-20T12:40:15.2Z</time>
 </trkpt>
 <trkpt lat="44.322558" lon="3.586043">
 <time>2011-05-20T12:40:20.2Z</time>
 </trkpt>
 <trkpt lat="44.32261" lon="3.585269">
 <time>2011-05-20T12:40:25.2Z</time>
 </trkpt>
 <trkpt lat="44.322966" lon="3.584708">
 <time>2011-05-20T12:40:30.2Z</time>
 </trkpt>
 <trkpt lat="44.323131" lon="3.583985">
 <time>2011-05-20T12:40:35.2Z</time>
 </trkpt>
 <trkpt lat="44.323181" lon="3.583128">
 <time>2011-05-20T12:40:40.2Z</time>
 </trkpt>
 <trkpt lat="44.32349" lon="3.582568">
 <time>2011-05-20T12:40:44.9Z</time>
 </trkpt>
 <trkpt lat="44.323985" lon="3.582392">
 <time>2011-05-20T12:40:49Z</time>
 </trkpt>
 <trkpt lat="44.324372" lon="3.582195">
 <time>2011-05-20T12:40:53.2Z</time>
 </trkpt>
 <trkpt lat="44.3248" lon="3.581454">
 <time>2011-05-20T12:40:58.2Z</time>
 </trkpt>
 <trkpt lat="44.325184" lon="3.581016">
 <time>2011-05-20T12:41:03.2Z</time>
 </trkpt>
 <trkpt lat="44.325644" lon="3.580389">
 <time>2011-05-20T12:41:08.2Z</time>
 </trkpt>
 <trkpt lat="44.326116" lon="3.579724">
 <time>2011-05-20T12:41:12.2Z</time>
 </trkpt>
 <trkpt lat="44.326354" lon="3.579066">
 <time>2011-05-20T12:41:17.2Z</time>
 </trkpt>
 <trkpt lat="44.32668" lon="3.578488">
 <time>2011-05-20T12:41:22.2Z</time>
 </trkpt>
 <trkpt lat="44.327141" lon="3.578099">
 <time>2011-05-20T12:41:26.2Z</time>
 </trkpt>
 <trkpt lat="44.327754" lon="3.577393">
 <time>2011-05-20T12:41:30.2Z</time>
 </trkpt>
 <trkpt lat="44.32897" lon="3.576248">
 <time>2011-05-20T12:41:38.2Z</time>
 </trkpt>
 <trkpt lat="44.330321" lon="3.575209">
 <time>2011-05-20T12:41:46.2Z</time>
 </trkpt>
 <trkpt lat="44.330608" lon="3.574967">
 <time>2011-05-20T12:41:51.2Z</time>
 </trkpt>
 <trkpt lat="44.330252" lon="3.574989">
 <time>2011-05-20T12:41:56.2Z</time>
 </trkpt>
 <trkpt lat="44.329099" lon="3.575465">
 <time>2011-05-20T12:42:01.2Z</time>
 </trkpt>
 <trkpt lat="44.328304" lon="3.57572">
 <time>2011-05-20T12:42:06.2Z</time>
 </trkpt>
 <trkpt lat="44.327553" lon="3.57616">
 <time>2011-05-20T12:42:11.2Z</time>
 </trkpt>
 <trkpt lat="44.327019" lon="3.576428">
 <time>2011-05-20T12:42:15.2Z</time>
 </trkpt>
 <trkpt lat="44.326337" lon="3.576845">
 <time>2011-05-20T12:42:20.2Z</time>
 </trkpt>
 <trkpt lat="44.325349" lon="3.577471">
 <time>2011-05-20T12:42:25.9Z</time>
 </trkpt>
 <trkpt lat="44.325204" lon="3.577466">
 <time>2011-05-20T12:42:31.2Z</time>
 </trkpt>
 <trkpt lat="44.32574" lon="3.576876">
 <time>2011-05-20T12:42:35.9Z</time>
 </trkpt>
 <trkpt lat="44.326497" lon="3.576154">
 <time>2011-05-20T12:42:39.9Z</time>
 </trkpt>
 <trkpt lat="44.326844" lon="3.575661">
 <time>2011-05-20T12:42:44.2Z</time>
 </trkpt>
 <trkpt lat="44.327553" lon="3.575043">
 <time>2011-05-20T12:42:48.9Z</time>
 </trkpt>
 <trkpt lat="44.328114" lon="3.574532">
 <time>2011-05-20T12:42:53.2Z</time>
 </trkpt>
 <trkpt lat="44.328974" lon="3.573962">
 <time>2011-05-20T12:42:58.2Z</time>
 </trkpt>
 <trkpt lat="44.32968" lon="3.573236">
 <time>2011-05-20T12:43:03.2Z</time>
 </trkpt>
 <trkpt lat="44.330323" lon="3.572784">
 <time>2011-05-20T12:43:08.2Z</time>
 </trkpt>
 <trkpt lat="44.330814" lon="3.572013">
 <time>2011-05-20T12:43:13.2Z</time>
 </trkpt>
 <trkpt lat="44.331116" lon="3.571001">
 <time>2011-05-20T12:43:17.2Z</time>
 </trkpt>
 <trkpt lat="44.331348" lon="3.570151">
 <time>2011-05-20T12:43:22.2Z</time>
 </trkpt>
 <trkpt lat="44.331942" lon="3.569246">
 <time>2011-05-20T12:43:27.2Z</time>
 </trkpt>
 <trkpt lat="44.332681" lon="3.56826">
 <time>2011-05-20T12:43:33.2Z</time>
 </trkpt>
 <trkpt lat="44.332775" lon="3.567999">
 <time>2011-05-20T12:43:38.2Z</time>
 </trkpt>
 <trkpt lat="44.332361" lon="3.568312">
 <time>2011-05-20T12:43:43.2Z</time>
 </trkpt>
 <trkpt lat="44.331115" lon="3.56922">
 <time>2011-05-20T12:43:49Z</time>
 </trkpt>
 <trkpt lat="44.330682" lon="3.569729">
 <time>2011-05-20T12:43:53.2Z</time>
 </trkpt>
 <trkpt lat="44.330134" lon="3.571172">
 <time>2011-05-20T12:43:58.2Z</time>
 </trkpt>
 <trkpt lat="44.329815" lon="3.571684">
 <time>2011-05-20T12:44:02.9Z</time>
 </trkpt>
 <trkpt lat="44.329573" lon="3.571798">
 <time>2011-05-20T12:44:07.2Z</time>
 </trkpt>
 <trkpt lat="44.329818" lon="3.571534">
 <time>2011-05-20T12:44:11.2Z</time>
 </trkpt>
 <trkpt lat="44.330087" lon="3.570978">
 <time>2011-05-20T12:44:16.2Z</time>
 </trkpt>
 <trkpt lat="44.330223" lon="3.569754">
 <time>2011-05-20T12:44:21.2Z</time>
 </trkpt>
 <trkpt lat="44.330038" lon="3.568666">
 <time>2011-05-20T12:44:26.2Z</time>
 </trkpt>
 <trkpt lat="44.329559" lon="3.568009">
 <time>2011-05-20T12:44:31.2Z</time>
 </trkpt>
 <trkpt lat="44.328724" lon="3.567921">
 <time>2011-05-20T12:44:36.2Z</time>
 </trkpt>
 <trkpt lat="44.328053" lon="3.567555">
 <time>2011-05-20T12:44:41.2Z</time>
 </trkpt>
 <trkpt lat="44.327697" lon="3.56662">
 <time>2011-05-20T12:44:46.2Z</time>
 </trkpt>
 <trkpt lat="44.326396" lon="3.565328">
 <time>2011-05-20T12:44:56.2Z</time>
 </trkpt>
 <trkpt lat="44.326061" lon="3.564616">
 <time>2011-05-20T12:45:00.2Z</time>
 </trkpt>
 <trkpt lat="44.325642" lon="3.564111">
 <time>2011-05-20T12:45:05.2Z</time>
 </trkpt>
 <trkpt lat="44.324887" lon="3.563956">
 <time>2011-05-20T12:45:10.2Z</time>
 </trkpt>
 <trkpt lat="44.324124" lon="3.564331">
 <time>2011-05-20T12:45:15.2Z</time>
 </trkpt>
 <trkpt lat="44.323322" lon="3.564211">
 <time>2011-05-20T12:45:20.2Z</time>
 </trkpt>
 <trkpt lat="44.32252" lon="3.563665">
 <time>2011-05-20T12:45:25.2Z</time>
 </trkpt>
 <trkpt lat="44.321996" lon="3.563079">
 <time>2011-05-20T12:45:29.2Z</time>
 </trkpt>
 <trkpt lat="44.32131" lon="3.562514">
 <time>2011-05-20T12:45:34.2Z</time>
 </trkpt>
 <trkpt lat="44.319821" lon="3.56202">
 <time>2011-05-20T12:45:41.2Z</time>
 </trkpt>
 <trkpt lat="44.319114" lon="3.561883">
 <time>2011-05-20T12:45:45.2Z</time>
 </trkpt>
 <trkpt lat="44.31761" lon="3.561189">
 <time>2011-05-20T12:45:54.2Z</time>
 </trkpt>
 <trkpt lat="44.316877" lon="3.560568">
 <time>2011-05-20T12:45:59.2Z</time>
 </trkpt>
 <trkpt lat="44.315742" lon="3.559956">
 <time>2011-05-20T12:46:06.2Z</time>
 </trkpt>
 <trkpt lat="44.315302" lon="3.559488">
 <time>2011-05-20T12:46:11.2Z</time>
 </trkpt>
 <trkpt lat="44.31491" lon="3.558854">
 <time>2011-05-20T12:46:15.2Z</time>
 </trkpt>
 <trkpt lat="44.314404" lon="3.557981">
 <time>2011-05-20T12:46:20.2Z</time>
 </trkpt>
 <trkpt lat="44.313621" lon="3.557166">
 <time>2011-05-20T12:46:25.2Z</time>
 </trkpt>
 <trkpt lat="44.313427" lon="3.556912">
 <time>2011-05-20T12:46:28.2Z</time>
 </trkpt>
 <trkpt lat="44.313006" lon="3.556086">
 <time>2011-05-20T12:46:33.2Z</time>
 </trkpt>
 <trkpt lat="44.312553" lon="3.555231">
 <time>2011-05-20T12:46:38.2Z</time>
 </trkpt>
 <trkpt lat="44.312458" lon="3.554273">
 <time>2011-05-20T12:46:43.2Z</time>
 </trkpt>
 <trkpt lat="44.312555" lon="3.553518">
 <time>2011-05-20T12:46:47.2Z</time>
 </trkpt>
 <trkpt lat="44.312327" lon="3.552177">
 <time>2011-05-20T12:46:53.2Z</time>
 </trkpt>
 <trkpt lat="44.312028" lon="3.551586">
 <time>2011-05-20T12:46:58.2Z</time>
 </trkpt>
 <trkpt lat="44.311453" lon="3.55131">
 <time>2011-05-20T12:47:03.2Z</time>
 </trkpt>
 <trkpt lat="44.311539" lon="3.550921">
 <time>2011-05-20T12:47:07.2Z</time>
 </trkpt>
 <trkpt lat="44.311772" lon="3.55054">
 <time>2011-05-20T12:47:12.2Z</time>
 </trkpt>
 <trkpt lat="44.311414" lon="3.549894">
 <time>2011-05-20T12:47:16.9Z</time>
 </trkpt>
 <trkpt lat="44.311303" lon="3.549147">
 <time>2011-05-20T12:47:21.2Z</time>
 </trkpt>
 <trkpt lat="44.311538" lon="3.548085">
 <time>2011-05-20T12:47:26.2Z</time>
 </trkpt>
 <trkpt lat="44.311833" lon="3.547576">
 <time>2011-05-20T12:47:30.2Z</time>
 </trkpt>
 <trkpt lat="44.311607" lon="3.546884">
 <time>2011-05-20T12:47:35.2Z</time>
 </trkpt>
 <trkpt lat="44.311119" lon="3.545801">
 <time>2011-05-20T12:47:40.2Z</time>
 </trkpt>
 <trkpt lat="44.31087" lon="3.544576">
 <time>2011-05-20T12:47:45.2Z</time>
 </trkpt>
 <trkpt lat="44.31063" lon="3.543388">
 <time>2011-05-20T12:47:50.2Z</time>
 </trkpt>
 <trkpt lat="44.310592" lon="3.542944">
 <time>2011-05-20T12:47:54.2Z</time>
 </trkpt>
 <trkpt lat="44.310175" lon="3.542077">
 <time>2011-05-20T12:47:59.2Z</time>
 </trkpt>
 <trkpt lat="44.309989" lon="3.54128">
 <time>2011-05-20T12:48:04.2Z</time>
 </trkpt>
 <trkpt lat="44.309938" lon="3.540333">
 <time>2011-05-20T12:48:09.2Z</time>
 </trkpt>
 <trkpt lat="44.309769" lon="3.539243">
 <time>2011-05-20T12:48:14.2Z</time>
 </trkpt>
 <trkpt lat="44.309611" lon="3.53861">
 <time>2011-05-20T12:48:18.2Z</time>
 </trkpt>
 <trkpt lat="44.309658" lon="3.53701">
 <time>2011-05-20T12:48:24.2Z</time>
 </trkpt>
 <trkpt lat="44.309989" lon="3.536127">
 <time>2011-05-20T12:48:29.2Z</time>
 </trkpt>
 <trkpt lat="44.310083" lon="3.535319">
 <time>2011-05-20T12:48:34.2Z</time>
 </trkpt>
 <trkpt lat="44.310311" lon="3.534675">
 <time>2011-05-20T12:48:38.2Z</time>
 </trkpt>
 <trkpt lat="44.31092" lon="3.534413">
 <time>2011-05-20T12:48:42.2Z</time>
 </trkpt>
 <trkpt lat="44.311368" lon="3.533807">
 <time>2011-05-20T12:48:47.2Z</time>
 </trkpt>
 <trkpt lat="44.311573" lon="3.53295">
 <time>2011-05-20T12:48:52.2Z</time>
 </trkpt>
 <trkpt lat="44.311562" lon="3.53198">
 <time>2011-05-20T12:48:57.2Z</time>
 </trkpt>
 <trkpt lat="44.311635" lon="3.531033">
 <time>2011-05-20T12:49:02.2Z</time>
 </trkpt>
 <trkpt lat="44.311337" lon="3.530234">
 <time>2011-05-20T12:49:07.2Z</time>
 </trkpt>
 <trkpt lat="44.311114" lon="3.529597">
 <time>2011-05-20T12:49:11.9Z</time>
 </trkpt>
 <trkpt lat="44.310839" lon="3.528902">
 <time>2011-05-20T12:49:16.2Z</time>
 </trkpt>
 <trkpt lat="44.310576" lon="3.528084">
 <time>2011-05-20T12:49:20.2Z</time>
 </trkpt>
 <trkpt lat="44.310238" lon="3.527624">
 <time>2011-05-20T12:49:25.2Z</time>
 </trkpt>
 <trkpt lat="44.309342" lon="3.527503">
 <time>2011-05-20T12:49:29.9Z</time>
 </trkpt>
 <trkpt lat="44.308735" lon="3.527293">
 <time>2011-05-20T12:49:34.2Z</time>
 </trkpt>
 <trkpt lat="44.308099" lon="3.526755">
 <time>2011-05-20T12:49:39.2Z</time>
 </trkpt>
 <trkpt lat="44.307805" lon="3.526119">
 <time>2011-05-20T12:49:43.2Z</time>
 </trkpt>
 <trkpt lat="44.307139" lon="3.525336">
 <time>2011-05-20T12:49:48.2Z</time>
 </trkpt>
 <trkpt lat="44.306254" lon="3.524777">
 <time>2011-05-20T12:49:53.2Z</time>
 </trkpt>
 <trkpt lat="44.305882" lon="3.523851">
 <time>2011-05-20T12:49:58.2Z</time>
 </trkpt>
 <trkpt lat="44.305396" lon="3.522453">
 <time>2011-05-20T12:50:03.2Z</time>
 </trkpt>
 <trkpt lat="44.304652" lon="3.520977">
 <time>2011-05-20T12:50:07.2Z</time>
 </trkpt>
 <trkpt lat="44.304133" lon="3.520004">
 <time>2011-05-20T12:50:12.2Z</time>
 </trkpt>
 <trkpt lat="44.303626" lon="3.51891">
 <time>2011-05-20T12:50:17.2Z</time>
 </trkpt>
 <trkpt lat="44.303344" lon="3.518024">
 <time>2011-05-20T12:50:21.2Z</time>
 </trkpt>
 <trkpt lat="44.303007" lon="3.516662">
 <time>2011-05-20T12:50:26.2Z</time>
 </trkpt>
 <trkpt lat="44.302487" lon="3.515236">
 <time>2011-05-20T12:50:31.2Z</time>
 </trkpt>
 <trkpt lat="44.301912" lon="3.513917">
 <time>2011-05-20T12:50:35.9Z</time>
 </trkpt>
 <trkpt lat="44.301309" lon="3.512161">
 <time>2011-05-20T12:50:41.2Z</time>
 </trkpt>
 <trkpt lat="44.300845" lon="3.511044">
 <time>2011-05-20T12:50:46.2Z</time>
 </trkpt>
 <trkpt lat="44.300071" lon="3.508732">
 <time>2011-05-20T12:50:53.2Z</time>
 </trkpt>
 <trkpt lat="44.299464" lon="3.507709">
 <time>2011-05-20T12:50:58.2Z</time>
 </trkpt>
 <trkpt lat="44.29853" lon="3.506415">
 <time>2011-05-20T12:51:03.2Z</time>
 </trkpt>
 <trkpt lat="44.297655" lon="3.505292">
 <time>2011-05-20T12:51:07.2Z</time>
 </trkpt>
 <trkpt lat="44.297011" lon="3.504408">
 <time>2011-05-20T12:51:12.2Z</time>
 </trkpt>
 <trkpt lat="44.296256" lon="3.503421">
 <time>2011-05-20T12:51:16.2Z</time>
 </trkpt>
 <trkpt lat="44.295297" lon="3.501827">
 <time>2011-05-20T12:51:21.2Z</time>
 </trkpt>
 <trkpt lat="44.295146" lon="3.501341">
 <time>2011-05-20T12:51:25.2Z</time>
 </trkpt>
 <trkpt lat="44.295359" lon="3.500478">
 <time>2011-05-20T12:51:30.2Z</time>
 </trkpt>
 <trkpt lat="44.295176" lon="3.499802">
 <time>2011-05-20T12:51:35.2Z</time>
 </trkpt>
 <trkpt lat="44.294957" lon="3.498513">
 <time>2011-05-20T12:51:40.2Z</time>
 </trkpt>
 <trkpt lat="44.294393" lon="3.497465">
 <time>2011-05-20T12:51:45.2Z</time>
 </trkpt>
 <trkpt lat="44.29355" lon="3.497111">
 <time>2011-05-20T12:51:50.2Z</time>
 </trkpt>
 <trkpt lat="44.292725" lon="3.496532">
 <time>2011-05-20T12:51:54.9Z</time>
 </trkpt>
 <trkpt lat="44.292125" lon="3.49609">
 <time>2011-05-20T12:51:58.9Z</time>
 </trkpt>
 <trkpt lat="44.291393" lon="3.495947">
 <time>2011-05-20T12:52:03.9Z</time>
 </trkpt>
 <trkpt lat="44.290904" lon="3.495605">
 <time>2011-05-20T12:52:08.9Z</time>
 </trkpt>
 <trkpt lat="44.290395" lon="3.495058">
 <time>2011-05-20T12:52:13.9Z</time>
 </trkpt>
 <trkpt lat="44.289807" lon="3.49425">
 <time>2011-05-20T12:52:18.9Z</time>
 </trkpt>
 <trkpt lat="44.289327" lon="3.49309">
 <time>2011-05-20T12:52:23.9Z</time>
 </trkpt>
 <trkpt lat="44.289007" lon="3.491896">
 <time>2011-05-20T12:52:27.9Z</time>
 </trkpt>
 <trkpt lat="44.288439" lon="3.489082">
 <time>2011-05-20T12:52:34.2Z</time>
 </trkpt>
 <trkpt lat="44.288094" lon="3.487925">
 <time>2011-05-20T12:52:38.2Z</time>
 </trkpt>
 <trkpt lat="44.287489" lon="3.486415">
 <time>2011-05-20T12:52:43.2Z</time>
 </trkpt>
 <trkpt lat="44.28748" lon="3.485261">
 <time>2011-05-20T12:52:48.2Z</time>
 </trkpt>
 <trkpt lat="44.286935" lon="3.479881">
 <time>2011-05-20T12:53:04.9Z</time>
 </trkpt>
 <trkpt lat="44.286952" lon="3.479069">
 <time>2011-05-20T12:53:08.9Z</time>
 </trkpt>
 <trkpt lat="44.287011" lon="3.477649">
 <time>2011-05-20T12:53:13.9Z</time>
 </trkpt>
 <trkpt lat="44.286888" lon="3.47671">
 <time>2011-05-20T12:53:18.9Z</time>
 </trkpt>
 <trkpt lat="44.286898" lon="3.475602">
 <time>2011-05-20T12:53:23.9Z</time>
 </trkpt>
 <trkpt lat="44.286981" lon="3.474494">
 <time>2011-05-20T12:53:27.9Z</time>
 </trkpt>
 <trkpt lat="44.28679" lon="3.473063">
 <time>2011-05-20T12:53:32.9Z</time>
 </trkpt>
 <trkpt lat="44.286601" lon="3.471949">
 <time>2011-05-20T12:53:36.9Z</time>
 </trkpt>
 <trkpt lat="44.286686" lon="3.470987">
 <time>2011-05-20T12:53:41.9Z</time>
 </trkpt>
 <trkpt lat="44.288105" lon="3.458517">
 <time>2011-05-20T12:54:21.9Z</time>
 </trkpt>
 <trkpt lat="44.288334" lon="3.457469">
 <time>2011-05-20T12:54:26.9Z</time>
 </trkpt>
 <trkpt lat="44.288812" lon="3.456018">
 <time>2011-05-20T12:54:33.2Z</time>
 </trkpt>
 <trkpt lat="44.290005" lon="3.452898">
 <time>2011-05-20T12:54:46.9Z</time>
 </trkpt>
 <trkpt lat="44.291426" lon="3.450418">
 <time>2011-05-20T12:54:58.9Z</time>
 </trkpt>
 <trkpt lat="44.291749" lon="3.449399">
 <time>2011-05-20T12:55:03.9Z</time>
 </trkpt>
 <trkpt lat="44.293741" lon="3.438881">
 <time>2011-05-20T12:55:30.9Z</time>
 </trkpt>
 <trkpt lat="44.293738" lon="3.438">
 <time>2011-05-20T12:55:35.9Z</time>
 </trkpt>
 <trkpt lat="44.293598" lon="3.436144">
 <time>2011-05-20T12:55:41.9Z</time>
 </trkpt>
 <trkpt lat="44.293447" lon="3.435579">
 <time>2011-05-20T12:55:45.9Z</time>
 </trkpt>
 <trkpt lat="44.292968" lon="3.43477">
 <time>2011-05-20T12:55:50.9Z</time>
 </trkpt>
 <trkpt lat="44.292661" lon="3.433676">
 <time>2011-05-20T12:55:55.9Z</time>
 </trkpt>
 <trkpt lat="44.292618" lon="3.432754">
 <time>2011-05-20T12:55:59.9Z</time>
 </trkpt>
 <trkpt lat="44.29254" lon="3.430337">
 <time>2011-05-20T12:56:07.9Z</time>
 </trkpt>
 <trkpt lat="44.292422" lon="3.429669">
 <time>2011-05-20T12:56:11.9Z</time>
 </trkpt>
 <trkpt lat="44.291973" lon="3.428494">
 <time>2011-05-20T12:56:17.9Z</time>
 </trkpt>
 <trkpt lat="44.292019" lon="3.427817">
 <time>2011-05-20T12:56:22.9Z</time>
 </trkpt>
 <trkpt lat="44.293238" lon="3.423028">
 <time>2011-05-20T12:56:37.9Z</time>
 </trkpt>
 <trkpt lat="44.293559" lon="3.421912">
 <time>2011-05-20T12:56:42.9Z</time>
 </trkpt>
 <trkpt lat="44.293621" lon="3.421292">
 <time>2011-05-20T12:56:47.9Z</time>
 </trkpt>
 <trkpt lat="44.293669" lon="3.419688">
 <time>2011-05-20T12:56:53.9Z</time>
 </trkpt>
 <trkpt lat="44.293706" lon="3.418108">
 <time>2011-05-20T12:56:58.9Z</time>
 </trkpt>
 <trkpt lat="44.293812" lon="3.416924">
 <time>2011-05-20T12:57:03.9Z</time>
 </trkpt>
 <trkpt lat="44.293702" lon="3.415724">
 <time>2011-05-20T12:57:07.9Z</time>
 </trkpt>
 <trkpt lat="44.29309" lon="3.410695">
 <time>2011-05-20T12:57:25.9Z</time>
 </trkpt>
 <trkpt lat="44.293053" lon="3.409868">
 <time>2011-05-20T12:57:30.9Z</time>
 </trkpt>
 <trkpt lat="44.292895" lon="3.40845">
 <time>2011-05-20T12:57:35.9Z</time>
 </trkpt>
 <trkpt lat="44.292715" lon="3.405326">
 <time>2011-05-20T12:57:46.9Z</time>
 </trkpt>
 <trkpt lat="44.292859" lon="3.404676">
 <time>2011-05-20T12:57:51.9Z</time>
 </trkpt>
 <trkpt lat="44.292919" lon="3.40376">
 <time>2011-05-20T12:57:56.9Z</time>
 </trkpt>
 <trkpt lat="44.29279" lon="3.402878">
 <time>2011-05-20T12:58:01.9Z</time>
 </trkpt>
 <trkpt lat="44.292959" lon="3.40177">
 <time>2011-05-20T12:58:06.9Z</time>
 </trkpt>
 <trkpt lat="44.293632" lon="3.397836">
 <time>2011-05-20T12:58:20.9Z</time>
 </trkpt>
 <trkpt lat="44.293547" lon="3.397066">
 <time>2011-05-20T12:58:25.9Z</time>
 </trkpt>
 <trkpt lat="44.293316" lon="3.396363">
 <time>2011-05-20T12:58:29.9Z</time>
 </trkpt>
 <trkpt lat="44.293277" lon="3.395433">
 <time>2011-05-20T12:58:34.9Z</time>
 </trkpt>
 <trkpt lat="44.2935" lon="3.391683">
 <time>2011-05-20T12:58:47.9Z</time>
 </trkpt>
 <trkpt lat="44.293455" lon="3.39053">
 <time>2011-05-20T12:58:52.9Z</time>
 </trkpt>
 <trkpt lat="44.293664" lon="3.38918">
 <time>2011-05-20T12:58:57.9Z</time>
 </trkpt>
 <trkpt lat="44.294997" lon="3.38465">
 <time>2011-05-20T12:59:12.9Z</time>
 </trkpt>
 <trkpt lat="44.295384" lon="3.383645">
 <time>2011-05-20T12:59:17.9Z</time>
 </trkpt>
 <trkpt lat="44.295991" lon="3.382633">
 <time>2011-05-20T12:59:21.9Z</time>
 </trkpt>
 <trkpt lat="44.296473" lon="3.382022">
 <time>2011-05-20T12:59:26.9Z</time>
 </trkpt>
 <trkpt lat="44.29695" lon="3.381078">
 <time>2011-05-20T12:59:31.9Z</time>
 </trkpt>
 <trkpt lat="44.29722" lon="3.379918">
 <time>2011-05-20T12:59:36.9Z</time>
 </trkpt>
 <trkpt lat="44.297566" lon="3.378343">
 <time>2011-05-20T12:59:42.9Z</time>
 </trkpt>
 <trkpt lat="44.297998" lon="3.375345">
 <time>2011-05-20T12:59:56.9Z</time>
 </trkpt>
 <trkpt lat="44.298016" lon="3.374976">
 <time>2011-05-20T13:00:00.2Z</time>
 </trkpt>
 <trkpt lat="44.297586" lon="3.373742">
 <time>2011-05-20T13:00:05.9Z</time>
 </trkpt>
 <trkpt lat="44.297042" lon="3.371807">
 <time>2011-05-20T13:00:14.9Z</time>
 </trkpt>
 <trkpt lat="44.296974" lon="3.371005">
 <time>2011-05-20T13:00:18.9Z</time>
 </trkpt>
 <trkpt lat="44.297082" lon="3.369969">
 <time>2011-05-20T13:00:23.9Z</time>
 </trkpt>
 <trkpt lat="44.297256" lon="3.368234">
 <time>2011-05-20T13:00:33.9Z</time>
 </trkpt>
 <trkpt lat="44.297432" lon="3.367933">
 <time>2011-05-20T13:00:38.9Z</time>
 </trkpt>
 <trkpt lat="44.297951" lon="3.367782">
 <time>2011-05-20T13:00:43.9Z</time>
 </trkpt>
 <trkpt lat="44.298172" lon="3.367667">
 <time>2011-05-20T13:00:47.9Z</time>
 </trkpt>
 <trkpt lat="44.297938" lon="3.36744">
 <time>2011-05-20T13:00:52.9Z</time>
 </trkpt>
 <trkpt lat="44.297164" lon="3.367184">
 <time>2011-05-20T13:00:57.9Z</time>
 </trkpt>
 <trkpt lat="44.296257" lon="3.36693">
 <time>2011-05-20T13:01:02.9Z</time>
 </trkpt>
 <trkpt lat="44.295805" lon="3.366685">
 <time>2011-05-20T13:01:07.9Z</time>
 </trkpt>
 <trkpt lat="44.29516" lon="3.3664">
 <time>2011-05-20T13:01:12.9Z</time>
 </trkpt>
 <trkpt lat="44.294434" lon="3.365868">
 <time>2011-05-20T13:01:17.9Z</time>
 </trkpt>
 <trkpt lat="44.293537" lon="3.36515">
 <time>2011-05-20T13:01:22.9Z</time>
 </trkpt>
 <trkpt lat="44.293178" lon="3.364625">
 <time>2011-05-20T13:01:27.9Z</time>
 </trkpt>
 <trkpt lat="44.292707" lon="3.363424">
 <time>2011-05-20T13:01:34.9Z</time>
 </trkpt>
 <trkpt lat="44.292656" lon="3.363187">
 <time>2011-05-20T13:01:39.9Z</time>
 </trkpt>
 <trkpt lat="44.292536" lon="3.362957">
 <time>2011-05-20T13:01:43.9Z</time>
 </trkpt>
 <trkpt lat="44.289838" lon="3.35565">
 <time>2011-05-20T13:02:15.9Z</time>
 </trkpt>
 <trkpt lat="44.289659" lon="3.354966">
 <time>2011-05-20T13:02:20Z</time>
 </trkpt>
 <trkpt lat="44.289467" lon="3.353531">
 <time>2011-05-20T13:02:24.9Z</time>
 </trkpt>
 <trkpt lat="44.289165" lon="3.350318">
 <time>2011-05-20T13:02:35.9Z</time>
 </trkpt>
 <trkpt lat="44.289335" lon="3.349604">
 <time>2011-05-20T13:02:40.9Z</time>
 </trkpt>
 <trkpt lat="44.289617" lon="3.348724">
 <time>2011-05-20T13:02:45.9Z</time>
 </trkpt>
 <trkpt lat="44.289934" lon="3.348119">
 <time>2011-05-20T13:02:49.9Z</time>
 </trkpt>
 <trkpt lat="44.293023" lon="3.343376">
 <time>2011-05-20T13:03:08.9Z</time>
 </trkpt>
 <trkpt lat="44.293365" lon="3.342584">
 <time>2011-05-20T13:03:13.9Z</time>
 </trkpt>
 <trkpt lat="44.293707" lon="3.341614">
 <time>2011-05-20T13:03:18.9Z</time>
 </trkpt>
 <trkpt lat="44.293919" lon="3.341284">
 <time>2011-05-20T13:03:23.9Z</time>
 </trkpt>
 <trkpt lat="44.294519" lon="3.340958">
 <time>2011-05-20T13:03:28.9Z</time>
 </trkpt>
 <trkpt lat="44.295163" lon="3.340561">
 <time>2011-05-20T13:03:33.2Z</time>
 </trkpt>
 <trkpt lat="44.295863" lon="3.339704">
 <time>2011-05-20T13:03:38.2Z</time>
 </trkpt>
 <trkpt lat="44.298577" lon="3.335438">
 <time>2011-05-20T13:03:53.9Z</time>
 </trkpt>
 <trkpt lat="44.299363" lon="3.333738">
 <time>2011-05-20T13:04:00.9Z</time>
 </trkpt>
 <trkpt lat="44.299701" lon="3.332744">
 <time>2011-05-20T13:04:06.9Z</time>
 </trkpt>
 <trkpt lat="44.299735" lon="3.332201">
 <time>2011-05-20T13:04:11.2Z</time>
 </trkpt>
 <trkpt lat="44.299583" lon="3.330545">
 <time>2011-05-20T13:04:18.9Z</time>
 </trkpt>
 <trkpt lat="44.299652" lon="3.330078">
 <time>2011-05-20T13:04:22.9Z</time>
 </trkpt>
 <trkpt lat="44.299643" lon="3.329348">
 <time>2011-05-20T13:04:26.9Z</time>
 </trkpt>
 <trkpt lat="44.299505" lon="3.328992">
 <time>2011-05-20T13:04:31.9Z</time>
 </trkpt>
 <trkpt lat="44.299052" lon="3.328925">
 <time>2011-05-20T13:04:36.9Z</time>
 </trkpt>
 <trkpt lat="44.29851" lon="3.328841">
 <time>2011-05-20T13:04:41.9Z</time>
 </trkpt>
 <trkpt lat="44.297845" lon="3.328263">
 <time>2011-05-20T13:04:47.9Z</time>
 </trkpt>
 <trkpt lat="44.297565" lon="3.327921">
 <time>2011-05-20T13:04:51.9Z</time>
 </trkpt>
 <trkpt lat="44.29736" lon="3.327618">
 <time>2011-05-20T13:04:56.9Z</time>
 </trkpt>
 <trkpt lat="44.296915" lon="3.327056">
 <time>2011-05-20T13:05:01.9Z</time>
 </trkpt>
 <trkpt lat="44.296797" lon="3.326707">
 <time>2011-05-20T13:05:06.2Z</time>
 </trkpt>
 <trkpt lat="44.296783" lon="3.325901">
 <time>2011-05-20T13:05:10.9Z</time>
 </trkpt>
 <trkpt lat="44.296811" lon="3.32535">
 <time>2011-05-20T13:05:14.9Z</time>
 </trkpt>
 <trkpt lat="44.29674" lon="3.324785">
 <time>2011-05-20T13:05:19.9Z</time>
 </trkpt>
 <trkpt lat="44.296622" lon="3.32428">
 <time>2011-05-20T13:05:23.9Z</time>
 </trkpt>
 <trkpt lat="44.296549" lon="3.323965">
 <time>2011-05-20T13:05:28.9Z</time>
 </trkpt>
 <trkpt lat="44.296597" lon="3.323449">
 <time>2011-05-20T13:05:32.9Z</time>
 </trkpt>
 <trkpt lat="44.296704" lon="3.32325">
 <time>2011-05-20T13:05:36.2Z</time>
 </trkpt>
 <trkpt lat="44.297283" lon="3.322478">
 <time>2011-05-20T13:05:41.9Z</time>
 </trkpt>
 <trkpt lat="44.297542" lon="3.322163">
 <time>2011-05-20T13:05:45.9Z</time>
 </trkpt>
 <trkpt lat="44.297592" lon="3.321976">
 <time>2011-05-20T13:05:50.9Z</time>
 </trkpt>
 <trkpt lat="44.297532" lon="3.322157">
 <time>2011-05-20T13:05:55.2Z</time>
 </trkpt>
 <trkpt lat="44.297266" lon="3.322834">
 <time>2011-05-20T13:05:59.9Z</time>
 </trkpt>
 <trkpt lat="44.297114" lon="3.323355">
 <time>2011-05-20T13:06:03.9Z</time>
 </trkpt>
 <trkpt lat="44.29698" lon="3.323708">
 <time>2011-05-20T13:06:08.9Z</time>
 </trkpt>
 <trkpt lat="44.297073" lon="3.324104">
 <time>2011-05-20T13:06:13.9Z</time>
 </trkpt>
 <trkpt lat="44.297337" lon="3.324589">
 <time>2011-05-20T13:06:17.9Z</time>
 </trkpt>
 <trkpt lat="44.29764" lon="3.325081">
 <time>2011-05-20T13:06:22.9Z</time>
 </trkpt>
 <trkpt lat="44.297902" lon="3.325768">
 <time>2011-05-20T13:06:27.9Z</time>
 </trkpt>
 <trkpt lat="44.298258" lon="3.326078">
 <time>2011-05-20T13:06:31.9Z</time>
 </trkpt>
 <trkpt lat="44.298505" lon="3.326252">
 <time>2011-05-20T13:06:36.9Z</time>
 </trkpt>
 <trkpt lat="44.29882" lon="3.326489">
 <time>2011-05-20T13:06:40.9Z</time>
 </trkpt>
 <trkpt lat="44.299302" lon="3.326284">
 <time>2011-05-20T13:06:45.9Z</time>
 </trkpt>
 <trkpt lat="44.299722" lon="3.326112">
 <time>2011-05-20T13:06:49.9Z</time>
 </trkpt>
 <trkpt lat="44.300102" lon="3.326173">
 <time>2011-05-20T13:06:54.9Z</time>
 </trkpt>
 <trkpt lat="44.300622" lon="3.32656">
 <time>2011-05-20T13:07:00.2Z</time>
 </trkpt>
 <trkpt lat="44.301287" lon="3.326925">
 <time>2011-05-20T13:07:06.2Z</time>
 </trkpt>
 <trkpt lat="44.301121" lon="3.326752">
 <time>2011-05-20T13:07:12.2Z</time>
 </trkpt>
 <trkpt lat="44.300726" lon="3.326419">
 <time>2011-05-20T13:07:16.2Z</time>
 </trkpt>
 <trkpt lat="44.300391" lon="3.325984">
 <time>2011-05-20T13:07:21.9Z</time>
 </trkpt>
 <trkpt lat="44.30005" lon="3.325572">
 <time>2011-05-20T13:07:26.9Z</time>
 </trkpt>
 <trkpt lat="44.299521" lon="3.325619">
 <time>2011-05-20T13:07:31.9Z</time>
 </trkpt>
 <trkpt lat="44.299024" lon="3.325568">
 <time>2011-05-20T13:07:36.9Z</time>
 </trkpt>
 <trkpt lat="44.298866" lon="3.32501">
 <time>2011-05-20T13:07:41.9Z</time>
 </trkpt>
 <trkpt lat="44.298519" lon="3.324005">
 <time>2011-05-20T13:07:48.9Z</time>
 </trkpt>
 <trkpt lat="44.298638" lon="3.324096">
 <time>2011-05-20T13:07:56.2Z</time>
 </trkpt>
 <trkpt lat="44.299005" lon="3.324575">
 <time>2011-05-20T13:08:01.9Z</time>
 </trkpt>
 <trkpt lat="44.299368" lon="3.324959">
 <time>2011-05-20T13:08:06.9Z</time>
 </trkpt>
 <trkpt lat="44.299714" lon="3.324924">
 <time>2011-05-20T13:08:11.9Z</time>
 </trkpt>
 <trkpt lat="44.300116" lon="3.32481">
 <time>2011-05-20T13:08:15.9Z</time>
 </trkpt>
 <trkpt lat="44.30055" lon="3.324824">
 <time>2011-05-20T13:08:20.2Z</time>
 </trkpt>
 <trkpt lat="44.300799" lon="3.324882">
 <time>2011-05-20T13:08:24.9Z</time>
 </trkpt>
 <trkpt lat="44.300681" lon="3.324746">
 <time>2011-05-20T13:08:29.9Z</time>
 </trkpt>
 <trkpt lat="44.299994" lon="3.324473">
 <time>2011-05-20T13:08:38.9Z</time>
 </trkpt>
 <trkpt lat="44.299718" lon="3.324379">
 <time>2011-05-20T13:08:43.9Z</time>
 </trkpt>
 <trkpt lat="44.299412" lon="3.323977">
 <time>2011-05-20T13:08:49.2Z</time>
 </trkpt>
 <trkpt lat="44.299625" lon="3.323455">
 <time>2011-05-20T13:08:53.9Z</time>
 </trkpt>
 <trkpt lat="44.299899" lon="3.323073">
 <time>2011-05-20T13:08:58.9Z</time>
 </trkpt>
 <trkpt lat="44.30007" lon="3.322974">
 <time>2011-05-20T13:09:02.9Z</time>
 </trkpt>
 <trkpt lat="44.299923" lon="3.323235">
 <time>2011-05-20T13:09:06.9Z</time>
 </trkpt>
 <trkpt lat="44.299778" lon="3.323661">
 <time>2011-05-20T13:09:11.9Z</time>
 </trkpt>
 <trkpt lat="44.299977" lon="3.32399">
 <time>2011-05-20T13:09:15.9Z</time>
 </trkpt>
 <trkpt lat="44.300398" lon="3.32403">
 <time>2011-05-20T13:09:20.9Z</time>
 </trkpt>
 <trkpt lat="44.300794" lon="3.323916">
 <time>2011-05-20T13:09:25.9Z</time>
 </trkpt>
 <trkpt lat="44.30093" lon="3.323974">
 <time>2011-05-20T13:09:30.2Z</time>
 </trkpt>
 <trkpt lat="44.300739" lon="3.323866">
 <time>2011-05-20T13:09:34.9Z</time>
 </trkpt>
 <trkpt lat="44.300409" lon="3.323737">
 <time>2011-05-20T13:09:39.9Z</time>
 </trkpt>
 <trkpt lat="44.300262" lon="3.323462">
 <time>2011-05-20T13:09:43.2Z</time>
 </trkpt>
 <trkpt lat="44.300432" lon="3.323041">
 <time>2011-05-20T13:09:48.9Z</time>
 </trkpt>
 <trkpt lat="44.300539" lon="3.323312">
 <time>2011-05-20T13:09:53.9Z</time>
 </trkpt>
 <trkpt lat="44.300599" lon="3.323571">
 <time>2011-05-20T13:09:58.2Z</time>
 </trkpt>
 <trkpt lat="44.300667" lon="3.323234">
 <time>2011-05-20T13:10:03.2Z</time>
 </trkpt>
 <trkpt lat="44.300639" lon="3.322621">
 <time>2011-05-20T13:10:08.9Z</time>
 </trkpt>
 <trkpt lat="44.300466" lon="3.322237">
 <time>2011-05-20T13:10:13.9Z</time>
 </trkpt>
 <trkpt lat="44.300378" lon="3.322489">
 <time>2011-05-20T13:10:17.9Z</time>
 </trkpt>
 <trkpt lat="44.300635" lon="3.323013">
 <time>2011-05-20T13:10:22.9Z</time>
 </trkpt>
 <trkpt lat="44.300795" lon="3.323426">
 <time>2011-05-20T13:10:27.2Z</time>
 </trkpt>
 <trkpt lat="44.300836" lon="3.32318">
 <time>2011-05-20T13:10:31.9Z</time>
 </trkpt>
 <trkpt lat="44.300856" lon="3.322419">
 <time>2011-05-20T13:10:36.9Z</time>
 </trkpt>
 <trkpt lat="44.300661" lon="3.32169">
 <time>2011-05-20T13:10:41.9Z</time>
 </trkpt>
 <trkpt lat="44.300369" lon="3.320812">
 <time>2011-05-20T13:10:51.2Z</time>
 </trkpt>
 <trkpt lat="44.300498" lon="3.320676">
 <time>2011-05-20T13:10:56.9Z</time>
 </trkpt>
 <trkpt lat="44.300684" lon="3.320576">
 <time>2011-05-20T13:11:02.9Z</time>
 </trkpt>
 <trkpt lat="44.300834" lon="3.320476">
 <time>2011-05-20T13:11:08.2Z</time>
 </trkpt>
 <trkpt lat="44.3012" lon="3.320288">
 <time>2011-05-20T13:11:15.2Z</time>
 </trkpt>
 <trkpt lat="44.301218" lon="3.320482">
 <time>2011-05-20T13:11:20.9Z</time>
 </trkpt>
 <trkpt lat="44.301258" lon="3.32068">
 <time>2011-05-20T13:11:26.9Z</time>
 </trkpt>
 <trkpt lat="44.301265" lon="3.320886">
 <time>2011-05-20T13:11:32.9Z</time>
 </trkpt>
 <trkpt lat="44.301164" lon="3.321047">
 <time>2011-05-20T13:11:43.9Z</time>
 </trkpt>
 <trkpt lat="44.3013" lon="3.321355">
 <time>2011-05-20T13:12:43.9Z</time>
 </trkpt>
 <trkpt lat="44.301721" lon="3.321931">
 <time>2011-05-20T13:12:47.9Z</time>
 </trkpt>
 <trkpt lat="44.30281" lon="3.32338">
 <time>2011-05-20T13:12:56.9Z</time>
 </trkpt>
 <trkpt lat="44.306003" lon="3.327877">
 <time>2011-05-20T13:13:18.9Z</time>
 </trkpt>
 <trkpt lat="44.306711" lon="3.328923">
 <time>2011-05-20T13:13:23.9Z</time>
 </trkpt>
 <trkpt lat="44.307558" lon="3.329905">
 <time>2011-05-20T13:13:30.2Z</time>
 </trkpt>
 <trkpt lat="44.308586" lon="3.33073">
 <time>2011-05-20T13:13:36.9Z</time>
 </trkpt>
 <trkpt lat="44.308743" lon="3.330836">
 <time>2011-05-20T13:13:37.9Z</time>
 </trkpt>
 </trkseg>
 <trkseg>
 <trkpt lat="44.31017" lon="3.332274">
 <time>2011-05-20T13:13:49.2Z</time>
 </trkpt>
 <trkpt lat="44.310693" lon="3.333233">
 <time>2011-05-20T13:13:53.9Z</time>
 </trkpt>
 <trkpt lat="44.311187" lon="3.334206">
 <time>2011-05-20T13:13:59.2Z</time>
 </trkpt>
 <trkpt lat="44.312157" lon="3.335801">
 <time>2011-05-20T13:14:05.9Z</time>
 </trkpt>
 <trkpt lat="44.312739" lon="3.336549">
 <time>2011-05-20T13:14:10.9Z</time>
 </trkpt>
 <trkpt lat="44.313671" lon="3.33755">
 <time>2011-05-20T13:14:16.2Z</time>
 </trkpt>
 <trkpt lat="44.315533" lon="3.338997">
 <time>2011-05-20T13:14:28.2Z</time>
 </trkpt>
 <trkpt lat="44.315949" lon="3.339687">
 <time>2011-05-20T13:14:32.9Z</time>
 </trkpt>
 <trkpt lat="44.316495" lon="3.341112">
 <time>2011-05-20T13:14:37.9Z</time>
 </trkpt>
 <trkpt lat="44.316777" lon="3.342173">
 <time>2011-05-20T13:14:42.9Z</time>
 </trkpt>
 <trkpt lat="44.317011" lon="3.343566">
 <time>2011-05-20T13:14:47.9Z</time>
 </trkpt>
 <trkpt lat="44.317403" lon="3.344812">
 <time>2011-05-20T13:14:51.9Z</time>
 </trkpt>
 <trkpt lat="44.31774" lon="3.345614">
 <time>2011-05-20T13:14:56.9Z</time>
 </trkpt>
 <trkpt lat="44.318419" lon="3.346031">
 <time>2011-05-20T13:15:01.2Z</time>
 </trkpt>
 <trkpt lat="44.319409" lon="3.346137">
 <time>2011-05-20T13:15:06Z</time>
 </trkpt>
 <trkpt lat="44.320178" lon="3.346115">
 <time>2011-05-20T13:15:10.2Z</time>
 </trkpt>
 <trkpt lat="44.321123" lon="3.345747">
 <time>2011-05-20T13:15:14.9Z</time>
 </trkpt>
 <trkpt lat="44.321704" lon="3.345554">
 <time>2011-05-20T13:15:18.2Z</time>
 </trkpt>
 <trkpt lat="44.322839" lon="3.34539">
 <time>2011-05-20T13:15:23.2Z</time>
 </trkpt>
 <trkpt lat="44.323547" lon="3.345099">
 <time>2011-05-20T13:15:28.9Z</time>
 </trkpt>
 <trkpt lat="44.324059" lon="3.34538">
 <time>2011-05-20T13:15:33.2Z</time>
 </trkpt>
 <trkpt lat="44.324878" lon="3.34586">
 <time>2011-05-20T13:15:38.2Z</time>
 </trkpt>
 <trkpt lat="44.326455" lon="3.346496">
 <time>2011-05-20T13:15:46.2Z</time>
 </trkpt>
 <trkpt lat="44.326836" lon="3.346881">
 <time>2011-05-20T13:15:50.2Z</time>
 </trkpt>
 <trkpt lat="44.327413" lon="3.34763">
 <time>2011-05-20T13:15:55.2Z</time>
 </trkpt>
 <trkpt lat="44.328225" lon="3.348608">
 <time>2011-05-20T13:15:59.2Z</time>
 </trkpt>
 <trkpt lat="44.3286" lon="3.349513">
 <time>2011-05-20T13:16:04.2Z</time>
 </trkpt>
 <trkpt lat="44.32889" lon="3.350722">
 <time>2011-05-20T13:16:09.2Z</time>
 </trkpt>
 <trkpt lat="44.329276" lon="3.352026">
 <time>2011-05-20T13:16:14.2Z</time>
 </trkpt>
 <trkpt lat="44.329527" lon="3.352979">
 <time>2011-05-20T13:16:18.2Z</time>
 </trkpt>
 <trkpt lat="44.330223" lon="3.35405">
 <time>2011-05-20T13:16:23.9Z</time>
 </trkpt>
 <trkpt lat="44.331038" lon="3.354376">
 <time>2011-05-20T13:16:28.2Z</time>
 </trkpt>
 <trkpt lat="44.332145" lon="3.354754">
 <time>2011-05-20T13:16:32.9Z</time>
 </trkpt>
 <trkpt lat="44.333594" lon="3.355525">
 <time>2011-05-20T13:16:39.2Z</time>
 </trkpt>
 <trkpt lat="44.334282" lon="3.356109">
 <time>2011-05-20T13:16:43.9Z</time>
 </trkpt>
 <trkpt lat="44.335038" lon="3.356987">
 <time>2011-05-20T13:16:49.2Z</time>
 </trkpt>
 <trkpt lat="44.335946" lon="3.358525">
 <time>2011-05-20T13:16:57.2Z</time>
 </trkpt>
 <trkpt lat="44.336005" lon="3.358978">
 <time>2011-05-20T13:17:02.2Z</time>
 </trkpt>
 <trkpt lat="44.335954" lon="3.359542">
 <time>2011-05-20T13:17:06.2Z</time>
 </trkpt>
 <trkpt lat="44.335976" lon="3.362308">
 <time>2011-05-20T13:17:19.2Z</time>
 </trkpt>
 <trkpt lat="44.336282" lon="3.36254">
 <time>2011-05-20T13:17:24.2Z</time>
 </trkpt>
 <trkpt lat="44.336942" lon="3.362185">
 <time>2011-05-20T13:17:29.2Z</time>
 </trkpt>
 <trkpt lat="44.337557" lon="3.361727">
 <time>2011-05-20T13:17:34.2Z</time>
 </trkpt>
 <trkpt lat="44.338025" lon="3.361161">
 <time>2011-05-20T13:17:39.2Z</time>
 </trkpt>
 <trkpt lat="44.338564" lon="3.361228">
 <time>2011-05-20T13:17:44.2Z</time>
 </trkpt>
 <trkpt lat="44.33921" lon="3.361757">
 <time>2011-05-20T13:17:49.2Z</time>
 </trkpt>
 <trkpt lat="44.33939" lon="3.362627">
 <time>2011-05-20T13:17:53.9Z</time>
 </trkpt>
 <trkpt lat="44.339635" lon="3.363111">
 <time>2011-05-20T13:17:58.2Z</time>
 </trkpt>
 <trkpt lat="44.340288" lon="3.363962">
 <time>2011-05-20T13:18:03.9Z</time>
 </trkpt>
 <trkpt lat="44.34151" lon="3.365652">
 <time>2011-05-20T13:18:11.9Z</time>
 </trkpt>
 <trkpt lat="44.342498" lon="3.366939">
 <time>2011-05-20T13:18:20.2Z</time>
 </trkpt>
 </trkseg>
 <trkseg>
 <trkpt lat="44.342592" lon="3.367092">
 <time>2011-05-20T13:18:22.2Z</time>
 </trkpt>
 <trkpt lat="44.342868" lon="3.368262">
 <time>2011-05-20T13:18:27.2Z</time>
 </trkpt>
 <trkpt lat="44.343125" lon="3.369465">
 <time>2011-05-20T13:18:31.9Z</time>
 </trkpt>
 <trkpt lat="44.343197" lon="3.37047">
 <time>2011-05-20T13:18:36.2Z</time>
 </trkpt>
 <trkpt lat="44.343054" lon="3.371622">
 <time>2011-05-20T13:18:41.2Z</time>
 </trkpt>
 <trkpt lat="44.342817" lon="3.372773">
 <time>2011-05-20T13:18:46.9Z</time>
 </trkpt>
 <trkpt lat="44.342606" lon="3.373299">
 <time>2011-05-20T13:18:50.9Z</time>
 </trkpt>
 <trkpt lat="44.342127" lon="3.373867">
 <time>2011-05-20T13:18:55.9Z</time>
 </trkpt>
 <trkpt lat="44.341449" lon="3.374754">
 <time>2011-05-20T13:19:00.9Z</time>
 </trkpt>
 <trkpt lat="44.341073" lon="3.375051">
 <time>2011-05-20T13:19:05.2Z</time>
 </trkpt>
 <trkpt lat="44.340367" lon="3.375686">
 <time>2011-05-20T13:19:10.2Z</time>
 </trkpt>
 <trkpt lat="44.338866" lon="3.378387">
 <time>2011-05-20T13:19:19.9Z</time>
 </trkpt>
 <trkpt lat="44.337178" lon="3.380374">
 <time>2011-05-20T13:19:31.9Z</time>
 </trkpt>
 <trkpt lat="44.336635" lon="3.380841">
 <time>2011-05-20T13:19:36.2Z</time>
 </trkpt>
 <trkpt lat="44.335882" lon="3.381414">
 <time>2011-05-20T13:19:40.2Z</time>
 </trkpt>
 <trkpt lat="44.335573" lon="3.381927">
 <time>2011-05-20T13:19:45.2Z</time>
 </trkpt>
 <trkpt lat="44.335574" lon="3.382387">
 <time>2011-05-20T13:19:49.9Z</time>
 </trkpt>
 <trkpt lat="44.335642" lon="3.382598">
 <time>2011-05-20T13:20:24.9Z</time>
 </trkpt>
 <trkpt lat="44.335907" lon="3.382971">
 <time>2011-05-20T13:20:30.2Z</time>
 </trkpt>
 <trkpt lat="44.336113" lon="3.382715">
 <time>2011-05-20T13:20:34.2Z</time>
 </trkpt>
 </trkseg>
 <trkseg>
 <trkpt lat="44.336223" lon="3.382526">
 <time>2011-05-20T13:20:37.2Z</time>
 </trkpt>
 <trkpt lat="44.336486" lon="3.382361">
 <time>2011-05-20T13:20:39.2Z</time>
 </trkpt>
 </trkseg>
 <trkseg>
 <trkpt lat="44.337422" lon="3.382607">
 <time>2011-05-20T13:20:45.2Z</time>
 </trkpt>
 <trkpt lat="44.339149" lon="3.382563">
 <time>2011-05-20T13:20:50.2Z</time>
 </trkpt>
 <trkpt lat="44.339663" lon="3.383658">
 <time>2011-05-20T13:20:54.9Z</time>
 </trkpt>
 <trkpt lat="44.339999" lon="3.384593">
 <time>2011-05-20T13:20:59.2Z</time>
 </trkpt>
 <trkpt lat="44.340923" lon="3.38623">
 <time>2011-05-20T13:21:05.2Z</time>
 </trkpt>
 </trkseg>
 <trkseg>
 <trkpt lat="44.341198" lon="3.38669">
 <time>2011-05-20T13:21:08.2Z</time>
 </trkpt>
 <trkpt lat="44.341862" lon="3.387423">
 <time>2011-05-20T13:21:12.2Z</time>
 </trkpt>
 <trkpt lat="44.342213" lon="3.388263">
 <time>2011-05-20T13:21:17.2Z</time>
 </trkpt>
 <trkpt lat="44.342845" lon="3.388729">
 <time>2011-05-20T13:21:22.2Z</time>
 </trkpt>
 <trkpt lat="44.343605" lon="3.388699">
 <time>2011-05-20T13:21:26.2Z</time>
 </trkpt>
 <trkpt lat="44.344344" lon="3.389029">
 <time>2011-05-20T13:21:31.2Z</time>
 </trkpt>
 <trkpt lat="44.345057" lon="3.38937">
 <time>2011-05-20T13:21:36.2Z</time>
 </trkpt>
 <trkpt lat="44.345602" lon="3.390024">
 <time>2011-05-20T13:21:40.2Z</time>
 </trkpt>
 <trkpt lat="44.345793" lon="3.390772">
 <time>2011-05-20T13:21:45.2Z</time>
 </trkpt>
 <trkpt lat="44.345616" lon="3.392195">
 <time>2011-05-20T13:21:50.2Z</time>
 </trkpt>
 <trkpt lat="44.345349" lon="3.393442">
 <time>2011-05-20T13:21:54.9Z</time>
 </trkpt>
 <trkpt lat="44.345643" lon="3.394574">
 <time>2011-05-20T13:21:58.9Z</time>
 </trkpt>
 <trkpt lat="44.346313" lon="3.395355">
 <time>2011-05-20T13:22:03.9Z</time>
 </trkpt>
 <trkpt lat="44.347046" lon="3.39587">
 <time>2011-05-20T13:22:08.2Z</time>
 </trkpt>
 <trkpt lat="44.348257" lon="3.395766">
 <time>2011-05-20T13:22:13.2Z</time>
 </trkpt>
 <trkpt lat="44.349157" lon="3.395678">
 <time>2011-05-20T13:22:17.2Z</time>
 </trkpt>
 <trkpt lat="44.34998" lon="3.395762">
 <time>2011-05-20T13:22:22.2Z</time>
 </trkpt>
 <trkpt lat="44.350929" lon="3.396067">
 <time>2011-05-20T13:22:27.2Z</time>
 </trkpt>
 <trkpt lat="44.351795" lon="3.396896">
 <time>2011-05-20T13:22:32.2Z</time>
 </trkpt>
 <trkpt lat="44.352142" lon="3.397641">
 <time>2011-05-20T13:22:37.2Z</time>
 </trkpt>
 <trkpt lat="44.352354" lon="3.398377">
 <time>2011-05-20T13:22:41.2Z</time>
 </trkpt>
 <trkpt lat="44.352628" lon="3.399272">
 <time>2011-05-20T13:22:46.2Z</time>
 </trkpt>
 <trkpt lat="44.352883" lon="3.400073">
 <time>2011-05-20T13:22:50.2Z</time>
 </trkpt>
 <trkpt lat="44.353526" lon="3.40133">
 <time>2011-05-20T13:22:55.9Z</time>
 </trkpt>
 <trkpt lat="44.354421" lon="3.40314">
 <time>2011-05-20T13:23:01.9Z</time>
 </trkpt>
 <trkpt lat="44.35483" lon="3.403556">
 <time>2011-05-20T13:23:06.2Z</time>
 </trkpt>
 <trkpt lat="44.355738" lon="3.404028">
 <time>2011-05-20T13:23:10.2Z</time>
 </trkpt>
 <trkpt lat="44.3573" lon="3.404482">
 <time>2011-05-20T13:23:15.2Z</time>
 </trkpt>
 <trkpt lat="44.358259" lon="3.404658">
 <time>2011-05-20T13:23:20.2Z</time>
 </trkpt>
 <trkpt lat="44.35896" lon="3.405025">
 <time>2011-05-20T13:23:24.2Z</time>
 </trkpt>
 <trkpt lat="44.35952" lon="3.405877">
 <time>2011-05-20T13:23:28.9Z</time>
 </trkpt>
 <trkpt lat="44.359978" lon="3.406683">
 <time>2011-05-20T13:23:33.2Z</time>
 </trkpt>
 <trkpt lat="44.361933" lon="3.41096">
 <time>2011-05-20T13:23:57.2Z</time>
 </trkpt>
 <trkpt lat="44.362386" lon="3.411589">
 <time>2011-05-20T13:24:02.2Z</time>
 </trkpt>
 <trkpt lat="44.362966" lon="3.411638">
 <time>2011-05-20T13:24:07.2Z</time>
 </trkpt>
 <trkpt lat="44.363207" lon="3.410933">
 <time>2011-05-20T13:24:11.2Z</time>
 </trkpt>
 <trkpt lat="44.363435" lon="3.409586">
 <time>2011-05-20T13:24:19.2Z</time>
 </trkpt>
 </trkseg>
 <trkseg>
 <trkpt lat="44.363628" lon="3.409449">
 <time>2011-05-20T13:24:24.2Z</time>
 </trkpt>
 <trkpt lat="44.364518" lon="3.409165">
 <time>2011-05-20T13:24:29.2Z</time>
 </trkpt>
 <trkpt lat="44.365097" lon="3.409436">
 <time>2011-05-20T13:24:33.9Z</time>
 </trkpt>
 <trkpt lat="44.365484" lon="3.40986">
 <time>2011-05-20T13:24:38.9Z</time>
 </trkpt>
 <trkpt lat="44.365609" lon="3.410342">
 <time>2011-05-20T13:24:43.9Z</time>
 </trkpt>
 <trkpt lat="44.36579" lon="3.41059">
 <time>2011-05-20T13:24:48.9Z</time>
 </trkpt>
 <trkpt lat="44.366621" lon="3.410683">
 <time>2011-05-20T13:24:57.2Z</time>
 </trkpt>
 <trkpt lat="44.367012" lon="3.410548">
 <time>2011-05-20T13:25:03.2Z</time>
 </trkpt>
 <trkpt lat="44.367152" lon="3.410351">
 <time>2011-05-20T13:25:07.2Z</time>
 </trkpt>
 <trkpt lat="44.367011" lon="3.409839">
 <time>2011-05-20T13:25:11.9Z</time>
 </trkpt>
 <trkpt lat="44.366551" lon="3.409529">
 <time>2011-05-20T13:25:16.2Z</time>
 </trkpt>
 <trkpt lat="44.365929" lon="3.409465">
 <time>2011-05-20T13:25:21.2Z</time>
 </trkpt>
 <trkpt lat="44.364972" lon="3.408693">
 <time>2011-05-20T13:25:28.2Z</time>
 </trkpt>
 <trkpt lat="44.3645" lon="3.408594">
 <time>2011-05-20T13:25:32.2Z</time>
 </trkpt>
 <trkpt lat="44.36373" lon="3.408863">
 <time>2011-05-20T13:25:37.2Z</time>
 </trkpt>
 <trkpt lat="44.363313" lon="3.409552">
 <time>2011-05-20T13:25:42.2Z</time>
 </trkpt>
 <trkpt lat="44.36294" lon="3.409889">
 <time>2011-05-20T13:25:46.2Z</time>
 </trkpt>
 <trkpt lat="44.362511" lon="3.410731">
 <time>2011-05-20T13:25:51.2Z</time>
 </trkpt>
 <trkpt lat="44.362306" lon="3.410597">
 <time>2011-05-20T13:25:56.2Z</time>
 </trkpt>
 <trkpt lat="44.362085" lon="3.409804">
 <time>2011-05-20T13:26:00.2Z</time>
 </trkpt>
 <trkpt lat="44.361664" lon="3.408563">
 <time>2011-05-20T13:26:05.2Z</time>
 </trkpt>
 <trkpt lat="44.361028" lon="3.406389">
 <time>2011-05-20T13:26:12.2Z</time>
 </trkpt>
 <trkpt lat="44.360834" lon="3.40592">
 <time>2011-05-20T13:26:16.2Z</time>
 </trkpt>
 <trkpt lat="44.360267" lon="3.405453">
 <time>2011-05-20T13:26:21.2Z</time>
 </trkpt>
 <trkpt lat="44.359704" lon="3.404702">
 <time>2011-05-20T13:26:25.9Z</time>
 </trkpt>
 <trkpt lat="44.359089" lon="3.403722">
 <time>2011-05-20T13:26:30.9Z</time>
 </trkpt>
 <trkpt lat="44.358558" lon="3.402725">
 <time>2011-05-20T13:26:35.2Z</time>
 </trkpt>
 <trkpt lat="44.357849" lon="3.40281">
 <time>2011-05-20T13:26:39.9Z</time>
 </trkpt>
 <trkpt lat="44.357548" lon="3.402755">
 <time>2011-05-20T13:26:43.9Z</time>
 </trkpt>
 <trkpt lat="44.357393" lon="3.402592">
 <time>2011-05-20T13:26:48.9Z</time>
 </trkpt>
 <trkpt lat="44.357639" lon="3.402688">
 <time>2011-05-20T13:26:53.9Z</time>
 </trkpt>
 <trkpt lat="44.358028" lon="3.402895">
 <time>2011-05-20T13:26:58.2Z</time>
 </trkpt>
 <trkpt lat="44.359562" lon="3.40355">
 <time>2011-05-20T13:27:06.9Z</time>
 </trkpt>
 <trkpt lat="44.360063" lon="3.404115">
 <time>2011-05-20T13:27:11.9Z</time>
 </trkpt>
 <trkpt lat="44.360666" lon="3.404562">
 <time>2011-05-20T13:27:16.9Z</time>
 </trkpt>
 <trkpt lat="44.361206" lon="3.404828">
 <time>2011-05-20T13:27:20.9Z</time>
 </trkpt>
 <trkpt lat="44.361773" lon="3.405243">
 <time>2011-05-20T13:27:24.9Z</time>
 </trkpt>
 <trkpt lat="44.362683" lon="3.407473">
 <time>2011-05-20T13:27:36Z</time>
 </trkpt>
 <trkpt lat="44.36305" lon="3.407674">
 <time>2011-05-20T13:27:40.9Z</time>
 </trkpt>
 <trkpt lat="44.363771" lon="3.407444">
 <time>2011-05-20T13:27:45.9Z</time>
 </trkpt>
 <trkpt lat="44.364264" lon="3.406986">
 <time>2011-05-20T13:27:49.9Z</time>
 </trkpt>
 <trkpt lat="44.364527" lon="3.406064">
 <time>2011-05-20T13:27:54.9Z</time>
 </trkpt>
 <trkpt lat="44.364874" lon="3.405765">
 <time>2011-05-20T13:27:58.9Z</time>
 </trkpt>
 <trkpt lat="44.365576" lon="3.406165">
 <time>2011-05-20T13:28:02.9Z</time>
 </trkpt>
 <trkpt lat="44.36606" lon="3.40641">
 <time>2011-05-20T13:28:06.9Z</time>
 </trkpt>
 <trkpt lat="44.366601" lon="3.40617">
 <time>2011-05-20T13:28:11.9Z</time>
 </trkpt>
 <trkpt lat="44.367109" lon="3.405765">
 <time>2011-05-20T13:28:16.9Z</time>
 </trkpt>
 <trkpt lat="44.3678" lon="3.406314">
 <time>2011-05-20T13:28:21.9Z</time>
 </trkpt>
 <trkpt lat="44.368356" lon="3.40634">
 <time>2011-05-20T13:28:26.2Z</time>
 </trkpt>
 <trkpt lat="44.369124" lon="3.40638">
 <time>2011-05-20T13:28:30.9Z</time>
 </trkpt>
 <trkpt lat="44.369625" lon="3.407098">
 <time>2011-05-20T13:28:35.2Z</time>
 </trkpt>
 <trkpt lat="44.369982" lon="3.408166">
 <time>2011-05-20T13:28:39.2Z</time>
 </trkpt>
 <trkpt lat="44.370185" lon="3.409257">
 <time>2011-05-20T13:28:43.9Z</time>
 </trkpt>
 <trkpt lat="44.370562" lon="3.409973">
 <time>2011-05-20T13:28:47.9Z</time>
 </trkpt>
 <trkpt lat="44.371413" lon="3.410439">
 <time>2011-05-20T13:28:52.9Z</time>
 </trkpt>
 <trkpt lat="44.372227" lon="3.410877">
 <time>2011-05-20T13:28:57.9Z</time>
 </trkpt>
 <trkpt lat="44.372377" lon="3.411635">
 <time>2011-05-20T13:29:02.9Z</time>
 </trkpt>
 <trkpt lat="44.372815" lon="3.412461">
 <time>2011-05-20T13:29:08.2Z</time>
 </trkpt>
 <trkpt lat="44.37338" lon="3.413682">
 <time>2011-05-20T13:29:13.9Z</time>
 </trkpt>
 <trkpt lat="44.373698" lon="3.414813">
 <time>2011-05-20T13:29:18.9Z</time>
 </trkpt>
 <trkpt lat="44.37457" lon="3.416301">
 <time>2011-05-20T13:29:24.9Z</time>
 </trkpt>
 <trkpt lat="44.375273" lon="3.416772">
 <time>2011-05-20T13:29:29.9Z</time>
 </trkpt>
 <trkpt lat="44.376125" lon="3.417018">
 <time>2011-05-20T13:29:34.2Z</time>
 </trkpt>
 <trkpt lat="44.377035" lon="3.417771">
 <time>2011-05-20T13:29:39.2Z</time>
 </trkpt>
 <trkpt lat="44.378615" lon="3.41968">
 <time>2011-05-20T13:29:47.9Z</time>
 </trkpt>
 <trkpt lat="44.379362" lon="3.420968">
 <time>2011-05-20T13:29:53.9Z</time>
 </trkpt>
 <trkpt lat="44.379777" lon="3.421426">
 <time>2011-05-20T13:29:57.9Z</time>
 </trkpt>
 <trkpt lat="44.3806" lon="3.421959">
 <time>2011-05-20T13:30:02.9Z</time>
 </trkpt>
 <trkpt lat="44.382857" lon="3.422135">
 <time>2011-05-20T13:30:12Z</time>
 </trkpt>
 <trkpt lat="44.384353" lon="3.422025">
 <time>2011-05-20T13:30:17.9Z</time>
 </trkpt>
 <trkpt lat="44.385223" lon="3.42226">
 <time>2011-05-20T13:30:22.9Z</time>
 </trkpt>
 <trkpt lat="44.385954" lon="3.422602">
 <time>2011-05-20T13:30:26.9Z</time>
 </trkpt>
 <trkpt lat="44.386888" lon="3.422318">
 <time>2011-05-20T13:30:31.9Z</time>
 </trkpt>
 <trkpt lat="44.387994" lon="3.422006">
 <time>2011-05-20T13:30:35.9Z</time>
 </trkpt>
 <trkpt lat="44.388929" lon="3.421964">
 <time>2011-05-20T13:30:40.9Z</time>
 </trkpt>
 <trkpt lat="44.389778" lon="3.422433">
 <time>2011-05-20T13:30:44.9Z</time>
 </trkpt>
 <trkpt lat="44.390259" lon="3.423355">
 <time>2011-05-20T13:30:49.9Z</time>
 </trkpt>
 <trkpt lat="44.390769" lon="3.424129">
 <time>2011-05-20T13:30:53.9Z</time>
 </trkpt>
 <trkpt lat="44.391528" lon="3.424539">
 <time>2011-05-20T13:30:57.9Z</time>
 </trkpt>
 <trkpt lat="44.392538" lon="3.424868">
 <time>2011-05-20T13:31:01.9Z</time>
 </trkpt>
 <trkpt lat="44.393544" lon="3.425222">
 <time>2011-05-20T13:31:05.9Z</time>
 </trkpt>
 <trkpt lat="44.395007" lon="3.426173">
 <time>2011-05-20T13:31:11.9Z</time>
 </trkpt>
 <trkpt lat="44.399109" lon="3.429461">
 <time>2011-05-20T13:31:28.9Z</time>
 </trkpt>
 <trkpt lat="44.399958" lon="3.429851">
 <time>2011-05-20T13:31:33.9Z</time>
 </trkpt>
 <trkpt lat="44.401157" lon="3.430203">
 <time>2011-05-20T13:31:38.9Z</time>
 </trkpt>
 <trkpt lat="44.402405" lon="3.43085">
 <time>2011-05-20T13:31:43.9Z</time>
 </trkpt>
 <trkpt lat="44.404261" lon="3.432105">
 <time>2011-05-20T13:31:50.9Z</time>
 </trkpt>
 <trkpt lat="44.405009" lon="3.432287">
 <time>2011-05-20T13:31:55.9Z</time>
 </trkpt>
 <trkpt lat="44.406013" lon="3.43193">
 <time>2011-05-20T13:32:00.9Z</time>
 </trkpt>
 <trkpt lat="44.406583" lon="3.432022">
 <time>2011-05-20T13:32:05.2Z</time>
 </trkpt>
 <trkpt lat="44.407606" lon="3.432695">
 <time>2011-05-20T13:32:10.2Z</time>
 </trkpt>
 <trkpt lat="44.408745" lon="3.433709">
 <time>2011-05-20T13:32:15.2Z</time>
 </trkpt>
 <trkpt lat="44.409177" lon="3.434553">
 <time>2011-05-20T13:32:20.2Z</time>
 </trkpt>
 <trkpt lat="44.408873" lon="3.435866">
 <time>2011-05-20T13:32:25.2Z</time>
 </trkpt>
 <trkpt lat="44.4086" lon="3.43704">
 <time>2011-05-20T13:32:29.9Z</time>
 </trkpt>
 <trkpt lat="44.408512" lon="3.438997">
 <time>2011-05-20T13:32:39.2Z</time>
 </trkpt>
 <trkpt lat="44.408591" lon="3.439504">
 <time>2011-05-20T13:32:43.2Z</time>
 </trkpt>
 <trkpt lat="44.409068" lon="3.440055">
 <time>2011-05-20T13:32:48.9Z</time>
 </trkpt>
 <trkpt lat="44.409703" lon="3.440618">
 <time>2011-05-20T13:32:53.9Z</time>
 </trkpt>
 <trkpt lat="44.410095" lon="3.44089">
 <time>2011-05-20T13:32:58.2Z</time>
 </trkpt>
 <trkpt lat="44.410505" lon="3.441849">
 <time>2011-05-20T13:33:03.2Z</time>
 </trkpt>
 <trkpt lat="44.410303" lon="3.442762">
 <time>2011-05-20T13:33:07.2Z</time>
 </trkpt>
 <trkpt lat="44.410872" lon="3.443184">
 <time>2011-05-20T13:33:12.2Z</time>
 </trkpt>
 <trkpt lat="44.41182" lon="3.443303">
 <time>2011-05-20T13:33:16.2Z</time>
 </trkpt>
 <trkpt lat="44.41269" lon="3.443115">
 <time>2011-05-20T13:33:20.2Z</time>
 </trkpt>
 <trkpt lat="44.41381" lon="3.442839">
 <time>2011-05-20T13:33:25.9Z</time>
 </trkpt>
 <trkpt lat="44.4145" lon="3.443329">
 <time>2011-05-20T13:33:30.2Z</time>
 </trkpt>
 <trkpt lat="44.415231" lon="3.445006">
 <time>2011-05-20T13:33:36.2Z</time>
 </trkpt>
 <trkpt lat="44.416058" lon="3.445568">
 <time>2011-05-20T13:33:40.9Z</time>
 </trkpt>
 <trkpt lat="44.419391" lon="3.446994">
 <time>2011-05-20T13:33:53.9Z</time>
 </trkpt>
 <trkpt lat="44.42017" lon="3.447555">
 <time>2011-05-20T13:33:58.9Z</time>
 </trkpt>
 <trkpt lat="44.420909" lon="3.448165">
 <time>2011-05-20T13:34:03.2Z</time>
 </trkpt>
 <trkpt lat="44.422033" lon="3.448727">
 <time>2011-05-20T13:34:08.2Z</time>
 </trkpt>
 <trkpt lat="44.423082" lon="3.448955">
 <time>2011-05-20T13:34:12.2Z</time>
 </trkpt>
 <trkpt lat="44.423969" lon="3.448944">
 <time>2011-05-20T13:34:16.9Z</time>
 </trkpt>
 <trkpt lat="44.425764" lon="3.448632">
 <time>2011-05-20T13:34:23.2Z</time>
 </trkpt>
 <trkpt lat="44.427203" lon="3.448972">
 <time>2011-05-20T13:34:29Z</time>
 </trkpt>
 <trkpt lat="44.428235" lon="3.44879">
 <time>2011-05-20T13:34:33.9Z</time>
 </trkpt>
 <trkpt lat="44.432536" lon="3.447559">
 <time>2011-05-20T13:34:53.2Z</time>
 </trkpt>
 <trkpt lat="44.434108" lon="3.44734">
 <time>2011-05-20T13:34:59.2Z</time>
 </trkpt>
 <trkpt lat="44.435247" lon="3.447343">
 <time>2011-05-20T13:35:03.2Z</time>
 </trkpt>
 <trkpt lat="44.436388" lon="3.447216">
 <time>2011-05-20T13:35:08.2Z</time>
 </trkpt>
 <trkpt lat="44.439116" lon="3.446702">
 <time>2011-05-20T13:35:18.2Z</time>
 </trkpt>
 <trkpt lat="44.442348" lon="3.446837">
 <time>2011-05-20T13:35:31.2Z</time>
 </trkpt>
 <trkpt lat="44.445001" lon="3.447563">
 <time>2011-05-20T13:35:42.2Z</time>
 </trkpt>
 <trkpt lat="44.453339" lon="3.449049">
 <time>2011-05-20T13:36:13.2Z</time>
 </trkpt>
 <trkpt lat="44.455537" lon="3.449574">
 <time>2011-05-20T13:36:22.2Z</time>
 </trkpt>
 <trkpt lat="44.45632" lon="3.450016">
 <time>2011-05-20T13:36:27.2Z</time>
 </trkpt>
 <trkpt lat="44.459046" lon="3.451916">
 <time>2011-05-20T13:36:40.9Z</time>
 </trkpt>
 <trkpt lat="44.459308" lon="3.452263">
 <time>2011-05-20T13:36:45.2Z</time>
 </trkpt>
 <trkpt lat="44.459488" lon="3.45267">
 <time>2011-05-20T13:36:50.2Z</time>
 </trkpt>
 <trkpt lat="44.459635" lon="3.452922">
 <time>2011-05-20T13:36:54.9Z</time>
 </trkpt>
 <trkpt lat="44.45978" lon="3.452972">
 <time>2011-05-20T13:46:05.2Z</time>
 </trkpt>
 <trkpt lat="44.460162" lon="3.453393">
 <time>2011-05-20T13:46:09.9Z</time>
 </trkpt>
 <trkpt lat="44.460559" lon="3.453666">
 <time>2011-05-20T13:46:14.9Z</time>
 </trkpt>
 <trkpt lat="44.461147" lon="3.453982">
 <time>2011-05-20T13:46:20.2Z</time>
 </trkpt>
 <trkpt lat="44.461698" lon="3.45405">
 <time>2011-05-20T13:46:25.2Z</time>
 </trkpt>
 <trkpt lat="44.462522" lon="3.454292">
 <time>2011-05-20T13:46:29.9Z</time>
 </trkpt>
 <trkpt lat="44.463227" lon="3.454519">
 <time>2011-05-20T13:46:34.9Z</time>
 </trkpt>
 <trkpt lat="44.46359" lon="3.454913">
 <time>2011-05-20T13:46:39.9Z</time>
 </trkpt>
 <trkpt lat="44.463546" lon="3.455802">
 <time>2011-05-20T13:46:44.9Z</time>
 </trkpt>
 <trkpt lat="44.463523" lon="3.456721">
 <time>2011-05-20T13:46:48.9Z</time>
 </trkpt>
 <trkpt lat="44.463583" lon="3.457638">
 <time>2011-05-20T13:46:53.2Z</time>
 </trkpt>
 <trkpt lat="44.463975" lon="3.4584">
 <time>2011-05-20T13:46:58.2Z</time>
 </trkpt>
 <trkpt lat="44.464858" lon="3.458634">
 <time>2011-05-20T13:47:03.2Z</time>
 </trkpt>
 <trkpt lat="44.46582" lon="3.458681">
 <time>2011-05-20T13:47:08.2Z</time>
 </trkpt>
 <trkpt lat="44.466627" lon="3.458617">
 <time>2011-05-20T13:47:13.2Z</time>
 </trkpt>
 <trkpt lat="44.466976" lon="3.458553">
 <time>2011-05-20T13:47:18.2Z</time>
 </trkpt>
 <trkpt lat="44.466778" lon="3.45872">
 <time>2011-05-20T13:47:22.9Z</time>
 </trkpt>
 <trkpt lat="44.465458" lon="3.459204">
 <time>2011-05-20T13:47:29.9Z</time>
 </trkpt>
 <trkpt lat="44.465115" lon="3.459227">
 <time>2011-05-20T13:47:33.9Z</time>
 </trkpt>
 <trkpt lat="44.465287" lon="3.459188">
 <time>2011-05-20T13:47:41.2Z</time>
 </trkpt>
 <trkpt lat="44.46613" lon="3.45914">
 <time>2011-05-20T13:47:46.2Z</time>
 </trkpt>
 <trkpt lat="44.467277" lon="3.458947">
 <time>2011-05-20T13:47:51.2Z</time>
 </trkpt>
 <trkpt lat="44.468269" lon="3.458397">
 <time>2011-05-20T13:47:55.9Z</time>
 </trkpt>
 <trkpt lat="44.46906" lon="3.457989">
 <time>2011-05-20T13:48:00.2Z</time>
 </trkpt>
 <trkpt lat="44.470206" lon="3.457483">
 <time>2011-05-20T13:48:05.2Z</time>
 </trkpt>
 <trkpt lat="44.470758" lon="3.456901">
 <time>2011-05-20T13:48:09.9Z</time>
 </trkpt>
 <trkpt lat="44.471109" lon="3.456156">
 <time>2011-05-20T13:48:13.9Z</time>
 </trkpt>
 <trkpt lat="44.471603" lon="3.454579">
 <time>2011-05-20T13:48:21.9Z</time>
 </trkpt>
 <trkpt lat="44.471829" lon="3.454404">
 <time>2011-05-20T13:48:25.9Z</time>
 </trkpt>
 <trkpt lat="44.472475" lon="3.454282">
 <time>2011-05-20T13:48:30.9Z</time>
 </trkpt>
 <trkpt lat="44.473077" lon="3.453753">
 <time>2011-05-20T13:48:35.2Z</time>
 </trkpt>
 <trkpt lat="44.4735" lon="3.452794">
 <time>2011-05-20T13:48:40.2Z</time>
 </trkpt>
 <trkpt lat="44.474124" lon="3.451865">
 <time>2011-05-20T13:48:45.9Z</time>
 </trkpt>
 <trkpt lat="44.474718" lon="3.451256">
 <time>2011-05-20T13:48:50.2Z</time>
 </trkpt>
 <trkpt lat="44.475818" lon="3.450717">
 <time>2011-05-20T13:48:54.9Z</time>
 </trkpt>
 <trkpt lat="44.476484" lon="3.450365">
 <time>2011-05-20T13:48:59.2Z</time>
 </trkpt>
 <trkpt lat="44.477235" lon="3.449594">
 <time>2011-05-20T13:49:03.9Z</time>
 </trkpt>
 <trkpt lat="44.477623" lon="3.448492">
 <time>2011-05-20T13:49:08.9Z</time>
 </trkpt>
 <trkpt lat="44.477796" lon="3.447645">
 <time>2011-05-20T13:49:13.9Z</time>
 </trkpt>
 <trkpt lat="44.477942" lon="3.44788">
 <time>2011-05-20T13:49:20.9Z</time>
 </trkpt>
 <trkpt lat="44.477947" lon="3.448722">
 <time>2011-05-20T13:49:25.9Z</time>
 </trkpt>
 <trkpt lat="44.477794" lon="3.449407">
 <time>2011-05-20T13:49:31.2Z</time>
 </trkpt>
 <trkpt lat="44.477883" lon="3.449259">
 <time>2011-05-20T13:49:36.9Z</time>
 </trkpt>
 <trkpt lat="44.47808" lon="3.448806">
 <time>2011-05-20T13:49:41.2Z</time>
 </trkpt>
 <trkpt lat="44.478374" lon="3.44803">
 <time>2011-05-20T13:49:46Z</time>
 </trkpt>
 <trkpt lat="44.478469" lon="3.447555">
 <time>2011-05-20T13:49:51.2Z</time>
 </trkpt>
 <trkpt lat="44.478646" lon="3.447677">
 <time>2011-05-20T13:49:56.2Z</time>
 </trkpt>
 <trkpt lat="44.478745" lon="3.448403">
 <time>2011-05-20T13:50:00.9Z</time>
 </trkpt>
 <trkpt lat="44.478588" lon="3.449209">
 <time>2011-05-20T13:50:04.9Z</time>
 </trkpt>
 <trkpt lat="44.478276" lon="3.449652">
 <time>2011-05-20T13:50:09.2Z</time>
 </trkpt>
 <trkpt lat="44.477625" lon="3.45032">
 <time>2011-05-20T13:50:14.2Z</time>
 </trkpt>
 <trkpt lat="44.477337" lon="3.450805">
 <time>2011-05-20T13:50:18.9Z</time>
 </trkpt>
 <trkpt lat="44.47752" lon="3.45145">
 <time>2011-05-20T13:50:22.9Z</time>
 </trkpt>
 <trkpt lat="44.478158" lon="3.452453">
 <time>2011-05-20T13:50:27.9Z</time>
 </trkpt>
 <trkpt lat="44.478519" lon="3.453026">
 <time>2011-05-20T13:50:31.2Z</time>
 </trkpt>
 <trkpt lat="44.47961" lon="3.454442">
 <time>2011-05-20T13:50:39.9Z</time>
 </trkpt>
 <trkpt lat="44.4797" lon="3.45494">
 <time>2011-05-20T13:50:44.9Z</time>
 </trkpt>
 <trkpt lat="44.479637" lon="3.455658">
 <time>2011-05-20T13:50:49.9Z</time>
 </trkpt>
 <trkpt lat="44.479837" lon="3.455901">
 <time>2011-05-20T13:50:54.9Z</time>
 </trkpt>
 <trkpt lat="44.480175" lon="3.456261">
 <time>2011-05-20T13:50:59.9Z</time>
 </trkpt>
 <trkpt lat="44.480261" lon="3.456435">
 <time>2011-05-20T13:51:04.9Z</time>
 </trkpt>
 <trkpt lat="44.480453" lon="3.456458">
 <time>2011-05-20T13:51:11.2Z</time>
 </trkpt>
 <trkpt lat="44.480843" lon="3.456537">
 <time>2011-05-20T13:51:15.9Z</time>
 </trkpt>
 <trkpt lat="44.481735" lon="3.456849">
 <time>2011-05-20T13:51:21.9Z</time>
 </trkpt>
 <trkpt lat="44.482084" lon="3.457192">
 <time>2011-05-20T13:51:26.9Z</time>
 </trkpt>
 <trkpt lat="44.482357" lon="3.457714">
 <time>2011-05-20T13:51:30.9Z</time>
 </trkpt>
 <trkpt lat="44.48253" lon="3.457786">
 <time>2011-05-20T13:51:34.9Z</time>
 </trkpt>
 <trkpt lat="44.482918" lon="3.457717">
 <time>2011-05-20T13:51:39.9Z</time>
 </trkpt>
 <trkpt lat="44.483388" lon="3.457444">
 <time>2011-05-20T13:51:44.9Z</time>
 </trkpt>
 <trkpt lat="44.484025" lon="3.457506">
 <time>2011-05-20T13:51:49.9Z</time>
 </trkpt>
 <trkpt lat="44.485617" lon="3.458137">
 <time>2011-05-20T13:51:58.9Z</time>
 </trkpt>
 <trkpt lat="44.485978" lon="3.458481">
 <time>2011-05-20T13:52:03.2Z</time>
 </trkpt>
 <trkpt lat="44.486732" lon="3.459457">
 <time>2011-05-20T13:52:08.9Z</time>
 </trkpt>
 <trkpt lat="44.486978" lon="3.459588">
 <time>2011-05-20T13:52:12.2Z</time>
 </trkpt>
 <trkpt lat="44.487873" lon="3.459568">
 <time>2011-05-20T13:52:17.9Z</time>
 </trkpt>
 <trkpt lat="44.488504" lon="3.459394">
 <time>2011-05-20T13:52:21.9Z</time>
 </trkpt>
 <trkpt lat="44.489217" lon="3.458878">
 <time>2011-05-20T13:52:26.9Z</time>
 </trkpt>
 <trkpt lat="44.490158" lon="3.457995">
 <time>2011-05-20T13:52:32.2Z</time>
 </trkpt>
 <trkpt lat="44.490891" lon="3.457681">
 <time>2011-05-20T13:52:37.2Z</time>
 </trkpt>
 <trkpt lat="44.492692" lon="3.457181">
 <time>2011-05-20T13:52:46.9Z</time>
 </trkpt>
 <trkpt lat="44.493495" lon="3.457291">
 <time>2011-05-20T13:52:51.9Z</time>
 </trkpt>
 <trkpt lat="44.494882" lon="3.458013">
 <time>2011-05-20T13:52:58.9Z</time>
 </trkpt>
 <trkpt lat="44.495414" lon="3.458495">
 <time>2011-05-20T13:53:03.9Z</time>
 </trkpt>
 <trkpt lat="44.495734" lon="3.459163">
 <time>2011-05-20T13:53:07.9Z</time>
 </trkpt>
 <trkpt lat="44.495811" lon="3.460069">
 <time>2011-05-20T13:53:12.9Z</time>
 </trkpt>
 <trkpt lat="44.495587" lon="3.460784">
 <time>2011-05-20T13:53:16.9Z</time>
 </trkpt>
 <trkpt lat="44.495209" lon="3.461718">
 <time>2011-05-20T13:53:21.9Z</time>
 </trkpt>
 <trkpt lat="44.495282" lon="3.462573">
 <time>2011-05-20T13:53:26.9Z</time>
 </trkpt>
 <trkpt lat="44.495713" lon="3.463163">
 <time>2011-05-20T13:53:30.9Z</time>
 </trkpt>
 <trkpt lat="44.496318" lon="3.463272">
 <time>2011-05-20T13:53:35.2Z</time>
 </trkpt>
 <trkpt lat="44.497121" lon="3.46284">
 <time>2011-05-20T13:53:40.2Z</time>
 </trkpt>
 <trkpt lat="44.498017" lon="3.462516">
 <time>2011-05-20T13:53:44.9Z</time>
 </trkpt>
 <trkpt lat="44.498884" lon="3.462474">
 <time>2011-05-20T13:53:48.9Z</time>
 </trkpt>
 <trkpt lat="44.501678" lon="3.462871">
 <time>2011-05-20T13:54:05.2Z</time>
 </trkpt>
 <trkpt lat="44.502281" lon="3.46271">
 <time>2011-05-20T13:54:09.9Z</time>
 </trkpt>
 <trkpt lat="44.502933" lon="3.46213">
 <time>2011-05-20T13:54:14.9Z</time>
 </trkpt>
 <trkpt lat="44.503359" lon="3.461229">
 <time>2011-05-20T13:54:18.9Z</time>
 </trkpt>
 <trkpt lat="44.503744" lon="3.460525">
 <time>2011-05-20T13:54:23.9Z</time>
 </trkpt>
 <trkpt lat="44.504292" lon="3.459988">
 <time>2011-05-20T13:54:28.9Z</time>
 </trkpt>
 <trkpt lat="44.504864" lon="3.459894">
 <time>2011-05-20T13:54:32.9Z</time>
 </trkpt>
 <trkpt lat="44.505443" lon="3.460071">
 <time>2011-05-20T13:54:37Z</time>
 </trkpt>
 <trkpt lat="44.506836" lon="3.461563">
 <time>2011-05-20T13:54:46.9Z</time>
 </trkpt>
 <trkpt lat="44.507151" lon="3.462184">
 <time>2011-05-20T13:54:51.9Z</time>
 </trkpt>
 <trkpt lat="44.50825" lon="3.464398">
 <time>2011-05-20T13:55:00.9Z</time>
 </trkpt>
 <trkpt lat="44.509017" lon="3.465711">
 <time>2011-05-20T13:55:05.9Z</time>
 </trkpt>
 <trkpt lat="44.511599" lon="3.471307">
 <time>2011-05-20T13:55:24.9Z</time>
 </trkpt>
 <trkpt lat="44.515114" lon="3.480917">
 <time>2011-05-20T13:56:05.9Z</time>
 </trkpt>
 <trkpt lat="44.51584" lon="3.483534">
 <time>2011-05-20T13:56:19.9Z</time>
 </trkpt>
 <trkpt lat="44.516175" lon="3.484398">
 <time>2011-05-20T13:56:27.9Z</time>
 </trkpt>
 <trkpt lat="44.516241" lon="3.484587">
 <time>2011-05-20T13:56:32.9Z</time>
 </trkpt>
 <trkpt lat="44.516244" lon="3.48478">
 <time>2011-05-20T13:56:45.9Z</time>
 </trkpt>
 <trkpt lat="44.516206" lon="3.485019">
 <time>2011-05-20T13:56:54.9Z</time>
 </trkpt>
 <trkpt lat="44.516146" lon="3.485189">
 <time>2011-05-20T13:56:59.9Z</time>
 </trkpt>
 <trkpt lat="44.516151" lon="3.485408">
 <time>2011-05-20T13:57:05.2Z</time>
 </trkpt>
 <trkpt lat="44.516211" lon="3.485593">
 <time>2011-05-20T13:57:10.2Z</time>
 </trkpt>
 <trkpt lat="44.516199" lon="3.485808">
 <time>2011-05-20T13:57:16.2Z</time>
 </trkpt>
 <trkpt lat="44.516185" lon="3.486141">
 <time>2011-05-20T13:57:21.9Z</time>
 </trkpt>
 <trkpt lat="44.516137" lon="3.486647">
 <time>2011-05-20T13:57:26.9Z</time>
 </trkpt>
 <trkpt lat="44.5161" lon="3.487165">
 <time>2011-05-20T13:57:31.9Z</time>
 </trkpt>
 <trkpt lat="44.516152" lon="3.487781">
 <time>2011-05-20T13:57:36.9Z</time>
 </trkpt>
 <trkpt lat="44.516269" lon="3.488482">
 <time>2011-05-20T13:57:41.9Z</time>
 </trkpt>
 <trkpt lat="44.516456" lon="3.489214">
 <time>2011-05-20T13:57:46.9Z</time>
 </trkpt>
 <trkpt lat="44.516598" lon="3.48963">
 <time>2011-05-20T13:57:51.9Z</time>
 </trkpt>
 <trkpt lat="44.516723" lon="3.489839">
 <time>2011-05-20T13:57:56.9Z</time>
 </trkpt>
 <trkpt lat="44.516776" lon="3.490037">
 <time>2011-05-20T13:58:03.9Z</time>
 </trkpt>
 <trkpt lat="44.516873" lon="3.490175">
 <time>2011-05-20T13:58:08.9Z</time>
 </trkpt>
 <trkpt lat="44.516964" lon="3.490414">
 <time>2011-05-20T13:58:13.9Z</time>
 </trkpt>
 <trkpt lat="44.517099" lon="3.490674">
 <time>2011-05-20T13:58:18.9Z</time>
 </trkpt>
 <trkpt lat="44.517229" lon="3.490889">
 <time>2011-05-20T13:58:23.9Z</time>
 </trkpt>
 <trkpt lat="44.517421" lon="3.491142">
 <time>2011-05-20T13:58:28.9Z</time>
 </trkpt>
 <trkpt lat="44.517626" lon="3.491411">
 <time>2011-05-20T13:58:33.9Z</time>
 </trkpt>
 <trkpt lat="44.51771" lon="3.491577">
 <time>2011-05-20T13:58:40.9Z</time>
 </trkpt>
 <trkpt lat="44.518019" lon="3.491975">
 <time>2011-05-20T13:58:49.9Z</time>
 </trkpt>
 <trkpt lat="44.518144" lon="3.492645">
 <time>2011-05-20T13:58:54.9Z</time>
 </trkpt>
 <trkpt lat="44.518142" lon="3.493594">
 <time>2011-05-20T13:58:59.9Z</time>
 </trkpt>
 <trkpt lat="44.518041" lon="3.494779">
 <time>2011-05-20T13:59:07.9Z</time>
 </trkpt>
 <trkpt lat="44.518031" lon="3.494975">
 <time>2011-05-20T13:59:12.9Z</time>
 </trkpt>
 <trkpt lat="44.51791" lon="3.495266">
 <time>2011-05-20T13:59:16.9Z</time>
 </trkpt>
 <trkpt lat="44.517679" lon="3.496148">
 <time>2011-05-20T13:59:22.9Z</time>
 </trkpt>
 <trkpt lat="44.51758" lon="3.49646">
 <time>2011-05-20T13:59:27.9Z</time>
 </trkpt>
 <trkpt lat="44.517518" lon="3.496863">
 <time>2011-05-20T13:59:32.9Z</time>
 </trkpt>
 <trkpt lat="44.517362" lon="3.497051">
 <time>2011-05-20T13:59:36.9Z</time>
 </trkpt>
 <trkpt lat="44.516255" lon="3.497839">
 <time>2011-05-20T13:59:47.9Z</time>
 </trkpt>
 <trkpt lat="44.516043" lon="3.49827">
 <time>2011-05-20T13:59:52.9Z</time>
 </trkpt>
 <trkpt lat="44.516151" lon="3.499026">
 <time>2011-05-20T13:59:57.9Z</time>
 </trkpt>
 <trkpt lat="44.516374" lon="3.499573">
 <time>2011-05-20T14:00:01.9Z</time>
 </trkpt>
 <trkpt lat="44.516616" lon="3.500082">
 <time>2011-05-20T14:00:06.9Z</time>
 </trkpt>
 <trkpt lat="44.516938" lon="3.500484">
 <time>2011-05-20T14:00:11.9Z</time>
 </trkpt>
 <trkpt lat="44.517617" lon="3.50114">
 <time>2011-05-20T14:00:17.9Z</time>
 </trkpt>
 <trkpt lat="44.517789" lon="3.501391">
 <time>2011-05-20T14:00:21.9Z</time>
 </trkpt>
 <trkpt lat="44.517902" lon="3.502071">
 <time>2011-05-20T14:00:26.9Z</time>
 </trkpt>
 <trkpt lat="44.517779" lon="3.502862">
 <time>2011-05-20T14:00:31.9Z</time>
 </trkpt>
 <trkpt lat="44.517731" lon="3.503263">
 <time>2011-05-20T14:00:36.9Z</time>
 </trkpt>
 <trkpt lat="44.517602" lon="3.503203">
 <time>2011-05-20T14:00:58.9Z</time>
 </trkpt>
 <trkpt lat="44.51754" lon="3.503518">
 <time>2011-05-20T14:01:12.9Z</time>
 </trkpt>
 <trkpt lat="44.51752" lon="3.504125">
 <time>2011-05-20T14:01:16.9Z</time>
 </trkpt>
 <trkpt lat="44.517492" lon="3.507548">
 <time>2011-05-20T14:01:31.9Z</time>
 </trkpt>
 <trkpt lat="44.517677" lon="3.508349">
 <time>2011-05-20T14:01:36.9Z</time>
 </trkpt>
 <trkpt lat="44.518026" lon="3.509138">
 <time>2011-05-20T14:01:40.9Z</time>
 </trkpt>
 <trkpt lat="44.518441" lon="3.50967">
 <time>2011-05-20T14:01:45.9Z</time>
 </trkpt>
 <trkpt lat="44.518974" lon="3.510029">
 <time>2011-05-20T14:01:50.2Z</time>
 </trkpt>
 <trkpt lat="44.519543" lon="3.510151">
 <time>2011-05-20T14:01:55.9Z</time>
 </trkpt>
 <trkpt lat="44.519698" lon="3.510264">
 <time>2011-05-20T14:02:25.9Z</time>
 </trkpt>
 <trkpt lat="44.520085" lon="3.510434">
 <time>2011-05-20T14:02:30.9Z</time>
 </trkpt>
 <trkpt lat="44.520589" lon="3.510576">
 <time>2011-05-20T14:02:35.9Z</time>
 </trkpt>
 <trkpt lat="44.520944" lon="3.510663">
 <time>2011-05-20T14:02:40.9Z</time>
 </trkpt>
 <trkpt lat="44.522844" lon="3.510452">
 <time>2011-05-20T14:02:51.9Z</time>
 </trkpt>
 <trkpt lat="44.523539" lon="3.510554">
 <time>2011-05-20T14:02:56.9Z</time>
 </trkpt>
 <trkpt lat="44.524843" lon="3.51093">
 <time>2011-05-20T14:03:03.9Z</time>
 </trkpt>
 <trkpt lat="44.525254" lon="3.511159">
 <time>2011-05-20T14:03:07.9Z</time>
 </trkpt>
 <trkpt lat="44.5258" lon="3.511915">
 <time>2011-05-20T14:03:12.9Z</time>
 </trkpt>
 <trkpt lat="44.526425" lon="3.513493">
 <time>2011-05-20T14:03:20.9Z</time>
 </trkpt>
 <trkpt lat="44.52656" lon="3.514182">
 <time>2011-05-20T14:03:25.9Z</time>
 </trkpt>
 <trkpt lat="44.526449" lon="3.515128">
 <time>2011-05-20T14:03:29.9Z</time>
 </trkpt>
 <trkpt lat="44.525861" lon="3.516292">
 <time>2011-05-20T14:03:35.9Z</time>
 </trkpt>
 <trkpt lat="44.525185" lon="3.517522">
 <time>2011-05-20T14:03:40.9Z</time>
 </trkpt>
 <trkpt lat="44.524079" lon="3.519457">
 <time>2011-05-20T14:03:48.9Z</time>
 </trkpt>
 <trkpt lat="44.523814" lon="3.520308">
 <time>2011-05-20T14:03:52.9Z</time>
 </trkpt>
 <trkpt lat="44.524088" lon="3.521062">
 <time>2011-05-20T14:03:57.9Z</time>
 </trkpt>
 <trkpt lat="44.52469" lon="3.521493">
 <time>2011-05-20T14:04:01.9Z</time>
 </trkpt>
 <trkpt lat="44.525678" lon="3.521552">
 <time>2011-05-20T14:04:06.9Z</time>
 </trkpt>
 <trkpt lat="44.526516" lon="3.521625">
 <time>2011-05-20T14:04:10.9Z</time>
 </trkpt>
 <trkpt lat="44.527276" lon="3.5221">
 <time>2011-05-20T14:04:15.9Z</time>
 </trkpt>
 <trkpt lat="44.529095" lon="3.524896">
 <time>2011-05-20T14:04:26.9Z</time>
 </trkpt>
 <trkpt lat="44.529697" lon="3.525477">
 <time>2011-05-20T14:04:31.9Z</time>
 </trkpt>
 <trkpt lat="44.530698" lon="3.52577">
 <time>2011-05-20T14:04:36.9Z</time>
 </trkpt>
 <trkpt lat="44.533041" lon="3.526173">
 <time>2011-05-20T14:04:45.9Z</time>
 </trkpt>
 <trkpt lat="44.534139" lon="3.526608">
 <time>2011-05-20T14:04:50.9Z</time>
 </trkpt>
 <trkpt lat="44.534823" lon="3.527206">
 <time>2011-05-20T14:04:55.9Z</time>
 </trkpt>
 <trkpt lat="44.53567" lon="3.528324">
 <time>2011-05-20T14:05:00.9Z</time>
 </trkpt>
 <trkpt lat="44.536397" lon="3.529677">
 <time>2011-05-20T14:05:05.9Z</time>
 </trkpt>
 <trkpt lat="44.536932" lon="3.531191">
 <time>2011-05-20T14:05:09.9Z</time>
 </trkpt>
 <trkpt lat="44.537032" lon="3.53256">
 <time>2011-05-20T14:05:14.9Z</time>
 </trkpt>
 <trkpt lat="44.537032" lon="3.537899">
 <time>2011-05-20T14:05:29.9Z</time>
 </trkpt>
 <trkpt lat="44.536836" lon="3.53898">
 <time>2011-05-20T14:05:34.9Z</time>
 </trkpt>
 <trkpt lat="44.536235" lon="3.540053">
 <time>2011-05-20T14:05:39.9Z</time>
 </trkpt>
 <trkpt lat="44.535401" lon="3.540728">
 <time>2011-05-20T14:05:44.9Z</time>
 </trkpt>
 <trkpt lat="44.534856" lon="3.541031">
 <time>2011-05-20T14:05:48.9Z</time>
 </trkpt>
 <trkpt lat="44.534796" lon="3.541572">
 <time>2011-05-20T14:05:53.9Z</time>
 </trkpt>
 <trkpt lat="44.535357" lon="3.542442">
 <time>2011-05-20T14:05:58.9Z</time>
 </trkpt>
 <trkpt lat="44.535542" lon="3.543284">
 <time>2011-05-20T14:06:03.2Z</time>
 </trkpt>
 <trkpt lat="44.535762" lon="3.546779">
 <time>2011-05-20T14:06:19.9Z</time>
 </trkpt>
 <trkpt lat="44.536011" lon="3.548022">
 <time>2011-05-20T14:06:26.9Z</time>
 </trkpt>
 <trkpt lat="44.53594" lon="3.548769">
 <time>2011-05-20T14:06:31.9Z</time>
 </trkpt>
 <trkpt lat="44.535722" lon="3.549797">
 <time>2011-05-20T14:06:36.9Z</time>
 </trkpt>
 <trkpt lat="44.535724" lon="3.550434">
 <time>2011-05-20T14:06:41.9Z</time>
 </trkpt>
 <trkpt lat="44.535877" lon="3.551152">
 <time>2011-05-20T14:06:45.9Z</time>
 </trkpt>
 <trkpt lat="44.53604" lon="3.55219">
 <time>2011-05-20T14:06:50.9Z</time>
 </trkpt>
 <trkpt lat="44.535822" lon="3.55323">
 <time>2011-05-20T14:06:55.9Z</time>
 </trkpt>
 <trkpt lat="44.535383" lon="3.554283">
 <time>2011-05-20T14:07:00.9Z</time>
 </trkpt>
 <trkpt lat="44.534397" lon="3.556117">
 <time>2011-05-20T14:07:07.9Z</time>
 </trkpt>
 <trkpt lat="44.532899" lon="3.558335">
 <time>2011-05-20T14:07:18.9Z</time>
 </trkpt>
 <trkpt lat="44.532926" lon="3.559078">
 <time>2011-05-20T14:07:23.9Z</time>
 </trkpt>
 <trkpt lat="44.533354" lon="3.559745">
 <time>2011-05-20T14:07:27.9Z</time>
 </trkpt>
 <trkpt lat="44.534131" lon="3.560408">
 <time>2011-05-20T14:07:31.9Z</time>
 </trkpt>
 <trkpt lat="44.536323" lon="3.561825">
 <time>2011-05-20T14:07:40.9Z</time>
 </trkpt>
 <trkpt lat="44.537022" lon="3.562552">
 <time>2011-05-20T14:07:45.9Z</time>
 </trkpt>
 <trkpt lat="44.537599" lon="3.563411">
 <time>2011-05-20T14:07:49.9Z</time>
 </trkpt>
 <trkpt lat="44.538055" lon="3.56427">
 <time>2011-05-20T14:07:53.9Z</time>
 </trkpt>
 <trkpt lat="44.538256" lon="3.565308">
 <time>2011-05-20T14:07:58.9Z</time>
 </trkpt>
 <trkpt lat="44.538083" lon="3.566139">
 <time>2011-05-20T14:08:03.9Z</time>
 </trkpt>
 <trkpt lat="44.537538" lon="3.566696">
 <time>2011-05-20T14:08:08.9Z</time>
 </trkpt>
 <trkpt lat="44.536889" lon="3.566841">
 <time>2011-05-20T14:08:13.9Z</time>
 </trkpt>
 <trkpt lat="44.535741" lon="3.566879">
 <time>2011-05-20T14:08:18.9Z</time>
 </trkpt>
 <trkpt lat="44.535024" lon="3.567137">
 <time>2011-05-20T14:08:23.9Z</time>
 </trkpt>
 <trkpt lat="44.534426" lon="3.567921">
 <time>2011-05-20T14:08:27.9Z</time>
 </trkpt>
 <trkpt lat="44.534369" lon="3.569023">
 <time>2011-05-20T14:08:31.9Z</time>
 </trkpt>
 <trkpt lat="44.534568" lon="3.569738">
 <time>2011-05-20T14:08:35.2Z</time>
 </trkpt>
 <trkpt lat="44.535829" lon="3.570244">
 <time>2011-05-20T14:08:40.9Z</time>
 </trkpt>
 <trkpt lat="44.538251" lon="3.570531">
 <time>2011-05-20T14:08:49.9Z</time>
 </trkpt>
 <trkpt lat="44.538982" lon="3.571047">
 <time>2011-05-20T14:08:54.9Z</time>
 </trkpt>
 <trkpt lat="44.539455" lon="3.571954">
 <time>2011-05-20T14:08:58.9Z</time>
 </trkpt>
 <trkpt lat="44.53974" lon="3.573015">
 <time>2011-05-20T14:09:02.9Z</time>
 </trkpt>
 <trkpt lat="44.53981" lon="3.574393">
 <time>2011-05-20T14:09:07.9Z</time>
 </trkpt>
 <trkpt lat="44.539468" lon="3.575499">
 <time>2011-05-20T14:09:12.9Z</time>
 </trkpt>
 <trkpt lat="44.538942" lon="3.576403">
 <time>2011-05-20T14:09:16.9Z</time>
 </trkpt>
 <trkpt lat="44.538293" lon="3.577311">
 <time>2011-05-20T14:09:21.2Z</time>
 </trkpt>
 <trkpt lat="44.537184" lon="3.578074">
 <time>2011-05-20T14:09:25.9Z</time>
 </trkpt>
 <trkpt lat="44.535664" lon="3.578896">
 <time>2011-05-20T14:09:31.9Z</time>
 </trkpt>
 <trkpt lat="44.534987" lon="3.579485">
 <time>2011-05-20T14:09:36.2Z</time>
 </trkpt>
 <trkpt lat="44.534855" lon="3.580118">
 <time>2011-05-20T14:09:40.2Z</time>
 </trkpt>
 <trkpt lat="44.535401" lon="3.580984">
 <time>2011-05-20T14:09:45.2Z</time>
 </trkpt>
 <trkpt lat="44.537408" lon="3.582334">
 <time>2011-05-20T14:09:54.9Z</time>
 </trkpt>
 <trkpt lat="44.53766" lon="3.582842">
 <time>2011-05-20T14:09:59.9Z</time>
 </trkpt>
 <trkpt lat="44.537535" lon="3.583625">
 <time>2011-05-20T14:10:04.9Z</time>
 </trkpt>
 <trkpt lat="44.537241" lon="3.583997">
 <time>2011-05-20T14:10:09.2Z</time>
 </trkpt>
 <trkpt lat="44.536161" lon="3.583949">
 <time>2011-05-20T14:10:13.9Z</time>
 </trkpt>
 <trkpt lat="44.535807" lon="3.584404">
 <time>2011-05-20T14:10:17.2Z</time>
 </trkpt>
 <trkpt lat="44.535655" lon="3.585491">
 <time>2011-05-20T14:10:21.9Z</time>
 </trkpt>
 <trkpt lat="44.535903" lon="3.586606">
 <time>2011-05-20T14:10:26.9Z</time>
 </trkpt>
 <trkpt lat="44.536189" lon="3.587733">
 <time>2011-05-20T14:10:30.9Z</time>
 </trkpt>
 <trkpt lat="44.536229" lon="3.588913">
 <time>2011-05-20T14:10:35.2Z</time>
 </trkpt>
 <trkpt lat="44.536824" lon="3.592104">
 <time>2011-05-20T14:10:44.9Z</time>
 </trkpt>
 <trkpt lat="44.536653" lon="3.593268">
 <time>2011-05-20T14:10:49.9Z</time>
 </trkpt>
 <trkpt lat="44.536138" lon="3.595278">
 <time>2011-05-20T14:10:55.2Z</time>
 </trkpt>
 <trkpt lat="44.534899" lon="3.602937">
 <time>2011-05-20T14:11:18.9Z</time>
 </trkpt>
 <trkpt lat="44.534901" lon="3.603808">
 <time>2011-05-20T14:11:22.9Z</time>
 </trkpt>
 <trkpt lat="44.535152" lon="3.605027">
 <time>2011-05-20T14:11:27.9Z</time>
 </trkpt>
 <trkpt lat="44.535757" lon="3.605918">
 <time>2011-05-20T14:11:32.9Z</time>
 </trkpt>
 <trkpt lat="44.536381" lon="3.606172">
 <time>2011-05-20T14:11:36.9Z</time>
 </trkpt>
 <trkpt lat="44.537178" lon="3.60655">
 <time>2011-05-20T14:11:41.9Z</time>
 </trkpt>
 <trkpt lat="44.537771" lon="3.607392">
 <time>2011-05-20T14:11:46.9Z</time>
 </trkpt>
 <trkpt lat="44.538363" lon="3.607972">
 <time>2011-05-20T14:11:51.9Z</time>
 </trkpt>
 <trkpt lat="44.539103" lon="3.607939">
 <time>2011-05-20T14:11:56.9Z</time>
 </trkpt>
 <trkpt lat="44.539582" lon="3.60826">
 <time>2011-05-20T14:12:00.9Z</time>
 </trkpt>
 <trkpt lat="44.539804" lon="3.609147">
 <time>2011-05-20T14:12:05.9Z</time>
 </trkpt>
 <trkpt lat="44.539836" lon="3.609936">
 <time>2011-05-20T14:12:09.9Z</time>
 </trkpt>
 <trkpt lat="44.54015" lon="3.610707">
 <time>2011-05-20T14:12:13.9Z</time>
 </trkpt>
 <trkpt lat="44.540842" lon="3.611485">
 <time>2011-05-20T14:12:18.9Z</time>
 </trkpt>
 <trkpt lat="44.541785" lon="3.61186">
 <time>2011-05-20T14:12:23.9Z</time>
 </trkpt>
 <trkpt lat="44.542773" lon="3.612569">
 <time>2011-05-20T14:12:28.9Z</time>
 </trkpt>
 <trkpt lat="44.543512" lon="3.613107">
 <time>2011-05-20T14:12:33.2Z</time>
 </trkpt>
 <trkpt lat="44.544714" lon="3.613497">
 <time>2011-05-20T14:12:38.2Z</time>
 </trkpt>
 <trkpt lat="44.545271" lon="3.613809">
 <time>2011-05-20T14:12:42.2Z</time>
 </trkpt>
 <trkpt lat="44.54603" lon="3.614714">
 <time>2011-05-20T14:12:47.2Z</time>
 </trkpt>
 <trkpt lat="44.546659" lon="3.615803">
 <time>2011-05-20T14:12:52.2Z</time>
 </trkpt>
 <trkpt lat="44.546961" lon="3.616882">
 <time>2011-05-20T14:12:57.2Z</time>
 </trkpt>
 <trkpt lat="44.546743" lon="3.618199">
 <time>2011-05-20T14:13:03.2Z</time>
 </trkpt>
 <trkpt lat="44.546966" lon="3.618846">
 <time>2011-05-20T14:13:07.2Z</time>
 </trkpt>
 <trkpt lat="44.547535" lon="3.619358">
 <time>2011-05-20T14:13:12.2Z</time>
 </trkpt>
 <trkpt lat="44.548265" lon="3.619639">
 <time>2011-05-20T14:13:16.2Z</time>
 </trkpt>
 <trkpt lat="44.54898" lon="3.619918">
 <time>2011-05-20T14:13:20.2Z</time>
 </trkpt>
 <trkpt lat="44.549557" lon="3.62063">
 <time>2011-05-20T14:13:25.2Z</time>
 </trkpt>
 <trkpt lat="44.550066" lon="3.621694">
 <time>2011-05-20T14:13:30.2Z</time>
 </trkpt>
 <trkpt lat="44.550997" lon="3.622955">
 <time>2011-05-20T14:13:35.2Z</time>
 </trkpt>
 <trkpt lat="44.551639" lon="3.62356">
 <time>2011-05-20T14:13:40.2Z</time>
 </trkpt>
 <trkpt lat="44.552567" lon="3.623927">
 <time>2011-05-20T14:13:45.2Z</time>
 </trkpt>
 <trkpt lat="44.554684" lon="3.624542">
 <time>2011-05-20T14:13:54.2Z</time>
 </trkpt>
 <trkpt lat="44.555393" lon="3.624575">
 <time>2011-05-20T14:13:59.2Z</time>
 </trkpt>
 <trkpt lat="44.556198" lon="3.624221">
 <time>2011-05-20T14:14:04.2Z</time>
 </trkpt>
 <trkpt lat="44.558311" lon="3.622421">
 <time>2011-05-20T14:14:15.2Z</time>
 </trkpt>
 <trkpt lat="44.558922" lon="3.622055">
 <time>2011-05-20T14:14:19.2Z</time>
 </trkpt>
 <trkpt lat="44.559919" lon="3.621725">
 <time>2011-05-20T14:14:24.2Z</time>
 </trkpt>
 <trkpt lat="44.560575" lon="3.621742">
 <time>2011-05-20T14:14:28.2Z</time>
 </trkpt>
 <trkpt lat="44.56109" lon="3.622118">
 <time>2011-05-20T14:14:32.2Z</time>
 </trkpt>
 <trkpt lat="44.561668" lon="3.622839">
 <time>2011-05-20T14:14:36.2Z</time>
 </trkpt>
 <trkpt lat="44.562203" lon="3.623129">
 <time>2011-05-20T14:14:41.2Z</time>
 </trkpt>
 <trkpt lat="44.562891" lon="3.622807">
 <time>2011-05-20T14:14:46.2Z</time>
 </trkpt>
 <trkpt lat="44.563545" lon="3.62188">
 <time>2011-05-20T14:14:51.2Z</time>
 </trkpt>
 <trkpt lat="44.564472" lon="3.62093">
 <time>2011-05-20T14:14:56.2Z</time>
 </trkpt>
 <trkpt lat="44.565329" lon="3.619957">
 <time>2011-05-20T14:15:01.2Z</time>
 </trkpt>
 <trkpt lat="44.566157" lon="3.619643">
 <time>2011-05-20T14:15:05.9Z</time>
 </trkpt>
 <trkpt lat="44.566924" lon="3.620028">
 <time>2011-05-20T14:15:10.9Z</time>
 </trkpt>
 <trkpt lat="44.56749" lon="3.620741">
 <time>2011-05-20T14:15:14.9Z</time>
 </trkpt>
 <trkpt lat="44.56814" lon="3.621927">
 <time>2011-05-20T14:15:18.9Z</time>
 </trkpt>
 <trkpt lat="44.56847" lon="3.622913">
 <time>2011-05-20T14:15:23.9Z</time>
 </trkpt>
 <trkpt lat="44.568578" lon="3.62393">
 <time>2011-05-20T14:15:27.9Z</time>
 </trkpt>
 <trkpt lat="44.568794" lon="3.625041">
 <time>2011-05-20T14:15:32.9Z</time>
 </trkpt>
 <trkpt lat="44.569296" lon="3.626018">
 <time>2011-05-20T14:15:37.9Z</time>
 </trkpt>
 <trkpt lat="44.569895" lon="3.62688">
 <time>2011-05-20T14:15:42.9Z</time>
 </trkpt>
 <trkpt lat="44.570624" lon="3.627533">
 <time>2011-05-20T14:15:47.9Z</time>
 </trkpt>
 <trkpt lat="44.571316" lon="3.627922">
 <time>2011-05-20T14:15:52.2Z</time>
 </trkpt>
 <trkpt lat="44.572068" lon="3.628696">
 <time>2011-05-20T14:15:56.9Z</time>
 </trkpt>
 <trkpt lat="44.573462" lon="3.631071">
 <time>2011-05-20T14:16:07.9Z</time>
 </trkpt>
 <trkpt lat="44.574047" lon="3.631628">
 <time>2011-05-20T14:16:12.9Z</time>
 </trkpt>
 <trkpt lat="44.575032" lon="3.63223">
 <time>2011-05-20T14:16:17.9Z</time>
 </trkpt>
 <trkpt lat="44.575665" lon="3.632497">
 <time>2011-05-20T14:16:22.9Z</time>
 </trkpt>
 <trkpt lat="44.576841" lon="3.632651">
 <time>2011-05-20T14:16:28.9Z</time>
 </trkpt>
 <trkpt lat="44.577446" lon="3.632706">
 <time>2011-05-20T14:16:33.9Z</time>
 </trkpt>
 <trkpt lat="44.57828" lon="3.632463">
 <time>2011-05-20T14:16:38.9Z</time>
 </trkpt>
 <trkpt lat="44.578865" lon="3.632595">
 <time>2011-05-20T14:16:43.9Z</time>
 </trkpt>
 <trkpt lat="44.57951" lon="3.633445">
 <time>2011-05-20T14:16:48.9Z</time>
 </trkpt>
 <trkpt lat="44.580433" lon="3.635173">
 <time>2011-05-20T14:16:55.2Z</time>
 </trkpt>
 <trkpt lat="44.58091" lon="3.635844">
 <time>2011-05-20T14:17:00.2Z</time>
 </trkpt>
 <trkpt lat="44.58182" lon="3.636429">
 <time>2011-05-20T14:17:05.2Z</time>
 </trkpt>
 <trkpt lat="44.582672" lon="3.636854">
 <time>2011-05-20T14:17:10.2Z</time>
 </trkpt>
 <trkpt lat="44.583233" lon="3.63749">
 <time>2011-05-20T14:17:14.2Z</time>
 </trkpt>
 <trkpt lat="44.583726" lon="3.638663">
 <time>2011-05-20T14:17:19.2Z</time>
 </trkpt>
 <trkpt lat="44.583948" lon="3.639999">
 <time>2011-05-20T14:17:24.2Z</time>
 </trkpt>
 <trkpt lat="44.583711" lon="3.643158">
 <time>2011-05-20T14:17:35.2Z</time>
 </trkpt>
 <trkpt lat="44.583348" lon="3.643927">
 <time>2011-05-20T14:17:39.9Z</time>
 </trkpt>
 <trkpt lat="44.582952" lon="3.64462">
 <time>2011-05-20T14:17:44.2Z</time>
 </trkpt>
 <trkpt lat="44.58296" lon="3.6454">
 <time>2011-05-20T14:17:48.9Z</time>
 </trkpt>
 <trkpt lat="44.583395" lon="3.645725">
 <time>2011-05-20T14:17:53.2Z</time>
 </trkpt>
 <trkpt lat="44.584234" lon="3.645616">
 <time>2011-05-20T14:17:57.9Z</time>
 </trkpt>
 <trkpt lat="44.584799" lon="3.645727">
 <time>2011-05-20T14:18:02.2Z</time>
 </trkpt>
 <trkpt lat="44.585302" lon="3.646512">
 <time>2011-05-20T14:18:07.2Z</time>
 </trkpt>
 <trkpt lat="44.585342" lon="3.647611">
 <time>2011-05-20T14:18:12.2Z</time>
 </trkpt>
 <trkpt lat="44.584202" lon="3.650639">
 <time>2011-05-20T14:18:22.9Z</time>
 </trkpt>
 <trkpt lat="44.58404" lon="3.651498">
 <time>2011-05-20T14:18:27.2Z</time>
 </trkpt>
 <trkpt lat="44.584228" lon="3.652985">
 <time>2011-05-20T14:18:32.2Z</time>
 </trkpt>
 <trkpt lat="44.584777" lon="3.655333">
 <time>2011-05-20T14:18:38.2Z</time>
 </trkpt>
 <trkpt lat="44.585177" lon="3.656322">
 <time>2011-05-20T14:18:43.2Z</time>
 </trkpt>
 <trkpt lat="44.585998" lon="3.657191">
 <time>2011-05-20T14:18:48.2Z</time>
 </trkpt>
 <trkpt lat="44.587066" lon="3.658035">
 <time>2011-05-20T14:18:53.2Z</time>
 </trkpt>
 <trkpt lat="44.587721" lon="3.658744">
 <time>2011-05-20T14:18:57.2Z</time>
 </trkpt>
 <trkpt lat="44.588084" lon="3.659544">
 <time>2011-05-20T14:19:01.2Z</time>
 </trkpt>
 <trkpt lat="44.588103" lon="3.66061">
 <time>2011-05-20T14:19:05.9Z</time>
 </trkpt>
 <trkpt lat="44.587655" lon="3.662393">
 <time>2011-05-20T14:19:12.9Z</time>
 </trkpt>
 <trkpt lat="44.58766" lon="3.663271">
 <time>2011-05-20T14:19:17.9Z</time>
 </trkpt>
 <trkpt lat="44.587927" lon="3.664352">
 <time>2011-05-20T14:19:21.9Z</time>
 </trkpt>
 <trkpt lat="44.588285" lon="3.665074">
 <time>2011-05-20T14:19:26.9Z</time>
 </trkpt>
 <trkpt lat="44.588637" lon="3.666076">
 <time>2011-05-20T14:19:31.9Z</time>
 </trkpt>
 <trkpt lat="44.588944" lon="3.667239">
 <time>2011-05-20T14:19:36.9Z</time>
 </trkpt>
 <trkpt lat="44.589248" lon="3.667835">
 <time>2011-05-20T14:19:41.9Z</time>
 </trkpt>
 <trkpt lat="44.589825" lon="3.668465">
 <time>2011-05-20T14:19:46.9Z</time>
 </trkpt>
 <trkpt lat="44.59105" lon="3.669386">
 <time>2011-05-20T14:19:54.9Z</time>
 </trkpt>
 <trkpt lat="44.591657" lon="3.669716">
 <time>2011-05-20T14:19:59.9Z</time>
 </trkpt>
 <trkpt lat="44.592307" lon="3.669847">
 <time>2011-05-20T14:20:03.9Z</time>
 </trkpt>
 <trkpt lat="44.593205" lon="3.669572">
 <time>2011-05-20T14:20:07.9Z</time>
 </trkpt>
 <trkpt lat="44.593949" lon="3.669323">
 <time>2011-05-20T14:20:12.9Z</time>
 </trkpt>
 <trkpt lat="44.594921" lon="3.669371">
 <time>2011-05-20T14:20:17.9Z</time>
 </trkpt>
 <trkpt lat="44.595775" lon="3.669125">
 <time>2011-05-20T14:20:22.9Z</time>
 </trkpt>
 <trkpt lat="44.598072" lon="3.66766">
 <time>2011-05-20T14:20:37.9Z</time>
 </trkpt>
 <trkpt lat="44.598711" lon="3.667606">
 <time>2011-05-20T14:20:42.9Z</time>
 </trkpt>
 <trkpt lat="44.599375" lon="3.668007">
 <time>2011-05-20T14:20:47.9Z</time>
 </trkpt>
 <trkpt lat="44.599754" lon="3.668976">
 <time>2011-05-20T14:20:52.9Z</time>
 </trkpt>
 <trkpt lat="44.599856" lon="3.670193">
 <time>2011-05-20T14:20:57.9Z</time>
 </trkpt>
 <trkpt lat="44.600031" lon="3.671337">
 <time>2011-05-20T14:21:01.9Z</time>
 </trkpt>
 <trkpt lat="44.60045" lon="3.672089">
 <time>2011-05-20T14:21:06.9Z</time>
 </trkpt>
 <trkpt lat="44.601072" lon="3.672522">
 <time>2011-05-20T14:21:10.9Z</time>
 </trkpt>
 <trkpt lat="44.601911" lon="3.673149">
 <time>2011-05-20T14:21:15.9Z</time>
 </trkpt>
 <trkpt lat="44.60246" lon="3.673762">
 <time>2011-05-20T14:21:19.9Z</time>
 </trkpt>
 <trkpt lat="44.60324" lon="3.674324">
 <time>2011-05-20T14:21:24.9Z</time>
 </trkpt>
 <trkpt lat="44.603965" lon="3.674633">
 <time>2011-05-20T14:21:28.9Z</time>
 </trkpt>
 <trkpt lat="44.604808" lon="3.674712">
 <time>2011-05-20T14:21:33.9Z</time>
 </trkpt>
 <trkpt lat="44.605397" lon="3.674873">
 <time>2011-05-20T14:21:38.9Z</time>
 </trkpt>
 <trkpt lat="44.606062" lon="3.675441">
 <time>2011-05-20T14:21:43.9Z</time>
 </trkpt>
 <trkpt lat="44.606622" lon="3.675664">
 <time>2011-05-20T14:21:48.9Z</time>
 </trkpt>
 <trkpt lat="44.607909" lon="3.675974">
 <time>2011-05-20T14:21:55.9Z</time>
 </trkpt>
 <trkpt lat="44.608803" lon="3.675987">
 <time>2011-05-20T14:22:00.9Z</time>
 </trkpt>
 <trkpt lat="44.611306" lon="3.675834">
 <time>2011-05-20T14:22:12.2Z</time>
 </trkpt>
 <trkpt lat="44.612013" lon="3.675651">
 <time>2011-05-20T14:22:16.2Z</time>
 </trkpt>
 <trkpt lat="44.612867" lon="3.675744">
 <time>2011-05-20T14:22:21.9Z</time>
 </trkpt>
 <trkpt lat="44.613503" lon="3.676262">
 <time>2011-05-20T14:22:25.9Z</time>
 </trkpt>
 <trkpt lat="44.614107" lon="3.676935">
 <time>2011-05-20T14:22:29.9Z</time>
 </trkpt>
 <trkpt lat="44.614786" lon="3.677301">
 <time>2011-05-20T14:22:33.9Z</time>
 </trkpt>
 <trkpt lat="44.615857" lon="3.677431">
 <time>2011-05-20T14:22:38.9Z</time>
 </trkpt>
 <trkpt lat="44.617133" lon="3.677909">
 <time>2011-05-20T14:22:43.9Z</time>
 </trkpt>
 <trkpt lat="44.618" lon="3.677921">
 <time>2011-05-20T14:22:48.9Z</time>
 </trkpt>
 <trkpt lat="44.618769" lon="3.67757">
 <time>2011-05-20T14:22:52.9Z</time>
 </trkpt>
 <trkpt lat="44.619568" lon="3.676651">
 <time>2011-05-20T14:22:57.9Z</time>
 </trkpt>
 <trkpt lat="44.620185" lon="3.675264">
 <time>2011-05-20T14:23:02.9Z</time>
 </trkpt>
 <trkpt lat="44.620794" lon="3.674096">
 <time>2011-05-20T14:23:07.9Z</time>
 </trkpt>
 <trkpt lat="44.621588" lon="3.673424">
 <time>2011-05-20T14:23:12.9Z</time>
 </trkpt>
 <trkpt lat="44.622335" lon="3.672963">
 <time>2011-05-20T14:23:16.9Z</time>
 </trkpt>
 <trkpt lat="44.623009" lon="3.672972">
 <time>2011-05-20T14:23:21.9Z</time>
 </trkpt>
 <trkpt lat="44.623825" lon="3.673548">
 <time>2011-05-20T14:23:25.9Z</time>
 </trkpt>
 <trkpt lat="44.624384" lon="3.673882">
 <time>2011-05-20T14:23:29.9Z</time>
 </trkpt>
 <trkpt lat="44.625333" lon="3.674274">
 <time>2011-05-20T14:23:34.9Z</time>
 </trkpt>
 <trkpt lat="44.625926" lon="3.674816">
 <time>2011-05-20T14:23:38.9Z</time>
 </trkpt>
 <trkpt lat="44.626698" lon="3.675534">
 <time>2011-05-20T14:23:42.9Z</time>
 </trkpt>
 <trkpt lat="44.627348" lon="3.67543">
 <time>2011-05-20T14:23:47.9Z</time>
 </trkpt>
 <trkpt lat="44.628042" lon="3.675041">
 <time>2011-05-20T14:23:52.2Z</time>
 </trkpt>
 <trkpt lat="44.628992" lon="3.675229">
 <time>2011-05-20T14:23:57.9Z</time>
 </trkpt>
 <trkpt lat="44.629841" lon="3.675759">
 <time>2011-05-20T14:24:02.9Z</time>
 </trkpt>
 <trkpt lat="44.631294" lon="3.675746">
 <time>2011-05-20T14:24:09.9Z</time>
 </trkpt>
 <trkpt lat="44.631998" lon="3.676013">
 <time>2011-05-20T14:24:14.9Z</time>
 </trkpt>
 <trkpt lat="44.632718" lon="3.676211">
 <time>2011-05-20T14:24:18.9Z</time>
 </trkpt>
 <trkpt lat="44.633228" lon="3.676184">
 <time>2011-05-20T14:24:23.9Z</time>
 </trkpt>
 <trkpt lat="44.633817" lon="3.676078">
 <time>2011-05-20T14:24:29.9Z</time>
 </trkpt>
 <trkpt lat="44.634016" lon="3.676121">
 <time>2011-05-20T14:24:34.9Z</time>
 </trkpt>
 <trkpt lat="44.634206" lon="3.676263">
 <time>2011-05-20T14:24:38.9Z</time>
 </trkpt>
 <trkpt lat="44.634412" lon="3.67692">
 <time>2011-05-20T14:24:43.9Z</time>
 </trkpt>
 <trkpt lat="44.634633" lon="3.67802">
 <time>2011-05-20T14:24:48.9Z</time>
 </trkpt>
 <trkpt lat="44.635164" lon="3.679822">
 <time>2011-05-20T14:24:54.9Z</time>
 </trkpt>
 <trkpt lat="44.635333" lon="3.680898">
 <time>2011-05-20T14:24:59.9Z</time>
 </trkpt>
 <trkpt lat="44.635494" lon="3.682021">
 <time>2011-05-20T14:25:03.9Z</time>
 </trkpt>
 <trkpt lat="44.63639" lon="3.684443">
 <time>2011-05-20T14:25:11.9Z</time>
 </trkpt>
 <trkpt lat="44.636719" lon="3.685989">
 <time>2011-05-20T14:25:16.9Z</time>
 </trkpt>
 <trkpt lat="44.637167" lon="3.687558">
 <time>2011-05-20T14:25:22.9Z</time>
 </trkpt>
 <trkpt lat="44.637254" lon="3.68837">
 <time>2011-05-20T14:25:26.9Z</time>
 </trkpt>
 <trkpt lat="44.637212" lon="3.689753">
 <time>2011-05-20T14:25:31.9Z</time>
 </trkpt>
 <trkpt lat="44.637485" lon="3.691084">
 <time>2011-05-20T14:25:36.9Z</time>
 </trkpt>
 <trkpt lat="44.638289" lon="3.693151">
 <time>2011-05-20T14:25:42.9Z</time>
 </trkpt>
 <trkpt lat="44.638463" lon="3.694397">
 <time>2011-05-20T14:25:47.9Z</time>
 </trkpt>
 <trkpt lat="44.638562" lon="3.696136">
 <time>2011-05-20T14:25:52.9Z</time>
 </trkpt>
 <trkpt lat="44.638793" lon="3.697815">
 <time>2011-05-20T14:25:57.9Z</time>
 </trkpt>
 <trkpt lat="44.639212" lon="3.699302">
 <time>2011-05-20T14:26:01.9Z</time>
 </trkpt>
 <trkpt lat="44.639612" lon="3.700573">
 <time>2011-05-20T14:26:05.9Z</time>
 </trkpt>
 <trkpt lat="44.641202" lon="3.707763">
 <time>2011-05-20T14:26:26.9Z</time>
 </trkpt>
 <trkpt lat="44.641616" lon="3.711848">
 <time>2011-05-20T14:26:37.9Z</time>
 </trkpt>
 <trkpt lat="44.641629" lon="3.713102">
 <time>2011-05-20T14:26:42.9Z</time>
 </trkpt>
 <trkpt lat="44.64142" lon="3.714658">
 <time>2011-05-20T14:26:47.9Z</time>
 </trkpt>
 <trkpt lat="44.641119" lon="3.716271">
 <time>2011-05-20T14:26:51.9Z</time>
 </trkpt>
 <trkpt lat="44.641044" lon="3.717698">
 <time>2011-05-20T14:26:55.9Z</time>
 </trkpt>
 <trkpt lat="44.641171" lon="3.719121">
 <time>2011-05-20T14:27:00.9Z</time>
 </trkpt>
 <trkpt lat="44.641519" lon="3.720904">
 <time>2011-05-20T14:27:04.9Z</time>
 </trkpt>
 <trkpt lat="44.642564" lon="3.724056">
 <time>2011-05-20T14:27:13.9Z</time>
 </trkpt>
 <trkpt lat="44.64293" lon="3.724904">
 <time>2011-05-20T14:27:17.9Z</time>
 </trkpt>
 <trkpt lat="44.64383" lon="3.725987">
 <time>2011-05-20T14:27:21.9Z</time>
 </trkpt>
 <trkpt lat="44.645457" lon="3.72705">
 <time>2011-05-20T14:27:28.9Z</time>
 </trkpt>
 <trkpt lat="44.646272" lon="3.727972">
 <time>2011-05-20T14:27:33.9Z</time>
 </trkpt>
 <trkpt lat="44.647084" lon="3.729435">
 <time>2011-05-20T14:27:38.9Z</time>
 </trkpt>
 <trkpt lat="44.64766" lon="3.730735">
 <time>2011-05-20T14:27:43.9Z</time>
 </trkpt>
 <trkpt lat="44.64831" lon="3.731518">
 <time>2011-05-20T14:27:48.9Z</time>
 </trkpt>
 <trkpt lat="44.649191" lon="3.73183">
 <time>2011-05-20T14:27:53.9Z</time>
 </trkpt>
 <trkpt lat="44.650194" lon="3.732068">
 <time>2011-05-20T14:27:57.9Z</time>
 </trkpt>
 <trkpt lat="44.651248" lon="3.73218">
 <time>2011-05-20T14:28:02.9Z</time>
 </trkpt>
 <trkpt lat="44.651993" lon="3.732499">
 <time>2011-05-20T14:28:07.9Z</time>
 </trkpt>
 <trkpt lat="44.652632" lon="3.733486">
 <time>2011-05-20T14:28:12.9Z</time>
 </trkpt>
 <trkpt lat="44.653819" lon="3.736773">
 <time>2011-05-20T14:28:22.9Z</time>
 </trkpt>
 <trkpt lat="44.654046" lon="3.737895">
 <time>2011-05-20T14:28:27.9Z</time>
 </trkpt>
 <trkpt lat="44.654226" lon="3.739334">
 <time>2011-05-20T14:28:32.9Z</time>
 </trkpt>
 <trkpt lat="44.654491" lon="3.740286">
 <time>2011-05-20T14:28:36.9Z</time>
 </trkpt>
 <trkpt lat="44.655254" lon="3.741233">
 <time>2011-05-20T14:28:41.9Z</time>
 </trkpt>
 <trkpt lat="44.656176" lon="3.742035">
 <time>2011-05-20T14:28:46.9Z</time>
 </trkpt>
 <trkpt lat="44.656636" lon="3.742971">
 <time>2011-05-20T14:28:50.9Z</time>
 </trkpt>
 <trkpt lat="44.657455" lon="3.745051">
 <time>2011-05-20T14:28:56.9Z</time>
 </trkpt>
 <trkpt lat="44.658514" lon="3.747253">
 <time>2011-05-20T14:29:03.9Z</time>
 </trkpt>
 <trkpt lat="44.658844" lon="3.748637">
 <time>2011-05-20T14:29:08.9Z</time>
 </trkpt>
 <trkpt lat="44.659444" lon="3.752802">
 <time>2011-05-20T14:29:20.9Z</time>
 </trkpt>
 <trkpt lat="44.659804" lon="3.753858">
 <time>2011-05-20T14:29:25.9Z</time>
 </trkpt>
 <trkpt lat="44.660824" lon="3.756011">
 <time>2011-05-20T14:29:32.9Z</time>
 </trkpt>
 <trkpt lat="44.661347" lon="3.756827">
 <time>2011-05-20T14:29:37.9Z</time>
 </trkpt>
 <trkpt lat="44.665484" lon="3.761179">
 <time>2011-05-20T14:29:58.9Z</time>
 </trkpt>
 <trkpt lat="44.6663" lon="3.76175">
 <time>2011-05-20T14:30:02.9Z</time>
 </trkpt>
 <trkpt lat="44.668109" lon="3.762711">
 <time>2011-05-20T14:30:10.9Z</time>
 </trkpt>
 <trkpt lat="44.669788" lon="3.763389">
 <time>2011-05-20T14:30:18.2Z</time>
 </trkpt>
 <trkpt lat="44.670572" lon="3.763902">
 <time>2011-05-20T14:30:22.9Z</time>
 </trkpt>
 <trkpt lat="44.671469" lon="3.764515">
 <time>2011-05-20T14:30:27.9Z</time>
 </trkpt>
 <trkpt lat="44.672292" lon="3.764682">
 <time>2011-05-20T14:30:31.9Z</time>
 </trkpt>
 <trkpt lat="44.673356" lon="3.764797">
 <time>2011-05-20T14:30:37.2Z</time>
 </trkpt>
 <trkpt lat="44.674356" lon="3.765371">
 <time>2011-05-20T14:30:41.9Z</time>
 </trkpt>
 <trkpt lat="44.675134" lon="3.766213">
 <time>2011-05-20T14:30:46.9Z</time>
 </trkpt>
 <trkpt lat="44.675403" lon="3.767561">
 <time>2011-05-20T14:30:51.9Z</time>
 </trkpt>
 <trkpt lat="44.675177" lon="3.768909">
 <time>2011-05-20T14:30:56.9Z</time>
 </trkpt>
 <trkpt lat="44.674988" lon="3.770229">
 <time>2011-05-20T14:31:01.9Z</time>
 </trkpt>
 <trkpt lat="44.675268" lon="3.771275">
 <time>2011-05-20T14:31:06.2Z</time>
 </trkpt>
 <trkpt lat="44.675833" lon="3.772262">
 <time>2011-05-20T14:31:10.2Z</time>
 </trkpt>
 <trkpt lat="44.67653" lon="3.773724">
 <time>2011-05-20T14:31:15.9Z</time>
 </trkpt>
 <trkpt lat="44.676556" lon="3.774978">
 <time>2011-05-20T14:31:20.9Z</time>
 </trkpt>
 <trkpt lat="44.676458" lon="3.776035">
 <time>2011-05-20T14:31:24.9Z</time>
 </trkpt>
 <trkpt lat="44.676717" lon="3.777474">
 <time>2011-05-20T14:31:29.9Z</time>
 </trkpt>
 <trkpt lat="44.67751" lon="3.779769">
 <time>2011-05-20T14:31:37.9Z</time>
 </trkpt>
 <trkpt lat="44.677585" lon="3.780687">
 <time>2011-05-20T14:31:42.9Z</time>
 </trkpt>
 <trkpt lat="44.677603" lon="3.781887">
 <time>2011-05-20T14:31:47.9Z</time>
 </trkpt>
 <trkpt lat="44.677671" lon="3.782879">
 <time>2011-05-20T14:31:51.9Z</time>
 </trkpt>
 <trkpt lat="44.678267" lon="3.785595">
 <time>2011-05-20T14:32:01.9Z</time>
 </trkpt>
 <trkpt lat="44.678492" lon="3.78629">
 <time>2011-05-20T14:32:06.2Z</time>
 </trkpt>
 <trkpt lat="44.679153" lon="3.78745">
 <time>2011-05-20T14:32:10.9Z</time>
 </trkpt>
 <trkpt lat="44.67969" lon="3.788444">
 <time>2011-05-20T14:32:14.9Z</time>
 </trkpt>
 <trkpt lat="44.680063" lon="3.789598">
 <time>2011-05-20T14:32:18.9Z</time>
 </trkpt>
 <trkpt lat="44.68116" lon="3.796581">
 <time>2011-05-20T14:32:38.9Z</time>
 </trkpt>
 <trkpt lat="44.68153" lon="3.797702">
 <time>2011-05-20T14:32:43.9Z</time>
 </trkpt>
 <trkpt lat="44.682235" lon="3.79895">
 <time>2011-05-20T14:32:48.9Z</time>
 </trkpt>
 <trkpt lat="44.684372" lon="3.80137">
 <time>2011-05-20T14:32:58.9Z</time>
 </trkpt>
 <trkpt lat="44.684825" lon="3.8023">
 <time>2011-05-20T14:33:03.9Z</time>
 </trkpt>
 <trkpt lat="44.684914" lon="3.803613">
 <time>2011-05-20T14:33:08.9Z</time>
 </trkpt>
 <trkpt lat="44.684958" lon="3.805132">
 <time>2011-05-20T14:33:13.9Z</time>
 </trkpt>
 <trkpt lat="44.685281" lon="3.806271">
 <time>2011-05-20T14:33:18.2Z</time>
 </trkpt>
 <trkpt lat="44.686259" lon="3.807367">
 <time>2011-05-20T14:33:23.9Z</time>
 </trkpt>
 <trkpt lat="44.68771" lon="3.808473">
 <time>2011-05-20T14:33:29.9Z</time>
 </trkpt>
 <trkpt lat="44.688545" lon="3.809373">
 <time>2011-05-20T14:33:34.9Z</time>
 </trkpt>
 <trkpt lat="44.689329" lon="3.810354">
 <time>2011-05-20T14:33:38.2Z</time>
 </trkpt>
 <trkpt lat="44.690399" lon="3.811338">
 <time>2011-05-20T14:33:43.9Z</time>
 </trkpt>
 <trkpt lat="44.691971" lon="3.812233">
 <time>2011-05-20T14:33:50.2Z</time>
 </trkpt>
 <trkpt lat="44.692683" lon="3.812978">
 <time>2011-05-20T14:33:54.9Z</time>
 </trkpt>
 <trkpt lat="44.693412" lon="3.814136">
 <time>2011-05-20T14:33:59.9Z</time>
 </trkpt>
 <trkpt lat="44.694069" lon="3.815113">
 <time>2011-05-20T14:34:04.9Z</time>
 </trkpt>
 <trkpt lat="44.694796" lon="3.815517">
 <time>2011-05-20T14:34:08.9Z</time>
 </trkpt>
 <trkpt lat="44.696504" lon="3.816219">
 <time>2011-05-20T14:34:15.9Z</time>
 </trkpt>
 <trkpt lat="44.6988" lon="3.816722">
 <time>2011-05-20T14:34:26.2Z</time>
 </trkpt>
 <trkpt lat="44.706005" lon="3.820559">
 <time>2011-05-20T14:34:57.9Z</time>
 </trkpt>
 <trkpt lat="44.709876" lon="3.823141">
 <time>2011-05-20T14:35:16.9Z</time>
 </trkpt>
 <trkpt lat="44.710563" lon="3.823832">
 <time>2011-05-20T14:35:21.9Z</time>
 </trkpt>
 <trkpt lat="44.711222" lon="3.824978">
 <time>2011-05-20T14:35:26.9Z</time>
 </trkpt>
 <trkpt lat="44.715303" lon="3.836489">
 <time>2011-05-20T14:36:06.9Z</time>
 </trkpt>
 <trkpt lat="44.715858" lon="3.837874">
 <time>2011-05-20T14:36:11.9Z</time>
 </trkpt>
 <trkpt lat="44.716322" lon="3.838745">
 <time>2011-05-20T14:36:16.9Z</time>
 </trkpt>
 <trkpt lat="44.717002" lon="3.839439">
 <time>2011-05-20T14:36:20.9Z</time>
 </trkpt>
 <trkpt lat="44.720475" lon="3.842098">
 <time>2011-05-20T14:36:38.9Z</time>
 </trkpt>
 <trkpt lat="44.720939" lon="3.842583">
 <time>2011-05-20T14:36:43.9Z</time>
 </trkpt>
 <trkpt lat="44.721414" lon="3.843215">
 <time>2011-05-20T14:36:47.9Z</time>
 </trkpt>
 <trkpt lat="44.721757" lon="3.843773">
 <time>2011-05-20T14:36:52.9Z</time>
 </trkpt>
 <trkpt lat="44.722024" lon="3.844481">
 <time>2011-05-20T14:36:56.9Z</time>
 </trkpt>
 <trkpt lat="44.722179" lon="3.845449">
 <time>2011-05-20T14:37:01.9Z</time>
 </trkpt>
 <trkpt lat="44.722219" lon="3.846477">
 <time>2011-05-20T14:37:05.9Z</time>
 </trkpt>
 <trkpt lat="44.72216" lon="3.847661">
 <time>2011-05-20T14:37:12.2Z</time>
 </trkpt>
 <trkpt lat="44.722168" lon="3.848565">
 <time>2011-05-20T14:37:17.9Z</time>
 </trkpt>
 <trkpt lat="44.722367" lon="3.849546">
 <time>2011-05-20T14:37:22.9Z</time>
 </trkpt>
 <trkpt lat="44.722722" lon="3.85036">
 <time>2011-05-20T14:37:27.9Z</time>
 </trkpt>
 <trkpt lat="44.723156" lon="3.851038">
 <time>2011-05-20T14:37:32.9Z</time>
 </trkpt>
 <trkpt lat="44.725046" lon="3.853524">
 <time>2011-05-20T14:37:59Z</time>
 </trkpt>
 <trkpt lat="44.725244" lon="3.853841">
 <time>2011-05-20T14:38:05.2Z</time>
 </trkpt>
 <trkpt lat="44.725391" lon="3.85402">
 <time>2011-05-20T14:38:09.9Z</time>
 </trkpt>
 <trkpt lat="44.725826" lon="3.854632">
 <time>2011-05-20T14:38:18.9Z</time>
 </trkpt>
 <trkpt lat="44.726089" lon="3.855025">
 <time>2011-05-20T14:38:23.9Z</time>
 </trkpt>
 <trkpt lat="44.726237" lon="3.85537">
 <time>2011-05-20T14:38:28.9Z</time>
 </trkpt>
 <trkpt lat="44.726352" lon="3.855753">
 <time>2011-05-20T14:38:32.9Z</time>
 </trkpt>
 <trkpt lat="44.726563" lon="3.856013">
 <time>2011-05-20T14:38:38.2Z</time>
 </trkpt>
 <trkpt lat="44.72671" lon="3.856083">
 <time>2011-05-20T14:38:43.9Z</time>
 </trkpt>
 <trkpt lat="44.726892" lon="3.856057">
 <time>2011-05-20T14:38:47.9Z</time>
 </trkpt>
 <trkpt lat="44.727046" lon="3.856063">
 <time>2011-05-20T14:38:53.2Z</time>
 </trkpt>
 <trkpt lat="44.727183" lon="3.856128">
 <time>2011-05-20T14:38:57.2Z</time>
 </trkpt>
 <trkpt lat="44.727322" lon="3.856136">
 <time>2011-05-20T14:39:02.2Z</time>
 </trkpt>
 <trkpt lat="44.727478" lon="3.856145">
 <time>2011-05-20T14:39:07.2Z</time>
 </trkpt>
 <trkpt lat="44.727793" lon="3.85621">
 <time>2011-05-20T14:39:12Z</time>
 </trkpt>
 <trkpt lat="44.728468" lon="3.856477">
 <time>2011-05-20T14:39:20.2Z</time>
 </trkpt>
 <trkpt lat="44.729543" lon="3.856719">
 <time>2011-05-20T14:39:28.9Z</time>
 </trkpt>
 <trkpt lat="44.730233" lon="3.856886">
 <time>2011-05-20T14:39:35.9Z</time>
 </trkpt>
 <trkpt lat="44.730645" lon="3.857233">
 <time>2011-05-20T14:39:40.9Z</time>
 </trkpt>
 <trkpt lat="44.731048" lon="3.857772">
 <time>2011-05-20T14:39:45.9Z</time>
 </trkpt>
 <trkpt lat="44.73143" lon="3.85815">
 <time>2011-05-20T14:39:51.9Z</time>
 </trkpt>
 <trkpt lat="44.731773" lon="3.858315">
 <time>2011-05-20T14:39:56.9Z</time>
 </trkpt>
 <trkpt lat="44.732096" lon="3.858409">
 <time>2011-05-20T14:40:01.2Z</time>
 </trkpt>
 <trkpt lat="44.732555" lon="3.85839">
 <time>2011-05-20T14:40:05.9Z</time>
 </trkpt>
 <trkpt lat="44.732849" lon="3.858273">
 <time>2011-05-20T14:40:10.9Z</time>
 </trkpt>
 <trkpt lat="44.733044" lon="3.858072">
 <time>2011-05-20T14:40:15.9Z</time>
 </trkpt>
 <trkpt lat="44.733671" lon="3.857281">
 <time>2011-05-20T14:40:23.9Z</time>
 </trkpt>
 <trkpt lat="44.734074" lon="3.857139">
 <time>2011-05-20T14:40:28.9Z</time>
 </trkpt>
 <trkpt lat="44.734449" lon="3.857192">
 <time>2011-05-20T14:40:32.9Z</time>
 </trkpt>
 <trkpt lat="44.734775" lon="3.857505">
 <time>2011-05-20T14:40:37.9Z</time>
 </trkpt>
 <trkpt lat="44.73513" lon="3.858272">
 <time>2011-05-20T14:40:44.9Z</time>
 </trkpt>
 <trkpt lat="44.735386" lon="3.858441">
 <time>2011-05-20T14:40:49.9Z</time>
 </trkpt>
 <trkpt lat="44.735737" lon="3.858302">
 <time>2011-05-20T14:40:53.9Z</time>
 </trkpt>
 <trkpt lat="44.736354" lon="3.857863">
 <time>2011-05-20T14:40:58.9Z</time>
 </trkpt>
 <trkpt lat="44.736866" lon="3.857726">
 <time>2011-05-20T14:41:02.9Z</time>
 </trkpt>
 <trkpt lat="44.737517" lon="3.858269">
 <time>2011-05-20T14:41:07.9Z</time>
 </trkpt>
 <trkpt lat="44.738628" lon="3.859259">
 <time>2011-05-20T14:41:14Z</time>
 </trkpt>
 <trkpt lat="44.739089" lon="3.859512">
 <time>2011-05-20T14:41:18.2Z</time>
 </trkpt>
 <trkpt lat="44.740047" lon="3.859893">
 <time>2011-05-20T14:41:22.9Z</time>
 </trkpt>
 <trkpt lat="44.740495" lon="3.860496">
 <time>2011-05-20T14:41:27.9Z</time>
 </trkpt>
 <trkpt lat="44.741129" lon="3.861706">
 <time>2011-05-20T14:41:33.2Z</time>
 </trkpt>
 <trkpt lat="44.74179" lon="3.862361">
 <time>2011-05-20T14:41:37.9Z</time>
 </trkpt>
 <trkpt lat="44.743013" lon="3.862828">
 <time>2011-05-20T14:41:42.9Z</time>
 </trkpt>
 <trkpt lat="44.744159" lon="3.863228">
 <time>2011-05-20T14:41:47.9Z</time>
 </trkpt>
 <trkpt lat="44.745019" lon="3.864004">
 <time>2011-05-20T14:41:52.9Z</time>
 </trkpt>
 <trkpt lat="44.745852" lon="3.865153">
 <time>2011-05-20T14:41:57.9Z</time>
 </trkpt>
 <trkpt lat="44.746321" lon="3.865858">
 <time>2011-05-20T14:42:01.2Z</time>
 </trkpt>
 <trkpt lat="44.747261" lon="3.866719">
 <time>2011-05-20T14:42:06.9Z</time>
 </trkpt>
 <trkpt lat="44.747857" lon="3.8675">
 <time>2011-05-20T14:42:11.9Z</time>
 </trkpt>
 <trkpt lat="44.74815" lon="3.868826">
 <time>2011-05-20T14:42:16.9Z</time>
 </trkpt>
 <trkpt lat="44.748094" lon="3.870329">
 <time>2011-05-20T14:42:21.9Z</time>
 </trkpt>
 <trkpt lat="44.747699" lon="3.872175">
 <time>2011-05-20T14:42:26.9Z</time>
 </trkpt>
 <trkpt lat="44.747651" lon="3.873402">
 <time>2011-05-20T14:42:31.9Z</time>
 </trkpt>
 <trkpt lat="44.74766" lon="3.875568">
 <time>2011-05-20T14:42:37.9Z</time>
 </trkpt>
 <trkpt lat="44.747791" lon="3.876365">
 <time>2011-05-20T14:42:42.9Z</time>
 </trkpt>
 <trkpt lat="44.748227" lon="3.876842">
 <time>2011-05-20T14:42:47.2Z</time>
 </trkpt>
 <trkpt lat="44.749011" lon="3.877394">
 <time>2011-05-20T14:42:51.9Z</time>
 </trkpt>
 <trkpt lat="44.749648" lon="3.878216">
 <time>2011-05-20T14:42:56.9Z</time>
 </trkpt>
 <trkpt lat="44.750247" lon="3.878902">
 <time>2011-05-20T14:43:01.9Z</time>
 </trkpt>
 <trkpt lat="44.75083" lon="3.879118">
 <time>2011-05-20T14:43:05.9Z</time>
 </trkpt>
 <trkpt lat="44.75148" lon="3.879373">
 <time>2011-05-20T14:43:09.2Z</time>
 </trkpt>
 <trkpt lat="44.75243" lon="3.879892">
 <time>2011-05-20T14:43:14.9Z</time>
 </trkpt>
 <trkpt lat="44.75284" lon="3.880405">
 <time>2011-05-20T14:43:19.9Z</time>
 </trkpt>
 <trkpt lat="44.753292" lon="3.881439">
 <time>2011-05-20T14:43:24.9Z</time>
 </trkpt>
 <trkpt lat="44.755058" lon="3.88364">
 <time>2011-05-20T14:43:35.2Z</time>
 </trkpt>
 <trkpt lat="44.755598" lon="3.884358">
 <time>2011-05-20T14:43:39.2Z</time>
 </trkpt>
 <trkpt lat="44.756195" lon="3.8858">
 <time>2011-05-20T14:43:44.9Z</time>
 </trkpt>
 <trkpt lat="44.756202" lon="3.887328">
 <time>2011-05-20T14:43:48.9Z</time>
 </trkpt>
 <trkpt lat="44.756104" lon="3.88852">
 <time>2011-05-20T14:43:53.9Z</time>
 </trkpt>
 <trkpt lat="44.755791" lon="3.889661">
 <time>2011-05-20T14:43:58.9Z</time>
 </trkpt>
 <trkpt lat="44.755906" lon="3.890476">
 <time>2011-05-20T14:44:02.9Z</time>
 </trkpt>
 <trkpt lat="44.756596" lon="3.891073">
 <time>2011-05-20T14:44:07.9Z</time>
 </trkpt>
 <trkpt lat="44.757602" lon="3.890861">
 <time>2011-05-20T14:44:12.9Z</time>
 </trkpt>
 <trkpt lat="44.758737" lon="3.890423">
 <time>2011-05-20T14:44:17.9Z</time>
 </trkpt>
 <trkpt lat="44.759889" lon="3.889646">
 <time>2011-05-20T14:44:22.9Z</time>
 </trkpt>
 <trkpt lat="44.760613" lon="3.888706">
 <time>2011-05-20T14:44:27.9Z</time>
 </trkpt>
 <trkpt lat="44.760907" lon="3.887369">
 <time>2011-05-20T14:44:31.9Z</time>
 </trkpt>
 <trkpt lat="44.761089" lon="3.886512">
 <time>2011-05-20T14:44:35.9Z</time>
 </trkpt>
 <trkpt lat="44.761595" lon="3.885591">
 <time>2011-05-20T14:44:40.9Z</time>
 </trkpt>
 <trkpt lat="44.762421" lon="3.885242">
 <time>2011-05-20T14:44:45.9Z</time>
 </trkpt>
 <trkpt lat="44.763399" lon="3.885024">
 <time>2011-05-20T14:44:50.9Z</time>
 </trkpt>
 <trkpt lat="44.7644" lon="3.885281">
 <time>2011-05-20T14:44:55.9Z</time>
 </trkpt>
 <trkpt lat="44.765379" lon="3.885466">
 <time>2011-05-20T14:45:00.9Z</time>
 </trkpt>
 <trkpt lat="44.766739" lon="3.885046">
 <time>2011-05-20T14:45:06.9Z</time>
 </trkpt>
 <trkpt lat="44.767117" lon="3.885093">
 <time>2011-05-20T14:45:10.2Z</time>
 </trkpt>
 <trkpt lat="44.768189" lon="3.8855">
 <time>2011-05-20T14:45:15.9Z</time>
 </trkpt>
 <trkpt lat="44.769562" lon="3.886442">
 <time>2011-05-20T14:45:23.9Z</time>
 </trkpt>
 <trkpt lat="44.769806" lon="3.886411">
 <time>2011-05-20T14:45:28.2Z</time>
 </trkpt>
 <trkpt lat="44.770078" lon="3.885878">
 <time>2011-05-20T14:45:32.9Z</time>
 </trkpt>
 <trkpt lat="44.76995" lon="3.88526">
 <time>2011-05-20T14:45:37.2Z</time>
 </trkpt>
 <trkpt lat="44.769433" lon="3.884325">
 <time>2011-05-20T14:45:41.9Z</time>
 </trkpt>
 <trkpt lat="44.769283" lon="3.883844">
 <time>2011-05-20T14:45:46.9Z</time>
 </trkpt>
 <trkpt lat="44.769455" lon="3.883387">
 <time>2011-05-20T14:45:50.9Z</time>
 </trkpt>
 <trkpt lat="44.76988" lon="3.883141">
 <time>2011-05-20T14:45:55.9Z</time>
 </trkpt>
 <trkpt lat="44.770221" lon="3.883072">
 <time>2011-05-20T14:46:00.9Z</time>
 </trkpt>
 <trkpt lat="44.770426" lon="3.882988">
 <time>2011-05-20T14:46:05.2Z</time>
 </trkpt>
 <trkpt lat="44.770737" lon="3.882979">
 <time>2011-05-20T14:46:10.2Z</time>
 </trkpt>
 <trkpt lat="44.771374" lon="3.883377">
 <time>2011-05-20T14:46:15.9Z</time>
 </trkpt>
 <trkpt lat="44.772146" lon="3.883834">
 <time>2011-05-20T14:46:20.9Z</time>
 </trkpt>
 <trkpt lat="44.774076" lon="3.884684">
 <time>2011-05-20T14:46:32.9Z</time>
 </trkpt>
 <trkpt lat="44.774546" lon="3.885119">
 <time>2011-05-20T14:46:37.9Z</time>
 </trkpt>
 <trkpt lat="44.774714" lon="3.886133">
 <time>2011-05-20T14:46:41.9Z</time>
 </trkpt>
 <trkpt lat="44.774837" lon="3.887021">
 <time>2011-05-20T14:46:46.9Z</time>
 </trkpt>
 <trkpt lat="44.775271" lon="3.887682">
 <time>2011-05-20T14:46:50.9Z</time>
 </trkpt>
 <trkpt lat="44.776205" lon="3.888228">
 <time>2011-05-20T14:46:55.9Z</time>
 </trkpt>
 <trkpt lat="44.779439" lon="3.889912">
 <time>2011-05-20T14:47:18.9Z</time>
 </trkpt>
 <trkpt lat="44.779987" lon="3.88996">
 <time>2011-05-20T14:47:23.9Z</time>
 </trkpt>
 <trkpt lat="44.780701" lon="3.889638">
 <time>2011-05-20T14:47:28.9Z</time>
 </trkpt>
 <trkpt lat="44.78128" lon="3.88921">
 <time>2011-05-20T14:47:32.9Z</time>
 </trkpt>
 <trkpt lat="44.781631" lon="3.888931">
 <time>2011-05-20T14:47:37.9Z</time>
 </trkpt>
 <trkpt lat="44.781891" lon="3.888982">
 <time>2011-05-20T14:47:42.9Z</time>
 </trkpt>
 <trkpt lat="44.782057" lon="3.888871">
 <time>2011-05-20T14:47:47.9Z</time>
 </trkpt>
 <trkpt lat="44.783287" lon="3.886748">
 <time>2011-05-20T14:47:58.9Z</time>
 </trkpt>
 <trkpt lat="44.783788" lon="3.885702">
 <time>2011-05-20T14:48:02.9Z</time>
 </trkpt>
 <trkpt lat="44.784414" lon="3.884995">
 <time>2011-05-20T14:48:07.9Z</time>
 </trkpt>
 <trkpt lat="44.78544" lon="3.884184">
 <time>2011-05-20T14:48:12.9Z</time>
 </trkpt>
 <trkpt lat="44.78904" lon="3.881519">
 <time>2011-05-20T14:48:29.9Z</time>
 </trkpt>
 <trkpt lat="44.789808" lon="3.881167">
 <time>2011-05-20T14:48:34.9Z</time>
 </trkpt>
 <trkpt lat="44.790844" lon="3.881086">
 <time>2011-05-20T14:48:39.9Z</time>
 </trkpt>
 <trkpt lat="44.791874" lon="3.881539">
 <time>2011-05-20T14:48:44.9Z</time>
 </trkpt>
 <trkpt lat="44.800573" lon="3.885426">
 <time>2011-05-20T14:49:27.9Z</time>
 </trkpt>
 <trkpt lat="44.801588" lon="3.885802">
 <time>2011-05-20T14:49:32.9Z</time>
 </trkpt>
 <trkpt lat="44.802266" lon="3.885938">
 <time>2011-05-20T14:49:36.9Z</time>
 </trkpt>
 <trkpt lat="44.803389" lon="3.885721">
 <time>2011-05-20T14:49:41.9Z</time>
 </trkpt>
 <trkpt lat="44.804154" lon="3.885236">
 <time>2011-05-20T14:49:45.9Z</time>
 </trkpt>
 <trkpt lat="44.811884" lon="3.878539">
 <time>2011-05-20T14:50:20.9Z</time>
 </trkpt>
 <trkpt lat="44.818348" lon="3.872732">
 <time>2011-05-20T14:50:59.9Z</time>
 </trkpt>
 <trkpt lat="44.818973" lon="3.872326">
 <time>2011-05-20T14:51:04.9Z</time>
 </trkpt>
 <trkpt lat="44.819718" lon="3.871995">
 <time>2011-05-20T14:51:08.9Z</time>
 </trkpt>
 <trkpt lat="44.820379" lon="3.871924">
 <time>2011-05-20T14:51:13.9Z</time>
 </trkpt>
 <trkpt lat="44.823651" lon="3.871601">
 <time>2011-05-20T14:51:26.9Z</time>
 </trkpt>
 <trkpt lat="44.824822" lon="3.871249">
 <time>2011-05-20T14:51:31.9Z</time>
 </trkpt>
 <trkpt lat="44.827767" lon="3.869575">
 <time>2011-05-20T14:51:42.9Z</time>
 </trkpt>
 <trkpt lat="44.82859" lon="3.868802">
 <time>2011-05-20T14:51:47.9Z</time>
 </trkpt>
 <trkpt lat="44.83172" lon="3.864182">
 <time>2011-05-20T14:52:04.9Z</time>
 </trkpt>
 <trkpt lat="44.835202" lon="3.86091">
 <time>2011-05-20T14:52:20.9Z</time>
 </trkpt>
 <trkpt lat="44.83611" lon="3.860326">
 <time>2011-05-20T14:52:25.9Z</time>
 </trkpt>
 <trkpt lat="44.83698" lon="3.85992">
 <time>2011-05-20T14:52:29.9Z</time>
 </trkpt>
 <trkpt lat="44.838149" lon="3.859908">
 <time>2011-05-20T14:52:34.9Z</time>
 </trkpt>
 <trkpt lat="44.840086" lon="3.860074">
 <time>2011-05-20T14:52:41.9Z</time>
 </trkpt>
 <trkpt lat="44.84108" lon="3.859897">
 <time>2011-05-20T14:52:46.9Z</time>
 </trkpt>
 <trkpt lat="44.841984" lon="3.859376">
 <time>2011-05-20T14:52:50.9Z</time>
 </trkpt>
 <trkpt lat="44.843009" lon="3.858405">
 <time>2011-05-20T14:52:55.9Z</time>
 </trkpt>
 <trkpt lat="44.848515" lon="3.852231">
 <time>2011-05-20T14:53:29.9Z</time>
 </trkpt>
 <trkpt lat="44.848825" lon="3.851945">
 <time>2011-05-20T14:53:33.9Z</time>
 </trkpt>
 <trkpt lat="44.849117" lon="3.851768">
 <time>2011-05-20T14:53:38.9Z</time>
 </trkpt>
 <trkpt lat="44.849213" lon="3.851603">
 <time>2011-05-20T14:54:32.9Z</time>
 </trkpt>
 <trkpt lat="44.849283" lon="3.851424">
 <time>2011-05-20T14:54:37.9Z</time>
 </trkpt>
 <trkpt lat="44.849366" lon="3.851231">
 <time>2011-05-20T14:54:43.9Z</time>
 </trkpt>
 <trkpt lat="44.850728" lon="3.849725">
 <time>2011-05-20T14:54:53.9Z</time>
 </trkpt>
 <trkpt lat="44.851541" lon="3.848925">
 <time>2011-05-20T14:54:58.9Z</time>
 </trkpt>
 <trkpt lat="44.852598" lon="3.848166">
 <time>2011-05-20T14:55:02.9Z</time>
 </trkpt>
 <trkpt lat="44.853504" lon="3.847719">
 <time>2011-05-20T14:55:07.9Z</time>
 </trkpt>
 <trkpt lat="44.854664" lon="3.847407">
 <time>2011-05-20T14:55:12.9Z</time>
 </trkpt>
 <trkpt lat="44.856271" lon="3.847264">
 <time>2011-05-20T14:55:18.9Z</time>
 </trkpt>
 <trkpt lat="44.860406" lon="3.847623">
 <time>2011-05-20T14:55:36.9Z</time>
 </trkpt>
 <trkpt lat="44.86684" lon="3.848764">
 <time>2011-05-20T14:56:03.2Z</time>
 </trkpt>
 <trkpt lat="44.867855" lon="3.84876">
 <time>2011-05-20T14:56:08.2Z</time>
 </trkpt>
 <trkpt lat="44.869652" lon="3.848653">
 <time>2011-05-20T14:56:14.9Z</time>
 </trkpt>
 <trkpt lat="44.870616" lon="3.848442">
 <time>2011-05-20T14:56:18.9Z</time>
 </trkpt>
 <trkpt lat="44.877276" lon="3.846798">
 <time>2011-05-20T14:56:48.9Z</time>
 </trkpt>
 <trkpt lat="44.877843" lon="3.846782">
 <time>2011-05-20T14:56:52.9Z</time>
 </trkpt>
 <trkpt lat="44.879041" lon="3.846899">
 <time>2011-05-20T14:56:58.9Z</time>
 </trkpt>
 <trkpt lat="44.879587" lon="3.846933">
 <time>2011-05-20T14:57:02.9Z</time>
 </trkpt>
 <trkpt lat="44.888233" lon="3.847744">
 <time>2011-05-20T14:57:37.9Z</time>
 </trkpt>
 <trkpt lat="44.890222" lon="3.848086">
 <time>2011-05-20T14:57:50.9Z</time>
 </trkpt>
 <trkpt lat="44.890433" lon="3.848118">
 <time>2011-05-20T14:57:55.9Z</time>
 </trkpt>
 <trkpt lat="44.890248" lon="3.848032">
 <time>2011-05-20T14:58:37.9Z</time>
 </trkpt>
 <trkpt lat="44.889975" lon="3.847991">
 <time>2011-05-20T14:58:41.9Z</time>
 </trkpt>
 <trkpt lat="44.888597" lon="3.847772">
 <time>2011-05-20T14:58:51.9Z</time>
 </trkpt>
 <trkpt lat="44.888431" lon="3.847599">
 <time>2011-05-20T14:58:56.9Z</time>
 </trkpt>
 <trkpt lat="44.888402" lon="3.847472">
 <time>2011-05-20T15:08:57.9Z</time>
 </trkpt>
 <trkpt lat="44.888388" lon="3.847484">
 <time>2011-05-20T15:18:58.9Z</time>
 </trkpt>
 <trkpt lat="44.888432" lon="3.847726">
 <time>2011-05-20T15:21:28.9Z</time>
 </trkpt>
 <trkpt lat="44.888786" lon="3.847844">
 <time>2011-05-20T15:21:33.2Z</time>
 </trkpt>
 <trkpt lat="44.890809" lon="3.848183">
 <time>2011-05-20T15:21:44.2Z</time>
 </trkpt>
 <trkpt lat="44.892471" lon="3.848721">
 <time>2011-05-20T15:21:57.2Z</time>
 </trkpt>
 <trkpt lat="44.894409" lon="3.84955">
 <time>2011-05-20T15:22:14.2Z</time>
 </trkpt>
 <trkpt lat="44.899146" lon="3.850757">
 <time>2011-05-20T15:22:44.2Z</time>
 </trkpt>
 <trkpt lat="44.900012" lon="3.850892">
 <time>2011-05-20T15:22:49.2Z</time>
 </trkpt>
 <trkpt lat="44.901468" lon="3.851421">
 <time>2011-05-20T15:22:57.2Z</time>
 </trkpt>
 <trkpt lat="44.902247" lon="3.851486">
 <time>2011-05-20T15:23:02.2Z</time>
 </trkpt>
 <trkpt lat="44.911276" lon="3.848972">
 <time>2011-05-20T15:23:36.2Z</time>
 </trkpt>
 <trkpt lat="44.913222" lon="3.848006">
 <time>2011-05-20T15:23:44.2Z</time>
 </trkpt>
 <trkpt lat="44.917482" lon="3.845027">
 <time>2011-05-20T15:24:02.2Z</time>
 </trkpt>
 <trkpt lat="44.919765" lon="3.844053">
 <time>2011-05-20T15:24:11.2Z</time>
 </trkpt>
 <trkpt lat="44.920771" lon="3.84382">
 <time>2011-05-20T15:24:16.2Z</time>
 </trkpt>
 <trkpt lat="44.922016" lon="3.843783">
 <time>2011-05-20T15:24:21.2Z</time>
 </trkpt>
 <trkpt lat="44.931074" lon="3.844272">
 <time>2011-05-20T15:24:55.2Z</time>
 </trkpt>
 <trkpt lat="44.932152" lon="3.844469">
 <time>2011-05-20T15:25:00.2Z</time>
 </trkpt>
 <trkpt lat="44.93959" lon="3.847119">
 <time>2011-05-20T15:25:28.9Z</time>
 </trkpt>
 <trkpt lat="44.944181" lon="3.848092">
 <time>2011-05-20T15:25:49.9Z</time>
 </trkpt>
 <trkpt lat="44.944812" lon="3.84805">
 <time>2011-05-20T15:25:54.9Z</time>
 </trkpt>
 <trkpt lat="44.945658" lon="3.847651">
 <time>2011-05-20T15:25:58.9Z</time>
 </trkpt>
 <trkpt lat="44.954306" lon="3.844057">
 <time>2011-05-20T15:26:36.9Z</time>
 </trkpt>
 <trkpt lat="44.95585" lon="3.843364">
 <time>2011-05-20T15:26:43.9Z</time>
 </trkpt>
 <trkpt lat="44.956535" lon="3.843249">
 <time>2011-05-20T15:26:47.9Z</time>
 </trkpt>
 <trkpt lat="44.957679" lon="3.843487">
 <time>2011-05-20T15:26:52.9Z</time>
 </trkpt>
 <trkpt lat="44.958397" lon="3.844079">
 <time>2011-05-20T15:26:56.9Z</time>
 </trkpt>
 <trkpt lat="44.959283" lon="3.844769">
 <time>2011-05-20T15:27:01.9Z</time>
 </trkpt>
 <trkpt lat="44.960102" lon="3.845114">
 <time>2011-05-20T15:27:06.9Z</time>
 </trkpt>
 <trkpt lat="44.960815" lon="3.845161">
 <time>2011-05-20T15:27:10.9Z</time>
 </trkpt>
 <trkpt lat="44.962737" lon="3.84492">
 <time>2011-05-20T15:27:19.9Z</time>
 </trkpt>
 <trkpt lat="44.971032" lon="3.84366">
 <time>2011-05-20T15:28:01.9Z</time>
 </trkpt>
 <trkpt lat="44.9718" lon="3.843297">
 <time>2011-05-20T15:28:06.9Z</time>
 </trkpt>
 <trkpt lat="44.97217" lon="3.843132">
 <time>2011-05-20T15:28:10.9Z</time>
 </trkpt>
 <trkpt lat="44.972352" lon="3.84315">
 <time>2011-05-20T15:28:15.9Z</time>
 </trkpt>
 <trkpt lat="44.972487" lon="3.842831">
 <time>2011-05-20T15:28:20.9Z</time>
 </trkpt>
 <trkpt lat="44.972454" lon="3.842175">
 <time>2011-05-20T15:28:24.9Z</time>
 </trkpt>
 <trkpt lat="44.972757" lon="3.84104">
 <time>2011-05-20T15:28:29.9Z</time>
 </trkpt>
 <trkpt lat="44.974978" lon="3.834731">
 <time>2011-05-20T15:28:49.9Z</time>
 </trkpt>
 <trkpt lat="44.975375" lon="3.833923">
 <time>2011-05-20T15:28:53.9Z</time>
 </trkpt>
 <trkpt lat="44.97604" lon="3.832918">
 <time>2011-05-20T15:28:57.9Z</time>
 </trkpt>
 <trkpt lat="44.976918" lon="3.831857">
 <time>2011-05-20T15:29:02.9Z</time>
 </trkpt>
 <trkpt lat="44.978709" lon="3.830463">
 <time>2011-05-20T15:29:09.9Z</time>
 </trkpt>
 <trkpt lat="44.986981" lon="3.824615">
 <time>2011-05-20T15:29:45.9Z</time>
 </trkpt>
 <trkpt lat="44.995051" lon="3.818906">
 <time>2011-05-20T15:30:21.9Z</time>
 </trkpt>
 <trkpt lat="45.002147" lon="3.813709">
 <time>2011-05-20T15:30:54.9Z</time>
 </trkpt>
 <trkpt lat="45.002995" lon="3.812896">
 <time>2011-05-20T15:30:59.9Z</time>
 </trkpt>
 <trkpt lat="45.009979" lon="3.804956">
 <time>2011-05-20T15:31:41.9Z</time>
 </trkpt>
 <trkpt lat="45.01041" lon="3.804542">
 <time>2011-05-20T15:31:47.9Z</time>
 </trkpt>
 <trkpt lat="45.010699" lon="3.804142">
 <time>2011-05-20T15:31:51.9Z</time>
 </trkpt>
 <trkpt lat="45.01377" lon="3.799056">
 <time>2011-05-20T15:32:10.9Z</time>
 </trkpt>
 <trkpt lat="45.014501" lon="3.798148">
 <time>2011-05-20T15:32:15.9Z</time>
 </trkpt>
 <trkpt lat="45.016909" lon="3.795765">
 <time>2011-05-20T15:32:26.9Z</time>
 </trkpt>
 <trkpt lat="45.017572" lon="3.794683">
 <time>2011-05-20T15:32:31.9Z</time>
 </trkpt>
 <trkpt lat="45.022552" lon="3.783966">
 <time>2011-05-20T15:33:04.9Z</time>
 </trkpt>
 <trkpt lat="45.022909" lon="3.782937">
 <time>2011-05-20T15:33:08.9Z</time>
 </trkpt>
 <trkpt lat="45.023101" lon="3.781009">
 <time>2011-05-20T15:33:13.9Z</time>
 </trkpt>
 <trkpt lat="45.023217" lon="3.77958">
 <time>2011-05-20T15:33:17.9Z</time>
 </trkpt>
 <trkpt lat="45.023672" lon="3.777908">
 <time>2011-05-20T15:33:22.9Z</time>
 </trkpt>
 <trkpt lat="45.025725" lon="3.773449">
 <time>2011-05-20T15:33:36.2Z</time>
 </trkpt>
 <trkpt lat="45.026935" lon="3.771485">
 <time>2011-05-20T15:33:42.9Z</time>
 </trkpt>
 <trkpt lat="45.033018" lon="3.762396">
 <time>2011-05-20T15:34:15.9Z</time>
 </trkpt>
 <trkpt lat="45.033912" lon="3.761506">
 <time>2011-05-20T15:34:20.9Z</time>
 </trkpt>
 <trkpt lat="45.035959" lon="3.760008">
 <time>2011-05-20T15:34:28.2Z</time>
 </trkpt>
 <trkpt lat="45.03697" lon="3.758982">
 <time>2011-05-20T15:34:33.9Z</time>
 </trkpt>
 <trkpt lat="45.038642" lon="3.756349">
 <time>2011-05-20T15:34:42.9Z</time>
 </trkpt>
 <trkpt lat="45.039352" lon="3.755599">
 <time>2011-05-20T15:34:47.9Z</time>
 </trkpt>
 <trkpt lat="45.040403" lon="3.75499">
 <time>2011-05-20T15:34:52.9Z</time>
 </trkpt>
 <trkpt lat="45.041236" lon="3.754812">
 <time>2011-05-20T15:34:56.9Z</time>
 </trkpt>
 <trkpt lat="45.042391" lon="3.754838">
 <time>2011-05-20T15:35:01.9Z</time>
 </trkpt>
 <trkpt lat="45.046359" lon="3.755518">
 <time>2011-05-20T15:35:18.9Z</time>
 </trkpt>
 <trkpt lat="45.047557" lon="3.755469">
 <time>2011-05-20T15:35:24.9Z</time>
 </trkpt>
 <trkpt lat="45.051508" lon="3.754218">
 <time>2011-05-20T15:35:44.9Z</time>
 </trkpt>
 <trkpt lat="45.052855" lon="3.753762">
 <time>2011-05-20T15:35:50.9Z</time>
 </trkpt>
 <trkpt lat="45.05356" lon="3.753698">
 <time>2011-05-20T15:35:54.9Z</time>
 </trkpt>
 <trkpt lat="45.054717" lon="3.753814">
 <time>2011-05-20T15:35:59.9Z</time>
 </trkpt>
 <trkpt lat="45.055763" lon="3.754187">
 <time>2011-05-20T15:36:04.9Z</time>
 </trkpt>
 <trkpt lat="45.056688" lon="3.754753">
 <time>2011-05-20T15:36:09.9Z</time>
 </trkpt>
 <trkpt lat="45.057451" lon="3.755464">
 <time>2011-05-20T15:36:13.9Z</time>
 </trkpt>
 <trkpt lat="45.060705" lon="3.759291">
 <time>2011-05-20T15:36:27.9Z</time>
 </trkpt>
 <trkpt lat="45.061933" lon="3.760274">
 <time>2011-05-20T15:36:33.9Z</time>
 </trkpt>
 <trkpt lat="45.062695" lon="3.76073">
 <time>2011-05-20T15:36:38.9Z</time>
 </trkpt>
 <trkpt lat="45.063611" lon="3.761196">
 <time>2011-05-20T15:36:43.9Z</time>
 </trkpt>
 <trkpt lat="45.064674" lon="3.761514">
 <time>2011-05-20T15:36:48.9Z</time>
 </trkpt>
 <trkpt lat="45.065827" lon="3.761641">
 <time>2011-05-20T15:36:54.9Z</time>
 </trkpt>
 <trkpt lat="45.066589" lon="3.76165">
 <time>2011-05-20T15:36:59.9Z</time>
 </trkpt>
 <trkpt lat="45.068661" lon="3.761571">
 <time>2011-05-20T15:37:17Z</time>
 </trkpt>
 <trkpt lat="45.068905" lon="3.761573">
 <time>2011-05-20T15:37:23.9Z</time>
 </trkpt>
 <trkpt lat="45.069132" lon="3.761572">
 <time>2011-05-20T15:37:28.9Z</time>
 </trkpt>
 <trkpt lat="45.069382" lon="3.761592">
 <time>2011-05-20T15:37:33.9Z</time>
 </trkpt>
 <trkpt lat="45.070093" lon="3.761142">
 <time>2011-05-20T15:37:40.9Z</time>
 </trkpt>
 <trkpt lat="45.074605" lon="3.759901">
 <time>2011-05-20T15:38:11.9Z</time>
 </trkpt>
 <trkpt lat="45.075882" lon="3.759204">
 <time>2011-05-20T15:38:18.9Z</time>
 </trkpt>
 <trkpt lat="45.076739" lon="3.75858">
 <time>2011-05-20T15:38:22.9Z</time>
 </trkpt>
 <trkpt lat="45.077579" lon="3.757805">
 <time>2011-05-20T15:38:27.9Z</time>
 </trkpt>
 <trkpt lat="45.078376" lon="3.756795">
 <time>2011-05-20T15:38:31.9Z</time>
 </trkpt>
 <trkpt lat="45.07938" lon="3.755412">
 <time>2011-05-20T15:38:38.9Z</time>
 </trkpt>
 <trkpt lat="45.080069" lon="3.75467">
 <time>2011-05-20T15:38:43.9Z</time>
 </trkpt>
 <trkpt lat="45.080999" lon="3.753967">
 <time>2011-05-20T15:38:48.9Z</time>
 </trkpt>
 <trkpt lat="45.081968" lon="3.753564">
 <time>2011-05-20T15:38:53.9Z</time>
 </trkpt>
 <trkpt lat="45.082903" lon="3.753395">
 <time>2011-05-20T15:38:58.9Z</time>
 </trkpt>
 <trkpt lat="45.084105" lon="3.753204">
 <time>2011-05-20T15:39:04.9Z</time>
 </trkpt>
 <trkpt lat="45.08599" lon="3.752867">
 <time>2011-05-20T15:39:13.9Z</time>
 </trkpt>
 <trkpt lat="45.086789" lon="3.752812">
 <time>2011-05-20T15:39:18.9Z</time>
 </trkpt>
 <trkpt lat="45.088573" lon="3.75288">
 <time>2011-05-20T15:39:26.9Z</time>
 </trkpt>
 <trkpt lat="45.089269" lon="3.752864">
 <time>2011-05-20T15:39:31.9Z</time>
 </trkpt>
 <trkpt lat="45.089959" lon="3.752615">
 <time>2011-05-20T15:39:35.9Z</time>
 </trkpt>
 <trkpt lat="45.090819" lon="3.75205">
 <time>2011-05-20T15:39:40.9Z</time>
 </trkpt>
 <trkpt lat="45.091545" lon="3.751289">
 <time>2011-05-20T15:39:44.9Z</time>
 </trkpt>
 <trkpt lat="45.09259" lon="3.750248">
 <time>2011-05-20T15:39:49.9Z</time>
 </trkpt>
 <trkpt lat="45.09362" lon="3.749791">
 <time>2011-05-20T15:39:54.9Z</time>
 </trkpt>
 <trkpt lat="45.094675" lon="3.749688">
 <time>2011-05-20T15:39:59.9Z</time>
 </trkpt>
 <trkpt lat="45.096027" lon="3.749973">
 <time>2011-05-20T15:40:05.9Z</time>
 </trkpt>
 <trkpt lat="45.096587" lon="3.749981">
 <time>2011-05-20T15:40:09.9Z</time>
 </trkpt>
 <trkpt lat="45.097436" lon="3.749672">
 <time>2011-05-20T15:40:14.9Z</time>
 </trkpt>
 <trkpt lat="45.099081" lon="3.748556">
 <time>2011-05-20T15:40:22.9Z</time>
 </trkpt>
 <trkpt lat="45.100424" lon="3.747999">
 <time>2011-05-20T15:40:29.9Z</time>
 </trkpt>
 <trkpt lat="45.101285" lon="3.747996">
 <time>2011-05-20T15:40:34.9Z</time>
 </trkpt>
 <trkpt lat="45.102285" lon="3.748333">
 <time>2011-05-20T15:40:39.9Z</time>
 </trkpt>
 <trkpt lat="45.104483" lon="3.749202">
 <time>2011-05-20T15:40:51.9Z</time>
 </trkpt>
 <trkpt lat="45.105129" lon="3.749261">
 <time>2011-05-20T15:40:55.9Z</time>
 </trkpt>
 <trkpt lat="45.105784" lon="3.7492">
 <time>2011-05-20T15:41:00.9Z</time>
 </trkpt>
 <trkpt lat="45.106469" lon="3.748951">
 <time>2011-05-20T15:41:05.9Z</time>
 </trkpt>
 <trkpt lat="45.107151" lon="3.74848">
 <time>2011-05-20T15:41:10.9Z</time>
 </trkpt>
 <trkpt lat="45.111043" lon="3.744726">
 <time>2011-05-20T15:41:38.9Z</time>
 </trkpt>
 <trkpt lat="45.111406" lon="3.744469">
 <time>2011-05-20T15:41:42.9Z</time>
 </trkpt>
 <trkpt lat="45.11172" lon="3.744228">
 <time>2011-05-20T15:41:47.9Z</time>
 </trkpt>
 <trkpt lat="45.111969" lon="3.744189">
 <time>2011-05-20T15:41:51.9Z</time>
 </trkpt>
 <trkpt lat="45.112248" lon="3.744335">
 <time>2011-05-20T15:41:56.9Z</time>
 </trkpt>
 <trkpt lat="45.112287" lon="3.744968">
 <time>2011-05-20T15:42:01.9Z</time>
 </trkpt>
 <trkpt lat="45.112269" lon="3.74715">
 <time>2011-05-20T15:42:08.9Z</time>
 </trkpt>
 <trkpt lat="45.112294" lon="3.749497">
 <time>2011-05-20T15:42:15.9Z</time>
 </trkpt>
 <trkpt lat="45.112167" lon="3.751285">
 <time>2011-05-20T15:42:20.9Z</time>
 </trkpt>
 <trkpt lat="45.111949" lon="3.752705">
 <time>2011-05-20T15:42:25.9Z</time>
 </trkpt>
 <trkpt lat="45.111436" lon="3.754169">
 <time>2011-05-20T15:42:29.9Z</time>
 </trkpt>
 <trkpt lat="45.110025" lon="3.757056">
 <time>2011-05-20T15:42:40.9Z</time>
 </trkpt>
 <trkpt lat="45.108393" lon="3.759951">
 <time>2011-05-20T15:42:52.9Z</time>
 </trkpt>
 <trkpt lat="45.106551" lon="3.762766">
 <time>2011-05-20T15:43:03.9Z</time>
 </trkpt>
 <trkpt lat="45.106126" lon="3.763586">
 <time>2011-05-20T15:43:07.9Z</time>
 </trkpt>
 <trkpt lat="45.105675" lon="3.764941">
 <time>2011-05-20T15:43:12.9Z</time>
 </trkpt>
 <trkpt lat="45.10466" lon="3.768098">
 <time>2011-05-20T15:43:23.9Z</time>
 </trkpt>
 <trkpt lat="45.102321" lon="3.773811">
 <time>2011-05-20T15:43:47.9Z</time>
 </trkpt>
 <trkpt lat="45.102385" lon="3.774047">
 <time>2011-05-20T15:43:51.9Z</time>
 </trkpt>
 <trkpt lat="45.102819" lon="3.77473">
 <time>2011-05-20T15:43:56.9Z</time>
 </trkpt>
 <trkpt lat="45.103432" lon="3.775579">
 <time>2011-05-20T15:44:00.9Z</time>
 </trkpt>
 <trkpt lat="45.104012" lon="3.776129">
 <time>2011-05-20T15:44:05.9Z</time>
 </trkpt>
 <trkpt lat="45.105215" lon="3.776772">
 <time>2011-05-20T15:44:11.9Z</time>
 </trkpt>
 <trkpt lat="45.106958" lon="3.778806">
 <time>2011-05-20T15:44:23.9Z</time>
 </trkpt>
 <trkpt lat="45.107597" lon="3.779656">
 <time>2011-05-20T15:44:28.9Z</time>
 </trkpt>
 <trkpt lat="45.108767" lon="3.781485">
 <time>2011-05-20T15:44:37.9Z</time>
 </trkpt>
 <trkpt lat="45.110564" lon="3.783921">
 <time>2011-05-20T15:44:48.9Z</time>
 </trkpt>
 <trkpt lat="45.112724" lon="3.787685">
 <time>2011-05-20T15:45:01.9Z</time>
 </trkpt>
 <trkpt lat="45.113667" lon="3.788889">
 <time>2011-05-20T15:45:06.9Z</time>
 </trkpt>
 <trkpt lat="45.11487" lon="3.791312">
 <time>2011-05-20T15:45:16.9Z</time>
 </trkpt>
 <trkpt lat="45.115214" lon="3.7917">
 <time>2011-05-20T15:45:20.9Z</time>
 </trkpt>
 <trkpt lat="45.11678" lon="3.792793">
 <time>2011-05-20T15:45:30.2Z</time>
 </trkpt>
 <trkpt lat="45.117577" lon="3.793067">
 <time>2011-05-20T15:45:34.9Z</time>
 </trkpt>
 <trkpt lat="45.118328" lon="3.793132">
 <time>2011-05-20T15:45:38.9Z</time>
 </trkpt>
 <trkpt lat="45.119222" lon="3.793058">
 <time>2011-05-20T15:45:43.9Z</time>
 </trkpt>
 <trkpt lat="45.119841" lon="3.793196">
 <time>2011-05-20T15:45:47.9Z</time>
 </trkpt>
 <trkpt lat="45.120453" lon="3.793273">
 <time>2011-05-20T15:45:52.9Z</time>
 </trkpt>
 <trkpt lat="45.120933" lon="3.793147">
 <time>2011-05-20T15:45:57.9Z</time>
 </trkpt>
 <trkpt lat="45.121343" lon="3.793699">
 <time>2011-05-20T15:46:03.2Z</time>
 </trkpt>
 <trkpt lat="45.121711" lon="3.793584">
 <time>2011-05-20T15:46:08.2Z</time>
 </trkpt>
 <trkpt lat="45.122363" lon="3.793771">
 <time>2011-05-20T15:46:12.9Z</time>
 </trkpt>
 <trkpt lat="45.12418" lon="3.794611">
 <time>2011-05-20T15:46:21.9Z</time>
 </trkpt>
 <trkpt lat="45.124722" lon="3.795079">
 <time>2011-05-20T15:46:26.9Z</time>
 </trkpt>
 <trkpt lat="45.125491" lon="3.795893">
 <time>2011-05-20T15:46:31.9Z</time>
 </trkpt>
 <trkpt lat="45.126117" lon="3.796257">
 <time>2011-05-20T15:46:35.9Z</time>
 </trkpt>
 <trkpt lat="45.126751" lon="3.796951">
 <time>2011-05-20T15:46:40.9Z</time>
 </trkpt>
 <trkpt lat="45.127258" lon="3.797489">
 <time>2011-05-20T15:46:45.9Z</time>
 </trkpt>
 <trkpt lat="45.129013" lon="3.79946">
 <time>2011-05-20T15:46:58.9Z</time>
 </trkpt>
 <trkpt lat="45.129404" lon="3.800034">
 <time>2011-05-20T15:47:03.9Z</time>
 </trkpt>
 <trkpt lat="45.130027" lon="3.800468">
 <time>2011-05-20T15:47:08.9Z</time>
 </trkpt>
 <trkpt lat="45.130787" lon="3.800657">
 <time>2011-05-20T15:47:13.9Z</time>
 </trkpt>
 <trkpt lat="45.131289" lon="3.800414">
 <time>2011-05-20T15:47:18.9Z</time>
 </trkpt>
 <trkpt lat="45.131527" lon="3.800202">
 <time>2011-05-20T15:47:22.9Z</time>
 </trkpt>
 <trkpt lat="45.131677" lon="3.800161">
 <time>2011-05-20T15:47:27.9Z</time>
 </trkpt>
 <trkpt lat="45.131794" lon="3.800066">
 <time>2011-05-20T15:49:33.2Z</time>
 </trkpt>
 <trkpt lat="45.132291" lon="3.79959">
 <time>2011-05-20T15:49:38.2Z</time>
 </trkpt>
 <trkpt lat="45.132924" lon="3.799177">
 <time>2011-05-20T15:49:43.2Z</time>
 </trkpt>
 <trkpt lat="45.13344" lon="3.798603">
 <time>2011-05-20T15:49:47.9Z</time>
 </trkpt>
 <trkpt lat="45.133909" lon="3.797452">
 <time>2011-05-20T15:49:52.9Z</time>
 </trkpt>
 <trkpt lat="45.133888" lon="3.795847">
 <time>2011-05-20T15:49:57.9Z</time>
 </trkpt>
 <trkpt lat="45.133818" lon="3.79418">
 <time>2011-05-20T15:50:01.9Z</time>
 </trkpt>
 <trkpt lat="45.133963" lon="3.792968">
 <time>2011-05-20T15:50:06.9Z</time>
 </trkpt>
 <trkpt lat="45.13433" lon="3.792004">
 <time>2011-05-20T15:50:10.9Z</time>
 </trkpt>
 <trkpt lat="45.135115" lon="3.791233">
 <time>2011-05-20T15:50:15.9Z</time>
 </trkpt>
 <trkpt lat="45.136401" lon="3.790242">
 <time>2011-05-20T15:50:21.9Z</time>
 </trkpt>
 <trkpt lat="45.137047" lon="3.789866">
 <time>2011-05-20T15:50:25.9Z</time>
 </trkpt>
 <trkpt lat="45.140016" lon="3.78826">
 <time>2011-05-20T15:50:36.9Z</time>
 </trkpt>
 <trkpt lat="45.143329" lon="3.78739">
 <time>2011-05-20T15:50:48.9Z</time>
 </trkpt>
 <trkpt lat="45.144597" lon="3.786738">
 <time>2011-05-20T15:50:53.9Z</time>
 </trkpt>
 <trkpt lat="45.14532" lon="3.786252">
 <time>2011-05-20T15:50:57.9Z</time>
 </trkpt>
 <trkpt lat="45.146236" lon="3.785212">
 <time>2011-05-20T15:51:02.9Z</time>
 </trkpt>
 <trkpt lat="45.150417" lon="3.778731">
 <time>2011-05-20T15:51:25.9Z</time>
 </trkpt>
 <trkpt lat="45.150905" lon="3.777541">
 <time>2011-05-20T15:51:30.9Z</time>
 </trkpt>
 <trkpt lat="45.151773" lon="3.774779">
 <time>2011-05-20T15:51:37.9Z</time>
 </trkpt>
 <trkpt lat="45.152574" lon="3.772233">
 <time>2011-05-20T15:51:44.9Z</time>
 </trkpt>
 <trkpt lat="45.156738" lon="3.760859">
 <time>2011-05-20T15:52:18.9Z</time>
 </trkpt>
 <trkpt lat="45.158075" lon="3.757327">
 <time>2011-05-20T15:52:30.9Z</time>
 </trkpt>
 <trkpt lat="45.158421" lon="3.756824">
 <time>2011-05-20T15:52:34.9Z</time>
 </trkpt>
 <trkpt lat="45.159294" lon="3.756338">
 <time>2011-05-20T15:52:39.9Z</time>
 </trkpt>
 <trkpt lat="45.160683" lon="3.755972">
 <time>2011-05-20T15:52:45.9Z</time>
 </trkpt>
 <trkpt lat="45.161192" lon="3.755982">
 <time>2011-05-20T15:52:49.9Z</time>
 </trkpt>
 <trkpt lat="45.16215" lon="3.756046">
 <time>2011-05-20T15:52:54.9Z</time>
 </trkpt>
 <trkpt lat="45.162954" lon="3.755865">
 <time>2011-05-20T15:52:58.9Z</time>
 </trkpt>
 <trkpt lat="45.163727" lon="3.755174">
 <time>2011-05-20T15:53:02.9Z</time>
 </trkpt>
 <trkpt lat="45.164449" lon="3.75364">
 <time>2011-05-20T15:53:06.9Z</time>
 </trkpt>
 <trkpt lat="45.168412" lon="3.742047">
 <time>2011-05-20T15:53:37.9Z</time>
 </trkpt>
 <trkpt lat="45.168807" lon="3.74111">
 <time>2011-05-20T15:53:42.2Z</time>
 </trkpt>
 <trkpt lat="45.169624" lon="3.740071">
 <time>2011-05-20T15:53:46.2Z</time>
 </trkpt>
 <trkpt lat="45.173335" lon="3.736268">
 <time>2011-05-20T15:54:02.2Z</time>
 </trkpt>
 <trkpt lat="45.177283" lon="3.732835">
 <time>2011-05-20T15:54:23.2Z</time>
 </trkpt>
 <trkpt lat="45.177914" lon="3.73191">
 <time>2011-05-20T15:54:28.2Z</time>
 </trkpt>
 <trkpt lat="45.178349" lon="3.730234">
 <time>2011-05-20T15:54:33.2Z</time>
 </trkpt>
 <trkpt lat="45.178723" lon="3.728721">
 <time>2011-05-20T15:54:38.2Z</time>
 </trkpt>
 <trkpt lat="45.179275" lon="3.727715">
 <time>2011-05-20T15:54:42.2Z</time>
 </trkpt>
 <trkpt lat="45.180928" lon="3.725419">
 <time>2011-05-20T15:54:56.2Z</time>
 </trkpt>
 <trkpt lat="45.182031" lon="3.724323">
 <time>2011-05-20T15:55:04.9Z</time>
 </trkpt>
 <trkpt lat="45.184137" lon="3.722316">
 <time>2011-05-20T15:55:19.2Z</time>
 </trkpt>
 <trkpt lat="45.184989" lon="3.72185">
 <time>2011-05-20T15:55:23.2Z</time>
 </trkpt>
 <trkpt lat="45.188174" lon="3.720673">
 <time>2011-05-20T15:55:35.2Z</time>
 </trkpt>
 <trkpt lat="45.188925" lon="3.720141">
 <time>2011-05-20T15:55:40.2Z</time>
 </trkpt>
 <trkpt lat="45.189609" lon="3.718906">
 <time>2011-05-20T15:55:45.2Z</time>
 </trkpt>
 <trkpt lat="45.190258" lon="3.717526">
 <time>2011-05-20T15:55:50.2Z</time>
 </trkpt>
 <trkpt lat="45.1912" lon="3.716684">
 <time>2011-05-20T15:55:55.2Z</time>
 </trkpt>
 <trkpt lat="45.194277" lon="3.714829">
 <time>2011-05-20T15:56:08.2Z</time>
 </trkpt>
 <trkpt lat="45.194695" lon="3.714385">
 <time>2011-05-20T15:56:12.2Z</time>
 </trkpt>
 <trkpt lat="45.195217" lon="3.713495">
 <time>2011-05-20T15:56:17.2Z</time>
 </trkpt>
 <trkpt lat="45.195963" lon="3.711547">
 <time>2011-05-20T15:56:26.2Z</time>
 </trkpt>
 <trkpt lat="45.196341" lon="3.711068">
 <time>2011-05-20T15:56:31.2Z</time>
 </trkpt>
 <trkpt lat="45.196958" lon="3.710982">
 <time>2011-05-20T15:56:36.2Z</time>
 </trkpt>
 <trkpt lat="45.197437" lon="3.71111">
 <time>2011-05-20T15:56:40.2Z</time>
 </trkpt>
 <trkpt lat="45.198061" lon="3.711495">
 <time>2011-05-20T15:56:45.2Z</time>
 </trkpt>
 <trkpt lat="45.198447" lon="3.711635">
 <time>2011-05-20T15:56:50.2Z</time>
 </trkpt>
 <trkpt lat="45.19876" lon="3.711838">
 <time>2011-05-20T15:56:54.2Z</time>
 </trkpt>
 <trkpt lat="45.199315" lon="3.712388">
 <time>2011-05-20T15:57:00.2Z</time>
 </trkpt>
 <trkpt lat="45.201671" lon="3.713617">
 <time>2011-05-20T15:57:22.2Z</time>
 </trkpt>
 <trkpt lat="45.202371" lon="3.713763">
 <time>2011-05-20T15:57:28.2Z</time>
 </trkpt>
 <trkpt lat="45.20286" lon="3.71357">
 <time>2011-05-20T15:57:33.2Z</time>
 </trkpt>
 <trkpt lat="45.203678" lon="3.713252">
 <time>2011-05-20T15:57:39.2Z</time>
 </trkpt>
 <trkpt lat="45.204271" lon="3.713079">
 <time>2011-05-20T15:57:45.2Z</time>
 </trkpt>
 </trkseg>
 <trkseg>
 <trkpt lat="45.204532" lon="3.713196">
 <time>2011-05-20T15:57:48.2Z</time>
 </trkpt>
 <trkpt lat="45.20511" lon="3.713784">
 <time>2011-05-20T15:57:52.2Z</time>
 </trkpt>
 <trkpt lat="45.205609" lon="3.71436">
 <time>2011-05-20T15:57:57.2Z</time>
 </trkpt>
 <trkpt lat="45.206031" lon="3.714461">
 <time>2011-05-20T15:58:01.2Z</time>
 </trkpt>
 <trkpt lat="45.206842" lon="3.713979">
 <time>2011-05-20T15:58:06.2Z</time>
 </trkpt>
 <trkpt lat="45.207955" lon="3.713123">
 <time>2011-05-20T15:58:11.2Z</time>
 </trkpt>
 <trkpt lat="45.208589" lon="3.712337">
 <time>2011-05-20T15:58:16.2Z</time>
 </trkpt>
 <trkpt lat="45.209265" lon="3.710995">
 <time>2011-05-20T15:58:20.2Z</time>
 </trkpt>
 <trkpt lat="45.209999" lon="3.710105">
 <time>2011-05-20T15:58:25.2Z</time>
 </trkpt>
 <trkpt lat="45.211283" lon="3.709764">
 <time>2011-05-20T15:58:30.2Z</time>
 </trkpt>
 <trkpt lat="45.212741" lon="3.709638">
 <time>2011-05-20T15:58:35.2Z</time>
 </trkpt>
 <trkpt lat="45.213963" lon="3.709712">
 <time>2011-05-20T15:58:40.2Z</time>
 </trkpt>
 <trkpt lat="45.216428" lon="3.710165">
 <time>2011-05-20T15:58:49.2Z</time>
 </trkpt>
 <trkpt lat="45.217265" lon="3.710393">
 <time>2011-05-20T15:58:54.2Z</time>
 </trkpt>
 <trkpt lat="45.218229" lon="3.710304">
 <time>2011-05-20T15:58:59.2Z</time>
 </trkpt>
 <trkpt lat="45.219285" lon="3.710057">
 <time>2011-05-20T15:59:04.2Z</time>
 </trkpt>
 <trkpt lat="45.220429" lon="3.710081">
 <time>2011-05-20T15:59:09.2Z</time>
 </trkpt>
 <trkpt lat="45.221867" lon="3.709929">
 <time>2011-05-20T15:59:14.2Z</time>
 </trkpt>
 <trkpt lat="45.222851" lon="3.709966">
 <time>2011-05-20T15:59:19.2Z</time>
 </trkpt>
 <trkpt lat="45.228802" lon="3.711187">
 <time>2011-05-20T15:59:41.2Z</time>
 </trkpt>
 <trkpt lat="45.231142" lon="3.711377">
 <time>2011-05-20T15:59:50.2Z</time>
 </trkpt>
 <trkpt lat="45.232698" lon="3.711735">
 <time>2011-05-20T15:59:56.2Z</time>
 </trkpt>
 <trkpt lat="45.233745" lon="3.712234">
 <time>2011-05-20T16:00:01.2Z</time>
 </trkpt>
 <trkpt lat="45.241567" lon="3.717086">
 <time>2011-05-20T16:00:32.2Z</time>
 </trkpt>
 <trkpt lat="45.244174" lon="3.718888">
 <time>2011-05-20T16:00:43.2Z</time>
 </trkpt>
 <trkpt lat="45.244997" lon="3.719305">
 <time>2011-05-20T16:00:48.2Z</time>
 </trkpt>
 <trkpt lat="45.245819" lon="3.719535">
 <time>2011-05-20T16:00:53.2Z</time>
 </trkpt>
 <trkpt lat="45.246515" lon="3.719514">
 <time>2011-05-20T16:00:57.2Z</time>
 </trkpt>
 <trkpt lat="45.247184" lon="3.71951">
 <time>2011-05-20T16:01:02.2Z</time>
 </trkpt>
 <trkpt lat="45.248219" lon="3.719482">
 <time>2011-05-20T16:01:07.2Z</time>
 </trkpt>
 <trkpt lat="45.250619" lon="3.719373">
 <time>2011-05-20T16:01:15.2Z</time>
 </trkpt>
 <trkpt lat="45.252617" lon="3.719493">
 <time>2011-05-20T16:01:24.2Z</time>
 </trkpt>
 <trkpt lat="45.254521" lon="3.719421">
 <time>2011-05-20T16:01:33Z</time>
 </trkpt>
 <trkpt lat="45.256362" lon="3.719673">
 <time>2011-05-20T16:01:40.2Z</time>
 </trkpt>
 <trkpt lat="45.257162" lon="3.719613">
 <time>2011-05-20T16:01:44.2Z</time>
 </trkpt>
 <trkpt lat="45.25852" lon="3.719349">
 <time>2011-05-20T16:01:49.2Z</time>
 </trkpt>
 <trkpt lat="45.259546" lon="3.719525">
 <time>2011-05-20T16:01:53.2Z</time>
 </trkpt>
 <trkpt lat="45.265968" lon="3.722352">
 <time>2011-05-20T16:02:16.2Z</time>
 </trkpt>
 <trkpt lat="45.26793" lon="3.722593">
 <time>2011-05-20T16:02:24.2Z</time>
 </trkpt>
 <trkpt lat="45.271812" lon="3.723">
 <time>2011-05-20T16:02:39.2Z</time>
 </trkpt>
 <trkpt lat="45.273039" lon="3.723694">
 <time>2011-05-20T16:02:44.2Z</time>
 </trkpt>
 <trkpt lat="45.274886" lon="3.724862">
 <time>2011-05-20T16:02:53.2Z</time>
 </trkpt>
 </trkseg>
 <trkseg>
 <trkpt lat="45.275065" lon="3.72496">
 <time>2011-05-20T16:02:55.2Z</time>
 </trkpt>
 <trkpt lat="45.276409" lon="3.725797">
 <time>2011-05-20T16:03:05.2Z</time>
 </trkpt>
 <trkpt lat="45.27659" lon="3.725911">
 <time>2011-05-20T16:03:10.2Z</time>
 </trkpt>
 <trkpt lat="45.276688" lon="3.725631">
 <time>2011-05-20T16:03:15.2Z</time>
 </trkpt>
 <trkpt lat="45.276903" lon="3.724854">
 <time>2011-05-20T16:03:20.2Z</time>
 </trkpt>
 <trkpt lat="45.277259" lon="3.723715">
 <time>2011-05-20T16:03:24.2Z</time>
 </trkpt>
 <trkpt lat="45.27773" lon="3.721654">
 <time>2011-05-20T16:03:32.2Z</time>
 </trkpt>
 <trkpt lat="45.278099" lon="3.719156">
 <time>2011-05-20T16:03:41.2Z</time>
 </trkpt>
 <trkpt lat="45.278399" lon="3.71807">
 <time>2011-05-20T16:03:46.2Z</time>
 </trkpt>
 <trkpt lat="45.279619" lon="3.715401">
 <time>2011-05-20T16:03:55.9Z</time>
 </trkpt>
 <trkpt lat="45.280193" lon="3.714339">
 <time>2011-05-20T16:04:01.2Z</time>
 </trkpt>
 <trkpt lat="45.281019" lon="3.713377">
 <time>2011-05-20T16:04:05.2Z</time>
 </trkpt>
 <trkpt lat="45.289024" lon="3.707275">
 <time>2011-05-20T16:04:39Z</time>
 </trkpt>
 <trkpt lat="45.294506" lon="3.702942">
 <time>2011-05-20T16:05:02.2Z</time>
 </trkpt>
 <trkpt lat="45.295665" lon="3.702651">
 <time>2011-05-20T16:05:07.2Z</time>
 </trkpt>
 <trkpt lat="45.297539" lon="3.702331">
 <time>2011-05-20T16:05:13.2Z</time>
 </trkpt>
 <trkpt lat="45.303226" lon="3.701656">
 <time>2011-05-20T16:05:34.2Z</time>
 </trkpt>
 <trkpt lat="45.304057" lon="3.701454">
 <time>2011-05-20T16:05:38.2Z</time>
 </trkpt>
 <trkpt lat="45.305403" lon="3.700876">
 <time>2011-05-20T16:05:43.2Z</time>
 </trkpt>
 <trkpt lat="45.309013" lon="3.698931">
 <time>2011-05-20T16:05:57.2Z</time>
 </trkpt>
 <trkpt lat="45.309859" lon="3.698656">
 <time>2011-05-20T16:06:02.2Z</time>
 </trkpt>
 <trkpt lat="45.313037" lon="3.698172">
 <time>2011-05-20T16:06:14.2Z</time>
 </trkpt>
 <trkpt lat="45.313899" lon="3.697841">
 <time>2011-05-20T16:06:19.2Z</time>
 </trkpt>
 <trkpt lat="45.315961" lon="3.696689">
 <time>2011-05-20T16:06:31.2Z</time>
 </trkpt>
 <trkpt lat="45.316382" lon="3.69655">
 <time>2011-05-20T16:06:35.2Z</time>
 </trkpt>
 <trkpt lat="45.317465" lon="3.696471">
 <time>2011-05-20T16:06:42Z</time>
 </trkpt>
 <trkpt lat="45.317717" lon="3.696518">
 <time>2011-05-20T16:06:45.2Z</time>
 </trkpt>
 <trkpt lat="45.31831" lon="3.696819">
 <time>2011-05-20T16:06:50.2Z</time>
 </trkpt>
 <trkpt lat="45.319628" lon="3.697892">
 <time>2011-05-20T16:07:01.2Z</time>
 </trkpt>
 <trkpt lat="45.319994" lon="3.697985">
 <time>2011-05-20T16:07:05.2Z</time>
 </trkpt>
 <trkpt lat="45.32233" lon="3.697743">
 <time>2011-05-20T16:07:21.2Z</time>
 </trkpt>
 <trkpt lat="45.322928" lon="3.697829">
 <time>2011-05-20T16:07:25.2Z</time>
 </trkpt>
 <trkpt lat="45.326712" lon="3.699839">
 <time>2011-05-20T16:07:47.2Z</time>
 </trkpt>
 <trkpt lat="45.327543" lon="3.700012">
 <time>2011-05-20T16:07:52.2Z</time>
 </trkpt>
 <trkpt lat="45.328692" lon="3.699511">
 <time>2011-05-20T16:07:57.2Z</time>
 </trkpt>
 <trkpt lat="45.32982" lon="3.698911">
 <time>2011-05-20T16:08:02Z</time>
 </trkpt>
 <trkpt lat="45.330636" lon="3.698859">
 <time>2011-05-20T16:08:06.2Z</time>
 </trkpt>
 <trkpt lat="45.33165" lon="3.699665">
 <time>2011-05-20T16:08:10.2Z</time>
 </trkpt>
 <trkpt lat="45.333682" lon="3.702761">
 <time>2011-05-20T16:08:21.2Z</time>
 </trkpt>
 <trkpt lat="45.334248" lon="3.703363">
 <time>2011-05-20T16:08:25.2Z</time>
 </trkpt>
 <trkpt lat="45.335709" lon="3.704314">
 <time>2011-05-20T16:08:31.9Z</time>
 </trkpt>
 <trkpt lat="45.336269" lon="3.705125">
 <time>2011-05-20T16:08:36.9Z</time>
 </trkpt>
 <trkpt lat="45.336503" lon="3.706483">
 <time>2011-05-20T16:08:40.9Z</time>
 </trkpt>
 <trkpt lat="45.336724" lon="3.707464">
 <time>2011-05-20T16:08:45.9Z</time>
 </trkpt>
 <trkpt lat="45.337263" lon="3.708746">
 <time>2011-05-20T16:08:50.9Z</time>
 </trkpt>
 <trkpt lat="45.338119" lon="3.710007">
 <time>2011-05-20T16:08:55.9Z</time>
 </trkpt>
 <trkpt lat="45.339185" lon="3.71055">
 <time>2011-05-20T16:09:00.2Z</time>
 </trkpt>
 <trkpt lat="45.343301" lon="3.711794">
 <time>2011-05-20T16:09:14.9Z</time>
 </trkpt>
 <trkpt lat="45.343913" lon="3.712237">
 <time>2011-05-20T16:09:18.9Z</time>
 </trkpt>
 <trkpt lat="45.344873" lon="3.713609">
 <time>2011-05-20T16:09:24.2Z</time>
 </trkpt>
 <trkpt lat="45.345149" lon="3.715607">
 <time>2011-05-20T16:09:29.2Z</time>
 </trkpt>
 <trkpt lat="45.344575" lon="3.717497">
 <time>2011-05-20T16:09:33.9Z</time>
 </trkpt>
 <trkpt lat="45.344193" lon="3.719711">
 <time>2011-05-20T16:09:39Z</time>
 </trkpt>
 <trkpt lat="45.344174" lon="3.721">
 <time>2011-05-20T16:09:43.9Z</time>
 </trkpt>
 <trkpt lat="45.344455" lon="3.722412">
 <time>2011-05-20T16:09:47.9Z</time>
 </trkpt>
 <trkpt lat="45.345238" lon="3.72536">
 <time>2011-05-20T16:09:55.9Z</time>
 </trkpt>
 <trkpt lat="45.345519" lon="3.726166">
 <time>2011-05-20T16:09:59.9Z</time>
 </trkpt>
 <trkpt lat="45.346308" lon="3.727116">
 <time>2011-05-20T16:10:04.9Z</time>
 </trkpt>
 <trkpt lat="45.348068" lon="3.728743">
 <time>2011-05-20T16:10:12.9Z</time>
 </trkpt>
 <trkpt lat="45.348555" lon="3.72986">
 <time>2011-05-20T16:10:18.2Z</time>
 </trkpt>
 <trkpt lat="45.348694" lon="3.731682">
 <time>2011-05-20T16:10:23.2Z</time>
 </trkpt>
 <trkpt lat="45.348836" lon="3.733345">
 <time>2011-05-20T16:10:28.2Z</time>
 </trkpt>
 <trkpt lat="45.349167" lon="3.734507">
 <time>2011-05-20T16:10:32.2Z</time>
 </trkpt>
 <trkpt lat="45.350009" lon="3.736358">
 <time>2011-05-20T16:10:37.9Z</time>
 </trkpt>
 <trkpt lat="45.350282" lon="3.737291">
 <time>2011-05-20T16:10:42.2Z</time>
 </trkpt>
 <trkpt lat="45.35073" lon="3.740831">
 <time>2011-05-20T16:10:51.9Z</time>
 </trkpt>
 <trkpt lat="45.351155" lon="3.742141">
 <time>2011-05-20T16:10:56.9Z</time>
 </trkpt>
 <trkpt lat="45.352037" lon="3.743586">
 <time>2011-05-20T16:11:01.9Z</time>
 </trkpt>
 <trkpt lat="45.35303" lon="3.744525">
 <time>2011-05-20T16:11:06.2Z</time>
 </trkpt>
 <trkpt lat="45.353985" lon="3.745087">
 <time>2011-05-20T16:11:10.2Z</time>
 </trkpt>
 <trkpt lat="45.355807" lon="3.746132">
 <time>2011-05-20T16:11:17.9Z</time>
 </trkpt>
 <trkpt lat="45.356398" lon="3.746686">
 <time>2011-05-20T16:11:22.2Z</time>
 </trkpt>
 <trkpt lat="45.361154" lon="3.75162">
 <time>2011-05-20T16:11:46.9Z</time>
 </trkpt>
 <trkpt lat="45.36243" lon="3.752513">
 <time>2011-05-20T16:11:52.9Z</time>
 </trkpt>
 <trkpt lat="45.363407" lon="3.753012">
 <time>2011-05-20T16:11:57.9Z</time>
 </trkpt>
 <trkpt lat="45.364564" lon="3.753279">
 <time>2011-05-20T16:12:01.9Z</time>
 </trkpt>
 <trkpt lat="45.365654" lon="3.753408">
 <time>2011-05-20T16:12:05.9Z</time>
 </trkpt>
 <trkpt lat="45.366693" lon="3.753375">
 <time>2011-05-20T16:12:10.2Z</time>
 </trkpt>
 <trkpt lat="45.367968" lon="3.753586">
 <time>2011-05-20T16:12:14.9Z</time>
 </trkpt>
 <trkpt lat="45.369348" lon="3.753745">
 <time>2011-05-20T16:12:19.9Z</time>
 </trkpt>
 <trkpt lat="45.371498" lon="3.753015">
 <time>2011-05-20T16:12:26.9Z</time>
 </trkpt>
 <trkpt lat="45.37223" lon="3.752718">
 <time>2011-05-20T16:12:30.9Z</time>
 </trkpt>
 <trkpt lat="45.373351" lon="3.752747">
 <time>2011-05-20T16:12:35.9Z</time>
 </trkpt>
 <trkpt lat="45.37526" lon="3.75371">
 <time>2011-05-20T16:12:42.9Z</time>
 </trkpt>
 <trkpt lat="45.376253" lon="3.753817">
 <time>2011-05-20T16:12:46.9Z</time>
 </trkpt>
 <trkpt lat="45.377006" lon="3.753647">
 <time>2011-05-20T16:12:50.9Z</time>
 </trkpt>
 <trkpt lat="45.378049" lon="3.752614">
 <time>2011-05-20T16:12:55.9Z</time>
 </trkpt>
 <trkpt lat="45.380348" lon="3.748986">
 <time>2011-05-20T16:13:11.9Z</time>
 </trkpt>
 <trkpt lat="45.380689" lon="3.74877">
 <time>2011-05-20T16:13:16.9Z</time>
 </trkpt>
 <trkpt lat="45.381127" lon="3.748763">
 <time>2011-05-20T16:13:21.9Z</time>
 </trkpt>
 <trkpt lat="45.381637" lon="3.749048">
 <time>2011-05-20T16:13:26.9Z</time>
 </trkpt>
 <trkpt lat="45.382083" lon="3.749439">
 <time>2011-05-20T16:13:30.9Z</time>
 </trkpt>
 <trkpt lat="45.382301" lon="3.74989">
 <time>2011-05-20T16:13:34.9Z</time>
 </trkpt>
 <trkpt lat="45.382535" lon="3.750136">
 <time>2011-05-20T16:13:39.9Z</time>
 </trkpt>
 <trkpt lat="45.382955" lon="3.749902">
 <time>2011-05-20T16:13:44.9Z</time>
 </trkpt>
 <trkpt lat="45.383379" lon="3.749865">
 <time>2011-05-20T16:13:49.9Z</time>
 </trkpt>
 <trkpt lat="45.383678" lon="3.750025">
 <time>2011-05-20T16:13:54.9Z</time>
 </trkpt>
 <trkpt lat="45.383671" lon="3.750245">
 <time>2011-05-20T16:13:58.9Z</time>
 </trkpt>
 <trkpt lat="45.383456" lon="3.750852">
 <time>2011-05-20T16:14:03.9Z</time>
 </trkpt>
 <trkpt lat="45.383205" lon="3.751153">
 <time>2011-05-20T16:14:07.9Z</time>
 </trkpt>
 <trkpt lat="45.382949" lon="3.751564">
 <time>2011-05-20T16:14:12.2Z</time>
 </trkpt>
 <trkpt lat="45.382579" lon="3.752413">
 <time>2011-05-20T16:14:17.9Z</time>
 </trkpt>
 <trkpt lat="45.382084" lon="3.753117">
 <time>2011-05-20T16:14:22.9Z</time>
 </trkpt>
 <trkpt lat="45.38163" lon="3.754244">
 <time>2011-05-20T16:14:27.9Z</time>
 </trkpt>
 <trkpt lat="45.381398" lon="3.755047">
 <time>2011-05-20T16:14:33.2Z</time>
 </trkpt>
 <trkpt lat="45.381112" lon="3.756391">
 <time>2011-05-20T16:14:37.2Z</time>
 </trkpt>
 <trkpt lat="45.381078" lon="3.757341">
 <time>2011-05-20T16:14:41.2Z</time>
 </trkpt>
 <trkpt lat="45.3814" lon="3.759278">
 <time>2011-05-20T16:14:47.9Z</time>
 </trkpt>
 <trkpt lat="45.381431" lon="3.760173">
 <time>2011-05-20T16:14:51.9Z</time>
 </trkpt>
 <trkpt lat="45.380939" lon="3.761607">
 <time>2011-05-20T16:14:56.9Z</time>
 </trkpt>
 <trkpt lat="45.380044" lon="3.762728">
 <time>2011-05-20T16:15:01.9Z</time>
 </trkpt>
 <trkpt lat="45.379174" lon="3.763296">
 <time>2011-05-20T16:15:05.9Z</time>
 </trkpt>
 <trkpt lat="45.378073" lon="3.763568">
 <time>2011-05-20T16:15:10.9Z</time>
 </trkpt>
 <trkpt lat="45.377145" lon="3.762979">
 <time>2011-05-20T16:15:15.9Z</time>
 </trkpt>
 <trkpt lat="45.376097" lon="3.762726">
 <time>2011-05-20T16:15:19.9Z</time>
 </trkpt>
 <trkpt lat="45.374603" lon="3.763291">
 <time>2011-05-20T16:15:25.9Z</time>
 </trkpt>
 <trkpt lat="45.372884" lon="3.763277">
 <time>2011-05-20T16:15:33.2Z</time>
 </trkpt>
 <trkpt lat="45.372063" lon="3.763646">
 <time>2011-05-20T16:15:38.9Z</time>
 </trkpt>
 <trkpt lat="45.371565" lon="3.76511">
 <time>2011-05-20T16:15:43.9Z</time>
 </trkpt>
 <trkpt lat="45.370597" lon="3.767904">
 <time>2011-05-20T16:15:51.9Z</time>
 </trkpt>
 <trkpt lat="45.370609" lon="3.768883">
 <time>2011-05-20T16:15:56.9Z</time>
 </trkpt>
 <trkpt lat="45.371323" lon="3.769829">
 <time>2011-05-20T16:16:01.9Z</time>
 </trkpt>
 <trkpt lat="45.372652" lon="3.7713">
 <time>2011-05-20T16:16:07.9Z</time>
 </trkpt>
 <trkpt lat="45.373339" lon="3.772202">
 <time>2011-05-20T16:16:12.9Z</time>
 </trkpt>
 <trkpt lat="45.373625" lon="3.773263">
 <time>2011-05-20T16:16:17.9Z</time>
 </trkpt>
 <trkpt lat="45.373656" lon="3.774565">
 <time>2011-05-20T16:16:22.9Z</time>
 </trkpt>
 <trkpt lat="45.374281" lon="3.775777">
 <time>2011-05-20T16:16:27.9Z</time>
 </trkpt>
 <trkpt lat="45.374854" lon="3.77694">
 <time>2011-05-20T16:16:32.9Z</time>
 </trkpt>
 <trkpt lat="45.374943" lon="3.777967">
 <time>2011-05-20T16:16:37.2Z</time>
 </trkpt>
 <trkpt lat="45.375129" lon="3.779169">
 <time>2011-05-20T16:16:42.9Z</time>
 </trkpt>
 <trkpt lat="45.375752" lon="3.779124">
 <time>2011-05-20T16:16:46.9Z</time>
 </trkpt>
 <trkpt lat="45.376184" lon="3.778027">
 <time>2011-05-20T16:16:51.9Z</time>
 </trkpt>
 <trkpt lat="45.37653" lon="3.776492">
 <time>2011-05-20T16:16:56.9Z</time>
 </trkpt>
 <trkpt lat="45.377025" lon="3.775839">
 <time>2011-05-20T16:17:01.9Z</time>
 </trkpt>
 <trkpt lat="45.377681" lon="3.775734">
 <time>2011-05-20T16:17:05.9Z</time>
 </trkpt>
 <trkpt lat="45.378338" lon="3.776545">
 <time>2011-05-20T16:17:10.9Z</time>
 </trkpt>
 <trkpt lat="45.37839" lon="3.777782">
 <time>2011-05-20T16:17:15.9Z</time>
 </trkpt>
 <trkpt lat="45.378342" lon="3.778935">
 <time>2011-05-20T16:17:19.9Z</time>
 </trkpt>
 <trkpt lat="45.378595" lon="3.780148">
 <time>2011-05-20T16:17:24.9Z</time>
 </trkpt>
 <trkpt lat="45.379285" lon="3.780918">
 <time>2011-05-20T16:17:29.9Z</time>
 </trkpt>
 <trkpt lat="45.379981" lon="3.781639">
 <time>2011-05-20T16:17:34.9Z</time>
 </trkpt>
 <trkpt lat="45.380221" lon="3.782296">
 <time>2011-05-20T16:17:38.2Z</time>
 </trkpt>
 <trkpt lat="45.380885" lon="3.783271">
 <time>2011-05-20T16:17:43.9Z</time>
 </trkpt>
 <trkpt lat="45.381687" lon="3.783424">
 <time>2011-05-20T16:17:48.9Z</time>
 </trkpt>
 <trkpt lat="45.382108" lon="3.784283">
 <time>2011-05-20T16:17:53.9Z</time>
 </trkpt>
 <trkpt lat="45.382461" lon="3.784761">
 <time>2011-05-20T16:17:58.2Z</time>
 </trkpt>
 <trkpt lat="45.383535" lon="3.784564">
 <time>2011-05-20T16:18:02.9Z</time>
 </trkpt>
 <trkpt lat="45.384417" lon="3.78448">
 <time>2011-05-20T16:18:07.9Z</time>
 </trkpt>
 <trkpt lat="45.384968" lon="3.784262">
 <time>2011-05-20T16:18:11.9Z</time>
 </trkpt>
 <trkpt lat="45.3852" lon="3.783442">
 <time>2011-05-20T16:18:16.9Z</time>
 </trkpt>
 <trkpt lat="45.385452" lon="3.782436">
 <time>2011-05-20T16:18:20.9Z</time>
 </trkpt>
 <trkpt lat="45.385802" lon="3.782101">
 <time>2011-05-20T16:18:25.9Z</time>
 </trkpt>
 <trkpt lat="45.386238" lon="3.782394">
 <time>2011-05-20T16:18:30.9Z</time>
 </trkpt>
 <trkpt lat="45.386329" lon="3.783105">
 <time>2011-05-20T16:18:35.9Z</time>
 </trkpt>
 <trkpt lat="45.386127" lon="3.783869">
 <time>2011-05-20T16:18:40.9Z</time>
 </trkpt>
 <trkpt lat="45.38607" lon="3.784415">
 <time>2011-05-20T16:18:45.9Z</time>
 </trkpt>
 <trkpt lat="45.386552" lon="3.784726">
 <time>2011-05-20T16:18:50.9Z</time>
 </trkpt>
 <trkpt lat="45.387357" lon="3.784465">
 <time>2011-05-20T16:18:55.9Z</time>
 </trkpt>
 <trkpt lat="45.387994" lon="3.784092">
 <time>2011-05-20T16:19:00.9Z</time>
 </trkpt>
 <trkpt lat="45.388505" lon="3.784339">
 <time>2011-05-20T16:19:04.9Z</time>
 </trkpt>
 <trkpt lat="45.388806" lon="3.784953">
 <time>2011-05-20T16:19:09.9Z</time>
 </trkpt>
 <trkpt lat="45.38879" lon="3.785635">
 <time>2011-05-20T16:19:13.9Z</time>
 </trkpt>
 <trkpt lat="45.389035" lon="3.786341">
 <time>2011-05-20T16:19:18.9Z</time>
 </trkpt>
 <trkpt lat="45.388996" lon="3.787016">
 <time>2011-05-20T16:19:23.2Z</time>
 </trkpt>
 <trkpt lat="45.38886" lon="3.788128">
 <time>2011-05-20T16:19:28.2Z</time>
 </trkpt>
 <trkpt lat="45.38883" lon="3.789447">
 <time>2011-05-20T16:19:33.2Z</time>
 </trkpt>
 <trkpt lat="45.388794" lon="3.790277">
 <time>2011-05-20T16:19:37.2Z</time>
 </trkpt>
 <trkpt lat="45.389121" lon="3.790674">
 <time>2011-05-20T16:19:42.2Z</time>
 </trkpt>
 <trkpt lat="45.390113" lon="3.790306">
 <time>2011-05-20T16:19:47.2Z</time>
 </trkpt>
 <trkpt lat="45.390852" lon="3.790125">
 <time>2011-05-20T16:19:51.9Z</time>
 </trkpt>
 <trkpt lat="45.391415" lon="3.790448">
 <time>2011-05-20T16:19:56.2Z</time>
 </trkpt>
 <trkpt lat="45.391878" lon="3.791001">
 <time>2011-05-20T16:20:00.9Z</time>
 </trkpt>
 <trkpt lat="45.392327" lon="3.791187">
 <time>2011-05-20T16:20:05.2Z</time>
 </trkpt>
 <trkpt lat="45.393115" lon="3.791168">
 <time>2011-05-20T16:20:10.2Z</time>
 </trkpt>
 <trkpt lat="45.393612" lon="3.791817">
 <time>2011-05-20T16:20:14.9Z</time>
 </trkpt>
 <trkpt lat="45.393863" lon="3.79201">
 <time>2011-05-20T16:20:18.2Z</time>
 </trkpt>
 <trkpt lat="45.394505" lon="3.7922">
 <time>2011-05-20T16:20:23.2Z</time>
 </trkpt>
 <trkpt lat="45.39523" lon="3.791651">
 <time>2011-05-20T16:20:28.2Z</time>
 </trkpt>
 <trkpt lat="45.395925" lon="3.791392">
 <time>2011-05-20T16:20:33.2Z</time>
 </trkpt>
 <trkpt lat="45.396588" lon="3.79151">
 <time>2011-05-20T16:20:37.9Z</time>
 </trkpt>
 <trkpt lat="45.397264" lon="3.792105">
 <time>2011-05-20T16:20:41.9Z</time>
 </trkpt>
 <trkpt lat="45.397777" lon="3.79236">
 <time>2011-05-20T16:20:46.2Z</time>
 </trkpt>
 <trkpt lat="45.398651" lon="3.792734">
 <time>2011-05-20T16:20:51.9Z</time>
 </trkpt>
 <trkpt lat="45.39902" lon="3.793252">
 <time>2011-05-20T16:20:56.2Z</time>
 </trkpt>
 <trkpt lat="45.399448" lon="3.793869">
 <time>2011-05-20T16:21:00.2Z</time>
 </trkpt>
 <trkpt lat="45.400385" lon="3.794875">
 <time>2011-05-20T16:21:05.9Z</time>
 </trkpt>
 <trkpt lat="45.40086" lon="3.795045">
 <time>2011-05-20T16:21:09.9Z</time>
 </trkpt>
 <trkpt lat="45.401367" lon="3.795329">
 <time>2011-05-20T16:21:14.9Z</time>
 </trkpt>
 <trkpt lat="45.401693" lon="3.795987">
 <time>2011-05-20T16:21:19.9Z</time>
 </trkpt>
 <trkpt lat="45.401577" lon="3.7966">
 <time>2011-05-20T16:21:25.2Z</time>
 </trkpt>
 <trkpt lat="45.401235" lon="3.796902">
 <time>2011-05-20T16:21:29.2Z</time>
 </trkpt>
 <trkpt lat="45.400734" lon="3.797509">
 <time>2011-05-20T16:21:34.2Z</time>
 </trkpt>
 <trkpt lat="45.400578" lon="3.798414">
 <time>2011-05-20T16:21:38.9Z</time>
 </trkpt>
 <trkpt lat="45.400609" lon="3.799198">
 <time>2011-05-20T16:21:42.9Z</time>
 </trkpt>
 <trkpt lat="45.400957" lon="3.801078">
 <time>2011-05-20T16:21:50.9Z</time>
 </trkpt>
 <trkpt lat="45.400985" lon="3.801786">
 <time>2011-05-20T16:21:54.9Z</time>
 </trkpt>
 <trkpt lat="45.400893" lon="3.802852">
 <time>2011-05-20T16:21:58.9Z</time>
 </trkpt>
 <trkpt lat="45.401016" lon="3.803621">
 <time>2011-05-20T16:22:03.9Z</time>
 </trkpt>
 <trkpt lat="45.401337" lon="3.804019">
 <time>2011-05-20T16:22:08.2Z</time>
 </trkpt>
 <trkpt lat="45.402041" lon="3.803517">
 <time>2011-05-20T16:22:13.9Z</time>
 </trkpt>
 <trkpt lat="45.402724" lon="3.803142">
 <time>2011-05-20T16:22:18.9Z</time>
 </trkpt>
 <trkpt lat="45.403725" lon="3.803102">
 <time>2011-05-20T16:22:25.2Z</time>
 </trkpt>
 <trkpt lat="45.404323" lon="3.802734">
 <time>2011-05-20T16:22:30.9Z</time>
 </trkpt>
 <trkpt lat="45.404557" lon="3.802802">
 <time>2011-05-20T16:22:35.9Z</time>
 </trkpt>
 <trkpt lat="45.404649" lon="3.803176">
 <time>2011-05-20T16:22:39.9Z</time>
 </trkpt>
 <trkpt lat="45.404597" lon="3.803619">
 <time>2011-05-20T16:22:44.9Z</time>
 </trkpt>
 <trkpt lat="45.404878" lon="3.803942">
 <time>2011-05-20T16:22:49.9Z</time>
 </trkpt>
 <trkpt lat="45.405478" lon="3.804318">
 <time>2011-05-20T16:22:54.2Z</time>
 </trkpt>
 <trkpt lat="45.406312" lon="3.804786">
 <time>2011-05-20T16:22:58.9Z</time>
 </trkpt>
 <trkpt lat="45.406926" lon="3.805266">
 <time>2011-05-20T16:23:02.2Z</time>
 </trkpt>
 <trkpt lat="45.407456" lon="3.805796">
 <time>2011-05-20T16:23:07.2Z</time>
 </trkpt>
 <trkpt lat="45.40782" lon="3.805959">
 <time>2011-05-20T16:23:11.2Z</time>
 </trkpt>
 <trkpt lat="45.408679" lon="3.805893">
 <time>2011-05-20T16:23:16.2Z</time>
 </trkpt>
 <trkpt lat="45.409505" lon="3.806105">
 <time>2011-05-20T16:23:20.2Z</time>
 </trkpt>
 <trkpt lat="45.410495" lon="3.806669">
 <time>2011-05-20T16:23:25.2Z</time>
 </trkpt>
 <trkpt lat="45.411656" lon="3.807566">
 <time>2011-05-20T16:23:30.2Z</time>
 </trkpt>
 <trkpt lat="45.412514" lon="3.808426">
 <time>2011-05-20T16:23:36.2Z</time>
 </trkpt>
 <trkpt lat="45.413751" lon="3.809218">
 <time>2011-05-20T16:23:44.9Z</time>
 </trkpt>
 <trkpt lat="45.413958" lon="3.809864">
 <time>2011-05-20T16:23:49.9Z</time>
 </trkpt>
 <trkpt lat="45.414396" lon="3.810808">
 <time>2011-05-20T16:23:54.2Z</time>
 </trkpt>
 <trkpt lat="45.41477" lon="3.811371">
 <time>2011-05-20T16:23:58.9Z</time>
 </trkpt>
 <trkpt lat="45.415194" lon="3.811907">
 <time>2011-05-20T16:24:02.9Z</time>
 </trkpt>
 <trkpt lat="45.415719" lon="3.812817">
 <time>2011-05-20T16:24:07.9Z</time>
 </trkpt>
 <trkpt lat="45.417129" lon="3.815014">
 <time>2011-05-20T16:24:18.2Z</time>
 </trkpt>
 <trkpt lat="45.417432" lon="3.815278">
 <time>2011-05-20T16:24:22.2Z</time>
 </trkpt>
 <trkpt lat="45.418275" lon="3.815402">
 <time>2011-05-20T16:24:27.9Z</time>
 </trkpt>
 <trkpt lat="45.420271" lon="3.815797">
 <time>2011-05-20T16:24:36.9Z</time>
 </trkpt>
 <trkpt lat="45.420662" lon="3.815938">
 <time>2011-05-20T16:24:41.9Z</time>
 </trkpt>
 <trkpt lat="45.420567" lon="3.816436">
 <time>2011-05-20T16:24:46.9Z</time>
 </trkpt>
 <trkpt lat="45.420211" lon="3.817445">
 <time>2011-05-20T16:24:51.9Z</time>
 </trkpt>
 <trkpt lat="45.420277" lon="3.818003">
 <time>2011-05-20T16:24:56.9Z</time>
 </trkpt>
 <trkpt lat="45.420587" lon="3.818691">
 <time>2011-05-20T16:25:00.9Z</time>
 </trkpt>
 <trkpt lat="45.421061" lon="3.81934">
 <time>2011-05-20T16:25:05.2Z</time>
 </trkpt>
 <trkpt lat="45.422178" lon="3.820404">
 <time>2011-05-20T16:25:11.9Z</time>
 </trkpt>
 <trkpt lat="45.422409" lon="3.820885">
 <time>2011-05-20T16:25:16.9Z</time>
 </trkpt>
 <trkpt lat="45.422781" lon="3.821618">
 <time>2011-05-20T16:25:21.9Z</time>
 </trkpt>
 <trkpt lat="45.423233" lon="3.822338">
 <time>2011-05-20T16:25:27.2Z</time>
 </trkpt>
 <trkpt lat="45.423405" lon="3.82314">
 <time>2011-05-20T16:25:32.2Z</time>
 </trkpt>
 <trkpt lat="45.423651" lon="3.823852">
 <time>2011-05-20T16:25:37.2Z</time>
 </trkpt>
 <trkpt lat="45.424019" lon="3.824494">
 <time>2011-05-20T16:25:41.2Z</time>
 </trkpt>
 <trkpt lat="45.424605" lon="3.825044">
 <time>2011-05-20T16:25:46.2Z</time>
 </trkpt>
 <trkpt lat="45.425169" lon="3.825388">
 <time>2011-05-20T16:25:50.2Z</time>
 </trkpt>
 <trkpt lat="45.425749" lon="3.825985">
 <time>2011-05-20T16:25:55.2Z</time>
 </trkpt>
 <trkpt lat="45.425977" lon="3.826927">
 <time>2011-05-20T16:25:59.9Z</time>
 </trkpt>
 <trkpt lat="45.42608" lon="3.827682">
 <time>2011-05-20T16:26:04.2Z</time>
 </trkpt>
 <trkpt lat="45.426528" lon="3.828056">
 <time>2011-05-20T16:26:09.2Z</time>
 </trkpt>
 <trkpt lat="45.426987" lon="3.828488">
 <time>2011-05-20T16:26:13.9Z</time>
 </trkpt>
 <trkpt lat="45.426873" lon="3.82896">
 <time>2011-05-20T16:26:18.2Z</time>
 </trkpt>
 <trkpt lat="45.426112" lon="3.829187">
 <time>2011-05-20T16:26:22.9Z</time>
 </trkpt>
 <trkpt lat="45.425345" lon="3.829508">
 <time>2011-05-20T16:26:27.9Z</time>
 </trkpt>
 <trkpt lat="45.424686" lon="3.829815">
 <time>2011-05-20T16:26:32.2Z</time>
 </trkpt>
 <trkpt lat="45.424095" lon="3.830477">
 <time>2011-05-20T16:26:37.2Z</time>
 </trkpt>
 <trkpt lat="45.423837" lon="3.831391">
 <time>2011-05-20T16:26:41.2Z</time>
 </trkpt>
 <trkpt lat="45.423837" lon="3.832257">
 <time>2011-05-20T16:26:45.9Z</time>
 </trkpt>
 <trkpt lat="45.423999" lon="3.833098">
 <time>2011-05-20T16:26:49.2Z</time>
 </trkpt>
 <trkpt lat="45.424097" lon="3.833631">
 <time>2011-05-20T16:26:54.2Z</time>
 </trkpt>
 <trkpt lat="45.423867" lon="3.834037">
 <time>2011-05-20T16:26:58.2Z</time>
 </trkpt>
 <trkpt lat="45.423282" lon="3.834407">
 <time>2011-05-20T16:27:03.2Z</time>
 </trkpt>
 <trkpt lat="45.422725" lon="3.835073">
 <time>2011-05-20T16:27:08.2Z</time>
 </trkpt>
 <trkpt lat="45.42235" lon="3.835769">
 <time>2011-05-20T16:27:13.2Z</time>
 </trkpt>
 <trkpt lat="45.422151" lon="3.836522">
 <time>2011-05-20T16:27:17.2Z</time>
 </trkpt>
 <trkpt lat="45.42265" lon="3.838863">
 <time>2011-05-20T16:27:30.2Z</time>
 </trkpt>
 <trkpt lat="45.422792" lon="3.839555">
 <time>2011-05-20T16:27:34.2Z</time>
 </trkpt>
 <trkpt lat="45.423142" lon="3.840206">
 <time>2011-05-20T16:27:39.2Z</time>
 </trkpt>
 <trkpt lat="45.423514" lon="3.841105">
 <time>2011-05-20T16:27:44.2Z</time>
 </trkpt>
 <trkpt lat="45.423559" lon="3.841979">
 <time>2011-05-20T16:27:48.2Z</time>
 </trkpt>
 <trkpt lat="45.423629" lon="3.842855">
 <time>2011-05-20T16:27:52.2Z</time>
 </trkpt>
 <trkpt lat="45.424232" lon="3.849202">
 <time>2011-05-20T16:28:12.2Z</time>
 </trkpt>
 <trkpt lat="45.424116" lon="3.849917">
 <time>2011-05-20T16:28:17.2Z</time>
 </trkpt>
 <trkpt lat="45.423811" lon="3.850591">
 <time>2011-05-20T16:28:21.2Z</time>
 </trkpt>
 <trkpt lat="45.423133" lon="3.851966">
 <time>2011-05-20T16:28:27.2Z</time>
 </trkpt>
 <trkpt lat="45.422921" lon="3.852967">
 <time>2011-05-20T16:28:32.2Z</time>
 </trkpt>
 <trkpt lat="45.422708" lon="3.853438">
 <time>2011-05-20T16:28:37.2Z</time>
 </trkpt>
 <trkpt lat="45.422067" lon="3.853853">
 <time>2011-05-20T16:28:42.2Z</time>
 </trkpt>
 <trkpt lat="45.421414" lon="3.854123">
 <time>2011-05-20T16:28:47.2Z</time>
 </trkpt>
 <trkpt lat="45.420946" lon="3.855159">
 <time>2011-05-20T16:28:52.2Z</time>
 </trkpt>
 <trkpt lat="45.420496" lon="3.856771">
 <time>2011-05-20T16:28:57.2Z</time>
 </trkpt>
 <trkpt lat="45.420202" lon="3.857655">
 <time>2011-05-20T16:29:02Z</time>
 </trkpt>
 <trkpt lat="45.420143" lon="3.858136">
 <time>2011-05-20T16:29:06.2Z</time>
 </trkpt>
 <trkpt lat="45.420416" lon="3.859143">
 <time>2011-05-20T16:29:11.2Z</time>
 </trkpt>
 <trkpt lat="45.420971" lon="3.859597">
 <time>2011-05-20T16:29:15.2Z</time>
 </trkpt>
 <trkpt lat="45.422274" lon="3.860119">
 <time>2011-05-20T16:29:24.2Z</time>
 </trkpt>
 <trkpt lat="45.42358" lon="3.860446">
 <time>2011-05-20T16:29:31.2Z</time>
 </trkpt>
 <trkpt lat="45.424091" lon="3.860717">
 <time>2011-05-20T16:29:35.2Z</time>
 </trkpt>
 <trkpt lat="45.424525" lon="3.861405">
 <time>2011-05-20T16:29:40.2Z</time>
 </trkpt>
 <trkpt lat="45.424133" lon="3.862394">
 <time>2011-05-20T16:29:45.2Z</time>
 </trkpt>
 <trkpt lat="45.424131" lon="3.863405">
 <time>2011-05-20T16:29:50.2Z</time>
 </trkpt>
 <trkpt lat="45.424413" lon="3.864683">
 <time>2011-05-20T16:29:55.2Z</time>
 </trkpt>
 <trkpt lat="45.424842" lon="3.865623">
 <time>2011-05-20T16:30:00.2Z</time>
 </trkpt>
 <trkpt lat="45.425148" lon="3.866418">
 <time>2011-05-20T16:30:05.2Z</time>
 </trkpt>
 <trkpt lat="45.424721" lon="3.867204">
 <time>2011-05-20T16:30:10.2Z</time>
 </trkpt>
 <trkpt lat="45.423845" lon="3.868497">
 <time>2011-05-20T16:30:15.2Z</time>
 </trkpt>
 <trkpt lat="45.423392" lon="3.869324">
 <time>2011-05-20T16:30:20.2Z</time>
 </trkpt>
 <trkpt lat="45.423053" lon="3.870746">
 <time>2011-05-20T16:30:25.2Z</time>
 </trkpt>
 <trkpt lat="45.42257" lon="3.871843">
 <time>2011-05-20T16:30:30.2Z</time>
 </trkpt>
 <trkpt lat="45.421875" lon="3.872707">
 <time>2011-05-20T16:30:34.2Z</time>
 </trkpt>
 <trkpt lat="45.421122" lon="3.873487">
 <time>2011-05-20T16:30:38.2Z</time>
 </trkpt>
 <trkpt lat="45.420724" lon="3.874296">
 <time>2011-05-20T16:30:43.2Z</time>
 </trkpt>
 <trkpt lat="45.420808" lon="3.875443">
 <time>2011-05-20T16:30:48.2Z</time>
 </trkpt>
 <trkpt lat="45.421371" lon="3.87618">
 <time>2011-05-20T16:30:52.9Z</time>
 </trkpt>
 <trkpt lat="45.422114" lon="3.876702">
 <time>2011-05-20T16:30:57.2Z</time>
 </trkpt>
 <trkpt lat="45.423293" lon="3.87718">
 <time>2011-05-20T16:31:01.2Z</time>
 </trkpt>
 <trkpt lat="45.423998" lon="3.877117">
 <time>2011-05-20T16:31:06.2Z</time>
 </trkpt>
 <trkpt lat="45.424959" lon="3.876628">
 <time>2011-05-20T16:31:11.2Z</time>
 </trkpt>
 <trkpt lat="45.42551" lon="3.876021">
 <time>2011-05-20T16:31:15.2Z</time>
 </trkpt>
 <trkpt lat="45.426057" lon="3.875359">
 <time>2011-05-20T16:31:20.2Z</time>
 </trkpt>
 <trkpt lat="45.426809" lon="3.875065">
 <time>2011-05-20T16:31:25.2Z</time>
 </trkpt>
 <trkpt lat="45.427322" lon="3.875016">
 <time>2011-05-20T16:31:29.9Z</time>
 </trkpt>
 <trkpt lat="45.427253" lon="3.875539">
 <time>2011-05-20T16:31:34.2Z</time>
 </trkpt>
 <trkpt lat="45.426913" lon="3.876607">
 <time>2011-05-20T16:31:39.2Z</time>
 </trkpt>
 <trkpt lat="45.427036" lon="3.877528">
 <time>2011-05-20T16:31:44Z</time>
 </trkpt>
 <trkpt lat="45.427405" lon="3.877802">
 <time>2011-05-20T16:31:48.2Z</time>
 </trkpt>
 <trkpt lat="45.427889" lon="3.877724">
 <time>2011-05-20T16:31:52.2Z</time>
 </trkpt>
 <trkpt lat="45.428443" lon="3.877382">
 <time>2011-05-20T16:31:57.2Z</time>
 </trkpt>
 <trkpt lat="45.428764" lon="3.877699">
 <time>2011-05-20T16:32:01.2Z</time>
 </trkpt>
 <trkpt lat="45.429155" lon="3.879527">
 <time>2011-05-20T16:32:08.2Z</time>
 </trkpt>
 <trkpt lat="45.429287" lon="3.880585">
 <time>2011-05-20T16:32:13.2Z</time>
 </trkpt>
 <trkpt lat="45.429724" lon="3.88111">
 <time>2011-05-20T16:32:18.2Z</time>
 </trkpt>
 <trkpt lat="45.430523" lon="3.881613">
 <time>2011-05-20T16:32:22.2Z</time>
 </trkpt>
 <trkpt lat="45.431076" lon="3.882148">
 <time>2011-05-20T16:32:27.2Z</time>
 </trkpt>
 <trkpt lat="45.431257" lon="3.882937">
 <time>2011-05-20T16:32:32.2Z</time>
 </trkpt>
 <trkpt lat="45.431077" lon="3.884147">
 <time>2011-05-20T16:32:38.2Z</time>
 </trkpt>
 <trkpt lat="45.431385" lon="3.884691">
 <time>2011-05-20T16:32:43.2Z</time>
 </trkpt>
 <trkpt lat="45.431636" lon="3.885144">
 <time>2011-05-20T16:32:48.2Z</time>
 </trkpt>
 <trkpt lat="45.431786" lon="3.88512">
 <time>2011-05-20T16:33:45.2Z</time>
 </trkpt>
 <trkpt lat="45.432284" lon="3.884739">
 <time>2011-05-20T16:33:49.2Z</time>
 </trkpt>
 <trkpt lat="45.433286" lon="3.883821">
 <time>2011-05-20T16:33:57Z</time>
 </trkpt>
 <trkpt lat="45.43364" lon="3.883602">
 <time>2011-05-20T16:34:04.2Z</time>
 </trkpt>
 <trkpt lat="45.433783" lon="3.883486">
 <time>2011-05-20T16:34:25.9Z</time>
 </trkpt>
 <trkpt lat="45.434052" lon="3.883372">
 <time>2011-05-20T16:34:30.2Z</time>
 </trkpt>
 <trkpt lat="45.434633" lon="3.883125">
 <time>2011-05-20T16:34:35.2Z</time>
 </trkpt>
 <trkpt lat="45.43501" lon="3.88291">
 <time>2011-05-20T16:34:39.9Z</time>
 </trkpt>
 <trkpt lat="45.435354" lon="3.882605">
 <time>2011-05-20T16:34:43.2Z</time>
 </trkpt>
 <trkpt lat="45.435606" lon="3.882435">
 <time>2011-05-20T16:34:48.2Z</time>
 </trkpt>
 <trkpt lat="45.435941" lon="3.882545">
 <time>2011-05-20T16:34:53.2Z</time>
 </trkpt>
 <trkpt lat="45.436288" lon="3.883188">
 <time>2011-05-20T16:34:57.9Z</time>
 </trkpt>
 <trkpt lat="45.436009" lon="3.883999">
 <time>2011-05-20T16:35:02.1Z</time>
 </trkpt>
 <trkpt lat="45.435418" lon="3.884722">
 <time>2011-05-20T16:35:06.2Z</time>
 </trkpt>
 <trkpt lat="45.435284" lon="3.88573">
 <time>2011-05-20T16:35:10.2Z</time>
 </trkpt>
 <trkpt lat="45.435456" lon="3.886664">
 <time>2011-05-20T16:35:14.2Z</time>
 </trkpt>
 <trkpt lat="45.436166" lon="3.887488">
 <time>2011-05-20T16:35:19Z</time>
 </trkpt>
 <trkpt lat="45.436985" lon="3.887928">
 <time>2011-05-20T16:35:23.2Z</time>
 </trkpt>
 <trkpt lat="45.438097" lon="3.888076">
 <time>2011-05-20T16:35:28.2Z</time>
 </trkpt>
 <trkpt lat="45.439254" lon="3.888056">
 <time>2011-05-20T16:35:33.2Z</time>
 </trkpt>
 <trkpt lat="45.440538" lon="3.887756">
 <time>2011-05-20T16:35:38.2Z</time>
 </trkpt>
 <trkpt lat="45.441316" lon="3.887129">
 <time>2011-05-20T16:35:43.2Z</time>
 </trkpt>
 <trkpt lat="45.442351" lon="3.885899">
 <time>2011-05-20T16:35:48.2Z</time>
 </trkpt>
 <trkpt lat="45.443208" lon="3.885506">
 <time>2011-05-20T16:35:53.2Z</time>
 </trkpt>
 <trkpt lat="45.444073" lon="3.885276">
 <time>2011-05-20T16:35:57.2Z</time>
 </trkpt>
 <trkpt lat="45.444784" lon="3.884668">
 <time>2011-05-20T16:36:01.2Z</time>
 </trkpt>
 <trkpt lat="45.445361" lon="3.88322">
 <time>2011-05-20T16:36:06.2Z</time>
 </trkpt>
 <trkpt lat="45.446" lon="3.882178">
 <time>2011-05-20T16:36:11.2Z</time>
 </trkpt>
 <trkpt lat="45.44704" lon="3.882521">
 <time>2011-05-20T16:36:15.9Z</time>
 </trkpt>
 <trkpt lat="45.44796" lon="3.882888">
 <time>2011-05-20T16:36:20.2Z</time>
 </trkpt>
 <trkpt lat="45.448898" lon="3.88298">
 <time>2011-05-20T16:36:24.2Z</time>
 </trkpt>
 <trkpt lat="45.450227" lon="3.883271">
 <time>2011-05-20T16:36:28.9Z</time>
 </trkpt>
 <trkpt lat="45.451208" lon="3.883352">
 <time>2011-05-20T16:36:34.2Z</time>
 </trkpt>
 <trkpt lat="45.451937" lon="3.883357">
 <time>2011-05-20T16:36:39.2Z</time>
 </trkpt>
 <trkpt lat="45.453523" lon="3.883402">
 <time>2011-05-20T16:36:47Z</time>
 </trkpt>
 <trkpt lat="45.454182" lon="3.88356">
 <time>2011-05-20T16:36:52.2Z</time>
 </trkpt>
 <trkpt lat="45.454651" lon="3.884064">
 <time>2011-05-20T16:36:56.2Z</time>
 </trkpt>
 <trkpt lat="45.454947" lon="3.885387">
 <time>2011-05-20T16:37:01.9Z</time>
 </trkpt>
 <trkpt lat="45.455115" lon="3.886202">
 <time>2011-05-20T16:37:05.9Z</time>
 </trkpt>
 <trkpt lat="45.455415" lon="3.886931">
 <time>2011-05-20T16:37:10.2Z</time>
 </trkpt>
 <trkpt lat="45.455924" lon="3.887213">
 <time>2011-05-20T16:37:15.2Z</time>
 </trkpt>
 <trkpt lat="45.456622" lon="3.887366">
 <time>2011-05-20T16:37:20.2Z</time>
 </trkpt>
 <trkpt lat="45.457264" lon="3.887174">
 <time>2011-05-20T16:37:24.2Z</time>
 </trkpt>
 <trkpt lat="45.458047" lon="3.886732">
 <time>2011-05-20T16:37:28.2Z</time>
 </trkpt>
 <trkpt lat="45.45952" lon="3.885552">
 <time>2011-05-20T16:37:34.9Z</time>
 </trkpt>
 <trkpt lat="45.45999" lon="3.885463">
 <time>2011-05-20T16:37:38.9Z</time>
 </trkpt>
 <trkpt lat="45.460553" lon="3.886048">
 <time>2011-05-20T16:37:43.2Z</time>
 </trkpt>
 <trkpt lat="45.46136" lon="3.886952">
 <time>2011-05-20T16:37:47.9Z</time>
 </trkpt>
 <trkpt lat="45.462188" lon="3.886915">
 <time>2011-05-20T16:37:53.2Z</time>
 </trkpt>
 <trkpt lat="45.462873" lon="3.886345">
 <time>2011-05-20T16:37:58Z</time>
 </trkpt>
 <trkpt lat="45.463513" lon="3.887127">
 <time>2011-05-20T16:38:03.2Z</time>
 </trkpt>
 <trkpt lat="45.464273" lon="3.889139">
 <time>2011-05-20T16:38:08.2Z</time>
 </trkpt>
 <trkpt lat="45.464906" lon="3.889911">
 <time>2011-05-20T16:38:13.2Z</time>
 </trkpt>
 <trkpt lat="45.465721" lon="3.890483">
 <time>2011-05-20T16:38:17.2Z</time>
 </trkpt>
 <trkpt lat="45.466365" lon="3.891356">
 <time>2011-05-20T16:38:22.2Z</time>
 </trkpt>
 <trkpt lat="45.466615" lon="3.892663">
 <time>2011-05-20T16:38:27.2Z</time>
 </trkpt>
 <trkpt lat="45.467175" lon="3.893645">
 <time>2011-05-20T16:38:32.2Z</time>
 </trkpt>
 <trkpt lat="45.468062" lon="3.89417">
 <time>2011-05-20T16:38:37.2Z</time>
 </trkpt>
 <trkpt lat="45.468769" lon="3.894961">
 <time>2011-05-20T16:38:41.2Z</time>
 </trkpt>
 <trkpt lat="45.469571" lon="3.89513">
 <time>2011-05-20T16:38:46.2Z</time>
 </trkpt>
 <trkpt lat="45.470999" lon="3.895221">
 <time>2011-05-20T16:38:51.2Z</time>
 </trkpt>
 <trkpt lat="45.471606" lon="3.895662">
 <time>2011-05-20T16:38:56.2Z</time>
 </trkpt>
 <trkpt lat="45.471816" lon="3.89699">
 <time>2011-05-20T16:39:00.2Z</time>
 </trkpt>
 <trkpt lat="45.472246" lon="3.897834">
 <time>2011-05-20T16:39:05.2Z</time>
 </trkpt>
 <trkpt lat="45.473174" lon="3.898707">
 <time>2011-05-20T16:39:09.9Z</time>
 </trkpt>
 <trkpt lat="45.474694" lon="3.899644">
 <time>2011-05-20T16:39:15.2Z</time>
 </trkpt>
 <trkpt lat="45.475465" lon="3.899944">
 <time>2011-05-20T16:39:19.9Z</time>
 </trkpt>
 <trkpt lat="45.476456" lon="3.90005">
 <time>2011-05-20T16:39:24.2Z</time>
 </trkpt>
 <trkpt lat="45.477458" lon="3.900589">
 <time>2011-05-20T16:39:29.2Z</time>
 </trkpt>
 <trkpt lat="45.478292" lon="3.900728">
 <time>2011-05-20T16:39:34.2Z</time>
 </trkpt>
 <trkpt lat="45.47948" lon="3.900885">
 <time>2011-05-20T16:39:39.2Z</time>
 </trkpt>
 <trkpt lat="45.480479" lon="3.901259">
 <time>2011-05-20T16:39:44.2Z</time>
 </trkpt>
 <trkpt lat="45.481201" lon="3.901283">
 <time>2011-05-20T16:39:48.2Z</time>
 </trkpt>
 <trkpt lat="45.481867" lon="3.901083">
 <time>2011-05-20T16:39:52.2Z</time>
 </trkpt>
 <trkpt lat="45.482665" lon="3.900175">
 <time>2011-05-20T16:39:58.2Z</time>
 </trkpt>
 <trkpt lat="45.483443" lon="3.898926">
 <time>2011-05-20T16:40:03.2Z</time>
 </trkpt>
 <trkpt lat="45.484106" lon="3.898255">
 <time>2011-05-20T16:40:07.9Z</time>
 </trkpt>
 <trkpt lat="45.48468" lon="3.898087">
 <time>2011-05-20T16:40:11.9Z</time>
 </trkpt>
 <trkpt lat="45.4854" lon="3.898412">
 <time>2011-05-20T16:40:16.9Z</time>
 </trkpt>
 <trkpt lat="45.48611" lon="3.899435">
 <time>2011-05-20T16:40:21.9Z</time>
 </trkpt>
 <trkpt lat="45.487959" lon="3.902241">
 <time>2011-05-20T16:40:31.9Z</time>
 </trkpt>
 <trkpt lat="45.488598" lon="3.902725">
 <time>2011-05-20T16:40:36.9Z</time>
 </trkpt>
 <trkpt lat="45.489114" lon="3.903189">
 <time>2011-05-20T16:40:40.9Z</time>
 </trkpt>
 <trkpt lat="45.489414" lon="3.904012">
 <time>2011-05-20T16:40:45.9Z</time>
 </trkpt>
 <trkpt lat="45.489255" lon="3.905017">
 <time>2011-05-20T16:40:50.9Z</time>
 </trkpt>
 <trkpt lat="45.488903" lon="3.905957">
 <time>2011-05-20T16:40:54.9Z</time>
 </trkpt>
 <trkpt lat="45.488931" lon="3.906701">
 <time>2011-05-20T16:40:59.9Z</time>
 </trkpt>
 <trkpt lat="45.48938" lon="3.908077">
 <time>2011-05-20T16:41:04.9Z</time>
 </trkpt>
 <trkpt lat="45.489773" lon="3.909083">
 <time>2011-05-20T16:41:09.9Z</time>
 </trkpt>
 <trkpt lat="45.490469" lon="3.910267">
 <time>2011-05-20T16:41:14.9Z</time>
 </trkpt>
 <trkpt lat="45.491027" lon="3.911149">
 <time>2011-05-20T16:41:18.9Z</time>
 </trkpt>
 <trkpt lat="45.491493" lon="3.91198">
 <time>2011-05-20T16:41:22.9Z</time>
 </trkpt>
 <trkpt lat="45.492089" lon="3.912451">
 <time>2011-05-20T16:41:26.9Z</time>
 </trkpt>
 <trkpt lat="45.493462" lon="3.91313">
 <time>2011-05-20T16:41:32.9Z</time>
 </trkpt>
 <trkpt lat="45.493936" lon="3.913618">
 <time>2011-05-20T16:41:36.9Z</time>
 </trkpt>
 <trkpt lat="45.495967" lon="3.916669">
 <time>2011-05-20T16:41:47.9Z</time>
 </trkpt>
 <trkpt lat="45.496347" lon="3.917396">
 <time>2011-05-20T16:41:51.9Z</time>
 </trkpt>
 <trkpt lat="45.497119" lon="3.919682">
 <time>2011-05-20T16:41:58.9Z</time>
 </trkpt>
 <trkpt lat="45.497519" lon="3.92034">
 <time>2011-05-20T16:42:02.9Z</time>
 </trkpt>
 <trkpt lat="45.497888" lon="3.920735">
 <time>2011-05-20T16:42:06.9Z</time>
 </trkpt>
 <trkpt lat="45.498864" lon="3.921841">
 <time>2011-05-20T16:42:13.9Z</time>
 </trkpt>
 <trkpt lat="45.499301" lon="3.92235">
 <time>2011-05-20T16:42:18.9Z</time>
 </trkpt>
 <trkpt lat="45.499918" lon="3.92254">
 <time>2011-05-20T16:42:24.2Z</time>
 </trkpt>
 <trkpt lat="45.500746" lon="3.922325">
 <time>2011-05-20T16:42:29Z</time>
 </trkpt>
 <trkpt lat="45.502717" lon="3.921776">
 <time>2011-05-20T16:42:39.9Z</time>
 </trkpt>
 <trkpt lat="45.507377" lon="3.921442">
 <time>2011-05-20T16:43:01.2Z</time>
 </trkpt>
 <trkpt lat="45.508351" lon="3.921552">
 <time>2011-05-20T16:43:06.9Z</time>
 </trkpt>
 <trkpt lat="45.509432" lon="3.922278">
 <time>2011-05-20T16:43:11.9Z</time>
 </trkpt>
 <trkpt lat="45.510059" lon="3.922644">
 <time>2011-05-20T16:43:15.9Z</time>
 </trkpt>
 <trkpt lat="45.510704" lon="3.922572">
 <time>2011-05-20T16:43:20.9Z</time>
 </trkpt>
 <trkpt lat="45.511559" lon="3.922028">
 <time>2011-05-20T16:43:25.9Z</time>
 </trkpt>
 <trkpt lat="45.513078" lon="3.92171">
 <time>2011-05-20T16:43:31.9Z</time>
 </trkpt>
 <trkpt lat="45.513958" lon="3.92116">
 <time>2011-05-20T16:43:36.9Z</time>
 </trkpt>
 <trkpt lat="45.515048" lon="3.920334">
 <time>2011-05-20T16:43:41.9Z</time>
 </trkpt>
 <trkpt lat="45.519015" lon="3.918171">
 <time>2011-05-20T16:43:56.9Z</time>
 </trkpt>
 <trkpt lat="45.519949" lon="3.917922">
 <time>2011-05-20T16:44:00.9Z</time>
 </trkpt>
 <trkpt lat="45.525166" lon="3.91739">
 <time>2011-05-20T16:44:30.9Z</time>
 </trkpt>
 <trkpt lat="45.525595" lon="3.917394">
 <time>2011-05-20T16:44:35Z</time>
 </trkpt>
 <trkpt lat="45.526003" lon="3.917495">
 <time>2011-05-20T16:44:39Z</time>
 </trkpt>
 <trkpt lat="45.526491" lon="3.917721">
 <time>2011-05-20T16:44:44.2Z</time>
 </trkpt>
 <trkpt lat="45.526746" lon="3.917719">
 <time>2011-05-20T16:44:49.2Z</time>
 </trkpt>
 <trkpt lat="45.526961" lon="3.917613">
 <time>2011-05-20T16:44:54.2Z</time>
 </trkpt>
 <trkpt lat="45.527176" lon="3.917266">
 <time>2011-05-20T16:44:59.9Z</time>
 </trkpt>
 <trkpt lat="45.527281" lon="3.917146">
 <time>2011-05-20T16:45:04.2Z</time>
 </trkpt>
 <trkpt lat="45.527396" lon="3.917033">
 <time>2011-05-20T16:45:08.2Z</time>
 </trkpt>
 <trkpt lat="45.527578" lon="3.916894">
 <time>2011-05-20T16:45:14.2Z</time>
 </trkpt>
 <trkpt lat="45.527741" lon="3.916642">
 <time>2011-05-20T16:45:19.9Z</time>
 </trkpt>
 <trkpt lat="45.527837" lon="3.916496">
 <time>2011-05-20T16:45:24.2Z</time>
 </trkpt>
 <trkpt lat="45.527852" lon="3.916395">
 <time>2011-05-20T16:55:24.2Z</time>
 </trkpt>
 <trkpt lat="45.527981" lon="3.916227">
 <time>2011-05-20T16:58:59.2Z</time>
 </trkpt>
 <trkpt lat="45.528094" lon="3.916091">
 <time>2011-05-20T16:59:04Z</time>
 </trkpt>
 <trkpt lat="45.528234" lon="3.916048">
 <time>2011-05-20T16:59:08.9Z</time>
 </trkpt>
 <trkpt lat="45.528576" lon="3.916263">
 <time>2011-05-20T16:59:14.2Z</time>
 </trkpt>
 <trkpt lat="45.528893" lon="3.916688">
 <time>2011-05-20T16:59:18.2Z</time>
 </trkpt>
 <trkpt lat="45.529279" lon="3.917624">
 <time>2011-05-20T16:59:23.9Z</time>
 </trkpt>
 <trkpt lat="45.529492" lon="3.918364">
 <time>2011-05-20T16:59:27.9Z</time>
 </trkpt>
 <trkpt lat="45.529679" lon="3.919338">
 <time>2011-05-20T16:59:32.9Z</time>
 </trkpt>
 <trkpt lat="45.529898" lon="3.919769">
 <time>2011-05-20T16:59:37.9Z</time>
 </trkpt>
 <trkpt lat="45.530213" lon="3.919958">
 <time>2011-05-20T16:59:41.2Z</time>
 </trkpt>
 <trkpt lat="45.531024" lon="3.920318">
 <time>2011-05-20T16:59:46.9Z</time>
 </trkpt>
 <trkpt lat="45.531602" lon="3.920952">
 <time>2011-05-20T16:59:51.9Z</time>
 </trkpt>
 <trkpt lat="45.532065" lon="3.921546">
 <time>2011-05-20T16:59:56.9Z</time>
 </trkpt>
 <trkpt lat="45.532677" lon="3.921614">
 <time>2011-05-20T17:00:01.9Z</time>
 </trkpt>
 <trkpt lat="45.533316" lon="3.921569">
 <time>2011-05-20T17:00:06.2Z</time>
 </trkpt>
 <trkpt lat="45.534056" lon="3.922013">
 <time>2011-05-20T17:00:10.9Z</time>
 </trkpt>
 <trkpt lat="45.534761" lon="3.922878">
 <time>2011-05-20T17:00:15.9Z</time>
 </trkpt>
 <trkpt lat="45.535639" lon="3.924371">
 <time>2011-05-20T17:00:20.9Z</time>
 </trkpt>
 <trkpt lat="45.535988" lon="3.925276">
 <time>2011-05-20T17:00:25.9Z</time>
 </trkpt>
 <trkpt lat="45.53594" lon="3.926396">
 <time>2011-05-20T17:00:30.9Z</time>
 </trkpt>
 <trkpt lat="45.536003" lon="3.927366">
 <time>2011-05-20T17:00:34.9Z</time>
 </trkpt>
 <trkpt lat="45.536576" lon="3.928523">
 <time>2011-05-20T17:00:39.9Z</time>
 </trkpt>
 <trkpt lat="45.537202" lon="3.929782">
 <time>2011-05-20T17:00:44.9Z</time>
 </trkpt>
 <trkpt lat="45.537708" lon="3.930772">
 <time>2011-05-20T17:00:49.9Z</time>
 </trkpt>
 <trkpt lat="45.539294" lon="3.931865">
 <time>2011-05-20T17:00:57.9Z</time>
 </trkpt>
 <trkpt lat="45.53977" lon="3.932115">
 <time>2011-05-20T17:01:01.9Z</time>
 </trkpt>
 <trkpt lat="45.540456" lon="3.932433">
 <time>2011-05-20T17:01:06.2Z</time>
 </trkpt>
 <trkpt lat="45.541267" lon="3.933417">
 <time>2011-05-20T17:01:11Z</time>
 </trkpt>
 <trkpt lat="45.541964" lon="3.933932">
 <time>2011-05-20T17:01:15.9Z</time>
 </trkpt>
 <trkpt lat="45.544294" lon="3.935104">
 <time>2011-05-20T17:01:24.9Z</time>
 </trkpt>
 <trkpt lat="45.544941" lon="3.935069">
 <time>2011-05-20T17:01:29.9Z</time>
 </trkpt>
 <trkpt lat="45.545552" lon="3.93458">
 <time>2011-05-20T17:01:34.9Z</time>
 </trkpt>
 <trkpt lat="45.54605" lon="3.934911">
 <time>2011-05-20T17:01:39.9Z</time>
 </trkpt>
 <trkpt lat="45.546831" lon="3.935686">
 <time>2011-05-20T17:01:44.9Z</time>
 </trkpt>
 <trkpt lat="45.547415" lon="3.936227">
 <time>2011-05-20T17:01:48.9Z</time>
 </trkpt>
 <trkpt lat="45.547563" lon="3.936887">
 <time>2011-05-20T17:01:53.9Z</time>
 </trkpt>
 <trkpt lat="45.547274" lon="3.937373">
 <time>2011-05-20T17:01:58.2Z</time>
 </trkpt>
 <trkpt lat="45.546457" lon="3.937368">
 <time>2011-05-20T17:02:02.9Z</time>
 </trkpt>
 <trkpt lat="45.545461" lon="3.937616">
 <time>2011-05-20T17:02:07.9Z</time>
 </trkpt>
 <trkpt lat="45.544499" lon="3.938283">
 <time>2011-05-20T17:02:12.9Z</time>
 </trkpt>
 <trkpt lat="45.543918" lon="3.939048">
 <time>2011-05-20T17:02:17.9Z</time>
 </trkpt>
 <trkpt lat="45.544077" lon="3.94008">
 <time>2011-05-20T17:02:22.9Z</time>
 </trkpt>
 <trkpt lat="45.544192" lon="3.941015">
 <time>2011-05-20T17:02:27.9Z</time>
 </trkpt>
 <trkpt lat="45.543738" lon="3.941765">
 <time>2011-05-20T17:02:32.9Z</time>
 </trkpt>
 <trkpt lat="45.54273" lon="3.942663">
 <time>2011-05-20T17:02:37.9Z</time>
 </trkpt>
 <trkpt lat="45.541895" lon="3.943261">
 <time>2011-05-20T17:02:42.9Z</time>
 </trkpt>
 <trkpt lat="45.541091" lon="3.943552">
 <time>2011-05-20T17:02:47.2Z</time>
 </trkpt>
 <trkpt lat="45.540177" lon="3.943651">
 <time>2011-05-20T17:02:51.9Z</time>
 </trkpt>
 <trkpt lat="45.539881" lon="3.944184">
 <time>2011-05-20T17:02:56.9Z</time>
 </trkpt>
 <trkpt lat="45.540115" lon="3.94507">
 <time>2011-05-20T17:03:01.9Z</time>
 </trkpt>
 <trkpt lat="45.540978" lon="3.945639">
 <time>2011-05-20T17:03:05.9Z</time>
 </trkpt>
 <trkpt lat="45.541879" lon="3.946134">
 <time>2011-05-20T17:03:10.9Z</time>
 </trkpt>
 <trkpt lat="45.542856" lon="3.946928">
 <time>2011-05-20T17:03:15.9Z</time>
 </trkpt>
 <trkpt lat="45.543371" lon="3.947687">
 <time>2011-05-20T17:03:19.9Z</time>
 </trkpt>
 <trkpt lat="45.545359" lon="3.951921">
 <time>2011-05-20T17:03:33.9Z</time>
 </trkpt>
 <trkpt lat="45.545602" lon="3.952756">
 <time>2011-05-20T17:03:37.9Z</time>
 </trkpt>
 <trkpt lat="45.545487" lon="3.953816">
 <time>2011-05-20T17:03:42.9Z</time>
 </trkpt>
 <trkpt lat="45.544842" lon="3.957475">
 <time>2011-05-20T17:03:52.9Z</time>
 </trkpt>
 <trkpt lat="45.54494" lon="3.958065">
 <time>2011-05-20T17:03:58.2Z</time>
 </trkpt>
 <trkpt lat="45.545777" lon="3.959611">
 <time>2011-05-20T17:04:03.9Z</time>
 </trkpt>
 <trkpt lat="45.546469" lon="3.9608">
 <time>2011-05-20T17:04:08.9Z</time>
 </trkpt>
 <trkpt lat="45.546763" lon="3.962133">
 <time>2011-05-20T17:04:13.9Z</time>
 </trkpt>
 <trkpt lat="45.5468" lon="3.963597">
 <time>2011-05-20T17:04:18.9Z</time>
 </trkpt>
 <trkpt lat="45.54702" lon="3.964511">
 <time>2011-05-20T17:04:23Z</time>
 </trkpt>
 <trkpt lat="45.547489" lon="3.965228">
 <time>2011-05-20T17:04:27.9Z</time>
 </trkpt>
 <trkpt lat="45.54791" lon="3.965487">
 <time>2011-05-20T17:04:31.9Z</time>
 </trkpt>
 <trkpt lat="45.548141" lon="3.966089">
 <time>2011-05-20T17:04:36.2Z</time>
 </trkpt>
 <trkpt lat="45.548332" lon="3.96717">
 <time>2011-05-20T17:04:41.2Z</time>
 </trkpt>
 <trkpt lat="45.548976" lon="3.96787">
 <time>2011-05-20T17:04:46.2Z</time>
 </trkpt>
 <trkpt lat="45.551002" lon="3.96929">
 <time>2011-05-20T17:04:56.2Z</time>
 </trkpt>
 <trkpt lat="45.551685" lon="3.969058">
 <time>2011-05-20T17:05:01.2Z</time>
 </trkpt>
 <trkpt lat="45.552195" lon="3.968136">
 <time>2011-05-20T17:05:06.2Z</time>
 </trkpt>
 <trkpt lat="45.55291" lon="3.967615">
 <time>2011-05-20T17:05:11.2Z</time>
 </trkpt>
 <trkpt lat="45.553661" lon="3.967855">
 <time>2011-05-20T17:05:16.2Z</time>
 </trkpt>
 <trkpt lat="45.554343" lon="3.967839">
 <time>2011-05-20T17:05:21.2Z</time>
 </trkpt>
 <trkpt lat="45.555081" lon="3.96764">
 <time>2011-05-20T17:05:25.9Z</time>
 </trkpt>
 <trkpt lat="45.555562" lon="3.968061">
 <time>2011-05-20T17:05:29.9Z</time>
 </trkpt>
 <trkpt lat="45.555425" lon="3.969244">
 <time>2011-05-20T17:05:34.9Z</time>
 </trkpt>
 <trkpt lat="45.555437" lon="3.97026">
 <time>2011-05-20T17:05:39.2Z</time>
 </trkpt>
 <trkpt lat="45.556097" lon="3.971332">
 <time>2011-05-20T17:05:43.9Z</time>
 </trkpt>
 <trkpt lat="45.556909" lon="3.971942">
 <time>2011-05-20T17:05:48.2Z</time>
 </trkpt>
 <trkpt lat="45.557709" lon="3.972142">
 <time>2011-05-20T17:05:52.2Z</time>
 </trkpt>
 <trkpt lat="45.558371" lon="3.971993">
 <time>2011-05-20T17:05:56.2Z</time>
 </trkpt>
 <trkpt lat="45.559088" lon="3.970815">
 <time>2011-05-20T17:06:01.9Z</time>
 </trkpt>
 <trkpt lat="45.559456" lon="3.969534">
 <time>2011-05-20T17:06:05.9Z</time>
 </trkpt>
 <trkpt lat="45.559904" lon="3.968477">
 <time>2011-05-20T17:06:11.2Z</time>
 </trkpt>
 <trkpt lat="45.560033" lon="3.968241">
 <time>2011-05-20T17:06:16.2Z</time>
 </trkpt>
 <trkpt lat="45.560864" lon="3.968633">
 <time>2011-05-20T17:06:21.2Z</time>
 </trkpt>
 <trkpt lat="45.561717" lon="3.968555">
 <time>2011-05-20T17:06:26.2Z</time>
 </trkpt>
 <trkpt lat="45.562742" lon="3.968397">
 <time>2011-05-20T17:06:31.2Z</time>
 </trkpt>
 <trkpt lat="45.56345" lon="3.968316">
 <time>2011-05-20T17:06:35.2Z</time>
 </trkpt>
 <trkpt lat="45.564036" lon="3.967489">
 <time>2011-05-20T17:06:40.2Z</time>
 </trkpt>
 <trkpt lat="45.564104" lon="3.966618">
 <time>2011-05-20T17:06:44.9Z</time>
 </trkpt>
 <trkpt lat="45.5642" lon="3.966366">
 <time>2011-05-20T17:06:49.2Z</time>
 </trkpt>
 <trkpt lat="45.564633" lon="3.966956">
 <time>2011-05-20T17:06:54Z</time>
 </trkpt>
 <trkpt lat="45.564971" lon="3.968018">
 <time>2011-05-20T17:06:58.2Z</time>
 </trkpt>
 <trkpt lat="45.565217" lon="3.968519">
 <time>2011-05-20T17:07:03.9Z</time>
 </trkpt>
 <trkpt lat="45.565828" lon="3.968568">
 <time>2011-05-20T17:07:09Z</time>
 </trkpt>
 <trkpt lat="45.566095" lon="3.968711">
 <time>2011-05-20T17:07:13.2Z</time>
 </trkpt>
 <trkpt lat="45.566491" lon="3.969385">
 <time>2011-05-20T17:07:17.9Z</time>
 </trkpt>
 <trkpt lat="45.566656" lon="3.970194">
 <time>2011-05-20T17:07:22.2Z</time>
 </trkpt>
 <trkpt lat="45.566809" lon="3.97148">
 <time>2011-05-20T17:07:27.2Z</time>
 </trkpt>
 <trkpt lat="45.567065" lon="3.97291">
 <time>2011-05-20T17:07:32.2Z</time>
 </trkpt>
 <trkpt lat="45.567397" lon="3.973445">
 <time>2011-05-20T17:07:36.9Z</time>
 </trkpt>
 <trkpt lat="45.568175" lon="3.973648">
 <time>2011-05-20T17:07:41.2Z</time>
 </trkpt>
 <trkpt lat="45.569123" lon="3.973494">
 <time>2011-05-20T17:07:46.2Z</time>
 </trkpt>
 <trkpt lat="45.569768" lon="3.974037">
 <time>2011-05-20T17:07:50.2Z</time>
 </trkpt>
 <trkpt lat="45.570155" lon="3.97502">
 <time>2011-05-20T17:07:54.9Z</time>
 </trkpt>
 <trkpt lat="45.570552" lon="3.975858">
 <time>2011-05-20T17:07:59.2Z</time>
 </trkpt>
 <trkpt lat="45.571318" lon="3.976452">
 <time>2011-05-20T17:08:03.9Z</time>
 </trkpt>
 <trkpt lat="45.571921" lon="3.976981">
 <time>2011-05-20T17:08:09.2Z</time>
 </trkpt>
 <trkpt lat="45.571619" lon="3.977632">
 <time>2011-05-20T17:08:13.2Z</time>
 </trkpt>
 <trkpt lat="45.571352" lon="3.978369">
 <time>2011-05-20T17:08:18.2Z</time>
 </trkpt>
 <trkpt lat="45.571691" lon="3.978951">
 <time>2011-05-20T17:08:23.2Z</time>
 </trkpt>
 <trkpt lat="45.571904" lon="3.979724">
 <time>2011-05-20T17:08:27.2Z</time>
 </trkpt>
 <trkpt lat="45.571727" lon="3.980819">
 <time>2011-05-20T17:08:32.2Z</time>
 </trkpt>
 <trkpt lat="45.571448" lon="3.981568">
 <time>2011-05-20T17:08:36.9Z</time>
 </trkpt>
 <trkpt lat="45.571528" lon="3.982929">
 <time>2011-05-20T17:08:40.9Z</time>
 </trkpt>
 <trkpt lat="45.571763" lon="3.983878">
 <time>2011-05-20T17:08:45.9Z</time>
 </trkpt>
 <trkpt lat="45.572431" lon="3.984594">
 <time>2011-05-20T17:08:50.9Z</time>
 </trkpt>
 <trkpt lat="45.573345" lon="3.985524">
 <time>2011-05-20T17:08:55.9Z</time>
 </trkpt>
 <trkpt lat="45.574087" lon="3.986201">
 <time>2011-05-20T17:08:59.9Z</time>
 </trkpt>
 <trkpt lat="45.576958" lon="3.988781">
 <time>2011-05-20T17:09:14.2Z</time>
 </trkpt>
 <trkpt lat="45.577647" lon="3.989121">
 <time>2011-05-20T17:09:19Z</time>
 </trkpt>
 <trkpt lat="45.578165" lon="3.989551">
 <time>2011-05-20T17:09:23.9Z</time>
 </trkpt>
 <trkpt lat="45.578363" lon="3.990297">
 <time>2011-05-20T17:09:27.9Z</time>
 </trkpt>
 <trkpt lat="45.578417" lon="3.991207">
 <time>2011-05-20T17:09:32.9Z</time>
 </trkpt>
 <trkpt lat="45.578449" lon="3.992046">
 <time>2011-05-20T17:09:37.9Z</time>
 </trkpt>
 <trkpt lat="45.577915" lon="3.992892">
 <time>2011-05-20T17:09:42.9Z</time>
 </trkpt>
 <trkpt lat="45.577217" lon="3.993874">
 <time>2011-05-20T17:09:47.9Z</time>
 </trkpt>
 <trkpt lat="45.576913" lon="3.995062">
 <time>2011-05-20T17:09:52.9Z</time>
 </trkpt>
 <trkpt lat="45.576556" lon="3.996775">
 <time>2011-05-20T17:09:57.9Z</time>
 </trkpt>
 <trkpt lat="45.576199" lon="3.997321">
 <time>2011-05-20T17:10:01.9Z</time>
 </trkpt>
 <trkpt lat="45.575692" lon="3.997238">
 <time>2011-05-20T17:10:06.9Z</time>
 </trkpt>
 <trkpt lat="45.575089" lon="3.997346">
 <time>2011-05-20T17:10:10.9Z</time>
 </trkpt>
 <trkpt lat="45.574322" lon="3.998284">
 <time>2011-05-20T17:10:14.9Z</time>
 </trkpt>
 <trkpt lat="45.573903" lon="3.999335">
 <time>2011-05-20T17:10:19.9Z</time>
 </trkpt>
 <trkpt lat="45.573605" lon="4.000828">
 <time>2011-05-20T17:10:24.9Z</time>
 </trkpt>
 <trkpt lat="45.573137" lon="4.00206">
 <time>2011-05-20T17:10:29.9Z</time>
 </trkpt>
 <trkpt lat="45.572822" lon="4.003007">
 <time>2011-05-20T17:10:34.2Z</time>
 </trkpt>
 <trkpt lat="45.572919" lon="4.004304">
 <time>2011-05-20T17:10:39.9Z</time>
 </trkpt>
 <trkpt lat="45.572542" lon="4.004888">
 <time>2011-05-20T17:10:43.9Z</time>
 </trkpt>
 <trkpt lat="45.571749" lon="4.005532">
 <time>2011-05-20T17:10:48.9Z</time>
 </trkpt>
 <trkpt lat="45.571356" lon="4.006557">
 <time>2011-05-20T17:10:52.9Z</time>
 </trkpt>
 <trkpt lat="45.571366" lon="4.00782">
 <time>2011-05-20T17:10:57.9Z</time>
 </trkpt>
 <trkpt lat="45.571438" lon="4.008952">
 <time>2011-05-20T17:11:02.9Z</time>
 </trkpt>
 <trkpt lat="45.570904" lon="4.010132">
 <time>2011-05-20T17:11:06.9Z</time>
 </trkpt>
 <trkpt lat="45.57042" lon="4.010658">
 <time>2011-05-20T17:11:11.2Z</time>
 </trkpt>
 <trkpt lat="45.569675" lon="4.011395">
 <time>2011-05-20T17:11:15.9Z</time>
 </trkpt>
 <trkpt lat="45.569454" lon="4.012469">
 <time>2011-05-20T17:11:20.9Z</time>
 </trkpt>
 <trkpt lat="45.569578" lon="4.013855">
 <time>2011-05-20T17:11:25.9Z</time>
 </trkpt>
 <trkpt lat="45.569862" lon="4.01494">
 <time>2011-05-20T17:11:30.2Z</time>
 </trkpt>
 <trkpt lat="45.569689" lon="4.016061">
 <time>2011-05-20T17:11:35.9Z</time>
 </trkpt>
 <trkpt lat="45.569424" lon="4.017152">
 <time>2011-05-20T17:11:39.9Z</time>
 </trkpt>
 <trkpt lat="45.569485" lon="4.018447">
 <time>2011-05-20T17:11:44.9Z</time>
 </trkpt>
 <trkpt lat="45.569791" lon="4.019893">
 <time>2011-05-20T17:11:49.2Z</time>
 </trkpt>
 <trkpt lat="45.570041" lon="4.020569">
 <time>2011-05-20T17:11:53.2Z</time>
 </trkpt>
 <trkpt lat="45.570973" lon="4.021677">
 <time>2011-05-20T17:11:59.9Z</time>
 </trkpt>
 <trkpt lat="45.571579" lon="4.022076">
 <time>2011-05-20T17:12:05.2Z</time>
 </trkpt>
 <trkpt lat="45.572382" lon="4.022412">
 <time>2011-05-20T17:12:09.9Z</time>
 </trkpt>
 <trkpt lat="45.572846" lon="4.02302">
 <time>2011-05-20T17:12:13.9Z</time>
 </trkpt>
 <trkpt lat="45.573189" lon="4.023891">
 <time>2011-05-20T17:12:17.9Z</time>
 </trkpt>
 <trkpt lat="45.573055" lon="4.025041">
 <time>2011-05-20T17:12:22.9Z</time>
 </trkpt>
 <trkpt lat="45.572565" lon="4.026675">
 <time>2011-05-20T17:12:28.9Z</time>
 </trkpt>
 <trkpt lat="45.572492" lon="4.027399">
 <time>2011-05-20T17:12:32.9Z</time>
 </trkpt>
 <trkpt lat="45.572608" lon="4.028394">
 <time>2011-05-20T17:12:37.9Z</time>
 </trkpt>
 <trkpt lat="45.573146" lon="4.029795">
 <time>2011-05-20T17:12:43.9Z</time>
 </trkpt>
 <trkpt lat="45.573217" lon="4.030694">
 <time>2011-05-20T17:12:48.9Z</time>
 </trkpt>
 <trkpt lat="45.573171" lon="4.031974">
 <time>2011-05-20T17:12:52.9Z</time>
 </trkpt>
 <trkpt lat="45.573315" lon="4.032986">
 <time>2011-05-20T17:12:57.9Z</time>
 </trkpt>
 <trkpt lat="45.574141" lon="4.035047">
 <time>2011-05-20T17:13:04.9Z</time>
 </trkpt>
 <trkpt lat="45.574199" lon="4.035899">
 <time>2011-05-20T17:13:08.9Z</time>
 </trkpt>
 <trkpt lat="45.573982" lon="4.037472">
 <time>2011-05-20T17:13:13.9Z</time>
 </trkpt>
 <trkpt lat="45.573963" lon="4.038262">
 <time>2011-05-20T17:13:18.9Z</time>
 </trkpt>
 <trkpt lat="45.573587" lon="4.038872">
 <time>2011-05-20T17:13:23.9Z</time>
 </trkpt>
 <trkpt lat="45.573528" lon="4.039748">
 <time>2011-05-20T17:13:28.9Z</time>
 </trkpt>
 <trkpt lat="45.574188" lon="4.040757">
 <time>2011-05-20T17:13:33.2Z</time>
 </trkpt>
 <trkpt lat="45.575271" lon="4.041589">
 <time>2011-05-20T17:13:38.2Z</time>
 </trkpt>
 <trkpt lat="45.575999" lon="4.042521">
 <time>2011-05-20T17:13:43.9Z</time>
 </trkpt>
 <trkpt lat="45.576026" lon="4.043346">
 <time>2011-05-20T17:13:48.9Z</time>
 </trkpt>
 <trkpt lat="45.575827" lon="4.044128">
 <time>2011-05-20T17:13:51.9Z</time>
 </trkpt>
 </trkseg>
 <trkseg>
 <trkpt lat="45.575787" lon="4.044355">
 <time>2011-05-20T17:13:54.2Z</time>
 </trkpt>
 <trkpt lat="45.575671" lon="4.045481">
 <time>2011-05-20T17:13:58.9Z</time>
 </trkpt>
 <trkpt lat="45.575365" lon="4.045925">
 <time>2011-05-20T17:14:03.9Z</time>
 </trkpt>
 <trkpt lat="45.574987" lon="4.046459">
 <time>2011-05-20T17:14:07.9Z</time>
 </trkpt>
 <trkpt lat="45.575048" lon="4.047626">
 <time>2011-05-20T17:14:12.9Z</time>
 </trkpt>
 <trkpt lat="45.575202" lon="4.048482">
 <time>2011-05-20T17:14:16.9Z</time>
 </trkpt>
 <trkpt lat="45.575064" lon="4.049291">
 <time>2011-05-20T17:14:21.9Z</time>
 </trkpt>
 <trkpt lat="45.574466" lon="4.049404">
 <time>2011-05-20T17:14:25.9Z</time>
 </trkpt>
 <trkpt lat="45.57371" lon="4.049333">
 <time>2011-05-20T17:14:29.9Z</time>
 </trkpt>
 <trkpt lat="45.572986" lon="4.049401">
 <time>2011-05-20T17:14:34.9Z</time>
 </trkpt>
 <trkpt lat="45.572595" lon="4.049909">
 <time>2011-05-20T17:14:38.9Z</time>
 </trkpt>
 <trkpt lat="45.572171" lon="4.050356">
 <time>2011-05-20T17:14:43Z</time>
 </trkpt>
 <trkpt lat="45.571579" lon="4.050659">
 <time>2011-05-20T17:14:47.9Z</time>
 </trkpt>
 <trkpt lat="45.571338" lon="4.051346">
 <time>2011-05-20T17:14:51.9Z</time>
 </trkpt>
 <trkpt lat="45.570867" lon="4.052756">
 <time>2011-05-20T17:14:58.9Z</time>
 </trkpt>
 <trkpt lat="45.570712" lon="4.053578">
 <time>2011-05-20T17:15:03.9Z</time>
 </trkpt>
 <trkpt lat="45.570679" lon="4.054583">
 <time>2011-05-20T17:15:07.9Z</time>
 </trkpt>
 <trkpt lat="45.570682" lon="4.055083">
 <time>2011-05-20T17:15:12.9Z</time>
 </trkpt>
 <trkpt lat="45.570388" lon="4.055601">
 <time>2011-05-20T17:15:16.9Z</time>
 </trkpt>
 <trkpt lat="45.569807" lon="4.056481">
 <time>2011-05-20T17:15:20.9Z</time>
 </trkpt>
 <trkpt lat="45.569538" lon="4.057229">
 <time>2011-05-20T17:15:25.9Z</time>
 </trkpt>
 <trkpt lat="45.569319" lon="4.058274">
 <time>2011-05-20T17:15:30.9Z</time>
 </trkpt>
 <trkpt lat="45.569095" lon="4.058649">
 <time>2011-05-20T17:15:35.9Z</time>
 </trkpt>
 <trkpt lat="45.568823" lon="4.05871">
 <time>2011-05-20T17:15:39.9Z</time>
 </trkpt>
 <trkpt lat="45.568614" lon="4.059211">
 <time>2011-05-20T17:15:44.9Z</time>
 </trkpt>
 <trkpt lat="45.568199" lon="4.059732">
 <time>2011-05-20T17:15:49.9Z</time>
 </trkpt>
 <trkpt lat="45.567976" lon="4.060296">
 <time>2011-05-20T17:15:53.9Z</time>
 </trkpt>
 <trkpt lat="45.567809" lon="4.060469">
 <time>2011-05-20T17:15:58.2Z</time>
 </trkpt>
 <trkpt lat="45.567591" lon="4.060819">
 <time>2011-05-20T17:16:03.9Z</time>
 </trkpt>
 <trkpt lat="45.567339" lon="4.061028">
 <time>2011-05-20T17:16:07.9Z</time>
 </trkpt>
 <trkpt lat="45.566973" lon="4.061098">
 <time>2011-05-20T17:16:11.9Z</time>
 </trkpt>
 <trkpt lat="45.566901" lon="4.061544">
 <time>2011-05-20T17:16:16.9Z</time>
 </trkpt>
 <trkpt lat="45.566919" lon="4.062184">
 <time>2011-05-20T17:16:21.9Z</time>
 </trkpt>
 <trkpt lat="45.566736" lon="4.062861">
 <time>2011-05-20T17:16:25.9Z</time>
 </trkpt>
 <trkpt lat="45.566541" lon="4.063673">
 <time>2011-05-20T17:16:29.9Z</time>
 </trkpt>
 <trkpt lat="45.566419" lon="4.064087">
 <time>2011-05-20T17:16:30.9Z</time>
 </trkpt>
 </trkseg>
 <trkseg>
 <trkpt lat="45.566348" lon="4.064324">
 <time>2011-05-20T17:16:33Z</time>
 </trkpt>
 <trkpt lat="45.56599" lon="4.065151">
 <time>2011-05-20T17:16:36.9Z</time>
 </trkpt>
 <trkpt lat="45.565736" lon="4.065566">
 <time>2011-05-20T17:16:40.9Z</time>
 </trkpt>
 <trkpt lat="45.565623" lon="4.066345">
 <time>2011-05-20T17:16:45.9Z</time>
 </trkpt>
 <trkpt lat="45.565603" lon="4.06732">
 <time>2011-05-20T17:16:49.9Z</time>
 </trkpt>
 <trkpt lat="45.565227" lon="4.068245">
 <time>2011-05-20T17:16:54.9Z</time>
 </trkpt>
 <trkpt lat="45.564214" lon="4.070759">
 <time>2011-05-20T17:17:04.2Z</time>
 </trkpt>
 <trkpt lat="45.563993" lon="4.071192">
 <time>2011-05-20T17:17:09.2Z</time>
 </trkpt>
 <trkpt lat="45.564033" lon="4.071459">
 <time>2011-05-20T17:17:13.2Z</time>
 </trkpt>
 <trkpt lat="45.563812" lon="4.071618">
 <time>2011-05-20T17:17:17.9Z</time>
 </trkpt>
 <trkpt lat="45.563528" lon="4.071761">
 <time>2011-05-20T17:17:22.9Z</time>
 </trkpt>
 <trkpt lat="45.563166" lon="4.071814">
 <time>2011-05-20T17:17:27.9Z</time>
 </trkpt>
 <trkpt lat="45.562777" lon="4.071969">
 <time>2011-05-20T17:17:32.9Z</time>
 </trkpt>
 <trkpt lat="45.562388" lon="4.072142">
 <time>2011-05-20T17:17:38.2Z</time>
 </trkpt>
 <trkpt lat="45.562307" lon="4.072622">
 <time>2011-05-20T17:17:43.9Z</time>
 </trkpt>
 <trkpt lat="45.56242" lon="4.073415">
 <time>2011-05-20T17:17:48.9Z</time>
 </trkpt>
 <trkpt lat="45.562515" lon="4.074001">
 <time>2011-05-20T17:17:52.9Z</time>
 </trkpt>
 <trkpt lat="45.562503" lon="4.074777">
 <time>2011-05-20T17:17:57.9Z</time>
 </trkpt>
 <trkpt lat="45.562459" lon="4.075706">
 <time>2011-05-20T17:18:03.9Z</time>
 </trkpt>
 <trkpt lat="45.562353" lon="4.075917">
 <time>2011-05-20T17:18:20.9Z</time>
 </trkpt>
 <trkpt lat="45.561565" lon="4.077182">
 <time>2011-05-20T17:18:30.9Z</time>
 </trkpt>
 <trkpt lat="45.561137" lon="4.077818">
 <time>2011-05-20T17:18:37.2Z</time>
 </trkpt>
 <trkpt lat="45.561136" lon="4.078373">
 <time>2011-05-20T17:18:41.9Z</time>
 </trkpt>
 <trkpt lat="45.561317" lon="4.079234">
 <time>2011-05-20T17:18:46.9Z</time>
 </trkpt>
 <trkpt lat="45.561414" lon="4.079561">
 <time>2011-05-20T17:18:51.9Z</time>
 </trkpt>
 <trkpt lat="45.561509" lon="4.080056">
 <time>2011-05-20T17:18:56.9Z</time>
 </trkpt>
 <trkpt lat="45.561564" lon="4.081105">
 <time>2011-05-20T17:19:01.9Z</time>
 </trkpt>
 <trkpt lat="45.561503" lon="4.081599">
 <time>2011-05-20T17:19:06.2Z</time>
 </trkpt>
 <trkpt lat="45.561497" lon="4.081793">
 <time>2011-05-20T17:19:15.9Z</time>
 </trkpt>
 <trkpt lat="45.561607" lon="4.081762">
 <time>2011-05-20T17:29:16.2Z</time>
 </trkpt>
 </trkseg>
 </trk>
</gpx>